ftp/pub/mcmurdo/arrivalheights/2017/03162017_DOWNLOAD.TXT

Download

		Temp	Hi	Low	Out	Dew	Wind	Wind	Wind	Hi	Wind	Heat	THW		Heat	Cool	In 	In	Arc.
Date	Time	Out	Temp	Temp	Hum	Pt.	Speed	Dir	Run	Speed	Chill	Index	Index	Bar  	D-D 	D-D 	Temp	Hum	Int.
03/15/17	12:01 a	-24.0	-24.0	-24.1	---	---	44.3	ESE	0.74	47.8	-44.0	---	---	726.6	0.029	0.000	16.0	90	1
03/15/17	12:02 a	-24.0	-23.9	-24.0	---	---	43.5	ESE	0.72	47.0	-43.8	---	---	726.7	0.029	0.000	16.0	89	1
03/15/17	12:03 a	-23.9	-23.9	-24.0	---	---	44.3	ESE	0.74	48.7	-43.9	---	---	726.7	0.029	0.000	16.0	89	1
03/15/17	12:04 a	-23.9	-23.9	-23.9	---	---	43.5	ESE	0.72	47.0	-43.8	---	---	726.9	0.029	0.000	16.0	92	1
03/15/17	12:05 a	-23.9	-23.9	-23.9	---	---	40.9	ESE	0.68	45.2	-43.3	---	---	726.8	0.029	0.000	16.0	92	1
03/15/17	12:06 a	-23.9	-23.9	-23.9	---	---	41.7	ESE	0.70	44.3	-43.5	---	---	726.9	0.029	0.000	16.0	92	1
03/15/17	12:07 a	-23.9	-23.9	-23.9	---	---	41.7	ESE	0.70	46.1	-43.4	---	---	726.8	0.029	0.000	16.0	92	1
03/15/17	12:08 a	-23.9	-23.9	-23.9	---	---	41.7	ESE	0.70	44.3	-43.4	---	---	726.8	0.029	0.000	16.0	92	1
03/15/17	12:09 a	-23.8	-23.8	-23.9	---	---	40.9	ESE	0.68	46.1	-43.2	---	---	726.9	0.029	0.000	16.0	92	1
03/15/17	12:10 a	-23.8	-23.8	-23.8	---	---	41.7	ESE	0.70	45.2	-43.3	---	---	726.9	0.029	0.000	16.0	93	1
03/15/17	12:11 a	-23.8	-23.8	-23.8	---	---	42.6	ESE	0.71	45.2	-43.5	---	---	726.9	0.029	0.000	16.0	92	1
03/15/17	12:12 a	-23.8	-23.8	-23.8	---	---	40.9	ESE	0.68	44.3	-43.2	---	---	726.9	0.029	0.000	16.0	92	1
03/15/17	12:13 a	-23.8	-23.8	-23.8	---	---	40.9	ESE	0.68	45.2	-43.2	---	---	726.9	0.029	0.000	16.0	92	1
03/15/17	12:14 a	-23.8	-23.8	-23.8	---	---	41.7	ESE	0.70	46.1	-43.3	---	---	726.9	0.029	0.000	16.0	92	1
03/15/17	12:15 a	-23.8	-23.7	-23.8	---	---	41.7	ESE	0.70	45.2	-43.3	---	---	726.7	0.029	0.000	16.0	92	1
03/15/17	12:16 a	-23.8	-23.8	-23.8	---	---	42.6	ESE	0.71	45.2	-43.4	---	---	726.7	0.029	0.000	16.0	92	1
03/15/17	12:17 a	-23.8	-23.7	-23.8	---	---	42.6	ESE	0.71	47.0	-43.4	---	---	726.7	0.029	0.000	16.0	92	1
03/15/17	12:18 a	-23.7	-23.7	-23.8	---	---	43.5	ESE	0.72	47.0	-43.4	---	---	726.7	0.029	0.000	16.0	91	1
03/15/17	12:19 a	-23.7	-23.7	-23.8	---	---	43.5	ESE	0.72	47.8	-43.4	---	---	726.6	0.029	0.000	15.9	88	1
03/15/17	12:20 a	-23.7	-23.7	-23.8	---	---	42.6	ESE	0.71	47.0	-43.3	---	---	726.6	0.029	0.000	15.9	92	1
03/15/17	12:21 a	-23.7	-23.7	-23.7	---	---	44.3	ESE	0.74	48.7	-43.6	---	---	726.6	0.029	0.000	15.9	91	1
03/15/17	12:22 a	-23.7	-23.7	-23.8	---	---	45.2	ESE	0.75	47.0	-43.7	---	---	726.6	0.029	0.000	15.9	90	1
03/15/17	12:23 a	-23.7	-23.7	-23.7	---	---	44.3	ESE	0.74	48.7	-43.6	---	---	726.6	0.029	0.000	15.9	89	1
03/15/17	12:24 a	-23.7	-23.7	-23.8	---	---	44.3	ESE	0.74	47.8	-43.6	---	---	726.6	0.029	0.000	15.9	92	1
03/15/17	12:25 a	-23.7	-23.7	-23.7	---	---	43.5	ESE	0.72	46.1	-43.4	---	---	726.7	0.029	0.000	15.9	92	1
03/15/17	12:26 a	-23.7	-23.7	-23.8	---	---	43.5	ESE	0.72	47.0	-43.4	---	---	726.7	0.029	0.000	15.9	92	1
03/15/17	12:27 a	-23.7	-23.7	-23.8	---	---	40.9	ESE	0.68	45.2	-43.1	---	---	726.7	0.029	0.000	15.9	92	1
03/15/17	12:28 a	-23.7	-23.7	-23.8	---	---	43.5	ESE	0.72	46.1	-43.4	---	---	726.8	0.029	0.000	15.9	92	1
03/15/17	12:29 a	-23.7	-23.7	-23.7	---	---	43.5	ESE	0.72	46.1	-43.4	---	---	726.7	0.029	0.000	15.9	91	1
03/15/17	12:30 a	-23.7	-23.7	-23.7	---	---	41.7	ESE	0.70	44.3	-43.2	---	---	726.8	0.029	0.000	15.9	92	1
03/15/17	12:31 a	-23.7	-23.7	-23.8	---	---	40.9	ESE	0.68	44.3	-43.1	---	---	726.8	0.029	0.000	15.9	92	1
03/15/17	12:32 a	-23.7	-23.7	-23.8	---	---	41.7	ESE	0.70	45.2	-43.2	---	---	726.8	0.029	0.000	15.9	92	1
03/15/17	12:33 a	-23.8	-23.8	-23.8	---	---	41.7	ESE	0.70	45.2	-43.3	---	---	726.7	0.029	0.000	15.9	92	1
03/15/17	12:34 a	-23.8	-23.8	-23.8	---	---	42.6	ESE	0.71	45.2	-43.5	---	---	726.7	0.029	0.000	15.9	91	1
03/15/17	12:35 a	-23.8	-23.8	-23.9	---	---	41.7	ESE	0.70	46.1	-43.3	---	---	726.8	0.029	0.000	15.9	90	1
03/15/17	12:36 a	-23.9	-23.8	-23.9	---	---	41.7	ESE	0.70	46.1	-43.4	---	---	726.7	0.029	0.000	15.9	90	1
03/15/17	12:37 a	-23.9	-23.9	-23.9	---	---	44.3	ESE	0.74	47.8	-43.8	---	---	726.7	0.029	0.000	15.9	92	1
03/15/17	12:38 a	-23.9	-23.9	-24.0	---	---	42.6	ESE	0.71	47.0	-43.6	---	---	726.7	0.029	0.000	15.9	92	1
03/15/17	12:39 a	-24.0	-23.9	-24.0	---	---	41.7	ESE	0.70	47.0	-43.6	---	---	726.7	0.029	0.000	15.9	92	1
03/15/17	12:40 a	-24.1	-24.0	-24.1	---	---	42.6	ESE	0.71	47.0	-43.8	---	---	726.8	0.029	0.000	15.9	91	1
03/15/17	12:41 a	-24.1	-24.1	-24.1	---	---	43.5	ESE	0.72	47.0	-43.9	---	---	726.7	0.029	0.000	15.9	92	1
03/15/17	12:42 a	-24.1	-24.1	-24.1	---	---	42.6	ESE	0.71	47.0	-43.9	---	---	726.7	0.029	0.000	15.9	91	1
03/15/17	12:43 a	-24.2	-24.1	-24.2	---	---	42.6	ESE	0.71	47.0	-43.9	---	---	726.8	0.030	0.000	15.9	92	1
03/15/17	12:44 a	-24.2	-24.1	-24.2	---	---	42.6	ESE	0.71	47.0	-43.9	---	---	726.7	0.030	0.000	15.9	92	1
03/15/17	12:45 a	-24.2	-24.2	-24.2	---	---	42.6	ESE	0.71	47.0	-44.0	---	---	726.7	0.030	0.000	15.9	92	1
03/15/17	12:46 a	-24.2	-24.2	-24.2	---	---	43.5	ESE	0.72	47.0	-44.2	---	---	726.7	0.030	0.000	15.9	92	1
03/15/17	12:47 a	-24.2	-24.2	-24.3	---	---	43.5	ESE	0.72	47.0	-44.2	---	---	726.8	0.030	0.000	15.9	91	1
03/15/17	12:48 a	-24.3	-24.2	-24.3	---	---	44.3	ESE	0.74	47.8	-44.4	---	---	726.8	0.030	0.000	15.9	91	1
03/15/17	12:49 a	-24.3	-24.3	-24.3	---	---	46.1	ESE	0.77	48.7	-44.6	---	---	726.7	0.030	0.000	15.8	91	1
03/15/17	12:50 a	-24.3	-24.3	-24.3	---	---	43.5	ESE	0.72	48.7	-44.2	---	---	726.8	0.030	0.000	15.8	91	1
03/15/17	12:51 a	-24.3	-24.3	-24.3	---	---	43.5	ESE	0.72	47.0	-44.3	---	---	726.8	0.030	0.000	15.8	91	1
03/15/17	12:52 a	-24.3	-24.3	-24.3	---	---	43.5	ESE	0.72	45.2	-44.3	---	---	726.8	0.030	0.000	15.8	92	1
03/15/17	12:53 a	-24.3	-24.3	-24.4	---	---	43.5	ESE	0.72	47.0	-44.3	---	---	726.8	0.030	0.000	15.8	92	1
03/15/17	12:54 a	-24.3	-24.3	-24.4	---	---	43.5	ESE	0.72	47.0	-44.3	---	---	726.9	0.030	0.000	15.8	92	1
03/15/17	12:55 a	-24.3	-24.3	-24.3	---	---	43.5	ESE	0.72	47.0	-44.3	---	---	726.9	0.030	0.000	15.8	91	1
03/15/17	12:56 a	-24.3	-24.3	-24.3	---	---	43.5	ESE	0.72	47.0	-44.3	---	---	726.8	0.030	0.000	15.8	91	1
03/15/17	12:57 a	-24.3	-24.2	-24.3	---	---	45.2	ESE	0.75	48.7	-44.5	---	---	726.7	0.030	0.000	15.8	91	1
03/15/17	12:58 a	-24.3	-24.2	-24.3	---	---	47.0	ESE	0.78	51.3	-44.8	---	---	726.6	0.030	0.000	15.8	91	1
03/15/17	12:59 a	-24.2	-24.2	-24.3	---	---	46.1	ESE	0.77	49.6	-44.6	---	---	726.5	0.030	0.000	15.8	92	1
03/15/17	1:00 a	-24.2	-24.2	-24.2	---	---	47.8	ESE	0.80	51.3	-44.8	---	---	726.6	0.030	0.000	15.8	92	1
03/15/17	1:01 a	-24.2	-24.1	-24.2	---	---	47.0	ESE	0.78	50.4	-44.6	---	---	726.7	0.030	0.000	15.8	91	1
03/15/17	1:02 a	-24.1	-24.1	-24.2	---	---	46.1	ESE	0.77	48.7	-44.4	---	---	726.8	0.029	0.000	15.8	91	1
03/15/17	1:03 a	-24.1	-24.0	-24.1	---	---	43.5	ESE	0.72	47.0	-43.9	---	---	726.8	0.029	0.000	15.8	91	1
03/15/17	1:04 a	-23.9	-23.9	-23.9	---	---	43.5	ESE	0.72	46.1	-43.8	---	---	727.0	0.029	0.000	15.8	91	1
03/15/17	1:05 a	-23.8	-23.8	-23.9	---	---	43.6	ESE	0.73	47.0	-43.6	---	---	726.9	0.029	0.000	15.8	91	1
03/15/17	1:06 a	-23.8	-23.8	-23.8	---	---	45.2	ESE	0.75	48.7	-43.9	---	---	726.8	0.029	0.000	15.8	91	1
03/15/17	1:07 a	-23.8	-23.7	-23.8	---	---	42.6	ESE	0.71	47.0	-43.4	---	---	726.8	0.029	0.000	15.8	90	1
03/15/17	1:08 a	-23.7	-23.7	-23.7	---	---	43.5	ESE	0.72	47.8	-43.4	---	---	726.7	0.029	0.000	15.8	90	1
03/15/17	1:09 a	-23.6	-23.6	-23.7	---	---	45.2	ESE	0.75	49.6	-43.6	---	---	726.7	0.029	0.000	15.8	90	1
03/15/17	1:10 a	-23.6	-23.5	-23.6	---	---	46.1	ESE	0.77	50.4	-43.6	---	---	726.8	0.029	0.000	15.8	90	1
03/15/17	1:11 a	-23.5	-23.4	-23.5	---	---	44.3	ESE	0.74	48.7	-43.3	---	---	727.0	0.029	0.000	15.8	91	1
03/15/17	1:12 a	-23.4	-23.4	-23.4	---	---	45.2	ESE	0.75	47.8	-43.3	---	---	726.9	0.029	0.000	15.8	90	1
03/15/17	1:13 a	-23.4	-23.3	-23.4	---	---	42.6	ESE	0.71	47.8	-42.8	---	---	726.9	0.029	0.000	15.8	90	1
03/15/17	1:14 a	-23.3	-23.2	-23.3	---	---	44.3	ESE	0.74	48.7	-42.9	---	---	726.9	0.029	0.000	15.8	90	1
03/15/17	1:15 a	-23.2	-23.2	-23.3	---	---	44.3	ESE	0.74	48.7	-42.9	---	---	726.8	0.029	0.000	15.8	90	1
03/15/17	1:16 a	-23.2	-23.2	-23.2	---	---	41.7	ESE	0.70	44.3	-42.5	---	---	726.9	0.029	0.000	15.8	90	1
03/15/17	1:17 a	-23.2	-23.1	-23.2	---	---	44.3	ESE	0.74	48.7	-42.8	---	---	726.8	0.029	0.000	15.7	89	1
03/15/17	1:18 a	-23.1	-23.1	-23.1	---	---	46.1	ESE	0.77	49.6	-42.9	---	---	726.9	0.029	0.000	15.8	89	1
03/15/17	1:19 a	-23.1	-23.1	-23.1	---	---	45.2	ESE	0.75	49.6	-42.8	---	---	726.7	0.029	0.000	15.7	89	1
03/15/17	1:20 a	-22.9	-22.9	-23.0	---	---	44.3	ESE	0.74	49.6	-42.5	---	---	726.8	0.029	0.000	15.7	89	1
03/15/17	1:21 a	-22.9	-22.9	-23.0	---	---	44.3	ESE	0.74	49.6	-42.5	---	---	726.8	0.029	0.000	15.7	88	1
03/15/17	1:22 a	-22.9	-22.8	-22.9	---	---	43.5	ESE	0.72	49.6	-42.3	---	---	726.7	0.029	0.000	15.7	89	1
03/15/17	1:23 a	-22.8	-22.8	-22.9	---	---	45.2	ESE	0.75	47.8	-42.4	---	---	726.7	0.029	0.000	15.7	89	1
03/15/17	1:24 a	-22.8	-22.8	-22.8	---	---	45.2	ESE	0.75	48.7	-42.4	---	---	726.5	0.029	0.000	15.7	89	1
03/15/17	1:25 a	-22.8	-22.8	-22.8	---	---	45.2	ESE	0.75	49.6	-42.4	---	---	726.6	0.029	0.000	15.7	90	1
03/15/17	1:26 a	-22.8	-22.7	-22.8	---	---	46.1	ESE	0.77	50.4	-42.5	---	---	726.5	0.029	0.000	15.7	90	1
03/15/17	1:27 a	-22.7	-22.7	-22.7	---	---	47.0	ESE	0.78	49.6	-42.6	---	---	726.6	0.029	0.000	15.7	90	1
03/15/17	1:28 a	-22.7	-22.7	-22.7	---	---	46.1	ESE	0.77	48.7	-42.3	---	---	726.7	0.028	0.000	15.8	88	1
03/15/17	1:29 a	-22.7	-22.7	-22.7	---	---	43.5	ESE	0.72	47.8	-41.9	---	---	726.7	0.028	0.000	15.8	89	1
03/15/17	1:30 a	-22.6	-22.6	-22.7	---	---	40.9	ESE	0.68	45.2	-41.4	---	---	726.7	0.028	0.000	16.0	89	1
03/15/17	1:31 a	-22.7	-22.6	-22.7	---	---	42.6	ESE	0.71	47.8	-41.8	---	---	726.8	0.028	0.000	16.0	89	1
03/15/17	1:32 a	-22.7	-22.6	-22.7	---	---	45.2	ESE	0.75	48.7	-42.2	---	---	726.7	0.028	0.000	16.1	89	1
03/15/17	1:33 a	-22.7	-22.7	-22.7	---	---	43.5	ESE	0.72	47.8	-41.9	---	---	726.8	0.028	0.000	16.2	89	1
03/15/17	1:34 a	-22.7	-22.6	-22.7	---	---	41.7	ESE	0.70	46.1	-41.7	---	---	726.8	0.028	0.000	16.3	90	1
03/15/17	1:35 a	-22.7	-22.7	-22.7	---	---	42.6	ESE	0.71	46.1	-41.9	---	---	726.7	0.029	0.000	16.4	90	1
03/15/17	1:36 a	-22.7	-22.7	-22.7	---	---	42.6	ESE	0.71	47.0	-41.9	---	---	726.7	0.029	0.000	16.6	90	1
03/15/17	1:37 a	-22.8	-22.7	-22.8	---	---	46.1	ESE	0.77	49.6	-42.5	---	---	726.5	0.029	0.000	16.6	90	1
03/15/17	1:38 a	-22.8	-22.8	-22.8	---	---	45.2	ESE	0.75	49.6	-42.4	---	---	726.5	0.029	0.000	16.7	90	1
03/15/17	1:39 a	-22.8	-22.8	-22.9	---	---	46.1	ESE	0.77	49.6	-42.6	---	---	726.5	0.029	0.000	16.7	90	1
03/15/17	1:40 a	-22.9	-22.9	-22.9	---	---	45.2	ESE	0.75	49.6	-42.6	---	---	726.7	0.029	0.000	16.7	90	1
03/15/17	1:41 a	-22.9	-22.9	-23.0	---	---	43.5	ESE	0.72	47.8	-42.3	---	---	726.7	0.029	0.000	16.7	90	1
03/15/17	1:42 a	-23.0	-22.9	-23.1	---	---	43.5	ESE	0.72	48.7	-42.4	---	---	726.6	0.029	0.000	16.8	90	1
03/15/17	1:43 a	-23.1	-23.1	-23.1	---	---	41.7	ESE	0.70	47.0	-42.2	---	---	726.7	0.029	0.000	16.8	90	1
03/15/17	1:44 a	-23.1	-23.1	-23.2	---	---	43.5	ESE	0.72	47.0	-42.6	---	---	726.6	0.029	0.000	16.8	90	1
03/15/17	1:45 a	-23.2	-23.2	-23.2	---	---	42.6	ESE	0.71	47.8	-42.6	---	---	726.5	0.029	0.000	16.8	90	1
03/15/17	1:46 a	-23.2	-23.2	-23.3	---	---	44.3	ESE	0.74	49.6	-42.9	---	---	726.5	0.029	0.000	16.8	90	1
03/15/17	1:47 a	-23.3	-23.3	-23.3	---	---	43.5	ESE	0.72	46.1	-42.8	---	---	726.6	0.029	0.000	16.8	90	1
03/15/17	1:48 a	-23.4	-23.3	-23.4	---	---	43.5	ESE	0.72	47.0	-43.0	---	---	726.6	0.029	0.000	16.8	90	1
03/15/17	1:49 a	-23.4	-23.4	-23.4	---	---	43.5	ESE	0.72	47.0	-43.0	---	---	726.6	0.029	0.000	16.8	90	1
03/15/17	1:50 a	-23.4	-23.4	-23.5	---	---	44.3	ESE	0.74	47.8	-43.2	---	---	726.6	0.029	0.000	16.9	90	1
03/15/17	1:51 a	-23.5	-23.5	-23.5	---	---	43.5	ESE	0.72	46.1	-43.1	---	---	726.6	0.029	0.000	16.9	90	1
03/15/17	1:52 a	-23.6	-23.5	-23.6	---	---	42.6	ESE	0.71	46.1	-43.1	---	---	726.5	0.029	0.000	16.9	90	1
03/15/17	1:53 a	-23.6	-23.5	-23.6	---	---	43.5	ESE	0.72	47.0	-43.2	---	---	726.4	0.029	0.000	16.9	90	1
03/15/17	1:54 a	-23.6	-23.6	-23.6	---	---	42.6	ESE	0.71	47.0	-43.2	---	---	726.6	0.029	0.000	16.9	90	1
03/15/17	1:55 a	-23.7	-23.6	-23.7	---	---	42.6	ESE	0.71	47.0	-43.2	---	---	726.5	0.029	0.000	16.9	90	1
03/15/17	1:56 a	-23.7	-23.6	-23.7	---	---	43.5	ESE	0.72	48.7	-43.4	---	---	726.5	0.029	0.000	17.0	90	1
03/15/17	1:57 a	-23.7	-23.7	-23.7	---	---	44.3	ESE	0.74	48.7	-43.5	---	---	726.6	0.029	0.000	17.0	90	1
03/15/17	1:58 a	-23.7	-23.7	-23.7	---	---	43.5	ESE	0.72	48.7	-43.4	---	---	726.6	0.029	0.000	17.1	89	1
03/15/17	1:59 a	-23.7	-23.7	-23.8	---	---	42.6	ESE	0.71	46.1	-43.3	---	---	726.6	0.029	0.000	17.1	90	1
03/15/17	2:00 a	-23.8	-23.7	-23.8	---	---	43.5	ESE	0.72	47.8	-43.6	---	---	726.6	0.029	0.000	17.1	89	1
03/15/17	2:01 a	-23.8	-23.7	-23.8	---	---	44.3	ESE	0.74	48.7	-43.7	---	---	726.7	0.029	0.000	17.1	89	1
03/15/17	2:02 a	-23.8	-23.8	-23.8	---	---	42.6	ESE	0.71	47.0	-43.4	---	---	726.6	0.029	0.000	17.1	90	1
03/15/17	2:03 a	-23.8	-23.8	-23.8	---	---	41.7	ESE	0.70	47.8	-43.3	---	---	726.6	0.029	0.000	17.1	90	1
03/15/17	2:04 a	-23.8	-23.8	-23.8	---	---	43.5	ESE	0.72	47.0	-43.6	---	---	726.7	0.029	0.000	17.2	89	1
03/15/17	2:05 a	-23.8	-23.7	-23.8	---	---	42.6	ESE	0.71	47.0	-43.4	---	---	726.6	0.029	0.000	17.2	89	1
03/15/17	2:06 a	-23.8	-23.8	-23.8	---	---	46.1	ESE	0.77	50.4	-43.9	---	---	726.6	0.029	0.000	17.2	90	1
03/15/17	2:07 a	-23.8	-23.7	-23.8	---	---	46.1	ESE	0.77	49.6	-43.9	---	---	726.5	0.029	0.000	17.2	90	1
03/15/17	2:08 a	-23.8	-23.8	-23.8	---	---	46.1	ESE	0.77	49.6	-43.9	---	---	726.7	0.029	0.000	17.2	89	1
03/15/17	2:09 a	-23.8	-23.7	-23.8	---	---	45.2	ESE	0.75	50.4	-43.8	---	---	726.7	0.029	0.000	17.2	90	1
03/15/17	2:10 a	-23.8	-23.7	-23.8	---	---	44.3	ESE	0.74	47.0	-43.7	---	---	726.7	0.029	0.000	17.2	90	1
03/15/17	2:11 a	-23.8	-23.8	-23.8	---	---	42.6	ESE	0.71	45.2	-43.4	---	---	726.7	0.029	0.000	17.2	90	1
03/15/17	2:12 a	-23.8	-23.8	-23.8	---	---	41.7	ESE	0.70	46.1	-43.3	---	---	726.8	0.029	0.000	17.2	90	1
03/15/17	2:13 a	-23.8	-23.8	-23.8	---	---	42.6	ESE	0.71	47.8	-43.5	---	---	726.8	0.029	0.000	17.2	90	1
03/15/17	2:14 a	-23.8	-23.8	-23.8	---	---	43.5	ESE	0.72	47.8	-43.6	---	---	726.7	0.029	0.000	17.3	90	1
03/15/17	2:15 a	-23.8	-23.7	-23.8	---	---	41.7	ESE	0.70	46.1	-43.3	---	---	726.7	0.029	0.000	17.3	90	1
03/15/17	2:16 a	-23.8	-23.8	-23.8	---	---	43.5	ESE	0.72	47.8	-43.6	---	---	726.6	0.029	0.000	17.3	89	1
03/15/17	2:17 a	-23.8	-23.7	-23.8	---	---	40.9	ESE	0.68	46.1	-43.2	---	---	726.7	0.029	0.000	17.3	90	1
03/15/17	2:18 a	-23.8	-23.7	-23.8	---	---	42.6	ESE	0.71	45.2	-43.4	---	---	726.7	0.029	0.000	17.3	90	1
03/15/17	2:19 a	-23.8	-23.8	-23.8	---	---	40.9	ESE	0.68	45.2	-43.2	---	---	726.8	0.029	0.000	17.3	90	1
03/15/17	2:20 a	-23.8	-23.8	-23.8	---	---	42.6	ESE	0.71	47.0	-43.5	---	---	726.8	0.029	0.000	17.3	90	1
03/15/17	2:21 a	-23.8	-23.8	-23.8	---	---	42.6	ESE	0.71	47.0	-43.5	---	---	726.7	0.029	0.000	17.3	90	1
03/15/17	2:22 a	-23.8	-23.8	-23.8	---	---	43.5	ESE	0.72	46.1	-43.6	---	---	726.8	0.029	0.000	17.3	89	1
03/15/17	2:23 a	-23.8	-23.8	-23.8	---	---	40.9	ESE	0.68	45.2	-43.2	---	---	726.9	0.029	0.000	17.3	90	1
03/15/17	2:24 a	-23.8	-23.8	-23.8	---	---	40.0	ESE	0.67	44.3	-43.1	---	---	726.9	0.029	0.000	17.4	90	1
03/15/17	2:25 a	-23.8	-23.8	-23.8	---	---	39.1	ESE	0.65	43.5	-42.9	---	---	726.9	0.029	0.000	17.4	90	1
03/15/17	2:26 a	-23.8	-23.8	-23.8	---	---	40.0	ESE	0.67	43.5	-43.1	---	---	726.9	0.029	0.000	17.4	90	1
03/15/17	2:27 a	-23.8	-23.8	-23.8	---	---	40.9	ESE	0.68	44.3	-43.2	---	---	726.9	0.029	0.000	17.4	90	1
03/15/17	2:28 a	-23.8	-23.8	-23.9	---	---	38.3	ESE	0.64	42.6	-42.8	---	---	727.0	0.029	0.000	17.4	90	1
03/15/17	2:29 a	-23.8	-23.8	-23.9	---	---	38.3	ESE	0.64	42.6	-42.8	---	---	727.0	0.029	0.000	17.4	90	1
03/15/17	2:30 a	-23.8	-23.8	-23.9	---	---	39.1	ESE	0.65	43.5	-42.9	---	---	726.9	0.029	0.000	17.4	90	1
03/15/17	2:31 a	-23.9	-23.8	-23.9	---	---	40.9	ESE	0.68	44.3	-43.3	---	---	727.0	0.029	0.000	17.4	90	1
03/15/17	2:32 a	-23.8	-23.8	-23.9	---	---	40.0	ESE	0.67	42.6	-43.1	---	---	727.0	0.029	0.000	17.3	90	1
03/15/17	2:33 a	-23.8	-23.8	-23.9	---	---	39.1	ESE	0.65	44.3	-42.9	---	---	727.0	0.029	0.000	17.2	90	1
03/15/17	2:34 a	-23.9	-23.8	-23.9	---	---	40.0	ESE	0.67	42.6	-43.1	---	---	727.0	0.029	0.000	17.2	90	1
03/15/17	2:35 a	-23.9	-23.9	-23.9	---	---	40.9	ESE	0.68	44.3	-43.3	---	---	726.9	0.029	0.000	17.1	91	1
03/15/17	2:36 a	-23.9	-23.9	-23.9	---	---	39.1	ESE	0.65	41.7	-43.0	---	---	727.0	0.029	0.000	17.1	90	1
03/15/17	2:37 a	-23.9	-23.9	-23.9	---	---	40.0	ESE	0.67	42.6	-43.1	---	---	727.0	0.029	0.000	17.0	91	1
03/15/17	2:38 a	-23.9	-23.9	-23.9	---	---	40.0	ESE	0.67	42.6	-43.1	---	---	727.0	0.029	0.000	16.9	91	1
03/15/17	2:39 a	-23.9	-23.8	-23.9	---	---	39.1	ESE	0.65	42.6	-43.0	---	---	727.0	0.029	0.000	16.9	90	1
03/15/17	2:40 a	-23.9	-23.9	-23.9	---	---	38.3	ESE	0.64	41.7	-42.8	---	---	727.1	0.029	0.000	16.8	90	1
03/15/17	2:41 a	-23.9	-23.9	-23.9	---	---	38.3	ESE	0.64	41.7	-42.8	---	---	727.0	0.029	0.000	16.8	91	1
03/15/17	2:42 a	-23.9	-23.9	-23.9	---	---	38.3	ESE	0.64	41.7	-42.8	---	---	727.0	0.029	0.000	16.8	91	1
03/15/17	2:43 a	-23.9	-23.9	-23.9	---	---	37.4	ESE	0.62	40.9	-42.7	---	---	727.1	0.029	0.000	16.7	91	1
03/15/17	2:44 a	-23.9	-23.9	-23.9	---	---	38.3	ESE	0.64	41.7	-42.8	---	---	727.1	0.029	0.000	16.7	91	1
03/15/17	2:45 a	-23.9	-23.8	-23.9	---	---	38.3	ESE	0.64	41.7	-42.8	---	---	727.0	0.029	0.000	16.7	91	1
03/15/17	2:46 a	-23.9	-23.9	-23.9	---	---	38.3	ESE	0.64	40.9	-42.8	---	---	727.1	0.029	0.000	16.6	91	1
03/15/17	2:47 a	-23.9	-23.9	-23.9	---	---	38.3	ESE	0.64	40.9	-42.8	---	---	727.1	0.029	0.000	16.6	90	1
03/15/17	2:48 a	-23.9	-23.9	-23.9	---	---	38.3	ESE	0.64	41.7	-42.8	---	---	727.0	0.029	0.000	16.6	91	1
03/15/17	2:49 a	-23.9	-23.9	-23.9	---	---	37.4	ESE	0.62	41.7	-42.7	---	---	727.1	0.029	0.000	16.5	91	1
03/15/17	2:50 a	-23.9	-23.9	-23.9	---	---	38.3	ESE	0.64	41.7	-42.9	---	---	727.1	0.029	0.000	16.5	90	1
03/15/17	2:51 a	-23.9	-23.9	-23.9	---	---	37.4	ESE	0.62	40.9	-42.7	---	---	727.1	0.029	0.000	16.5	90	1
03/15/17	2:52 a	-23.9	-23.9	-23.9	---	---	38.3	ESE	0.64	41.7	-42.8	---	---	727.1	0.029	0.000	16.4	90	1
03/15/17	2:53 a	-23.9	-23.9	-23.9	---	---	38.3	ESE	0.64	41.7	-42.8	---	---	727.1	0.029	0.000	16.4	91	1
03/15/17	2:54 a	-23.9	-23.9	-23.9	---	---	39.1	ESE	0.65	42.6	-43.0	---	---	727.1	0.029	0.000	16.4	90	1
03/15/17	2:55 a	-23.8	-23.8	-23.9	---	---	39.1	ESE	0.65	42.6	-42.9	---	---	727.1	0.029	0.000	16.4	90	1
03/15/17	2:56 a	-23.9	-23.8	-23.9	---	---	38.3	ESE	0.64	41.7	-42.8	---	---	727.2	0.029	0.000	16.3	90	1
03/15/17	2:57 a	-23.9	-23.9	-23.9	---	---	36.5	ESE	0.61	40.0	-42.6	---	---	727.1	0.029	0.000	16.3	90	1
03/15/17	2:58 a	-23.9	-23.9	-23.9	---	---	36.5	ESE	0.61	40.9	-42.6	---	---	727.2	0.029	0.000	16.3	90	1
03/15/17	2:59 a	-23.8	-23.8	-23.9	---	---	37.4	ESE	0.62	40.9	-42.6	---	---	727.2	0.029	0.000	16.3	90	1
03/15/17	3:00 a	-23.8	-23.8	-23.9	---	---	38.3	ESE	0.64	42.6	-42.8	---	---	727.1	0.029	0.000	16.3	90	1
03/15/17	3:01 a	-23.8	-23.8	-23.9	---	---	38.3	ESE	0.64	41.7	-42.8	---	---	727.2	0.029	0.000	16.2	90	1
03/15/17	3:02 a	-23.8	-23.8	-23.8	---	---	39.1	ESE	0.65	41.7	-42.9	---	---	727.3	0.029	0.000	16.2	90	1
03/15/17	3:03 a	-23.8	-23.8	-23.8	---	---	38.3	ESE	0.64	43.5	-42.8	---	---	727.3	0.029	0.000	16.2	90	1
03/15/17	3:04 a	-23.8	-23.8	-23.8	---	---	36.5	ESE	0.61	40.9	-42.4	---	---	727.3	0.029	0.000	16.2	90	1
03/15/17	3:05 a	-23.8	-23.8	-23.8	---	---	38.3	ESE	0.64	42.6	-42.7	---	---	727.3	0.029	0.000	16.2	90	1
03/15/17	3:06 a	-23.8	-23.8	-23.8	---	---	36.5	ESE	0.61	40.0	-42.4	---	---	727.4	0.029	0.000	16.2	90	1
03/15/17	3:07 a	-23.8	-23.8	-23.8	---	---	36.5	ESE	0.61	39.1	-42.4	---	---	727.4	0.029	0.000	16.2	90	1
03/15/17	3:08 a	-23.8	-23.7	-23.8	---	---	35.7	ESE	0.59	39.1	-42.2	---	---	727.4	0.029	0.000	16.1	90	1
03/15/17	3:09 a	-23.7	-23.7	-23.8	---	---	36.5	ESE	0.61	40.9	-42.3	---	---	727.4	0.029	0.000	16.1	89	1
03/15/17	3:10 a	-23.7	-23.7	-23.7	---	---	35.7	ESE	0.59	40.9	-42.2	---	---	727.4	0.029	0.000	16.1	89	1
03/15/17	3:11 a	-23.7	-23.7	-23.7	---	---	36.5	ESE	0.61	40.9	-42.3	---	---	727.4	0.029	0.000	16.1	89	1
03/15/17	3:12 a	-23.7	-23.7	-23.7	---	---	35.7	ESE	0.59	40.9	-42.2	---	---	727.5	0.029	0.000	16.1	89	1
03/15/17	3:13 a	-23.7	-23.7	-23.7	---	---	34.8	ESE	0.58	37.4	-42.0	---	---	727.5	0.029	0.000	16.1	89	1
03/15/17	3:14 a	-23.7	-23.7	-23.7	---	---	34.8	ESE	0.58	37.4	-41.9	---	---	727.4	0.029	0.000	16.1	89	1
03/15/17	3:15 a	-23.7	-23.7	-23.7	---	---	34.8	ESE	0.58	40.0	-41.9	---	---	727.5	0.029	0.000	16.1	89	1
03/15/17	3:16 a	-23.7	-23.7	-23.7	---	---	34.8	ESE	0.58	37.4	-41.9	---	---	727.6	0.029	0.000	16.1	89	1
03/15/17	3:17 a	-23.7	-23.7	-23.7	---	---	32.2	ESE	0.54	37.4	-41.4	---	---	727.5	0.029	0.000	16.1	89	1
03/15/17	3:18 a	-23.6	-23.6	-23.7	---	---	32.2	ESE	0.54	37.4	-41.3	---	---	727.5	0.029	0.000	16.0	88	1
03/15/17	3:19 a	-23.7	-23.6	-23.7	---	---	35.7	ESE	0.59	37.4	-42.1	---	---	727.5	0.029	0.000	16.0	88	1
03/15/17	3:20 a	-23.7	-23.6	-23.7	---	---	33.9	ESE	0.57	36.5	-41.7	---	---	727.5	0.029	0.000	16.0	88	1
03/15/17	3:21 a	-23.6	-23.6	-23.7	---	---	33.9	ESE	0.57	37.4	-41.7	---	---	727.5	0.029	0.000	16.0	88	1
03/15/17	3:22 a	-23.6	-23.6	-23.6	---	---	33.9	ESE	0.57	37.4	-41.7	---	---	727.6	0.029	0.000	15.9	89	1
03/15/17	3:23 a	-23.6	-23.6	-23.6	---	---	33.0	ESE	0.55	35.7	-41.5	---	---	727.6	0.029	0.000	15.9	90	1
03/15/17	3:24 a	-23.6	-23.6	-23.6	---	---	34.8	ESE	0.58	36.5	-41.8	---	---	727.6	0.029	0.000	15.9	89	1
03/15/17	3:25 a	-23.6	-23.6	-23.6	---	---	34.8	ESE	0.58	38.3	-41.8	---	---	727.6	0.029	0.000	15.9	90	1
03/15/17	3:26 a	-23.6	-23.6	-23.6	---	---	34.8	ESE	0.58	37.4	-41.8	---	---	727.7	0.029	0.000	15.9	89	1
03/15/17	3:27 a	-23.6	-23.6	-23.6	---	---	33.9	ESE	0.57	36.5	-41.6	---	---	727.6	0.029	0.000	15.9	89	1
03/15/17	3:28 a	-23.6	-23.5	-23.6	---	---	34.8	ESE	0.58	39.1	-41.8	---	---	727.6	0.029	0.000	15.9	89	1
03/15/17	3:29 a	-23.6	-23.5	-23.6	---	---	31.3	ESE	0.52	34.8	-41.1	---	---	727.7	0.029	0.000	15.9	89	1
03/15/17	3:30 a	-23.5	-23.5	-23.6	---	---	32.2	ESE	0.54	35.7	-41.2	---	---	727.6	0.029	0.000	15.9	89	1
03/15/17	3:31 a	-23.6	-23.5	-23.6	---	---	32.2	ESE	0.54	37.4	-41.3	---	---	727.7	0.029	0.000	15.9	89	1
03/15/17	3:32 a	-23.5	-23.5	-23.6	---	---	32.2	ESE	0.54	34.8	-41.2	---	---	727.6	0.029	0.000	15.9	89	1
03/15/17	3:33 a	-23.5	-23.5	-23.6	---	---	34.8	ESE	0.58	39.1	-41.7	---	---	727.6	0.029	0.000	15.9	89	1
03/15/17	3:34 a	-23.5	-23.4	-23.5	---	---	34.8	ESE	0.58	38.3	-41.7	---	---	727.7	0.029	0.000	15.9	89	1
03/15/17	3:35 a	-23.5	-23.4	-23.5	---	---	33.0	ESE	0.55	36.5	-41.3	---	---	727.7	0.029	0.000	15.9	89	1
03/15/17	3:36 a	-23.5	-23.4	-23.5	---	---	31.3	ESE	0.52	33.0	-41.0	---	---	727.7	0.029	0.000	15.9	89	1
03/15/17	3:37 a	-23.5	-23.4	-23.5	---	---	30.4	ESE	0.51	33.0	-40.8	---	---	727.7	0.029	0.000	15.9	89	1
03/15/17	3:38 a	-23.4	-23.4	-23.4	---	---	31.3	ESE	0.52	34.8	-40.9	---	---	727.7	0.029	0.000	15.8	89	1
03/15/17	3:39 a	-23.4	-23.4	-23.4	---	---	31.3	ESE	0.52	34.8	-40.9	---	---	727.7	0.029	0.000	15.8	89	1
03/15/17	3:40 a	-23.4	-23.4	-23.4	---	---	31.3	ESE	0.52	34.8	-40.9	---	---	727.7	0.029	0.000	15.8	89	1
03/15/17	3:41 a	-23.4	-23.4	-23.4	---	---	31.3	ESE	0.52	33.9	-40.9	---	---	727.7	0.029	0.000	15.8	89	1
03/15/17	3:42 a	-23.4	-23.4	-23.4	---	---	32.2	ESE	0.54	35.7	-41.1	---	---	727.6	0.029	0.000	15.8	89	1
03/15/17	3:43 a	-23.4	-23.4	-23.4	---	---	33.0	ESE	0.55	36.5	-41.3	---	---	727.7	0.029	0.000	15.8	89	1
03/15/17	3:44 a	-23.4	-23.4	-23.4	---	---	33.0	ESE	0.55	36.5	-41.3	---	---	727.7	0.029	0.000	15.8	89	1
03/15/17	3:45 a	-23.4	-23.4	-23.4	---	---	31.3	ESE	0.52	34.8	-40.8	---	---	727.7	0.029	0.000	15.8	89	1
03/15/17	3:46 a	-23.4	-23.4	-23.4	---	---	31.3	ESE	0.52	33.9	-40.9	---	---	727.7	0.029	0.000	15.8	89	1
03/15/17	3:47 a	-23.4	-23.4	-23.4	---	---	31.3	ESE	0.52	34.8	-40.9	---	---	727.8	0.029	0.000	15.8	88	1
03/15/17	3:48 a	-23.4	-23.4	-23.4	---	---	33.0	ESE	0.55	33.9	-41.3	---	---	727.8	0.029	0.000	15.8	88	1
03/15/17	3:49 a	-23.4	-23.4	-23.4	---	---	32.2	ESE	0.54	34.8	-41.0	---	---	727.7	0.029	0.000	15.8	88	1
03/15/17	3:50 a	-23.4	-23.4	-23.4	---	---	31.3	ESE	0.52	33.9	-40.9	---	---	727.8	0.029	0.000	15.8	88	1
03/15/17	3:51 a	-23.4	-23.4	-23.4	---	---	31.3	ESE	0.52	33.9	-40.9	---	---	727.7	0.029	0.000	15.8	88	1
03/15/17	3:52 a	-23.4	-23.4	-23.4	---	---	32.2	ESE	0.54	33.9	-41.1	---	---	727.7	0.029	0.000	15.8	88	1
03/15/17	3:53 a	-23.4	-23.4	-23.5	---	---	32.2	ESE	0.54	33.9	-41.1	---	---	727.7	0.029	0.000	15.8	88	1
03/15/17	3:54 a	-23.4	-23.4	-23.4	---	---	31.3	ESE	0.52	35.7	-40.9	---	---	727.8	0.029	0.000	15.8	87	1
03/15/17	3:55 a	-23.4	-23.4	-23.5	---	---	31.3	ESE	0.52	33.0	-40.9	---	---	727.8	0.029	0.000	15.8	88	1
03/15/17	3:56 a	-23.5	-23.4	-23.5	---	---	31.3	ESE	0.52	33.9	-41.0	---	---	727.7	0.029	0.000	15.8	88	1
03/15/17	3:57 a	-23.5	-23.4	-23.5	---	---	29.6	ESE	0.49	32.2	-40.7	---	---	727.7	0.029	0.000	15.8	88	1
03/15/17	3:58 a	-23.5	-23.4	-23.5	---	---	28.7	ESE	0.48	32.2	-40.4	---	---	727.7	0.029	0.000	15.8	88	1
03/15/17	3:59 a	-23.5	-23.4	-23.5	---	---	28.7	ESE	0.48	31.3	-40.4	---	---	727.6	0.029	0.000	15.8	88	1
03/15/17	4:00 a	-23.5	-23.4	-23.5	---	---	30.4	ESE	0.51	34.8	-40.8	---	---	727.7	0.029	0.000	15.7	87	1
03/15/17	4:01 a	-23.5	-23.5	-23.5	---	---	31.3	ESE	0.52	33.9	-41.0	---	---	727.7	0.029	0.000	15.7	88	1
03/15/17	4:02 a	-23.5	-23.5	-23.5	---	---	31.3	ESE	0.52	33.9	-41.0	---	---	727.7	0.029	0.000	15.7	88	1
03/15/17	4:03 a	-23.5	-23.4	-23.5	---	---	31.3	ESE	0.52	33.9	-41.0	---	---	727.7	0.029	0.000	15.7	88	1
03/15/17	4:04 a	-23.5	-23.4	-23.5	---	---	31.3	ESE	0.52	34.8	-41.0	---	---	727.7	0.029	0.000	15.7	87	1
03/15/17	4:05 a	-23.5	-23.4	-23.5	---	---	30.4	ESE	0.51	33.0	-40.8	---	---	727.7	0.029	0.000	15.7	88	1
03/15/17	4:06 a	-23.5	-23.5	-23.5	---	---	30.4	ESE	0.51	33.0	-40.8	---	---	727.8	0.029	0.000	15.7	88	1
03/15/17	4:07 a	-23.5	-23.5	-23.5	---	---	31.3	ESE	0.52	34.8	-41.0	---	---	727.8	0.029	0.000	15.7	88	1
03/15/17	4:08 a	-23.5	-23.5	-23.5	---	---	30.4	ESE	0.51	33.0	-40.8	---	---	727.8	0.029	0.000	15.7	88	1
03/15/17	4:09 a	-23.5	-23.4	-23.5	---	---	30.4	ESE	0.51	33.9	-40.8	---	---	727.8	0.029	0.000	15.7	87	1
03/15/17	4:10 a	-23.5	-23.4	-23.5	---	---	28.7	ESE	0.48	33.0	-40.4	---	---	727.8	0.029	0.000	15.7	87	1
03/15/17	4:11 a	-23.5	-23.4	-23.5	---	---	27.8	ESE	0.46	32.2	-40.3	---	---	727.8	0.029	0.000	15.7	88	1
03/15/17	4:12 a	-23.5	-23.4	-23.5	---	---	28.7	ESE	0.48	31.3	-40.4	---	---	727.8	0.029	0.000	15.7	88	1
03/15/17	4:13 a	-23.5	-23.5	-23.5	---	---	30.4	ESE	0.51	32.2	-40.8	---	---	727.8	0.029	0.000	15.7	89	1
03/15/17	4:14 a	-23.5	-23.5	-23.5	---	---	28.7	ESE	0.48	31.3	-40.4	---	---	727.9	0.029	0.000	15.7	89	1
03/15/17	4:15 a	-23.5	-23.5	-23.5	---	---	27.8	ESE	0.46	31.3	-40.3	---	---	727.9	0.029	0.000	15.7	89	1
03/15/17	4:16 a	-23.4	-23.4	-23.5	---	---	27.0	ESE	0.45	28.7	-40.0	---	---	727.9	0.029	0.000	15.7	88	1
03/15/17	4:17 a	-23.4	-23.4	-23.5	---	---	26.1	ESE	0.43	29.6	-39.8	---	---	727.9	0.029	0.000	15.7	89	1
03/15/17	4:18 a	-23.4	-23.4	-23.4	---	---	27.0	ESE	0.45	29.6	-40.0	---	---	728.0	0.029	0.000	15.7	89	1
03/15/17	4:19 a	-23.4	-23.4	-23.4	---	---	27.0	ESE	0.45	28.7	-40.0	---	---	727.9	0.029	0.000	15.7	87	1
03/15/17	4:20 a	-23.4	-23.4	-23.4	---	---	28.7	ESE	0.48	31.3	-40.4	---	---	728.1	0.029	0.000	15.7	87	1
03/15/17	4:21 a	-23.4	-23.3	-23.4	---	---	27.8	ESE	0.46	30.4	-40.1	---	---	728.0	0.029	0.000	15.7	87	1
03/15/17	4:22 a	-23.4	-23.4	-23.4	---	---	27.0	ESE	0.45	30.4	-39.9	---	---	727.9	0.029	0.000	15.7	88	1
03/15/17	4:23 a	-23.3	-23.3	-23.4	---	---	27.8	ESE	0.46	33.0	-40.1	---	---	728.0	0.029	0.000	15.7	87	1
03/15/17	4:24 a	-23.3	-23.3	-23.3	---	---	28.7	ESE	0.48	32.2	-40.2	---	---	728.0	0.029	0.000	15.7	86	1
03/15/17	4:25 a	-23.3	-23.3	-23.3	---	---	28.7	ESE	0.48	30.4	-40.2	---	---	728.0	0.029	0.000	15.7	86	1
03/15/17	4:26 a	-23.3	-23.2	-23.3	---	---	27.8	ESE	0.46	31.3	-39.9	---	---	728.1	0.029	0.000	15.7	86	1
03/15/17	4:27 a	-23.2	-23.2	-23.2	---	---	25.2	ESE	0.42	28.7	-39.3	---	---	728.1	0.029	0.000	15.7	88	1
03/15/17	4:28 a	-23.2	-23.2	-23.2	---	---	27.0	ESE	0.45	30.4	-39.6	---	---	728.1	0.029	0.000	15.7	87	1
03/15/17	4:29 a	-23.1	-23.1	-23.2	---	---	28.7	ESE	0.48	32.2	-39.9	---	---	728.2	0.029	0.000	15.7	87	1
03/15/17	4:30 a	-23.1	-23.1	-23.1	---	---	25.2	ESE	0.42	28.7	-39.1	---	---	728.2	0.029	0.000	15.7	87	1
03/15/17	4:31 a	-23.1	-23.0	-23.1	---	---	24.3	ESE	0.41	27.0	-38.8	---	---	728.2	0.029	0.000	15.7	87	1
03/15/17	4:32 a	-23.0	-22.9	-23.0	---	---	26.1	ESE	0.43	28.7	-39.2	---	---	728.3	0.029	0.000	15.7	87	1
03/15/17	4:33 a	-22.9	-22.9	-22.9	---	---	24.3	ESE	0.41	27.0	-38.7	---	---	728.1	0.029	0.000	15.7	88	1
03/15/17	4:34 a	-22.9	-22.8	-22.9	---	---	22.6	ESE	0.38	25.2	-38.2	---	---	728.0	0.029	0.000	15.7	88	1
03/15/17	4:35 a	-22.8	-22.8	-22.8	---	---	25.2	ESE	0.42	27.0	-38.8	---	---	728.1	0.029	0.000	15.7	88	1
03/15/17	4:36 a	-22.8	-22.8	-22.8	---	---	26.1	ESE	0.43	28.7	-38.9	---	---	728.1	0.029	0.000	15.7	88	1
03/15/17	4:37 a	-22.7	-22.7	-22.7	---	---	24.3	ESE	0.41	27.0	-38.4	---	---	728.1	0.029	0.000	15.7	88	1
03/15/17	4:38 a	-22.7	-22.6	-22.7	---	---	23.5	ESE	0.39	26.1	-38.1	---	---	728.1	0.028	0.000	15.7	87	1
03/15/17	4:39 a	-22.7	-22.6	-22.7	---	---	27.0	ESE	0.45	29.6	-38.9	---	---	728.1	0.028	0.000	15.7	88	1
03/15/17	4:40 a	-22.6	-22.6	-22.6	---	---	25.2	ESE	0.42	28.7	-38.4	---	---	728.1	0.028	0.000	15.7	88	1
03/15/17	4:41 a	-22.6	-22.6	-22.6	---	---	25.2	ESE	0.42	27.8	-38.4	---	---	728.1	0.028	0.000	15.7	88	1
03/15/17	4:42 a	-22.5	-22.5	-22.6	---	---	24.3	ESE	0.41	27.0	-38.1	---	---	728.1	0.028	0.000	15.7	88	1
03/15/17	4:43 a	-22.5	-22.4	-22.5	---	---	24.3	ESE	0.41	28.7	-38.1	---	---	728.1	0.028	0.000	15.7	88	1
03/15/17	4:44 a	-22.4	-22.4	-22.4	---	---	27.0	E	0.45	28.7	-38.6	---	---	728.1	0.028	0.000	15.7	88	1
03/15/17	4:45 a	-22.4	-22.4	-22.4	---	---	25.2	ESE	0.42	28.7	-38.2	---	---	728.1	0.028	0.000	15.7	87	1
03/15/17	4:46 a	-22.4	-22.4	-22.4	---	---	25.2	ESE	0.42	29.6	-38.2	---	---	728.0	0.028	0.000	15.7	88	1
03/15/17	4:47 a	-22.4	-22.4	-22.4	---	---	26.1	ESE	0.43	30.4	-38.3	---	---	728.1	0.028	0.000	15.7	87	1
03/15/17	4:48 a	-22.4	-22.4	-22.4	---	---	25.2	ESE	0.42	27.0	-38.2	---	---	728.1	0.028	0.000	15.7	88	1
03/15/17	4:49 a	-22.4	-22.4	-22.4	---	---	27.0	ESE	0.45	29.6	-38.6	---	---	728.1	0.028	0.000	15.7	87	1
03/15/17	4:50 a	-22.3	-22.3	-22.4	---	---	26.1	ESE	0.43	28.7	-38.3	---	---	728.0	0.028	0.000	15.7	87	1
03/15/17	4:51 a	-22.4	-22.4	-22.4	---	---	26.1	ESE	0.43	28.7	-38.3	---	---	728.0	0.028	0.000	15.7	87	1
03/15/17	4:52 a	-22.4	-22.3	-22.4	---	---	26.1	ESE	0.43	28.7	-38.3	---	---	728.1	0.028	0.000	15.7	88	1
03/15/17	4:53 a	-22.4	-22.3	-22.4	---	---	25.2	ESE	0.42	28.7	-38.2	---	---	728.1	0.028	0.000	15.7	88	1
03/15/17	4:54 a	-22.3	-22.3	-22.4	---	---	26.1	ESE	0.43	28.7	-38.3	---	---	728.0	0.028	0.000	15.7	87	1
03/15/17	4:55 a	-22.3	-22.3	-22.4	---	---	27.0	ESE	0.45	30.4	-38.5	---	---	728.0	0.028	0.000	15.7	87	1
03/15/17	4:56 a	-22.3	-22.3	-22.3	---	---	27.0	ESE	0.45	30.4	-38.5	---	---	728.0	0.028	0.000	15.7	87	1
03/15/17	4:57 a	-22.3	-22.3	-22.4	---	---	26.1	ESE	0.43	29.6	-38.3	---	---	728.0	0.028	0.000	15.7	87	1
03/15/17	4:58 a	-22.3	-22.3	-22.3	---	---	27.8	ESE	0.46	31.3	-38.7	---	---	728.0	0.028	0.000	15.7	86	1
03/15/17	4:59 a	-22.3	-22.3	-22.3	---	---	26.1	ESE	0.43	28.7	-38.3	---	---	728.0	0.028	0.000	15.7	85	1
03/15/17	5:00 a	-22.3	-22.3	-22.3	---	---	25.2	ESE	0.42	30.4	-38.1	---	---	727.9	0.028	0.000	15.7	87	1
03/15/17	5:01 a	-22.3	-22.3	-22.3	---	---	26.1	ESE	0.43	28.7	-38.3	---	---	728.0	0.028	0.000	15.7	87	1
03/15/17	5:02 a	-22.3	-22.3	-22.3	---	---	25.2	ESE	0.42	28.7	-38.0	---	---	728.0	0.028	0.000	15.7	87	1
03/15/17	5:03 a	-22.3	-22.3	-22.3	---	---	27.0	ESE	0.45	29.6	-38.5	---	---	727.9	0.028	0.000	15.7	88	1
03/15/17	5:04 a	-22.3	-22.3	-22.3	---	---	27.8	ESE	0.46	30.4	-38.7	---	---	727.9	0.028	0.000	15.7	87	1
03/15/17	5:05 a	-22.3	-22.3	-22.3	---	---	26.1	ESE	0.43	29.6	-38.2	---	---	728.0	0.028	0.000	15.7	87	1
03/15/17	5:06 a	-22.3	-22.3	-22.3	---	---	27.0	ESE	0.45	30.4	-38.4	---	---	727.9	0.028	0.000	15.7	87	1
03/15/17	5:07 a	-22.2	-22.2	-22.3	---	---	27.0	ESE	0.45	28.7	-38.3	---	---	727.9	0.028	0.000	15.7	87	1
03/15/17	5:08 a	-22.3	-22.2	-22.3	---	---	27.8	ESE	0.46	31.3	-38.6	---	---	727.9	0.028	0.000	15.7	86	1
03/15/17	5:09 a	-22.2	-22.2	-22.2	---	---	27.0	ESE	0.45	30.4	-38.3	---	---	727.9	0.028	0.000	15.7	86	1
03/15/17	5:10 a	-22.2	-22.2	-22.2	---	---	27.8	ESE	0.46	31.3	-38.4	---	---	727.9	0.028	0.000	15.7	86	1
03/15/17	5:11 a	-22.2	-22.2	-22.2	---	---	27.8	ESE	0.46	30.4	-38.5	---	---	727.9	0.028	0.000	15.7	87	1
03/15/17	5:12 a	-22.2	-22.2	-22.2	---	---	28.7	ESE	0.48	31.3	-38.6	---	---	727.9	0.028	0.000	15.7	87	1
03/15/17	5:13 a	-22.2	-22.1	-22.2	---	---	27.8	ESE	0.46	31.3	-38.4	---	---	727.9	0.028	0.000	15.7	87	1
03/15/17	5:14 a	-22.1	-22.1	-22.2	---	---	27.8	ESE	0.46	30.4	-38.4	---	---	727.9	0.028	0.000	15.7	86	1
03/15/17	5:15 a	-22.1	-22.1	-22.1	---	---	28.7	ESE	0.48	30.4	-38.6	---	---	727.9	0.028	0.000	15.7	87	1
03/15/17	5:16 a	-22.1	-22.1	-22.1	---	---	29.6	ESE	0.49	33.0	-38.7	---	---	727.8	0.028	0.000	15.7	87	1
03/15/17	5:17 a	-22.1	-22.1	-22.1	---	---	28.7	ESE	0.48	31.3	-38.5	---	---	727.9	0.028	0.000	15.7	86	1
03/15/17	5:18 a	-22.0	-22.0	-22.1	---	---	28.7	ESE	0.48	32.2	-38.4	---	---	727.8	0.028	0.000	15.7	86	1
03/15/17	5:19 a	-21.9	-21.9	-22.0	---	---	29.6	ESE	0.49	32.2	-38.5	---	---	727.8	0.028	0.000	15.7	85	1
03/15/17	5:20 a	-21.9	-21.9	-22.0	---	---	28.7	ESE	0.48	32.2	-38.3	---	---	727.8	0.028	0.000	15.7	87	1
03/15/17	5:21 a	-21.9	-21.8	-21.9	---	---	29.6	ESE	0.49	32.2	-38.5	---	---	727.9	0.028	0.000	15.7	86	1
03/15/17	5:22 a	-21.9	-21.9	-21.9	---	---	29.6	ESE	0.49	33.0	-38.4	---	---	727.8	0.028	0.000	15.7	86	1
03/15/17	5:23 a	-21.8	-21.8	-21.9	---	---	30.4	ESE	0.51	33.9	-38.6	---	---	727.9	0.028	0.000	15.7	87	1
03/15/17	5:24 a	-21.8	-21.8	-21.8	---	---	28.7	ESE	0.48	33.0	-38.2	---	---	727.8	0.028	0.000	15.7	87	1
03/15/17	5:25 a	-21.8	-21.8	-21.8	---	---	27.8	ESE	0.46	32.2	-38.0	---	---	727.9	0.028	0.000	15.7	87	1
03/15/17	5:26 a	-21.8	-21.7	-21.8	---	---	27.0	ESE	0.45	33.0	-37.7	---	---	727.8	0.028	0.000	15.7	87	1
03/15/17	5:27 a	-21.7	-21.7	-21.7	---	---	29.6	ESE	0.49	32.2	-38.2	---	---	727.9	0.028	0.000	15.7	87	1
03/15/17	5:28 a	-21.7	-21.7	-21.7	---	---	27.0	ESE	0.45	30.4	-37.6	---	---	727.8	0.028	0.000	15.7	87	1
03/15/17	5:29 a	-21.7	-21.6	-21.7	---	---	27.8	ESE	0.46	30.4	-37.8	---	---	728.0	0.028	0.000	15.7	86	1
03/15/17	5:30 a	-21.6	-21.6	-21.7	---	---	28.7	ESE	0.48	31.3	-37.9	---	---	728.0	0.028	0.000	15.7	86	1
03/15/17	5:31 a	-21.6	-21.6	-21.6	---	---	27.0	ESE	0.45	30.4	-37.5	---	---	727.9	0.028	0.000	15.7	87	1
03/15/17	5:32 a	-21.6	-21.6	-21.6	---	---	26.1	ESE	0.43	29.6	-37.3	---	---	728.0	0.028	0.000	15.7	86	1
03/15/17	5:33 a	-21.6	-21.5	-21.6	---	---	27.0	ESE	0.45	30.4	-37.4	---	---	728.0	0.028	0.000	15.7	86	1
03/15/17	5:34 a	-21.5	-21.5	-21.6	---	---	26.1	ESE	0.43	28.7	-37.2	---	---	728.0	0.028	0.000	15.7	86	1
03/15/17	5:35 a	-21.5	-21.4	-21.5	---	---	26.1	ESE	0.43	27.8	-37.2	---	---	728.0	0.028	0.000	15.7	84	1
03/15/17	5:36 a	-21.4	-21.4	-21.5	---	---	26.1	ESE	0.43	29.6	-37.1	---	---	728.0	0.028	0.000	15.7	85	1
03/15/17	5:37 a	-21.4	-21.4	-21.4	---	---	26.1	ESE	0.43	29.6	-37.0	---	---	728.0	0.028	0.000	15.7	85	1
03/15/17	5:38 a	-21.4	-21.3	-21.4	---	---	27.0	ESE	0.45	28.7	-37.2	---	---	728.0	0.028	0.000	15.7	85	1
03/15/17	5:39 a	-21.4	-21.3	-21.4	---	---	25.2	ESE	0.42	28.7	-36.8	---	---	728.0	0.028	0.000	15.7	85	1
03/15/17	5:40 a	-21.3	-21.3	-21.4	---	---	26.1	ESE	0.43	28.7	-36.9	---	---	728.1	0.028	0.000	15.7	85	1
03/15/17	5:41 a	-21.3	-21.3	-21.3	---	---	25.2	ESE	0.42	28.7	-36.7	---	---	728.0	0.028	0.000	15.7	85	1
03/15/17	5:42 a	-21.3	-21.2	-21.3	---	---	25.2	ESE	0.42	27.8	-36.7	---	---	728.0	0.028	0.000	15.7	85	1
03/15/17	5:43 a	-21.3	-21.2	-21.3	---	---	23.5	ESE	0.39	26.1	-36.2	---	---	728.1	0.028	0.000	15.7	85	1
03/15/17	5:44 a	-21.3	-21.2	-21.3	---	---	24.3	ESE	0.41	27.0	-36.4	---	---	728.0	0.028	0.000	15.7	85	1
03/15/17	5:45 a	-21.2	-21.2	-21.2	---	---	23.5	ESE	0.39	27.0	-36.2	---	---	728.0	0.027	0.000	15.7	85	1
03/15/17	5:46 a	-21.2	-21.2	-21.2	---	---	23.5	ESE	0.39	27.0	-36.2	---	---	728.1	0.027	0.000	15.7	85	1
03/15/17	5:47 a	-21.2	-21.2	-21.2	---	---	23.5	ESE	0.39	26.1	-36.1	---	---	728.0	0.027	0.000	15.7	85	1
03/15/17	5:48 a	-21.2	-21.1	-21.2	---	---	23.5	ESE	0.39	26.1	-36.1	---	---	728.0	0.027	0.000	15.7	85	1
03/15/17	5:49 a	-21.1	-21.1	-21.1	---	---	23.5	ESE	0.39	26.1	-36.0	---	---	728.0	0.027	0.000	15.7	85	1
03/15/17	5:50 a	-21.1	-21.1	-21.2	---	---	24.3	ESE	0.41	26.1	-36.2	---	---	728.0	0.027	0.000	15.7	84	1
03/15/17	5:51 a	-21.1	-21.1	-21.1	---	---	25.2	ESE	0.42	28.7	-36.4	---	---	728.0	0.027	0.000	15.7	82	1
03/15/17	5:52 a	-21.1	-21.1	-21.1	---	---	26.1	ESE	0.43	27.8	-36.6	---	---	728.0	0.027	0.000	15.7	84	1
03/15/17	5:53 a	-21.1	-21.0	-21.1	---	---	26.1	ESE	0.43	28.7	-36.6	---	---	727.9	0.027	0.000	15.7	84	1
03/15/17	5:54 a	-21.0	-21.0	-21.1	---	---	27.0	ESE	0.45	28.7	-36.7	---	---	727.8	0.027	0.000	15.7	84	1
03/15/17	5:55 a	-21.0	-21.0	-21.1	---	---	25.2	ESE	0.42	27.8	-36.3	---	---	727.8	0.027	0.000	15.7	83	1
03/15/17	5:56 a	-21.0	-21.0	-21.1	---	---	25.2	ESE	0.42	27.8	-36.3	---	---	727.9	0.027	0.000	15.7	83	1
03/15/17	5:57 a	-21.0	-21.0	-21.1	---	---	25.2	ESE	0.42	27.8	-36.3	---	---	727.9	0.027	0.000	15.7	83	1
03/15/17	5:58 a	-21.0	-21.0	-21.0	---	---	23.5	ESE	0.39	27.0	-35.8	---	---	727.9	0.027	0.000	15.7	83	1
03/15/17	5:59 a	-21.0	-21.0	-21.0	---	---	24.3	ESE	0.41	26.1	-36.1	---	---	728.0	0.027	0.000	15.7	84	1
03/15/17	6:00 a	-21.0	-21.0	-21.0	---	---	26.1	ESE	0.43	27.8	-36.4	---	---	728.0	0.027	0.000	15.7	83	1
03/15/17	6:01 a	-21.0	-21.0	-21.0	---	---	24.3	ESE	0.41	27.8	-36.1	---	---	727.9	0.027	0.000	15.7	84	1
03/15/17	6:02 a	-21.0	-21.0	-21.0	---	---	26.1	ESE	0.43	29.6	-36.4	---	---	728.0	0.027	0.000	15.7	84	1
03/15/17	6:03 a	-21.0	-21.0	-21.0	---	---	25.2	ESE	0.42	27.0	-36.3	---	---	727.9	0.027	0.000	15.7	84	1
03/15/17	6:04 a	-21.0	-20.9	-21.0	---	---	24.3	ESE	0.41	27.0	-36.1	---	---	728.0	0.027	0.000	15.7	84	1
03/15/17	6:05 a	-20.9	-20.9	-21.0	---	---	23.5	ESE	0.39	26.1	-35.8	---	---	728.0	0.027	0.000	15.7	84	1
03/15/17	6:06 a	-20.9	-20.9	-21.0	---	---	25.2	ESE	0.42	27.0	-36.2	---	---	728.0	0.027	0.000	15.7	83	1
03/15/17	6:07 a	-20.9	-20.9	-21.0	---	---	25.2	ESE	0.42	28.7	-36.2	---	---	728.0	0.027	0.000	15.7	82	1
03/15/17	6:08 a	-20.9	-20.9	-20.9	---	---	26.1	ESE	0.43	27.8	-36.4	---	---	728.1	0.027	0.000	15.7	81	1
03/15/17	6:09 a	-20.9	-20.9	-20.9	---	---	26.1	ESE	0.43	27.8	-36.3	---	---	728.0	0.027	0.000	15.7	82	1
03/15/17	6:10 a	-20.9	-20.9	-20.9	---	---	24.3	ESE	0.41	27.8	-36.0	---	---	728.0	0.027	0.000	15.7	82	1
03/15/17	6:11 a	-20.9	-20.9	-20.9	---	---	25.2	ESE	0.42	27.8	-36.2	---	---	728.0	0.027	0.000	15.7	81	1
03/15/17	6:12 a	-20.9	-20.9	-20.9	---	---	25.2	ESE	0.42	27.8	-36.1	---	---	728.0	0.027	0.000	15.7	81	1
03/15/17	6:13 a	-20.9	-20.9	-20.9	---	---	26.1	ESE	0.43	28.7	-36.3	---	---	727.9	0.027	0.000	15.7	82	1
03/15/17	6:14 a	-20.9	-20.9	-20.9	---	---	24.3	ESE	0.41	28.7	-35.9	---	---	728.0	0.027	0.000	15.7	82	1
03/15/17	6:15 a	-20.8	-20.8	-20.9	---	---	25.2	ESE	0.42	29.6	-36.1	---	---	727.9	0.027	0.000	15.7	81	1
03/15/17	6:16 a	-20.8	-20.8	-20.8	---	---	26.1	ESE	0.43	28.7	-36.2	---	---	727.9	0.027	0.000	15.7	81	1
03/15/17	6:17 a	-20.8	-20.8	-20.8	---	---	27.0	ESE	0.45	29.6	-36.4	---	---	728.0	0.027	0.000	15.7	80	1
03/15/17	6:18 a	-20.8	-20.8	-20.8	---	---	25.2	ESE	0.42	27.8	-35.9	---	---	728.0	0.027	0.000	15.7	81	1
03/15/17	6:19 a	-20.8	-20.7	-20.8	---	---	25.2	ESE	0.42	29.6	-35.9	---	---	728.0	0.027	0.000	15.8	84	1
03/15/17	6:20 a	-20.8	-20.7	-20.8	---	---	27.0	ESE	0.45	28.7	-36.3	---	---	728.0	0.027	0.000	15.7	84	1
03/15/17	6:21 a	-20.7	-20.7	-20.8	---	---	26.1	ESE	0.43	28.7	-36.1	---	---	728.0	0.027	0.000	15.7	84	1
03/15/17	6:22 a	-20.7	-20.7	-20.7	---	---	23.5	ESE	0.39	27.8	-35.4	---	---	728.0	0.027	0.000	15.8	84	1
03/15/17	6:23 a	-20.7	-20.7	-20.7	---	---	25.2	ESE	0.42	27.8	-35.8	---	---	727.9	0.027	0.000	15.7	84	1
03/15/17	6:24 a	-20.7	-20.6	-20.7	---	---	26.1	ESE	0.43	29.6	-36.0	---	---	728.1	0.027	0.000	15.7	84	1
03/15/17	6:25 a	-20.6	-20.6	-20.6	---	---	25.2	ESE	0.42	27.8	-35.7	---	---	728.0	0.027	0.000	15.8	84	1
03/15/17	6:26 a	-20.6	-20.6	-20.6	---	---	27.8	ESE	0.46	31.3	-36.3	---	---	728.0	0.027	0.000	15.7	84	1
03/15/17	6:27 a	-20.6	-20.6	-20.6	---	---	26.1	ESE	0.43	29.6	-35.9	---	---	728.0	0.027	0.000	15.8	84	1
03/15/17	6:28 a	-20.6	-20.5	-20.6	---	---	27.0	ESE	0.45	32.2	-36.1	---	---	727.9	0.027	0.000	15.8	84	1
03/15/17	6:29 a	-20.5	-20.5	-20.6	---	---	27.0	ESE	0.45	32.2	-36.0	---	---	727.9	0.027	0.000	15.8	84	1
03/15/17	6:30 a	-20.5	-20.4	-20.5	---	---	30.4	ESE	0.51	34.8	-36.7	---	---	727.9	0.027	0.000	15.8	84	1
03/15/17	6:31 a	-20.4	-20.4	-20.4	---	---	29.6	ESE	0.49	35.7	-36.4	---	---	728.0	0.027	0.000	15.8	84	1
03/15/17	6:32 a	-20.4	-20.4	-20.4	---	---	30.4	ESE	0.51	33.9	-36.6	---	---	727.8	0.027	0.000	15.8	84	1
03/15/17	6:33 a	-20.4	-20.4	-20.4	---	---	30.4	ESE	0.51	33.0	-36.6	---	---	727.9	0.027	0.000	15.8	84	1
03/15/17	6:34 a	-20.4	-20.4	-20.4	---	---	29.6	ESE	0.49	33.0	-36.4	---	---	727.7	0.027	0.000	15.8	83	1
03/15/17	6:35 a	-20.4	-20.4	-20.4	---	---	30.4	ESE	0.51	32.2	-36.6	---	---	727.7	0.027	0.000	15.8	84	1
03/15/17	6:36 a	-20.3	-20.3	-20.4	---	---	28.7	ESE	0.48	33.9	-36.1	---	---	727.7	0.027	0.000	15.8	84	1
03/15/17	6:37 a	-20.3	-20.3	-20.4	---	---	31.3	ESE	0.52	33.9	-36.6	---	---	727.8	0.027	0.000	15.8	84	1
03/15/17	6:38 a	-20.4	-20.3	-20.4	---	---	30.4	ESE	0.51	33.9	-36.6	---	---	727.7	0.027	0.000	15.8	84	1
03/15/17	6:39 a	-20.3	-20.3	-20.4	---	---	31.3	ESE	0.52	34.8	-36.6	---	---	727.7	0.027	0.000	15.8	84	1
03/15/17	6:40 a	-20.3	-20.3	-20.3	---	---	31.3	ESE	0.52	33.9	-36.6	---	---	727.8	0.027	0.000	15.8	83	1
03/15/17	6:41 a	-20.3	-20.3	-20.4	---	---	30.4	ESE	0.51	33.9	-36.4	---	---	727.9	0.027	0.000	15.8	84	1
03/15/17	6:42 a	-20.3	-20.3	-20.3	---	---	29.6	ESE	0.49	35.7	-36.3	---	---	727.8	0.027	0.000	15.8	84	1
03/15/17	6:43 a	-20.3	-20.3	-20.4	---	---	30.4	ESE	0.51	33.9	-36.4	---	---	727.9	0.027	0.000	15.8	84	1
03/15/17	6:44 a	-20.3	-20.3	-20.3	---	---	30.4	ESE	0.51	33.0	-36.4	---	---	727.8	0.027	0.000	15.8	84	1
03/15/17	6:45 a	-20.3	-20.3	-20.3	---	---	30.4	ESE	0.51	33.9	-36.4	---	---	727.9	0.027	0.000	15.8	86	1
03/15/17	6:46 a	-20.3	-20.3	-20.4	---	---	27.8	ESE	0.46	33.0	-35.9	---	---	727.9	0.027	0.000	15.8	86	1
03/15/17	6:47 a	-20.3	-20.3	-20.3	---	---	28.7	ESE	0.48	31.3	-36.1	---	---	727.9	0.027	0.000	15.8	85	1
03/15/17	6:48 a	-20.3	-20.3	-20.3	---	---	29.6	ESE	0.49	33.9	-36.3	---	---	728.0	0.027	0.000	15.8	82	1
03/15/17	6:49 a	-20.3	-20.3	-20.4	---	---	29.6	ESE	0.49	33.9	-36.3	---	---	727.8	0.027	0.000	15.8	81	1
03/15/17	6:50 a	-20.3	-20.3	-20.3	---	---	30.4	ESE	0.51	32.2	-36.4	---	---	727.8	0.027	0.000	15.8	82	1
03/15/17	6:51 a	-20.3	-20.3	-20.4	---	---	30.4	E	0.51	33.0	-36.4	---	---	727.9	0.027	0.000	15.8	81	1
03/15/17	6:52 a	-20.3	-20.3	-20.3	---	---	30.4	E	0.51	34.8	-36.4	---	---	727.9	0.027	0.000	15.8	83	1
03/15/17	6:53 a	-20.3	-20.3	-20.3	---	---	30.4	E	0.51	33.9	-36.4	---	---	727.9	0.027	0.000	15.8	84	1
03/15/17	6:54 a	-20.3	-20.3	-20.3	---	---	29.6	ESE	0.49	31.3	-36.3	---	---	727.8	0.027	0.000	15.8	84	1
03/15/17	6:55 a	-20.3	-20.3	-20.3	---	---	29.6	ESE	0.49	33.0	-36.3	---	---	727.9	0.027	0.000	15.8	85	1
03/15/17	6:56 a	-20.3	-20.3	-20.3	---	---	29.6	ESE	0.49	32.2	-36.3	---	---	727.9	0.027	0.000	15.8	84	1
03/15/17	6:57 a	-20.3	-20.3	-20.3	---	---	31.3	ESE	0.52	33.9	-36.6	---	---	727.8	0.027	0.000	15.8	86	1
03/15/17	6:58 a	-20.3	-20.3	-20.3	---	---	31.3	ESE	0.52	33.9	-36.6	---	---	727.8	0.027	0.000	15.8	86	1
03/15/17	6:59 a	-20.3	-20.3	-20.3	---	---	29.6	ESE	0.49	32.2	-36.3	---	---	727.9	0.027	0.000	15.8	85	1
03/15/17	7:00 a	-20.3	-20.3	-20.4	---	---	29.6	ESE	0.49	32.2	-36.3	---	---	728.0	0.027	0.000	15.8	85	1
03/15/17	7:01 a	-20.3	-20.3	-20.4	---	---	28.7	E	0.48	30.4	-36.1	---	---	727.9	0.027	0.000	15.8	83	1
03/15/17	7:02 a	-20.3	-20.3	-20.3	---	---	30.4	ESE	0.51	33.0	-36.4	---	---	727.9	0.027	0.000	15.8	83	1
03/15/17	7:03 a	-20.3	-20.3	-20.4	---	---	30.4	ESE	0.51	33.9	-36.4	---	---	727.8	0.027	0.000	15.8	83	1
03/15/17	7:04 a	-20.3	-20.3	-20.4	---	---	31.3	E	0.52	33.9	-36.6	---	---	727.9	0.027	0.000	15.8	83	1
03/15/17	7:05 a	-20.3	-20.3	-20.4	---	---	30.4	E	0.51	33.0	-36.4	---	---	727.8	0.027	0.000	15.8	83	1
03/15/17	7:06 a	-20.3	-20.3	-20.4	---	---	30.4	E	0.51	33.0	-36.4	---	---	727.9	0.027	0.000	15.8	83	1
03/15/17	7:07 a	-20.4	-20.3	-20.4	---	---	28.7	ESE	0.48	32.2	-36.2	---	---	728.0	0.027	0.000	15.8	83	1
03/15/17	7:08 a	-20.4	-20.3	-20.4	---	---	27.0	ESE	0.45	31.3	-35.8	---	---	728.0	0.027	0.000	15.8	83	1
03/15/17	7:09 a	-20.3	-20.3	-20.3	---	---	26.1	ESE	0.43	28.7	-35.6	---	---	728.0	0.027	0.000	15.8	83	1
03/15/17	7:10 a	-20.3	-20.3	-20.4	---	---	26.1	ESE	0.43	28.7	-35.6	---	---	727.9	0.027	0.000	15.8	83	1
03/15/17	7:11 a	-20.4	-20.4	-20.4	---	---	27.0	ESE	0.45	30.4	-35.8	---	---	728.0	0.027	0.000	15.8	82	1
03/15/17	7:12 a	-20.4	-20.3	-20.4	---	---	28.7	ESE	0.48	31.3	-36.2	---	---	728.0	0.027	0.000	15.8	84	1
03/15/17	7:13 a	-20.4	-20.3	-20.4	---	---	27.8	ESE	0.46	31.3	-36.0	---	---	728.1	0.027	0.000	15.8	84	1
03/15/17	7:14 a	-20.4	-20.3	-20.4	---	---	29.6	E	0.49	33.0	-36.4	---	---	727.9	0.027	0.000	15.8	83	1
03/15/17	7:15 a	-20.3	-20.3	-20.4	---	---	28.7	E	0.48	33.0	-36.1	---	---	727.9	0.027	0.000	15.8	83	1
03/15/17	7:16 a	-20.4	-20.3	-20.4	---	---	27.0	ESE	0.45	29.6	-35.8	---	---	728.1	0.027	0.000	15.8	83	1
03/15/17	7:17 a	-20.4	-20.4	-20.4	---	---	27.0	ESE	0.45	29.6	-35.8	---	---	728.1	0.027	0.000	15.8	83	1
03/15/17	7:18 a	-20.4	-20.4	-20.4	---	---	23.5	ESE	0.39	26.1	-35.1	---	---	728.4	0.027	0.000	15.8	83	1
03/15/17	7:19 a	-20.4	-20.3	-20.4	---	---	23.5	E	0.39	26.1	-35.1	---	---	728.2	0.027	0.000	15.8	83	1
03/15/17	7:20 a	-20.4	-20.3	-20.4	---	---	26.1	E	0.43	27.8	-35.6	---	---	728.2	0.027	0.000	15.8	83	1
03/15/17	7:21 a	-20.4	-20.3	-20.4	---	---	26.1	E	0.43	27.8	-35.6	---	---	728.0	0.027	0.000	15.8	83	1
03/15/17	7:22 a	-20.4	-20.3	-20.4	---	---	23.5	E	0.39	27.0	-35.1	---	---	728.2	0.027	0.000	15.9	83	1
03/15/17	7:23 a	-20.4	-20.3	-20.4	---	---	23.5	ESE	0.39	30.4	-35.1	---	---	728.1	0.027	0.000	15.9	84	1
03/15/17	7:24 a	-20.4	-20.3	-20.4	---	---	22.6	ESE	0.38	33.9	-34.8	---	---	727.8	0.027	0.000	15.9	83	1
03/15/17	7:25 a	-20.3	-20.3	-20.4	---	---	21.7	E	0.36	27.0	-34.5	---	---	728.2	0.027	0.000	15.9	84	1
03/15/17	7:26 a	-20.4	-20.3	-20.4	---	---	23.5	ESE	0.39	25.2	-35.1	---	---	728.1	0.027	0.000	15.9	84	1
03/15/17	7:27 a	-20.3	-20.3	-20.4	---	---	25.2	ESE	0.42	29.6	-35.4	---	---	728.1	0.027	0.000	15.9	84	1
03/15/17	7:28 a	-20.4	-20.3	-20.4	---	---	26.1	ESE	0.43	29.6	-35.6	---	---	728.0	0.027	0.000	15.9	84	1
03/15/17	7:29 a	-20.3	-20.3	-20.3	---	---	24.3	ESE	0.41	28.7	-35.2	---	---	728.0	0.027	0.000	15.9	84	1
03/15/17	7:30 a	-20.3	-20.3	-20.4	---	---	27.0	ESE	0.45	29.6	-35.8	---	---	728.0	0.027	0.000	15.9	83	1
03/15/17	7:31 a	-20.3	-20.3	-20.3	---	---	27.8	ESE	0.46	31.3	-35.9	---	---	728.0	0.027	0.000	15.9	84	1
03/15/17	7:32 a	-20.3	-20.3	-20.3	---	---	27.8	ESE	0.46	31.3	-35.9	---	---	728.0	0.027	0.000	15.9	84	1
03/15/17	7:33 a	-20.3	-20.3	-20.3	---	---	26.1	ESE	0.43	29.6	-35.6	---	---	728.0	0.027	0.000	15.9	84	1
03/15/17	7:34 a	-20.3	-20.3	-20.3	---	---	26.1	ESE	0.43	29.6	-35.6	---	---	728.0	0.027	0.000	15.9	84	1
03/15/17	7:35 a	-20.3	-20.3	-20.3	---	---	26.1	ESE	0.43	31.3	-35.6	---	---	727.9	0.027	0.000	15.9	84	1
03/15/17	7:36 a	-20.3	-20.3	-20.3	---	---	27.8	ESE	0.46	31.3	-35.9	---	---	728.0	0.027	0.000	15.9	84	1
03/15/17	7:37 a	-20.3	-20.3	-20.3	---	---	27.0	ESE	0.45	29.6	-35.7	---	---	727.9	0.027	0.000	15.9	85	1
03/15/17	7:38 a	-20.3	-20.3	-20.3	---	---	27.0	ESE	0.45	28.7	-35.7	---	---	728.0	0.027	0.000	15.9	84	1
03/15/17	7:39 a	-20.3	-20.3	-20.3	---	---	26.1	ESE	0.43	29.6	-35.5	---	---	728.0	0.027	0.000	15.9	84	1
03/15/17	7:40 a	-20.3	-20.2	-20.3	---	---	26.1	ESE	0.43	29.6	-35.5	---	---	728.1	0.027	0.000	15.9	84	1
03/15/17	7:41 a	-20.3	-20.2	-20.3	---	---	26.1	ESE	0.43	29.6	-35.5	---	---	728.1	0.027	0.000	15.9	84	1
03/15/17	7:42 a	-20.3	-20.3	-20.3	---	---	26.1	ESE	0.43	28.7	-35.5	---	---	728.0	0.027	0.000	15.9	84	1
03/15/17	7:43 a	-20.3	-20.3	-20.3	---	---	26.1	ESE	0.43	28.7	-35.5	---	---	728.1	0.027	0.000	15.9	84	1
03/15/17	7:44 a	-20.3	-20.3	-20.3	---	---	27.0	ESE	0.45	28.7	-35.7	---	---	728.1	0.027	0.000	15.9	84	1
03/15/17	7:45 a	-20.3	-20.3	-20.3	---	---	25.2	ESE	0.42	27.0	-35.3	---	---	728.1	0.027	0.000	15.9	85	1
03/15/17	7:46 a	-20.3	-20.3	-20.3	---	---	24.3	ESE	0.41	26.1	-35.1	---	---	728.1	0.027	0.000	15.9	84	1
03/15/17	7:47 a	-20.3	-20.2	-20.3	---	---	25.2	ESE	0.42	27.8	-35.3	---	---	728.1	0.027	0.000	15.9	84	1
03/15/17	7:48 a	-20.3	-20.3	-20.3	---	---	22.6	ESE	0.38	27.0	-34.7	---	---	728.2	0.027	0.000	15.9	84	1
03/15/17	7:49 a	-20.2	-20.2	-20.3	---	---	17.4	ESE	0.29	18.3	-33.2	---	---	728.1	0.027	0.000	15.9	84	1
03/15/17	7:50 a	-20.3	-20.2	-20.3	---	---	26.1	E	0.43	29.6	-35.5	---	---	728.1	0.027	0.000	15.9	84	1
03/15/17	7:51 a	-20.3	-20.2	-20.3	---	---	26.1	E	0.43	28.7	-35.5	---	---	728.0	0.027	0.000	15.9	84	1
03/15/17	7:52 a	-20.2	-20.2	-20.3	---	---	24.3	ESE	0.41	29.6	-35.0	---	---	728.1	0.027	0.000	15.9	84	1
03/15/17	7:53 a	-20.3	-20.2	-20.3	---	---	25.2	E	0.42	28.7	-35.3	---	---	728.0	0.027	0.000	15.9	84	1
03/15/17	7:54 a	-20.2	-20.2	-20.2	---	---	28.7	E	0.48	30.4	-35.9	---	---	728.0	0.027	0.000	15.9	84	1
03/15/17	7:55 a	-20.2	-20.2	-20.2	---	---	27.8	E	0.46	31.3	-35.8	---	---	727.8	0.027	0.000	15.9	84	1
03/15/17	7:56 a	-20.3	-20.2	-20.3	---	---	28.7	E	0.48	31.3	-36.1	---	---	727.9	0.027	0.000	15.9	83	1
03/15/17	7:57 a	-20.2	-20.2	-20.3	---	---	24.3	ESE	0.41	27.8	-35.0	---	---	728.0	0.027	0.000	15.9	84	1
03/15/17	7:58 a	-20.2	-20.2	-20.2	---	---	27.0	E	0.45	29.6	-35.6	---	---	727.9	0.027	0.000	15.9	85	1
03/15/17	7:59 a	-20.2	-20.2	-20.2	---	---	27.0	E	0.45	30.4	-35.6	---	---	727.8	0.027	0.000	15.9	84	1
03/15/17	8:00 a	-20.2	-20.2	-20.2	---	---	27.8	E	0.46	31.3	-35.7	---	---	728.0	0.027	0.000	15.9	83	1
03/15/17	8:01 a	-20.2	-20.2	-20.2	---	---	26.1	ESE	0.43	30.4	-35.3	---	---	727.9	0.027	0.000	15.9	83	1
03/15/17	8:02 a	-20.2	-20.2	-20.2	---	---	27.0	ESE	0.45	28.7	-35.5	---	---	727.9	0.027	0.000	15.9	84	1
03/15/17	8:03 a	-20.2	-20.1	-20.2	---	---	27.0	ESE	0.45	30.4	-35.5	---	---	728.0	0.027	0.000	15.9	84	1
03/15/17	8:04 a	-20.2	-20.1	-20.2	---	---	26.1	ESE	0.43	29.6	-35.3	---	---	727.9	0.027	0.000	16.0	84	1
03/15/17	8:05 a	-20.2	-20.2	-20.2	---	---	26.1	ESE	0.43	30.4	-35.3	---	---	727.8	0.027	0.000	16.0	84	1
03/15/17	8:06 a	-20.2	-20.1	-20.2	---	---	26.1	ESE	0.43	29.6	-35.3	---	---	727.9	0.027	0.000	15.9	84	1
03/15/17	8:07 a	-20.1	-20.1	-20.2	---	---	25.2	ESE	0.42	31.3	-35.1	---	---	727.8	0.027	0.000	16.0	84	1
03/15/17	8:08 a	-20.1	-20.1	-20.1	---	---	28.7	E	0.48	31.3	-35.8	---	---	727.9	0.027	0.000	16.0	84	1
03/15/17	8:09 a	-20.1	-20.1	-20.1	---	---	27.0	ESE	0.45	31.3	-35.4	---	---	727.8	0.027	0.000	16.0	84	1
03/15/17	8:10 a	-20.1	-20.1	-20.1	---	---	26.1	ESE	0.43	30.4	-35.3	---	---	727.8	0.027	0.000	16.0	84	1
03/15/17	8:11 a	-20.1	-20.1	-20.1	---	---	27.0	ESE	0.45	30.4	-35.4	---	---	727.9	0.027	0.000	16.0	84	1
03/15/17	8:12 a	-20.1	-20.1	-20.1	---	---	24.3	ESE	0.41	30.4	-34.8	---	---	727.9	0.027	0.000	16.0	84	1
03/15/17	8:13 a	-20.1	-20.1	-20.1	---	---	30.4	ESE	0.51	33.0	-36.1	---	---	727.8	0.027	0.000	16.0	84	1
03/15/17	8:14 a	-20.1	-20.1	-20.1	---	---	25.2	ESE	0.42	29.6	-35.0	---	---	727.8	0.027	0.000	16.0	84	1
03/15/17	8:15 a	-20.1	-20.0	-20.1	---	---	27.0	ESE	0.45	30.4	-35.4	---	---	727.7	0.027	0.000	16.0	84	1
03/15/17	8:16 a	-20.0	-20.0	-20.0	---	---	27.8	ESE	0.46	31.3	-35.5	---	---	727.6	0.027	0.000	16.0	84	1
03/15/17	8:17 a	-20.0	-20.0	-20.0	---	---	29.6	ESE	0.49	33.9	-35.8	---	---	727.7	0.027	0.000	16.0	84	1
03/15/17	8:18 a	-20.0	-20.0	-20.0	---	---	28.7	ESE	0.48	39.1	-35.7	---	---	727.7	0.027	0.000	16.0	84	1
03/15/17	8:19 a	-20.0	-19.9	-20.0	---	---	32.2	E	0.54	40.0	-36.3	---	---	727.6	0.027	0.000	16.0	84	1
03/15/17	8:20 a	-19.9	-19.9	-20.0	---	---	28.7	E	0.48	34.8	-35.6	---	---	727.7	0.027	0.000	16.0	84	1
03/15/17	8:21 a	-19.9	-19.9	-20.0	---	---	27.8	ESE	0.46	33.0	-35.4	---	---	727.6	0.027	0.000	16.0	85	1
03/15/17	8:22 a	-19.9	-19.9	-20.0	---	---	33.0	ESE	0.55	37.4	-36.4	---	---	727.7	0.027	0.000	16.0	84	1
03/15/17	8:23 a	-19.9	-19.9	-20.0	---	---	27.8	ESE	0.46	31.3	-35.4	---	---	727.7	0.027	0.000	16.0	84	1
03/15/17	8:24 a	-19.9	-19.9	-19.9	---	---	31.3	E	0.52	37.4	-36.1	---	---	727.6	0.027	0.000	16.0	84	1
03/15/17	8:25 a	-19.9	-19.9	-20.0	---	---	31.3	E	0.52	34.8	-36.1	---	---	727.8	0.027	0.000	16.0	84	1
03/15/17	8:26 a	-19.9	-19.9	-20.0	---	---	28.7	ESE	0.48	32.2	-35.6	---	---	727.7	0.027	0.000	16.0	84	1
03/15/17	8:27 a	-19.9	-19.9	-20.0	---	---	27.8	ESE	0.46	30.4	-35.4	---	---	727.8	0.027	0.000	16.0	84	1
03/15/17	8:28 a	-19.9	-19.9	-20.0	---	---	27.0	ESE	0.45	29.6	-35.2	---	---	727.7	0.027	0.000	16.0	84	1
03/15/17	8:29 a	-20.0	-19.9	-20.0	---	---	28.7	ESE	0.48	36.5	-35.7	---	---	727.6	0.027	0.000	16.0	84	1
03/15/17	8:30 a	-19.9	-19.9	-20.0	---	---	27.8	ESE	0.46	31.3	-35.4	---	---	727.7	0.027	0.000	16.0	84	1
03/15/17	8:31 a	-19.9	-19.9	-20.0	---	---	29.6	ESE	0.49	34.8	-35.8	---	---	727.8	0.027	0.000	16.0	84	1
03/15/17	8:32 a	-19.9	-19.9	-19.9	---	---	29.6	ESE	0.49	33.9	-35.8	---	---	727.8	0.027	0.000	16.0	84	1
03/15/17	8:33 a	-19.9	-19.9	-19.9	---	---	31.3	ESE	0.52	33.9	-36.1	---	---	727.7	0.027	0.000	16.1	84	1
03/15/17	8:34 a	-19.9	-19.9	-19.9	---	---	30.4	ESE	0.51	33.0	-35.9	---	---	727.8	0.027	0.000	16.0	83	1
03/15/17	8:35 a	-19.9	-19.9	-19.9	---	---	27.8	ESE	0.46	30.4	-35.4	---	---	727.8	0.027	0.000	16.1	83	1
03/15/17	8:36 a	-19.9	-19.9	-19.9	---	---	27.8	ESE	0.46	31.3	-35.4	---	---	727.7	0.027	0.000	16.0	83	1
03/15/17	8:37 a	-19.9	-19.9	-19.9	---	---	28.7	ESE	0.48	37.4	-35.6	---	---	727.4	0.027	0.000	16.1	83	1
03/15/17	8:38 a	-19.9	-19.9	-19.9	---	---	35.7	E	0.59	40.0	-36.8	---	---	727.6	0.027	0.000	16.1	82	1
03/15/17	8:39 a	-19.9	-19.8	-19.9	---	---	32.2	ESE	0.54	34.8	-36.2	---	---	727.6	0.027	0.000	16.1	82	1
03/15/17	8:40 a	-19.9	-19.9	-19.9	---	---	31.3	ESE	0.52	36.5	-36.0	---	---	727.7	0.027	0.000	16.1	82	1
03/15/17	8:41 a	-19.9	-19.9	-19.9	---	---	27.8	ESE	0.46	30.4	-35.3	---	---	727.7	0.027	0.000	16.1	83	1
03/15/17	8:42 a	-19.8	-19.8	-19.9	---	---	29.6	ESE	0.49	33.9	-35.6	---	---	727.7	0.027	0.000	16.1	83	1
03/15/17	8:43 a	-19.8	-19.8	-19.8	---	---	30.4	ESE	0.51	33.9	-35.8	---	---	727.7	0.027	0.000	16.1	83	1
03/15/17	8:44 a	-19.8	-19.8	-19.8	---	---	29.6	E	0.49	33.9	-35.6	---	---	727.7	0.027	0.000	16.1	82	1
03/15/17	8:45 a	-19.8	-19.8	-19.8	---	---	31.3	E	0.52	35.7	-35.9	---	---	727.7	0.027	0.000	16.1	82	1
03/15/17	8:46 a	-19.8	-19.8	-19.8	---	---	32.2	ESE	0.54	36.5	-36.1	---	---	727.7	0.027	0.000	16.1	82	1
03/15/17	8:47 a	-19.8	-19.7	-19.8	---	---	31.3	ESE	0.52	35.7	-35.9	---	---	727.7	0.026	0.000	16.1	82	1
03/15/17	8:48 a	-19.8	-19.8	-19.8	---	---	33.9	ESE	0.57	38.3	-36.3	---	---	727.8	0.026	0.000	16.1	82	1
03/15/17	8:49 a	-19.8	-19.8	-19.8	---	---	27.0	ESE	0.45	34.8	-35.0	---	---	727.7	0.026	0.000	16.1	84	1
03/15/17	8:50 a	-19.7	-19.7	-19.8	---	---	31.3	ESE	0.52	39.1	-35.8	---	---	727.7	0.026	0.000	16.1	84	1
03/15/17	8:51 a	-19.7	-19.7	-19.7	---	---	30.4	ESE	0.51	33.9	-35.6	---	---	727.7	0.026	0.000	16.1	84	1
03/15/17	8:52 a	-19.7	-19.7	-19.7	---	---	34.8	ESE	0.58	40.0	-36.4	---	---	727.7	0.026	0.000	16.1	83	1
03/15/17	8:53 a	-19.7	-19.7	-19.7	---	---	29.6	ESE	0.49	34.8	-35.4	---	---	727.8	0.026	0.000	16.1	82	1
03/15/17	8:54 a	-19.7	-19.7	-19.7	---	---	31.3	ESE	0.52	35.7	-35.8	---	---	727.6	0.026	0.000	16.1	82	1
03/15/17	8:55 a	-19.7	-19.7	-19.7	---	---	29.6	ESE	0.49	33.9	-35.4	---	---	727.7	0.026	0.000	16.1	83	1
03/15/17	8:56 a	-19.7	-19.7	-19.7	---	---	35.7	ESE	0.59	39.1	-36.6	---	---	727.4	0.026	0.000	16.1	82	1
03/15/17	8:57 a	-19.7	-19.7	-19.7	---	---	31.3	ESE	0.52	36.5	-35.8	---	---	727.7	0.026	0.000	16.1	82	1
03/15/17	8:58 a	-19.7	-19.7	-19.7	---	---	29.6	ESE	0.49	36.5	-35.4	---	---	727.8	0.026	0.000	16.1	82	1
03/15/17	8:59 a	-19.7	-19.7	-19.7	---	---	29.6	ESE	0.49	36.5	-35.4	---	---	727.7	0.026	0.000	16.1	82	1
03/15/17	9:00 a	-19.7	-19.7	-19.7	---	---	32.2	ESE	0.54	36.5	-35.9	---	---	727.7	0.026	0.000	16.1	82	1
03/15/17	9:01 a	-19.7	-19.7	-19.7	---	---	30.4	ESE	0.51	34.8	-35.6	---	---	727.7	0.026	0.000	16.1	83	1
03/15/17	9:02 a	-19.7	-19.7	-19.7	---	---	29.6	ESE	0.49	33.9	-35.4	---	---	727.8	0.026	0.000	16.1	82	1
03/15/17	9:03 a	-19.7	-19.7	-19.7	---	---	27.0	ESE	0.45	33.0	-34.8	---	---	727.7	0.026	0.000	16.1	83	1
03/15/17	9:04 a	-19.7	-19.7	-19.7	---	---	29.6	ESE	0.49	33.0	-35.4	---	---	727.7	0.026	0.000	16.1	83	1
03/15/17	9:05 a	-19.7	-19.7	-19.7	---	---	30.4	ESE	0.51	37.4	-35.6	---	---	727.8	0.026	0.000	16.1	83	1
03/15/17	9:06 a	-19.7	-19.7	-19.7	---	---	29.6	ESE	0.49	33.0	-35.4	---	---	727.8	0.026	0.000	16.1	83	1
03/15/17	9:07 a	-19.7	-19.6	-19.7	---	---	29.6	ESE	0.49	36.5	-35.4	---	---	727.6	0.026	0.000	16.1	82	1
03/15/17	9:08 a	-19.7	-19.6	-19.7	---	---	33.9	ESE	0.57	38.3	-36.2	---	---	727.7	0.026	0.000	16.1	82	1
03/15/17	9:09 a	-19.7	-19.7	-19.7	---	---	32.2	ESE	0.54	34.8	-35.9	---	---	727.7	0.026	0.000	16.1	82	1
03/15/17	9:10 a	-19.7	-19.7	-19.7	---	---	29.6	ESE	0.49	33.0	-35.4	---	---	727.7	0.026	0.000	16.1	82	1
03/15/17	9:11 a	-19.7	-19.6	-19.7	---	---	28.7	ESE	0.48	32.2	-35.2	---	---	727.7	0.026	0.000	16.1	82	1
03/15/17	9:12 a	-19.7	-19.6	-19.7	---	---	27.8	ESE	0.46	32.2	-35.0	---	---	727.7	0.026	0.000	16.1	82	1
03/15/17	9:13 a	-19.7	-19.7	-19.7	---	---	29.6	ESE	0.49	34.8	-35.4	---	---	727.7	0.026	0.000	16.1	82	1
03/15/17	9:14 a	-19.7	-19.7	-19.7	---	---	30.4	ESE	0.51	34.8	-35.6	---	---	727.7	0.026	0.000	16.1	82	1
03/15/17	9:15 a	-19.7	-19.6	-19.7	---	---	33.9	ESE	0.57	37.4	-36.2	---	---	727.6	0.026	0.000	16.1	82	1
03/15/17	9:16 a	-19.7	-19.7	-19.7	---	---	32.2	E	0.54	34.8	-35.9	---	---	727.8	0.026	0.000	16.1	82	1
03/15/17	9:17 a	-19.7	-19.6	-19.7	---	---	30.4	ESE	0.51	35.7	-35.6	---	---	727.9	0.026	0.000	16.1	82	1
03/15/17	9:18 a	-19.7	-19.7	-19.7	---	---	27.8	ESE	0.46	33.0	-35.1	---	---	727.8	0.026	0.000	16.1	82	1
03/15/17	9:19 a	-19.7	-19.7	-19.7	---	---	30.4	ESE	0.51	31.3	-35.6	---	---	727.8	0.026	0.000	16.1	82	1
03/15/17	9:20 a	-19.7	-19.7	-19.7	---	---	29.6	ESE	0.49	33.0	-35.4	---	---	727.8	0.026	0.000	16.1	82	1
03/15/17	9:21 a	-19.7	-19.7	-19.8	---	---	28.7	ESE	0.48	32.2	-35.3	---	---	727.7	0.026	0.000	16.1	82	1
03/15/17	9:22 a	-19.8	-19.7	-19.8	---	---	29.6	ESE	0.49	33.9	-35.6	---	---	727.7	0.026	0.000	16.1	82	1
03/15/17	9:23 a	-19.8	-19.8	-19.8	---	---	29.6	ESE	0.49	33.9	-35.6	---	---	727.8	0.026	0.000	16.1	82	1
03/15/17	9:24 a	-19.8	-19.8	-19.8	---	---	33.9	ESE	0.57	39.1	-36.4	---	---	727.8	0.027	0.000	16.2	82	1
03/15/17	9:25 a	-19.8	-19.8	-19.9	---	---	30.4	ESE	0.51	39.1	-35.8	---	---	727.8	0.027	0.000	16.1	82	1
03/15/17	9:26 a	-19.9	-19.8	-19.9	---	---	27.8	ESE	0.46	33.0	-35.3	---	---	728.0	0.027	0.000	16.1	82	1
03/15/17	9:27 a	-19.9	-19.8	-19.9	---	---	21.7	ESE	0.36	27.0	-33.9	---	---	727.9	0.027	0.000	16.2	82	1
03/15/17	9:28 a	-19.9	-19.9	-19.9	---	---	26.1	ESE	0.43	31.3	-35.1	---	---	727.9	0.027	0.000	16.1	82	1
03/15/17	9:29 a	-19.9	-19.9	-19.9	---	---	27.8	ESE	0.46	31.3	-35.4	---	---	727.9	0.027	0.000	16.1	82	1
03/15/17	9:30 a	-19.9	-19.9	-19.9	---	---	27.0	ESE	0.45	32.2	-35.2	---	---	727.9	0.027	0.000	16.2	82	1
03/15/17	9:31 a	-19.9	-19.9	-20.0	---	---	27.8	ESE	0.46	33.0	-35.4	---	---	727.9	0.027	0.000	16.2	82	1
03/15/17	9:32 a	-19.9	-19.9	-20.0	---	---	30.4	ESE	0.51	33.0	-35.9	---	---	727.9	0.027	0.000	16.2	82	1
03/15/17	9:33 a	-20.0	-19.9	-20.0	---	---	27.8	ESE	0.46	31.3	-35.5	---	---	727.8	0.027	0.000	16.2	82	1
03/15/17	9:34 a	-20.0	-20.0	-20.0	---	---	25.2	ESE	0.42	29.6	-34.9	---	---	728.1	0.027	0.000	16.2	82	1
03/15/17	9:35 a	-20.0	-19.9	-20.1	---	---	29.6	ESE	0.49	34.8	-35.8	---	---	727.8	0.027	0.000	16.2	82	1
03/15/17	9:36 a	-20.0	-19.9	-20.1	---	---	29.6	ESE	0.49	32.2	-35.8	---	---	727.9	0.027	0.000	16.2	82	1
03/15/17	9:37 a	-20.1	-20.0	-20.1	---	---	26.1	ESE	0.43	29.6	-35.2	---	---	728.0	0.027	0.000	16.2	82	1
03/15/17	9:38 a	-20.1	-20.0	-20.1	---	---	26.1	ESE	0.43	27.8	-35.2	---	---	728.0	0.027	0.000	16.2	82	1
03/15/17	9:39 a	-20.1	-20.1	-20.1	---	---	27.0	ESE	0.45	33.9	-35.4	---	---	727.9	0.027	0.000	16.2	82	1
03/15/17	9:40 a	-20.1	-20.0	-20.1	---	---	27.8	ESE	0.46	31.3	-35.6	---	---	727.9	0.027	0.000	16.2	83	1
03/15/17	9:41 a	-20.0	-20.0	-20.1	---	---	29.6	ESE	0.49	32.2	-35.8	---	---	727.9	0.027	0.000	16.2	82	1
03/15/17	9:42 a	-20.1	-20.1	-20.1	---	---	28.7	ESE	0.48	32.2	-35.7	---	---	727.9	0.027	0.000	16.2	82	1
03/15/17	9:43 a	-20.1	-20.1	-20.1	---	---	27.8	ESE	0.46	32.2	-35.6	---	---	727.9	0.027	0.000	16.2	82	1
03/15/17	9:44 a	-20.1	-20.1	-20.1	---	---	29.6	ESE	0.49	33.9	-35.9	---	---	727.8	0.027	0.000	16.2	83	1
03/15/17	9:45 a	-20.1	-20.1	-20.1	---	---	30.4	ESE	0.51	34.8	-36.1	---	---	727.8	0.027	0.000	16.2	83	1
03/15/17	9:46 a	-20.1	-20.1	-20.1	---	---	27.0	ESE	0.45	30.4	-35.4	---	---	727.8	0.027	0.000	16.2	82	1
03/15/17	9:47 a	-20.1	-20.1	-20.1	---	---	27.8	ESE	0.46	32.2	-35.6	---	---	727.8	0.027	0.000	16.2	82	1
03/15/17	9:48 a	-20.1	-20.1	-20.1	---	---	27.8	ESE	0.46	32.2	-35.6	---	---	727.8	0.027	0.000	16.2	82	1
03/15/17	9:49 a	-20.1	-20.1	-20.1	---	---	29.6	ESE	0.49	34.8	-36.0	---	---	727.8	0.027	0.000	16.2	82	1
03/15/17	9:50 a	-20.1	-20.1	-20.1	---	---	27.8	ESE	0.46	30.4	-35.6	---	---	727.9	0.027	0.000	16.2	83	1
03/15/17	9:51 a	-20.1	-20.1	-20.2	---	---	27.0	ESE	0.45	30.4	-35.4	---	---	728.0	0.027	0.000	16.2	82	1
03/15/17	9:52 a	-20.1	-20.1	-20.1	---	---	24.3	ESE	0.41	28.7	-34.9	---	---	728.0	0.027	0.000	16.2	83	1
03/15/17	9:53 a	-20.1	-20.1	-20.1	---	---	23.5	ESE	0.39	32.2	-34.7	---	---	728.1	0.027	0.000	16.2	82	1
03/15/17	9:54 a	-20.1	-20.1	-20.1	---	---	23.5	ESE	0.39	27.8	-34.7	---	---	728.1	0.027	0.000	16.2	82	1
03/15/17	9:55 a	-20.1	-20.1	-20.1	---	---	25.2	ESE	0.42	30.4	-35.1	---	---	727.9	0.027	0.000	16.2	82	1
03/15/17	9:56 a	-20.1	-20.1	-20.1	---	---	25.2	ESE	0.42	27.8	-35.1	---	---	728.1	0.027	0.000	16.2	82	1
03/15/17	9:57 a	-20.1	-20.0	-20.1	---	---	26.1	ESE	0.43	28.7	-35.2	---	---	728.1	0.027	0.000	16.2	82	1
03/15/17	9:58 a	-20.1	-20.1	-20.1	---	---	24.3	ESE	0.41	27.0	-34.8	---	---	728.3	0.027	0.000	16.2	83	1
03/15/17	9:59 a	-20.0	-20.0	-20.1	---	---	22.6	E	0.38	27.0	-34.3	---	---	728.0	0.027	0.000	16.2	83	1
03/15/17	10:00 a	-20.0	-19.9	-20.0	---	---	25.2	E	0.42	30.4	-34.9	---	---	728.1	0.027	0.000	16.2	82	1
03/15/17	10:01 a	-19.9	-19.9	-20.0	---	---	25.2	ESE	0.42	27.8	-34.8	---	---	728.2	0.027	0.000	16.2	82	1
03/15/17	10:02 a	-19.9	-19.9	-19.9	---	---	23.5	ESE	0.39	27.0	-34.4	---	---	728.1	0.027	0.000	16.2	83	1
03/15/17	10:03 a	-19.9	-19.9	-19.9	---	---	21.7	ESE	0.36	24.3	-33.9	---	---	728.2	0.027	0.000	16.2	82	1
03/15/17	10:04 a	-19.9	-19.9	-19.9	---	---	27.0	E	0.45	33.0	-35.2	---	---	728.1	0.027	0.000	16.2	83	1
03/15/17	10:05 a	-19.9	-19.9	-19.9	---	---	26.1	E	0.43	29.6	-34.9	---	---	728.0	0.027	0.000	16.2	83	1
03/15/17	10:06 a	-19.9	-19.8	-19.9	---	---	26.1	ESE	0.43	30.4	-34.9	---	---	728.0	0.027	0.000	16.2	83	1
03/15/17	10:07 a	-19.8	-19.8	-19.8	---	---	27.8	ESE	0.46	31.3	-35.3	---	---	727.9	0.027	0.000	16.2	82	1
03/15/17	10:08 a	-19.8	-19.8	-19.9	---	---	27.8	ESE	0.46	30.4	-35.3	---	---	728.0	0.027	0.000	16.2	82	1
03/15/17	10:09 a	-19.8	-19.8	-19.8	---	---	23.5	ESE	0.39	28.7	-34.3	---	---	728.1	0.027	0.000	16.2	82	1
03/15/17	10:10 a	-19.8	-19.8	-19.8	---	---	24.3	ESE	0.41	27.0	-34.5	---	---	728.0	0.027	0.000	16.2	82	1
03/15/17	10:11 a	-19.8	-19.8	-19.9	---	---	24.3	E	0.41	27.0	-34.5	---	---	728.1	0.027	0.000	16.2	83	1
03/15/17	10:12 a	-19.8	-19.8	-19.8	---	---	24.3	E	0.41	27.8	-34.5	---	---	728.0	0.027	0.000	16.2	82	1
03/15/17	10:13 a	-19.8	-19.8	-19.9	---	---	26.1	ESE	0.43	29.6	-34.9	---	---	728.0	0.027	0.000	16.2	82	1
03/15/17	10:14 a	-19.8	-19.8	-19.9	---	---	25.2	E	0.42	27.8	-34.7	---	---	727.9	0.027	0.000	16.2	82	1
03/15/17	10:15 a	-19.9	-19.8	-19.9	---	---	27.8	E	0.46	31.3	-35.3	---	---	727.9	0.027	0.000	16.2	83	1
03/15/17	10:16 a	-19.8	-19.8	-19.8	---	---	27.0	E	0.45	31.3	-35.1	---	---	727.9	0.027	0.000	16.3	83	1
03/15/17	10:17 a	-19.8	-19.8	-19.9	---	---	29.6	E	0.49	33.9	-35.6	---	---	727.9	0.027	0.000	16.3	83	1
03/15/17	10:18 a	-19.8	-19.8	-19.9	---	---	28.7	E	0.48	31.3	-35.4	---	---	728.0	0.027	0.000	16.3	83	1
03/15/17	10:19 a	-19.9	-19.9	-19.9	---	---	27.0	ESE	0.45	29.6	-35.2	---	---	727.8	0.027	0.000	16.3	83	1
03/15/17	10:20 a	-19.9	-19.9	-19.9	---	---	29.6	E	0.49	33.0	-35.7	---	---	727.9	0.027	0.000	16.3	83	1
03/15/17	10:21 a	-19.8	-19.8	-19.9	---	---	27.0	ESE	0.45	29.6	-35.1	---	---	727.9	0.027	0.000	16.3	83	1
03/15/17	10:22 a	-19.9	-19.8	-19.9	---	---	25.2	ESE	0.42	29.6	-34.8	---	---	727.8	0.027	0.000	16.3	83	1
03/15/17	10:23 a	-19.8	-19.8	-19.9	---	---	26.1	ESE	0.43	29.6	-34.9	---	---	727.8	0.027	0.000	16.3	83	1
03/15/17	10:24 a	-19.9	-19.8	-19.9	---	---	28.7	ESE	0.48	32.2	-35.5	---	---	727.9	0.027	0.000	16.3	83	1
03/15/17	10:25 a	-19.8	-19.8	-19.9	---	---	23.5	ESE	0.39	27.8	-34.3	---	---	727.8	0.027	0.000	16.3	83	1
03/15/17	10:26 a	-19.9	-19.9	-19.9	---	---	26.1	ESE	0.43	28.7	-34.9	---	---	727.9	0.027	0.000	16.3	83	1
03/15/17	10:27 a	-19.9	-19.9	-19.9	---	---	27.8	ESE	0.46	33.0	-35.3	---	---	727.8	0.027	0.000	16.3	83	1
03/15/17	10:28 a	-19.9	-19.9	-19.9	---	---	29.6	ESE	0.49	31.3	-35.7	---	---	727.8	0.027	0.000	16.3	83	1
03/15/17	10:29 a	-19.9	-19.8	-19.9	---	---	27.8	ESE	0.46	32.2	-35.3	---	---	727.8	0.027	0.000	16.3	83	1
03/15/17	10:30 a	-19.8	-19.8	-19.9	---	---	26.1	ESE	0.43	29.6	-34.9	---	---	727.8	0.027	0.000	16.3	83	1
03/15/17	10:31 a	-19.8	-19.8	-19.8	---	---	26.1	ESE	0.43	30.4	-34.9	---	---	727.9	0.027	0.000	16.3	83	1
03/15/17	10:32 a	-19.8	-19.8	-19.8	---	---	27.0	ESE	0.45	32.2	-35.1	---	---	727.9	0.027	0.000	16.3	83	1
03/15/17	10:33 a	-19.8	-19.8	-19.8	---	---	30.4	E	0.51	34.8	-35.8	---	---	727.9	0.027	0.000	16.3	83	1
03/15/17	10:34 a	-19.8	-19.8	-19.8	---	---	26.1	ESE	0.43	29.6	-34.9	---	---	727.8	0.027	0.000	16.3	83	1
03/15/17	10:35 a	-19.8	-19.8	-19.8	---	---	26.1	ESE	0.43	30.4	-34.9	---	---	727.8	0.027	0.000	16.3	83	1
03/15/17	10:36 a	-19.8	-19.8	-19.8	---	---	27.8	ESE	0.46	31.3	-35.3	---	---	727.8	0.027	0.000	16.3	83	1
03/15/17	10:37 a	-19.8	-19.8	-19.8	---	---	27.0	ESE	0.45	31.3	-35.0	---	---	727.8	0.026	0.000	16.3	83	1
03/15/17	10:38 a	-19.8	-19.7	-19.8	---	---	28.7	E	0.48	33.9	-35.3	---	---	727.7	0.026	0.000	16.3	83	1
03/15/17	10:39 a	-19.8	-19.7	-19.8	---	---	27.8	E	0.46	31.3	-35.2	---	---	728.0	0.026	0.000	16.3	83	1
03/15/17	10:40 a	-19.7	-19.7	-19.8	---	---	24.3	ESE	0.41	29.6	-34.3	---	---	728.0	0.026	0.000	16.3	83	1
03/15/17	10:41 a	-19.7	-19.7	-19.7	---	---	22.6	E	0.38	29.6	-33.9	---	---	727.9	0.026	0.000	16.3	83	1
03/15/17	10:42 a	-19.7	-19.7	-19.7	---	---	25.2	E	0.42	29.6	-34.6	---	---	727.9	0.026	0.000	16.3	83	1
03/15/17	10:43 a	-19.7	-19.7	-19.7	---	---	24.3	ESE	0.41	27.8	-34.3	---	---	727.9	0.026	0.000	16.3	83	1
03/15/17	10:44 a	-19.7	-19.7	-19.7	---	---	26.1	ESE	0.43	29.6	-34.7	---	---	727.8	0.026	0.000	16.3	83	1
03/15/17	10:45 a	-19.7	-19.7	-19.7	---	---	26.1	ESE	0.43	30.4	-34.7	---	---	727.8	0.026	0.000	16.3	83	1
03/15/17	10:46 a	-19.6	-19.6	-19.7	---	---	27.0	ESE	0.45	31.3	-34.8	---	---	727.8	0.026	0.000	16.3	83	1
03/15/17	10:47 a	-19.7	-19.7	-19.7	---	---	26.1	ESE	0.43	29.6	-34.7	---	---	727.8	0.026	0.000	16.3	83	1
03/15/17	10:48 a	-19.7	-19.6	-19.7	---	---	29.6	ESE	0.49	33.0	-35.4	---	---	727.8	0.026	0.000	16.3	83	1
03/15/17	10:49 a	-19.6	-19.6	-19.7	---	---	27.8	ESE	0.46	31.3	-34.9	---	---	727.8	0.026	0.000	16.3	83	1
03/15/17	10:50 a	-19.6	-19.5	-19.6	---	---	27.0	ESE	0.45	29.6	-34.7	---	---	727.7	0.026	0.000	16.3	83	1
03/15/17	10:51 a	-19.6	-19.6	-19.6	---	---	29.6	E	0.49	33.0	-35.2	---	---	727.7	0.026	0.000	16.3	83	1
03/15/17	10:52 a	-19.6	-19.6	-19.6	---	---	31.3	E	0.52	34.8	-35.6	---	---	727.7	0.026	0.000	16.3	83	1
03/15/17	10:53 a	-19.6	-19.5	-19.6	---	---	30.4	E	0.51	35.7	-35.4	---	---	727.7	0.026	0.000	16.3	83	1
03/15/17	10:54 a	-19.5	-19.5	-19.6	---	---	29.6	E	0.49	33.9	-35.2	---	---	727.7	0.026	0.000	16.4	83	1
03/15/17	10:55 a	-19.5	-19.5	-19.6	---	---	29.6	E	0.49	32.2	-35.2	---	---	727.6	0.026	0.000	16.4	83	1
03/15/17	10:56 a	-19.5	-19.5	-19.6	---	---	27.8	ESE	0.46	33.9	-34.8	---	---	727.7	0.026	0.000	16.4	83	1
03/15/17	10:57 a	-19.6	-19.6	-19.6	---	---	27.0	ESE	0.45	29.6	-34.7	---	---	727.8	0.026	0.000	16.3	83	1
03/15/17	10:58 a	-19.5	-19.5	-19.6	---	---	27.8	ESE	0.46	32.2	-34.8	---	---	727.9	0.026	0.000	16.4	83	1
03/15/17	10:59 a	-19.5	-19.5	-19.5	---	---	25.2	ESE	0.42	27.8	-34.2	---	---	727.8	0.026	0.000	16.4	83	1
03/15/17	11:00 a	-19.5	-19.5	-19.5	---	---	26.1	ESE	0.43	32.2	-34.4	---	---	727.7	0.026	0.000	16.4	83	1
03/15/17	11:01 a	-19.5	-19.4	-19.5	---	---	27.8	ESE	0.46	31.3	-34.8	---	---	727.8	0.026	0.000	16.4	83	1
03/15/17	11:02 a	-19.5	-19.4	-19.5	---	---	26.1	ESE	0.43	27.8	-34.4	---	---	727.8	0.026	0.000	16.4	83	1
03/15/17	11:03 a	-19.5	-19.4	-19.5	---	---	26.1	ESE	0.43	29.6	-34.4	---	---	727.9	0.026	0.000	16.4	83	1
03/15/17	11:04 a	-19.5	-19.4	-19.5	---	---	25.2	ESE	0.42	28.7	-34.2	---	---	727.9	0.026	0.000	16.4	83	1
03/15/17	11:05 a	-19.5	-19.5	-19.5	---	---	26.1	ESE	0.43	32.2	-34.4	---	---	727.8	0.026	0.000	16.4	83	1
03/15/17	11:06 a	-19.5	-19.4	-19.5	---	---	30.4	ESE	0.51	33.9	-35.3	---	---	727.7	0.026	0.000	16.4	83	1
03/15/17	11:07 a	-19.5	-19.4	-19.5	---	---	27.8	ESE	0.46	32.2	-34.8	---	---	727.7	0.026	0.000	16.4	83	1
03/15/17	11:08 a	-19.5	-19.4	-19.5	---	---	27.8	E	0.46	33.9	-34.8	---	---	727.9	0.026	0.000	16.4	83	1
03/15/17	11:09 a	-19.5	-19.4	-19.5	---	---	27.0	ESE	0.45	31.3	-34.6	---	---	727.9	0.026	0.000	16.4	83	1
03/15/17	11:10 a	-19.5	-19.4	-19.5	---	---	27.8	ESE	0.46	32.2	-34.8	---	---	728.0	0.026	0.000	16.4	83	1
03/15/17	11:11 a	-19.4	-19.4	-19.5	---	---	24.3	ESE	0.41	29.6	-33.9	---	---	727.9	0.026	0.000	16.4	83	1
03/15/17	11:12 a	-19.5	-19.4	-19.5	---	---	26.1	ESE	0.43	30.4	-34.4	---	---	727.9	0.026	0.000	16.4	83	1
03/15/17	11:13 a	-19.5	-19.4	-19.5	---	---	27.0	ESE	0.45	31.3	-34.6	---	---	727.8	0.026	0.000	16.4	83	1
03/15/17	11:14 a	-19.5	-19.4	-19.5	---	---	24.3	ESE	0.41	28.7	-34.1	---	---	728.0	0.026	0.000	16.4	83	1
03/15/17	11:15 a	-19.5	-19.4	-19.5	---	---	24.3	ESE	0.41	27.0	-34.1	---	---	727.9	0.026	0.000	16.4	83	1
03/15/17	11:16 a	-19.4	-19.4	-19.5	---	---	26.1	ESE	0.43	30.4	-34.3	---	---	727.9	0.026	0.000	16.4	83	1
03/15/17	11:17 a	-19.4	-19.4	-19.5	---	---	26.1	ESE	0.43	27.8	-34.3	---	---	727.9	0.026	0.000	16.4	83	1
03/15/17	11:18 a	-19.4	-19.4	-19.5	---	---	26.1	ESE	0.43	29.6	-34.3	---	---	728.0	0.026	0.000	16.4	83	1
03/15/17	11:19 a	-19.4	-19.4	-19.5	---	---	24.3	ESE	0.41	27.0	-33.9	---	---	728.0	0.026	0.000	16.4	83	1
03/15/17	11:20 a	-19.4	-19.4	-19.5	---	---	23.5	ESE	0.39	27.8	-33.8	---	---	727.9	0.026	0.000	16.4	83	1
03/15/17	11:21 a	-19.4	-19.4	-19.4	---	---	26.1	E	0.43	28.7	-34.3	---	---	728.0	0.026	0.000	16.4	83	1
03/15/17	11:22 a	-19.4	-19.4	-19.4	---	---	26.1	ESE	0.43	30.4	-34.3	---	---	728.0	0.026	0.000	16.4	83	1
03/15/17	11:23 a	-19.4	-19.4	-19.4	---	---	26.1	ESE	0.43	28.7	-34.3	---	---	727.9	0.026	0.000	16.4	83	1
03/15/17	11:24 a	-19.4	-19.4	-19.4	---	---	27.8	ESE	0.46	32.2	-34.7	---	---	728.0	0.026	0.000	16.4	83	1
03/15/17	11:25 a	-19.4	-19.4	-19.4	---	---	24.3	ESE	0.41	26.1	-33.9	---	---	728.0	0.026	0.000	16.4	83	1
03/15/17	11:26 a	-19.4	-19.4	-19.4	---	---	27.8	ESE	0.46	31.3	-34.7	---	---	727.9	0.026	0.000	16.4	83	1
03/15/17	11:27 a	-19.4	-19.4	-19.4	---	---	25.2	ESE	0.42	28.7	-34.1	---	---	728.0	0.026	0.000	16.4	83	1
03/15/17	11:28 a	-19.4	-19.3	-19.4	---	---	26.1	ESE	0.43	30.4	-34.3	---	---	728.0	0.026	0.000	16.4	83	1
03/15/17	11:29 a	-19.4	-19.4	-19.4	---	---	26.1	ESE	0.43	29.6	-34.3	---	---	728.0	0.026	0.000	16.4	83	1
03/15/17	11:30 a	-19.4	-19.4	-19.4	---	---	20.9	ESE	0.35	24.3	-33.1	---	---	728.1	0.026	0.000	16.4	83	1
03/15/17	11:31 a	-19.4	-19.3	-19.4	---	---	27.8	ESE	0.46	32.2	-34.7	---	---	728.0	0.026	0.000	16.4	83	1
03/15/17	11:32 a	-19.4	-19.3	-19.4	---	---	25.2	ESE	0.42	34.8	-34.1	---	---	728.0	0.026	0.000	16.4	83	1
03/15/17	11:33 a	-19.4	-19.4	-19.4	---	---	28.7	ESE	0.48	31.3	-34.8	---	---	728.1	0.026	0.000	16.4	83	1
03/15/17	11:34 a	-19.4	-19.4	-19.4	---	---	25.2	ESE	0.42	27.0	-34.1	---	---	728.2	0.026	0.000	16.4	83	1
03/15/17	11:35 a	-19.4	-19.4	-19.4	---	---	23.5	ESE	0.39	26.1	-33.7	---	---	728.1	0.026	0.000	16.4	83	1
03/15/17	11:36 a	-19.4	-19.3	-19.4	---	---	22.6	ESE	0.38	27.8	-33.5	---	---	728.1	0.026	0.000	16.5	83	1
03/15/17	11:37 a	-19.4	-19.3	-19.4	---	---	24.3	ESE	0.41	28.7	-33.9	---	---	728.0	0.026	0.000	16.5	84	1
03/15/17	11:38 a	-19.4	-19.3	-19.4	---	---	25.2	ESE	0.42	27.8	-34.1	---	---	728.0	0.026	0.000	16.5	84	1
03/15/17	11:39 a	-19.4	-19.3	-19.4	---	---	23.5	ESE	0.39	27.8	-33.7	---	---	728.0	0.026	0.000	16.5	84	1
03/15/17	11:40 a	-19.4	-19.4	-19.4	---	---	23.5	ESE	0.39	28.7	-33.7	---	---	728.0	0.026	0.000	16.5	84	1
03/15/17	11:41 a	-19.4	-19.3	-19.4	---	---	21.7	ESE	0.36	27.0	-33.3	---	---	728.1	0.026	0.000	16.5	83	1
03/15/17	11:42 a	-19.4	-19.4	-19.4	---	---	23.5	ESE	0.39	28.7	-33.7	---	---	728.2	0.026	0.000	16.6	83	1
03/15/17	11:43 a	-19.4	-19.4	-19.4	---	---	23.5	ESE	0.39	26.1	-33.7	---	---	728.1	0.026	0.000	16.6	83	1
03/15/17	11:44 a	-19.4	-19.4	-19.4	---	---	24.3	ESE	0.41	28.7	-33.9	---	---	728.1	0.026	0.000	16.5	83	1
03/15/17	11:45 a	-19.4	-19.3	-19.4	---	---	21.7	ESE	0.36	25.2	-33.3	---	---	728.1	0.026	0.000	16.6	83	1
03/15/17	11:46 a	-19.4	-19.3	-19.4	---	---	22.6	ESE	0.38	27.0	-33.5	---	---	728.0	0.026	0.000	16.6	83	1
03/15/17	11:47 a	-19.4	-19.3	-19.4	---	---	24.3	ESE	0.41	29.6	-33.9	---	---	728.1	0.026	0.000	16.6	83	1
03/15/17	11:48 a	-19.4	-19.4	-19.4	---	---	24.3	ESE	0.41	27.8	-33.9	---	---	728.0	0.026	0.000	16.6	83	1
03/15/17	11:49 a	-19.4	-19.3	-19.4	---	---	27.0	ESE	0.45	31.3	-34.4	---	---	728.0	0.026	0.000	16.6	83	1
03/15/17	11:50 a	-19.4	-19.3	-19.4	---	---	27.0	ESE	0.45	33.0	-34.4	---	---	728.0	0.026	0.000	16.6	83	1
03/15/17	11:51 a	-19.4	-19.4	-19.4	---	---	26.1	ESE	0.43	29.6	-34.3	---	---	728.0	0.026	0.000	16.6	83	1
03/15/17	11:52 a	-19.4	-19.3	-19.4	---	---	23.5	ESE	0.39	27.8	-33.7	---	---	728.1	0.026	0.000	16.6	83	1
03/15/17	11:53 a	-19.4	-19.3	-19.4	---	---	27.0	E	0.45	31.3	-34.4	---	---	728.0	0.026	0.000	16.6	83	1
03/15/17	11:54 a	-19.4	-19.3	-19.4	---	---	26.1	E	0.43	31.3	-34.3	---	---	728.1	0.026	0.000	16.6	83	1
03/15/17	11:55 a	-19.4	-19.4	-19.4	---	---	23.5	ESE	0.39	27.0	-33.7	---	---	728.0	0.026	0.000	16.6	83	1
03/15/17	11:56 a	-19.4	-19.4	-19.4	---	---	26.1	ESE	0.43	30.4	-34.3	---	---	727.8	0.026	0.000	16.6	83	1
03/15/17	11:57 a	-19.4	-19.4	-19.4	---	---	28.7	E	0.48	32.2	-34.8	---	---	727.9	0.026	0.000	16.6	83	1
03/15/17	11:58 a	-19.4	-19.4	-19.4	---	---	27.0	ESE	0.45	29.6	-34.4	---	---	728.0	0.026	0.000	16.6	83	1
03/15/17	11:59 a	-19.4	-19.4	-19.4	---	---	25.2	ESE	0.42	29.6	-34.1	---	---	727.9	0.026	0.000	16.6	83	1
03/15/17	12:00 p	-19.4	-19.4	-19.4	---	---	26.1	ESE	0.43	28.7	-34.3	---	---	728.0	0.026	0.000	16.6	83	1
03/15/17	12:01 p	-19.4	-19.4	-19.4	---	---	23.5	ESE	0.39	26.1	-33.8	---	---	728.0	0.026	0.000	16.6	83	1
03/15/17	12:02 p	-19.4	-19.4	-19.4	---	---	28.7	ESE	0.48	31.3	-34.9	---	---	728.0	0.026	0.000	16.6	83	1
03/15/17	12:03 p	-19.4	-19.4	-19.4	---	---	27.8	ESE	0.46	30.4	-34.7	---	---	728.0	0.026	0.000	16.6	83	1
03/15/17	12:04 p	-19.4	-19.4	-19.4	---	---	26.1	ESE	0.43	29.6	-34.3	---	---	727.9	0.026	0.000	16.6	83	1
03/15/17	12:05 p	-19.4	-19.4	-19.4	---	---	29.6	ESE	0.49	33.0	-35.1	---	---	727.9	0.026	0.000	16.6	83	1
03/15/17	12:06 p	-19.4	-19.4	-19.5	---	---	30.4	ESE	0.51	34.8	-35.2	---	---	728.0	0.026	0.000	16.6	83	1
03/15/17	12:07 p	-19.5	-19.4	-19.5	---	---	26.1	ESE	0.43	30.4	-34.4	---	---	728.0	0.026	0.000	16.6	83	1
03/15/17	12:08 p	-19.5	-19.4	-19.5	---	---	24.3	ESE	0.41	29.6	-34.1	---	---	728.1	0.026	0.000	16.6	83	1
03/15/17	12:09 p	-19.5	-19.4	-19.5	---	---	27.0	ESE	0.45	31.3	-34.6	---	---	728.0	0.026	0.000	16.6	83	1
03/15/17	12:10 p	-19.5	-19.5	-19.5	---	---	27.8	ESE	0.46	32.2	-34.8	---	---	728.0	0.026	0.000	16.6	82	1
03/15/17	12:11 p	-19.6	-19.5	-19.6	---	---	30.4	ESE	0.51	34.8	-35.4	---	---	727.8	0.026	0.000	16.6	83	1
03/15/17	12:12 p	-19.6	-19.6	-19.6	---	---	28.7	ESE	0.48	32.2	-35.1	---	---	727.8	0.026	0.000	16.6	83	1
03/15/17	12:13 p	-19.6	-19.6	-19.6	---	---	28.7	ESE	0.48	33.9	-35.1	---	---	728.0	0.026	0.000	16.6	83	1
03/15/17	12:14 p	-19.6	-19.6	-19.6	---	---	26.1	ESE	0.43	29.6	-34.6	---	---	728.1	0.026	0.000	16.6	83	1
03/15/17	12:15 p	-19.6	-19.6	-19.6	---	---	27.0	ESE	0.45	32.2	-34.8	---	---	728.0	0.026	0.000	16.6	84	1
03/15/17	12:16 p	-19.6	-19.6	-19.7	---	---	27.8	E	0.46	32.2	-34.9	---	---	727.9	0.026	0.000	16.7	83	1
03/15/17	12:17 p	-19.6	-19.6	-19.6	---	---	28.7	E	0.48	31.3	-35.1	---	---	728.0	0.026	0.000	16.7	83	1
03/15/17	12:18 p	-19.7	-19.6	-19.7	---	---	27.0	E	0.45	29.6	-34.8	---	---	728.0	0.026	0.000	16.7	83	1
03/15/17	12:19 p	-19.7	-19.6	-19.7	---	---	26.1	E	0.43	34.8	-34.7	---	---	728.1	0.026	0.000	16.7	83	1
03/15/17	12:20 p	-19.7	-19.6	-19.7	---	---	27.8	E	0.46	30.4	-35.0	---	---	728.0	0.026	0.000	16.7	83	1
03/15/17	12:21 p	-19.7	-19.7	-19.7	---	---	27.8	E	0.46	30.4	-35.0	---	---	728.1	0.026	0.000	16.7	83	1
03/15/17	12:22 p	-19.7	-19.7	-19.7	---	---	27.0	ESE	0.45	30.4	-34.8	---	---	728.1	0.026	0.000	16.7	83	1
03/15/17	12:23 p	-19.7	-19.7	-19.7	---	---	27.8	ESE	0.46	31.3	-35.1	---	---	728.0	0.026	0.000	16.7	83	1
03/15/17	12:24 p	-19.7	-19.7	-19.7	---	---	24.3	ESE	0.41	29.6	-34.3	---	---	728.1	0.026	0.000	16.7	83	1
03/15/17	12:25 p	-19.7	-19.7	-19.7	---	---	27.8	E	0.46	33.0	-35.1	---	---	727.9	0.026	0.000	16.7	84	1
03/15/17	12:26 p	-19.7	-19.7	-19.7	---	---	26.1	E	0.43	29.6	-34.7	---	---	728.1	0.026	0.000	16.7	84	1
03/15/17	12:27 p	-19.7	-19.7	-19.7	---	---	27.0	E	0.45	28.7	-34.9	---	---	728.1	0.026	0.000	16.7	84	1
03/15/17	12:28 p	-19.8	-19.7	-19.8	---	---	27.0	E	0.45	30.4	-35.0	---	---	727.9	0.026	0.000	16.7	85	1
03/15/17	12:29 p	-19.7	-19.7	-19.8	---	---	26.1	E	0.43	28.7	-34.7	---	---	728.0	0.026	0.000	16.7	84	1
03/15/17	12:30 p	-19.7	-19.7	-19.8	---	---	27.0	E	0.45	28.7	-34.9	---	---	728.0	0.026	0.000	16.7	83	1
03/15/17	12:31 p	-19.7	-19.7	-19.8	---	---	24.3	ESE	0.41	28.7	-34.3	---	---	728.2	0.026	0.000	16.7	83	1
03/15/17	12:32 p	-19.8	-19.7	-19.8	---	---	27.8	ESE	0.46	30.4	-35.2	---	---	728.0	0.026	0.000	16.7	83	1
03/15/17	12:33 p	-19.7	-19.7	-19.8	---	---	27.8	ESE	0.46	30.4	-35.1	---	---	728.0	0.026	0.000	16.7	83	1
03/15/17	12:34 p	-19.7	-19.7	-19.8	---	---	25.2	ESE	0.42	28.7	-34.6	---	---	728.1	0.026	0.000	16.7	83	1
03/15/17	12:35 p	-19.8	-19.7	-19.8	---	---	27.0	ESE	0.45	30.4	-35.0	---	---	728.0	0.026	0.000	16.7	83	1
03/15/17	12:36 p	-19.7	-19.7	-19.8	---	---	27.8	E	0.46	30.4	-35.1	---	---	728.0	0.026	0.000	16.7	84	1
03/15/17	12:37 p	-19.7	-19.7	-19.8	---	---	26.1	E	0.43	30.4	-34.7	---	---	728.1	0.026	0.000	16.7	85	1
03/15/17	12:38 p	-19.8	-19.7	-19.8	---	---	26.1	ESE	0.43	28.7	-34.8	---	---	728.2	0.026	0.000	16.7	85	1
03/15/17	12:39 p	-19.8	-19.7	-19.8	---	---	25.2	ESE	0.42	28.7	-34.6	---	---	728.1	0.026	0.000	16.7	85	1
03/15/17	12:40 p	-19.8	-19.7	-19.8	---	---	27.0	ESE	0.45	29.6	-35.0	---	---	728.1	0.026	0.000	16.7	85	1
03/15/17	12:41 p	-19.8	-19.7	-19.8	---	---	27.0	ESE	0.45	29.6	-35.0	---	---	728.1	0.026	0.000	16.7	84	1
03/15/17	12:42 p	-19.8	-19.7	-19.8	---	---	26.1	ESE	0.43	30.4	-34.8	---	---	728.0	0.026	0.000	16.7	85	1
03/15/17	12:43 p	-19.8	-19.7	-19.8	---	---	26.1	ESE	0.43	29.6	-34.8	---	---	728.0	0.026	0.000	16.7	85	1
03/15/17	12:44 p	-19.8	-19.8	-19.8	---	---	27.0	E	0.45	30.4	-35.0	---	---	728.1	0.026	0.000	16.8	84	1
03/15/17	12:45 p	-19.8	-19.8	-19.8	---	---	27.0	E	0.45	29.6	-35.0	---	---	728.1	0.026	0.000	16.8	84	1
03/15/17	12:46 p	-19.8	-19.7	-19.8	---	---	28.7	E	0.48	30.4	-35.3	---	---	728.0	0.026	0.000	16.8	84	1
03/15/17	12:47 p	-19.8	-19.8	-19.8	---	---	27.8	E	0.46	31.3	-35.2	---	---	728.1	0.026	0.000	16.8	84	1
03/15/17	12:48 p	-19.8	-19.8	-19.8	---	---	27.8	E	0.46	29.6	-35.2	---	---	728.0	0.026	0.000	16.8	84	1
03/15/17	12:49 p	-19.8	-19.7	-19.8	---	---	27.0	E	0.45	28.7	-35.0	---	---	728.0	0.026	0.000	16.8	84	1
03/15/17	12:50 p	-19.8	-19.7	-19.8	---	---	27.0	E	0.45	28.7	-35.0	---	---	728.0	0.026	0.000	16.8	85	1
03/15/17	12:51 p	-19.8	-19.7	-19.8	---	---	27.8	E	0.46	29.6	-35.2	---	---	728.0	0.026	0.000	16.8	85	1
03/15/17	12:52 p	-19.8	-19.7	-19.8	---	---	26.1	ESE	0.43	28.7	-34.8	---	---	728.1	0.026	0.000	16.8	86	1
03/15/17	12:53 p	-19.8	-19.8	-19.8	---	---	27.0	ESE	0.45	27.8	-35.0	---	---	728.1	0.026	0.000	16.8	85	1
03/15/17	12:54 p	-19.8	-19.8	-19.8	---	---	24.3	ESE	0.41	28.7	-34.4	---	---	728.1	0.026	0.000	16.8	86	1
03/15/17	12:55 p	-19.8	-19.7	-19.8	---	---	26.1	E	0.43	27.8	-34.8	---	---	728.1	0.026	0.000	16.8	85	1
03/15/17	12:56 p	-19.8	-19.7	-19.8	---	---	27.0	E	0.45	29.6	-35.0	---	---	728.0	0.026	0.000	16.8	85	1
03/15/17	12:57 p	-19.8	-19.7	-19.8	---	---	27.0	E	0.45	29.6	-35.0	---	---	728.0	0.026	0.000	16.8	85	1
03/15/17	12:58 p	-19.7	-19.7	-19.8	---	---	25.2	E	0.42	29.6	-34.6	---	---	728.1	0.026	0.000	16.8	84	1
03/15/17	12:59 p	-19.8	-19.7	-19.8	---	---	27.0	E	0.45	28.7	-35.0	---	---	728.0	0.026	0.000	16.8	84	1
03/15/17	1:00 p	-19.8	-19.7	-19.8	---	---	27.0	ESE	0.45	29.6	-35.0	---	---	728.0	0.026	0.000	16.8	84	1
03/15/17	1:01 p	-19.8	-19.7	-19.8	---	---	26.1	E	0.43	29.6	-34.8	---	---	728.0	0.026	0.000	16.8	84	1
03/15/17	1:02 p	-19.8	-19.8	-19.8	---	---	27.0	E	0.45	29.6	-35.0	---	---	727.9	0.026	0.000	16.8	83	1
03/15/17	1:03 p	-19.8	-19.7	-19.8	---	---	26.1	ESE	0.43	28.7	-34.8	---	---	728.0	0.026	0.000	16.8	83	1
03/15/17	1:04 p	-19.8	-19.7	-19.8	---	---	27.0	ESE	0.45	30.4	-35.0	---	---	728.0	0.026	0.000	16.8	84	1
03/15/17	1:05 p	-19.8	-19.7	-19.8	---	---	26.1	E	0.43	29.6	-34.8	---	---	728.0	0.026	0.000	16.8	84	1
03/15/17	1:06 p	-19.8	-19.7	-19.8	---	---	27.0	ESE	0.45	29.6	-35.0	---	---	728.0	0.026	0.000	16.8	84	1
03/15/17	1:07 p	-19.8	-19.7	-19.8	---	---	28.7	ESE	0.48	31.3	-35.3	---	---	728.0	0.026	0.000	16.8	85	1
03/15/17	1:08 p	-19.7	-19.7	-19.8	---	---	28.7	E	0.48	32.2	-35.3	---	---	727.9	0.026	0.000	16.8	85	1
03/15/17	1:09 p	-19.7	-19.7	-19.8	---	---	30.4	E	0.51	32.2	-35.6	---	---	727.9	0.026	0.000	16.8	83	1
03/15/17	1:10 p	-19.7	-19.7	-19.8	---	---	29.6	ESE	0.49	32.2	-35.4	---	---	727.9	0.026	0.000	16.9	84	1
03/15/17	1:11 p	-19.7	-19.7	-19.8	---	---	28.7	E	0.48	31.3	-35.3	---	---	727.9	0.026	0.000	16.9	84	1
03/15/17	1:12 p	-19.7	-19.7	-19.7	---	---	29.6	E	0.49	33.0	-35.4	---	---	727.8	0.026	0.000	16.9	84	1
03/15/17	1:13 p	-19.7	-19.7	-19.8	---	---	29.6	E	0.49	33.0	-35.4	---	---	727.8	0.026	0.000	16.9	84	1
03/15/17	1:14 p	-19.7	-19.7	-19.7	---	---	30.4	E	0.51	32.2	-35.6	---	---	727.9	0.026	0.000	16.9	85	1
03/15/17	1:15 p	-19.7	-19.7	-19.7	---	---	31.3	E	0.52	34.8	-35.8	---	---	727.8	0.026	0.000	16.9	85	1
03/15/17	1:16 p	-19.7	-19.7	-19.8	---	---	29.6	E	0.49	33.0	-35.4	---	---	727.9	0.026	0.000	16.9	84	1
03/15/17	1:17 p	-19.7	-19.7	-19.8	---	---	27.0	E	0.45	30.4	-34.9	---	---	728.0	0.026	0.000	16.9	84	1
03/15/17	1:18 p	-19.8	-19.7	-19.8	---	---	30.4	E	0.51	33.9	-35.7	---	---	727.9	0.026	0.000	16.9	84	1
03/15/17	1:19 p	-19.8	-19.7	-19.8	---	---	30.4	E	0.51	33.0	-35.7	---	---	728.0	0.026	0.000	16.9	84	1
03/15/17	1:20 p	-19.7	-19.7	-19.8	---	---	29.6	E	0.49	31.3	-35.4	---	---	727.9	0.026	0.000	17.0	84	1
03/15/17	1:21 p	-19.8	-19.7	-19.8	---	---	27.0	E	0.45	30.4	-35.0	---	---	728.0	0.026	0.000	17.0	84	1
03/15/17	1:22 p	-19.8	-19.7	-19.8	---	---	27.8	E	0.46	31.3	-35.2	---	---	728.0	0.026	0.000	17.0	85	1
03/15/17	1:23 p	-19.8	-19.7	-19.8	---	---	29.6	E	0.49	32.2	-35.6	---	---	727.9	0.026	0.000	17.0	84	1
03/15/17	1:24 p	-19.8	-19.8	-19.8	---	---	28.7	E	0.48	31.3	-35.3	---	---	728.0	0.026	0.000	17.0	85	1
03/15/17	1:25 p	-19.8	-19.8	-19.8	---	---	28.7	E	0.48	33.0	-35.3	---	---	728.0	0.026	0.000	17.1	85	1
03/15/17	1:26 p	-19.8	-19.7	-19.8	---	---	27.8	E	0.46	31.3	-35.2	---	---	728.0	0.026	0.000	17.1	84	1
03/15/17	1:27 p	-19.8	-19.8	-19.8	---	---	28.7	E	0.48	33.0	-35.4	---	---	727.8	0.027	0.000	17.1	85	1
03/15/17	1:28 p	-19.8	-19.8	-19.8	---	---	30.4	E	0.51	33.0	-35.7	---	---	727.9	0.026	0.000	17.1	86	1
03/15/17	1:29 p	-19.8	-19.8	-19.8	---	---	28.7	E	0.48	32.2	-35.4	---	---	728.0	0.027	0.000	17.1	85	1
03/15/17	1:30 p	-19.8	-19.8	-19.8	---	---	27.0	E	0.45	30.4	-35.0	---	---	728.0	0.026	0.000	17.1	84	1
03/15/17	1:31 p	-19.8	-19.8	-19.8	---	---	27.8	E	0.46	31.3	-35.3	---	---	727.9	0.027	0.000	17.1	85	1
03/15/17	1:32 p	-19.8	-19.8	-19.8	---	---	29.6	E	0.49	33.0	-35.6	---	---	728.0	0.027	0.000	17.1	84	1
03/15/17	1:33 p	-19.8	-19.8	-19.8	---	---	27.8	E	0.46	30.4	-35.3	---	---	728.0	0.027	0.000	17.1	84	1
03/15/17	1:34 p	-19.8	-19.8	-19.8	---	---	28.7	E	0.48	31.3	-35.4	---	---	727.9	0.027	0.000	17.2	84	1
03/15/17	1:35 p	-19.8	-19.8	-19.8	---	---	29.6	E	0.49	33.0	-35.6	---	---	727.9	0.027	0.000	17.2	84	1
03/15/17	1:36 p	-19.8	-19.8	-19.9	---	---	28.7	E	0.48	32.2	-35.4	---	---	728.0	0.027	0.000	17.2	84	1
03/15/17	1:37 p	-19.8	-19.8	-19.9	---	---	27.8	E	0.46	31.3	-35.3	---	---	727.9	0.027	0.000	17.2	84	1
03/15/17	1:38 p	-19.8	-19.8	-19.9	---	---	27.0	E	0.45	31.3	-35.1	---	---	727.9	0.027	0.000	17.2	84	1
03/15/17	1:39 p	-19.9	-19.9	-19.9	---	---	29.6	E	0.49	32.2	-35.7	---	---	727.9	0.027	0.000	17.2	84	1
03/15/17	1:40 p	-19.9	-19.9	-19.9	---	---	28.7	ESE	0.48	31.3	-35.5	---	---	727.9	0.027	0.000	17.2	84	1
03/15/17	1:41 p	-19.9	-19.8	-19.9	---	---	29.6	E	0.49	32.2	-35.7	---	---	727.9	0.027	0.000	17.2	84	1
03/15/17	1:42 p	-19.9	-19.8	-19.9	---	---	29.6	E	0.49	31.3	-35.7	---	---	727.9	0.027	0.000	17.2	84	1
03/15/17	1:43 p	-19.9	-19.9	-19.9	---	---	29.6	ESE	0.49	32.2	-35.7	---	---	727.9	0.027	0.000	17.2	85	1
03/15/17	1:44 p	-19.9	-19.9	-19.9	---	---	29.6	ESE	0.49	32.2	-35.7	---	---	727.8	0.027	0.000	17.2	85	1
03/15/17	1:45 p	-19.9	-19.9	-19.9	---	---	28.7	ESE	0.48	31.3	-35.5	---	---	727.9	0.027	0.000	17.2	85	1
03/15/17	1:46 p	-19.9	-19.9	-19.9	---	---	30.4	E	0.51	33.9	-35.8	---	---	727.9	0.027	0.000	17.2	85	1
03/15/17	1:47 p	-19.9	-19.9	-19.9	---	---	27.8	ESE	0.46	31.3	-35.3	---	---	727.9	0.027	0.000	17.2	85	1
03/15/17	1:48 p	-19.9	-19.9	-19.9	---	---	28.7	ESE	0.48	31.3	-35.5	---	---	727.9	0.027	0.000	17.2	85	1
03/15/17	1:49 p	-19.9	-19.9	-19.9	---	---	30.4	E	0.51	32.2	-35.8	---	---	727.8	0.027	0.000	17.2	85	1
03/15/17	1:50 p	-19.9	-19.9	-19.9	---	---	28.7	E	0.48	31.3	-35.5	---	---	727.8	0.027	0.000	17.2	85	1
03/15/17	1:51 p	-19.9	-19.9	-19.9	---	---	29.6	E	0.49	32.2	-35.7	---	---	727.8	0.027	0.000	17.2	86	1
03/15/17	1:52 p	-19.9	-19.9	-19.9	---	---	29.6	ESE	0.49	32.2	-35.7	---	---	727.8	0.027	0.000	17.2	86	1
03/15/17	1:53 p	-19.9	-19.9	-19.9	---	---	29.6	E	0.49	33.0	-35.8	---	---	727.8	0.027	0.000	17.2	86	1
03/15/17	1:54 p	-19.9	-19.9	-19.9	---	---	29.6	E	0.49	32.2	-35.8	---	---	727.9	0.027	0.000	17.2	85	1
03/15/17	1:55 p	-19.9	-19.9	-19.9	---	---	29.6	E	0.49	33.0	-35.8	---	---	727.9	0.027	0.000	17.2	85	1
03/15/17	1:56 p	-19.9	-19.9	-19.9	---	---	29.6	ESE	0.49	32.2	-35.8	---	---	727.9	0.027	0.000	17.2	86	1
03/15/17	1:57 p	-19.9	-19.9	-19.9	---	---	28.7	ESE	0.48	32.2	-35.6	---	---	727.9	0.027	0.000	17.2	86	1
03/15/17	1:58 p	-19.9	-19.9	-19.9	---	---	27.8	ESE	0.46	31.3	-35.4	---	---	727.9	0.027	0.000	17.2	86	1
03/15/17	1:59 p	-19.9	-19.9	-20.0	---	---	28.7	ESE	0.48	31.3	-35.6	---	---	727.9	0.027	0.000	17.2	86	1
03/15/17	2:00 p	-19.9	-19.9	-19.9	---	---	28.7	ESE	0.48	30.4	-35.6	---	---	728.0	0.027	0.000	17.2	86	1
03/15/17	2:01 p	-20.0	-19.9	-20.0	---	---	27.8	ESE	0.46	30.4	-35.5	---	---	727.9	0.027	0.000	17.2	86	1
03/15/17	2:02 p	-19.9	-19.9	-20.0	---	---	27.8	ESE	0.46	30.4	-35.4	---	---	727.9	0.027	0.000	17.2	84	1
03/15/17	2:03 p	-20.0	-20.0	-20.0	---	---	27.8	ESE	0.46	31.3	-35.5	---	---	727.9	0.027	0.000	17.2	85	1
03/15/17	2:04 p	-20.0	-20.0	-20.0	---	---	27.0	ESE	0.45	30.4	-35.3	---	---	727.9	0.027	0.000	17.2	85	1
03/15/17	2:05 p	-20.0	-20.0	-20.1	---	---	27.8	ESE	0.46	31.3	-35.5	---	---	727.9	0.027	0.000	17.2	85	1
03/15/17	2:06 p	-20.1	-20.1	-20.1	---	---	28.7	ESE	0.48	31.3	-35.7	---	---	727.8	0.027	0.000	17.2	85	1
03/15/17	2:07 p	-20.1	-20.0	-20.1	---	---	28.7	E	0.48	31.3	-35.7	---	---	727.9	0.027	0.000	17.2	85	1
03/15/17	2:08 p	-20.0	-20.0	-20.1	---	---	31.3	ESE	0.52	33.0	-36.2	---	---	727.8	0.027	0.000	17.2	85	1
03/15/17	2:09 p	-20.1	-20.1	-20.1	---	---	28.7	ESE	0.48	31.3	-35.7	---	---	727.8	0.027	0.000	17.2	85	1
03/15/17	2:10 p	-20.1	-20.1	-20.1	---	---	27.8	ESE	0.46	29.6	-35.6	---	---	727.9	0.027	0.000	17.2	85	1
03/15/17	2:11 p	-20.1	-20.1	-20.1	---	---	25.2	ESE	0.42	27.8	-35.0	---	---	727.8	0.027	0.000	17.3	85	1
03/15/17	2:12 p	-20.1	-20.1	-20.1	---	---	27.0	ESE	0.45	29.6	-35.4	---	---	727.9	0.027	0.000	17.2	85	1
03/15/17	2:13 p	-20.1	-20.1	-20.1	---	---	27.8	ESE	0.46	29.6	-35.6	---	---	727.8	0.027	0.000	17.2	85	1
03/15/17	2:14 p	-20.1	-20.1	-20.1	---	---	27.8	ESE	0.46	30.4	-35.6	---	---	727.9	0.027	0.000	17.2	85	1
03/15/17	2:15 p	-20.1	-20.1	-20.1	---	---	26.1	ESE	0.43	28.7	-35.3	---	---	727.9	0.027	0.000	17.2	85	1
03/15/17	2:16 p	-20.2	-20.1	-20.2	---	---	27.0	ESE	0.45	29.6	-35.5	---	---	727.9	0.027	0.000	17.2	85	1
03/15/17	2:17 p	-20.2	-20.1	-20.2	---	---	28.7	ESE	0.48	29.6	-35.9	---	---	728.0	0.027	0.000	17.2	85	1
03/15/17	2:18 p	-20.2	-20.1	-20.2	---	---	27.8	ESE	0.46	31.3	-35.7	---	---	727.9	0.027	0.000	17.3	85	1
03/15/17	2:19 p	-20.1	-20.1	-20.2	---	---	27.8	ESE	0.46	30.4	-35.6	---	---	728.0	0.027	0.000	17.3	85	1
03/15/17	2:20 p	-20.2	-20.2	-20.2	---	---	29.6	ESE	0.49	31.3	-36.1	---	---	727.9	0.027	0.000	17.3	85	1
03/15/17	2:21 p	-20.2	-20.1	-20.2	---	---	27.8	ESE	0.46	29.6	-35.7	---	---	727.9	0.027	0.000	17.3	85	1
03/15/17	2:22 p	-20.2	-20.1	-20.2	---	---	28.7	ESE	0.48	31.3	-35.9	---	---	727.8	0.027	0.000	17.3	85	1
03/15/17	2:23 p	-20.2	-20.2	-20.2	---	---	28.7	ESE	0.48	32.2	-35.9	---	---	727.9	0.027	0.000	17.3	85	1
03/15/17	2:24 p	-20.2	-20.2	-20.2	---	---	27.8	ESE	0.46	31.3	-35.7	---	---	727.9	0.027	0.000	17.3	85	1
03/15/17	2:25 p	-20.2	-20.2	-20.2	---	---	27.0	ESE	0.45	29.6	-35.6	---	---	727.8	0.027	0.000	17.3	85	1
03/15/17	2:26 p	-20.2	-20.2	-20.2	---	---	28.7	ESE	0.48	31.3	-35.9	---	---	727.8	0.027	0.000	17.3	85	1
03/15/17	2:27 p	-20.2	-20.2	-20.2	---	---	27.8	ESE	0.46	31.3	-35.8	---	---	728.0	0.027	0.000	17.3	85	1
03/15/17	2:28 p	-20.2	-20.2	-20.2	---	---	28.7	ESE	0.48	31.3	-35.9	---	---	727.8	0.027	0.000	17.3	85	1
03/15/17	2:29 p	-20.2	-20.2	-20.2	---	---	30.4	ESE	0.51	33.0	-36.3	---	---	727.8	0.027	0.000	17.3	85	1
03/15/17	2:30 p	-20.2	-20.2	-20.2	---	---	29.6	ESE	0.49	32.2	-36.2	---	---	727.8	0.027	0.000	17.3	85	1
03/15/17	2:31 p	-20.2	-20.2	-20.3	---	---	28.7	ESE	0.48	33.0	-35.9	---	---	727.9	0.027	0.000	17.3	85	1
03/15/17	2:32 p	-20.2	-20.2	-20.2	---	---	27.0	ESE	0.45	29.6	-35.6	---	---	728.0	0.027	0.000	17.3	85	1
03/15/17	2:33 p	-20.3	-20.2	-20.3	---	---	27.0	ESE	0.45	33.0	-35.7	---	---	727.9	0.027	0.000	17.3	85	1
03/15/17	2:34 p	-20.2	-20.2	-20.2	---	---	29.6	ESE	0.49	31.3	-36.2	---	---	727.9	0.027	0.000	17.3	85	1
03/15/17	2:35 p	-20.3	-20.3	-20.3	---	---	28.7	ESE	0.48	32.2	-36.1	---	---	727.7	0.027	0.000	17.3	85	1
03/15/17	2:36 p	-20.3	-20.2	-20.3	---	---	28.7	ESE	0.48	31.3	-36.1	---	---	727.9	0.027	0.000	17.3	85	1
03/15/17	2:37 p	-20.3	-20.3	-20.3	---	---	27.8	ESE	0.46	32.2	-35.9	---	---	727.8	0.027	0.000	17.3	85	1
03/15/17	2:38 p	-20.3	-20.2	-20.3	---	---	27.8	ESE	0.46	30.4	-35.9	---	---	727.9	0.027	0.000	17.3	85	1
03/15/17	2:39 p	-20.3	-20.3	-20.3	---	---	27.8	ESE	0.46	31.3	-35.9	---	---	727.9	0.027	0.000	17.3	85	1
03/15/17	2:40 p	-20.3	-20.3	-20.3	---	---	25.2	ESE	0.42	30.4	-35.3	---	---	727.9	0.027	0.000	17.3	85	1
03/15/17	2:41 p	-20.3	-20.2	-20.3	---	---	27.0	ESE	0.45	29.6	-35.7	---	---	727.9	0.027	0.000	17.3	85	1
03/15/17	2:42 p	-20.3	-20.3	-20.3	---	---	28.7	ESE	0.48	31.3	-36.1	---	---	727.8	0.027	0.000	17.3	85	1
03/15/17	2:43 p	-20.3	-20.3	-20.3	---	---	28.7	ESE	0.48	32.2	-36.1	---	---	727.8	0.027	0.000	17.3	85	1
03/15/17	2:44 p	-20.3	-20.2	-20.3	---	---	29.6	ESE	0.49	32.2	-36.2	---	---	727.9	0.027	0.000	17.3	85	1
03/15/17	2:45 p	-20.3	-20.3	-20.3	---	---	27.0	ESE	0.45	30.4	-35.7	---	---	727.9	0.027	0.000	17.3	85	1
03/15/17	2:46 p	-20.3	-20.2	-20.3	---	---	27.0	ESE	0.45	29.6	-35.7	---	---	727.9	0.027	0.000	17.3	85	1
03/15/17	2:47 p	-20.3	-20.3	-20.3	---	---	26.1	ESE	0.43	29.6	-35.5	---	---	727.8	0.027	0.000	17.3	85	1
03/15/17	2:48 p	-20.3	-20.2	-20.3	---	---	27.8	ESE	0.46	30.4	-35.9	---	---	727.9	0.027	0.000	17.3	85	1
03/15/17	2:49 p	-20.3	-20.3	-20.3	---	---	27.8	ESE	0.46	31.3	-35.9	---	---	727.7	0.027	0.000	17.3	85	1
03/15/17	2:50 p	-20.3	-20.3	-20.3	---	---	27.8	ESE	0.46	31.3	-35.9	---	---	727.8	0.027	0.000	17.3	85	1
03/15/17	2:51 p	-20.3	-20.3	-20.3	---	---	27.8	ESE	0.46	31.3	-35.9	---	---	727.8	0.027	0.000	17.3	85	1
03/15/17	2:52 p	-20.3	-20.3	-20.3	---	---	26.1	ESE	0.43	29.6	-35.6	---	---	727.8	0.027	0.000	17.3	85	1
03/15/17	2:53 p	-20.3	-20.3	-20.3	---	---	28.7	ESE	0.48	30.4	-36.1	---	---	727.8	0.027	0.000	17.3	85	1
03/15/17	2:54 p	-20.3	-20.3	-20.3	---	---	27.0	ESE	0.45	30.4	-35.8	---	---	727.8	0.027	0.000	17.3	85	1
03/15/17	2:55 p	-20.3	-20.3	-20.4	---	---	27.8	ESE	0.46	31.3	-35.9	---	---	727.8	0.027	0.000	17.3	85	1
03/15/17	2:56 p	-20.3	-20.3	-20.4	---	---	25.2	ESE	0.42	27.8	-35.4	---	---	728.0	0.027	0.000	17.3	85	1
03/15/17	2:57 p	-20.3	-20.3	-20.4	---	---	27.0	ESE	0.45	30.4	-35.8	---	---	727.9	0.027	0.000	17.3	85	1
03/15/17	2:58 p	-20.4	-20.4	-20.4	---	---	27.0	ESE	0.45	28.7	-35.8	---	---	727.9	0.027	0.000	17.3	85	1
03/15/17	2:59 p	-20.4	-20.3	-20.4	---	---	27.8	ESE	0.46	32.2	-36.0	---	---	727.8	0.027	0.000	17.3	85	1
03/15/17	3:00 p	-20.4	-20.4	-20.4	---	---	29.6	ESE	0.49	32.2	-36.4	---	---	727.8	0.027	0.000	17.3	85	1
03/15/17	3:01 p	-20.4	-20.4	-20.4	---	---	28.7	ESE	0.48	32.2	-36.2	---	---	727.8	0.027	0.000	17.3	85	1
03/15/17	3:02 p	-20.4	-20.4	-20.4	---	---	27.0	ESE	0.45	30.4	-35.8	---	---	727.9	0.027	0.000	17.3	85	1
03/15/17	3:03 p	-20.4	-20.4	-20.4	---	---	28.7	ESE	0.48	31.3	-36.3	---	---	727.8	0.027	0.000	17.3	85	1
03/15/17	3:04 p	-20.4	-20.4	-20.5	---	---	29.6	ESE	0.49	32.2	-36.4	---	---	727.9	0.027	0.000	17.3	85	1
03/15/17	3:05 p	-20.4	-20.4	-20.5	---	---	27.0	ESE	0.45	29.6	-35.9	---	---	727.9	0.027	0.000	17.3	85	1
03/15/17	3:06 p	-20.4	-20.4	-20.5	---	---	27.0	ESE	0.45	31.3	-35.9	---	---	727.9	0.027	0.000	17.3	85	1
03/15/17	3:07 p	-20.5	-20.5	-20.5	---	---	27.0	ESE	0.45	29.6	-36.0	---	---	727.8	0.027	0.000	17.3	85	1
03/15/17	3:08 p	-20.5	-20.5	-20.5	---	---	27.0	ESE	0.45	28.7	-36.0	---	---	727.8	0.027	0.000	17.3	85	1
03/15/17	3:09 p	-20.5	-20.4	-20.5	---	---	25.2	ESE	0.42	28.7	-35.6	---	---	727.9	0.027	0.000	17.3	85	1
03/15/17	3:10 p	-20.5	-20.5	-20.6	---	---	26.1	ESE	0.43	28.7	-35.8	---	---	727.9	0.027	0.000	17.3	85	1
03/15/17	3:11 p	-20.6	-20.5	-20.6	---	---	27.8	ESE	0.46	31.3	-36.2	---	---	727.9	0.027	0.000	17.3	85	1
03/15/17	3:12 p	-20.6	-20.5	-20.6	---	---	26.1	ESE	0.43	27.8	-35.9	---	---	727.8	0.027	0.000	17.3	85	1
03/15/17	3:13 p	-20.6	-20.5	-20.6	---	---	29.6	ESE	0.49	31.3	-36.6	---	---	727.9	0.027	0.000	17.3	85	1
03/15/17	3:14 p	-20.5	-20.5	-20.6	---	---	27.8	ESE	0.46	31.3	-36.2	---	---	727.7	0.027	0.000	17.3	85	1
03/15/17	3:15 p	-20.6	-20.6	-20.6	---	---	30.4	ESE	0.51	32.2	-36.8	---	---	727.8	0.027	0.000	17.3	85	1
03/15/17	3:16 p	-20.6	-20.5	-20.6	---	---	28.7	ESE	0.48	32.2	-36.4	---	---	727.9	0.027	0.000	17.3	85	1
03/15/17	3:17 p	-20.6	-20.6	-20.6	---	---	27.0	ESE	0.45	29.6	-36.1	---	---	727.8	0.027	0.000	17.3	85	1
03/15/17	3:18 p	-20.6	-20.6	-20.6	---	---	26.1	ESE	0.43	30.4	-35.9	---	---	727.8	0.027	0.000	17.3	85	1
03/15/17	3:19 p	-20.6	-20.6	-20.6	---	---	27.8	ESE	0.46	30.4	-36.2	---	---	727.8	0.027	0.000	17.3	85	1
03/15/17	3:20 p	-20.6	-20.6	-20.6	---	---	27.8	ESE	0.46	31.3	-36.3	---	---	727.7	0.027	0.000	17.4	85	1
03/15/17	3:21 p	-20.6	-20.6	-20.6	---	---	30.4	ESE	0.51	33.0	-36.8	---	---	727.7	0.027	0.000	17.3	86	1
03/15/17	3:22 p	-20.7	-20.6	-20.7	---	---	27.8	ESE	0.46	30.4	-36.4	---	---	727.8	0.027	0.000	17.3	86	1
03/15/17	3:23 p	-20.7	-20.6	-20.7	---	---	27.8	ESE	0.46	31.3	-36.4	---	---	727.8	0.027	0.000	17.3	86	1
03/15/17	3:24 p	-20.6	-20.6	-20.7	---	---	27.8	ESE	0.46	28.7	-36.3	---	---	727.8	0.027	0.000	17.4	86	1
03/15/17	3:25 p	-20.7	-20.7	-20.7	---	---	27.0	ESE	0.45	30.4	-36.2	---	---	727.8	0.027	0.000	17.3	86	1
03/15/17	3:26 p	-20.7	-20.6	-20.7	---	---	28.7	ESE	0.48	32.2	-36.6	---	---	727.7	0.027	0.000	17.4	87	1
03/15/17	3:27 p	-20.7	-20.7	-20.7	---	---	28.7	ESE	0.48	30.4	-36.6	---	---	727.8	0.027	0.000	17.4	85	1
03/15/17	3:28 p	-20.7	-20.7	-20.7	---	---	27.0	ESE	0.45	29.6	-36.3	---	---	727.8	0.027	0.000	17.4	85	1
03/15/17	3:29 p	-20.7	-20.7	-20.7	---	---	28.7	ESE	0.48	31.3	-36.6	---	---	727.8	0.027	0.000	17.4	86	1
03/15/17	3:30 p	-20.7	-20.7	-20.7	---	---	27.0	ESE	0.45	29.6	-36.3	---	---	727.7	0.027	0.000	17.4	86	1
03/15/17	3:31 p	-20.7	-20.7	-20.7	---	---	27.8	ESE	0.46	30.4	-36.4	---	---	727.8	0.027	0.000	17.4	86	1
03/15/17	3:32 p	-20.7	-20.7	-20.7	---	---	27.0	ESE	0.45	29.6	-36.3	---	---	727.8	0.027	0.000	17.4	86	1
03/15/17	3:33 p	-20.7	-20.7	-20.7	---	---	27.8	ESE	0.46	31.3	-36.4	---	---	727.7	0.027	0.000	17.4	86	1
03/15/17	3:34 p	-20.7	-20.7	-20.8	---	---	28.7	ESE	0.48	31.3	-36.7	---	---	727.7	0.027	0.000	17.4	86	1
03/15/17	3:35 p	-20.8	-20.7	-20.8	---	---	28.7	ESE	0.48	32.2	-36.7	---	---	727.7	0.027	0.000	17.4	86	1
03/15/17	3:36 p	-20.7	-20.7	-20.8	---	---	28.7	ESE	0.48	32.2	-36.7	---	---	727.7	0.027	0.000	17.4	86	1
03/15/17	3:37 p	-20.8	-20.7	-20.8	---	---	28.7	ESE	0.48	33.0	-36.7	---	---	727.7	0.027	0.000	17.4	86	1
03/15/17	3:38 p	-20.8	-20.7	-20.8	---	---	28.7	ESE	0.48	33.0	-36.7	---	---	727.7	0.027	0.000	17.4	86	1
03/15/17	3:39 p	-20.7	-20.7	-20.8	---	---	28.7	ESE	0.48	30.4	-36.7	---	---	727.8	0.027	0.000	17.4	86	1
03/15/17	3:40 p	-20.8	-20.7	-20.8	---	---	27.0	ESE	0.45	30.4	-36.3	---	---	727.7	0.027	0.000	17.4	86	1
03/15/17	3:41 p	-20.8	-20.8	-20.8	---	---	28.7	ESE	0.48	32.2	-36.7	---	---	727.8	0.027	0.000	17.4	86	1
03/15/17	3:42 p	-20.8	-20.8	-20.8	---	---	29.6	ESE	0.49	32.2	-36.9	---	---	727.8	0.027	0.000	17.4	86	1
03/15/17	3:43 p	-20.8	-20.8	-20.8	---	---	29.6	ESE	0.49	31.3	-36.9	---	---	727.8	0.027	0.000	17.4	86	1
03/15/17	3:44 p	-20.8	-20.8	-20.8	---	---	28.7	ESE	0.48	31.3	-36.7	---	---	727.8	0.027	0.000	17.4	86	1
03/15/17	3:45 p	-20.8	-20.8	-20.8	---	---	29.6	ESE	0.49	31.3	-37.0	---	---	727.7	0.027	0.000	17.4	86	1
03/15/17	3:46 p	-20.8	-20.8	-20.8	---	---	27.8	ESE	0.46	30.4	-36.6	---	---	727.8	0.027	0.000	17.4	86	1
03/15/17	3:47 p	-20.8	-20.8	-20.8	---	---	28.7	ESE	0.48	31.3	-36.8	---	---	727.7	0.027	0.000	17.4	86	1
03/15/17	3:48 p	-20.8	-20.8	-20.8	---	---	27.0	ESE	0.45	30.4	-36.4	---	---	727.7	0.027	0.000	17.4	86	1
03/15/17	3:49 p	-20.8	-20.8	-20.8	---	---	29.6	ESE	0.49	32.2	-37.0	---	---	727.7	0.027	0.000	17.4	86	1
03/15/17	3:50 p	-20.8	-20.8	-20.8	---	---	29.6	ESE	0.49	32.2	-37.0	---	---	727.7	0.027	0.000	17.4	86	1
03/15/17	3:51 p	-20.8	-20.8	-20.8	---	---	28.7	ESE	0.48	33.0	-36.8	---	---	727.7	0.027	0.000	17.4	86	1
03/15/17	3:52 p	-20.8	-20.8	-20.9	---	---	29.6	ESE	0.49	32.2	-37.0	---	---	727.7	0.027	0.000	17.4	86	1
03/15/17	3:53 p	-20.8	-20.8	-20.9	---	---	30.4	ESE	0.51	33.0	-37.2	---	---	727.7	0.027	0.000	17.4	86	1
03/15/17	3:54 p	-20.9	-20.8	-20.9	---	---	28.7	ESE	0.48	32.2	-36.9	---	---	727.8	0.027	0.000	17.4	86	1
03/15/17	3:55 p	-20.9	-20.9	-20.9	---	---	28.7	ESE	0.48	31.3	-36.9	---	---	727.7	0.027	0.000	17.4	86	1
03/15/17	3:56 p	-20.9	-20.9	-20.9	---	---	29.6	ESE	0.49	33.0	-37.1	---	---	727.7	0.027	0.000	17.4	86	1
03/15/17	3:57 p	-20.9	-20.9	-20.9	---	---	27.8	ESE	0.46	31.3	-36.7	---	---	727.7	0.027	0.000	17.4	86	1
03/15/17	3:58 p	-20.9	-20.9	-20.9	---	---	27.8	ESE	0.46	32.2	-36.7	---	---	727.7	0.027	0.000	17.4	86	1
03/15/17	3:59 p	-20.9	-20.9	-20.9	---	---	28.7	ESE	0.48	32.2	-36.9	---	---	727.7	0.027	0.000	17.4	86	1
03/15/17	4:00 p	-20.9	-20.9	-20.9	---	---	30.4	ESE	0.51	33.0	-37.2	---	---	727.8	0.027	0.000	17.4	86	1
03/15/17	4:01 p	-20.9	-20.9	-20.9	---	---	29.6	ESE	0.49	33.9	-37.1	---	---	727.7	0.027	0.000	17.4	86	1
03/15/17	4:02 p	-20.9	-20.9	-20.9	---	---	28.7	ESE	0.48	33.0	-36.9	---	---	727.7	0.027	0.000	17.4	86	1
03/15/17	4:03 p	-20.9	-20.9	-20.9	---	---	28.7	ESE	0.48	31.3	-36.9	---	---	727.7	0.027	0.000	17.4	86	1
03/15/17	4:04 p	-20.9	-20.9	-20.9	---	---	30.4	ESE	0.51	33.0	-37.3	---	---	727.7	0.027	0.000	17.4	86	1
03/15/17	4:05 p	-20.9	-20.9	-20.9	---	---	29.6	ESE	0.49	32.2	-37.1	---	---	727.7	0.027	0.000	17.4	86	1
03/15/17	4:06 p	-20.9	-20.9	-20.9	---	---	29.6	ESE	0.49	33.0	-37.1	---	---	727.8	0.027	0.000	17.4	86	1
03/15/17	4:07 p	-20.9	-20.9	-20.9	---	---	30.4	ESE	0.51	33.9	-37.3	---	---	727.7	0.027	0.000	17.4	86	1
03/15/17	4:08 p	-20.9	-20.9	-21.0	---	---	32.2	ESE	0.54	34.8	-37.7	---	---	727.7	0.027	0.000	17.4	86	1
03/15/17	4:09 p	-21.0	-20.9	-21.0	---	---	28.7	ESE	0.48	32.2	-37.1	---	---	727.8	0.027	0.000	17.4	86	1
03/15/17	4:10 p	-20.9	-20.9	-20.9	---	---	29.6	ESE	0.49	33.0	-37.1	---	---	727.8	0.027	0.000	17.4	86	1
03/15/17	4:11 p	-21.0	-21.0	-21.0	---	---	30.4	ESE	0.51	33.0	-37.4	---	---	727.7	0.027	0.000	17.4	86	1
03/15/17	4:12 p	-21.0	-21.0	-21.0	---	---	30.4	ESE	0.51	33.9	-37.4	---	---	727.7	0.027	0.000	17.4	86	1
03/15/17	4:13 p	-21.0	-21.0	-21.1	---	---	28.7	ESE	0.48	31.3	-37.1	---	---	727.8	0.027	0.000	17.4	86	1
03/15/17	4:14 p	-21.1	-21.0	-21.1	---	---	27.8	ESE	0.46	30.4	-36.9	---	---	727.8	0.027	0.000	17.4	86	1
03/15/17	4:15 p	-21.1	-21.1	-21.1	---	---	27.8	ESE	0.46	30.4	-36.9	---	---	727.8	0.027	0.000	17.4	86	1
03/15/17	4:16 p	-21.0	-21.0	-21.1	---	---	28.7	ESE	0.48	30.4	-37.1	---	---	727.8	0.027	0.000	17.4	86	1
03/15/17	4:17 p	-21.1	-21.0	-21.1	---	---	28.7	ESE	0.48	31.3	-37.1	---	---	727.7	0.027	0.000	17.4	86	1
03/15/17	4:18 p	-21.1	-21.1	-21.1	---	---	28.7	ESE	0.48	30.4	-37.1	---	---	727.8	0.027	0.000	17.4	86	1
03/15/17	4:19 p	-21.1	-21.1	-21.1	---	---	27.8	ESE	0.46	30.4	-36.9	---	---	727.8	0.027	0.000	17.4	86	1
03/15/17	4:20 p	-21.1	-21.1	-21.1	---	---	27.8	ESE	0.46	30.4	-36.9	---	---	727.9	0.027	0.000	17.4	86	1
03/15/17	4:21 p	-21.1	-21.1	-21.1	---	---	28.7	ESE	0.48	31.3	-37.2	---	---	727.8	0.027	0.000	17.4	86	1
03/15/17	4:22 p	-21.1	-21.1	-21.1	---	---	29.6	ESE	0.49	31.3	-37.3	---	---	727.7	0.027	0.000	17.4	87	1
03/15/17	4:23 p	-21.1	-21.1	-21.1	---	---	28.7	ESE	0.48	30.4	-37.2	---	---	727.8	0.027	0.000	17.4	86	1
03/15/17	4:24 p	-21.1	-21.1	-21.1	---	---	29.6	ESE	0.49	33.0	-37.3	---	---	727.8	0.027	0.000	17.4	86	1
03/15/17	4:25 p	-21.1	-21.1	-21.1	---	---	30.4	ESE	0.51	33.9	-37.6	---	---	727.7	0.027	0.000	17.4	86	1
03/15/17	4:26 p	-21.1	-21.1	-21.1	---	---	28.7	ESE	0.48	31.3	-37.1	---	---	727.8	0.027	0.000	17.4	86	1
03/15/17	4:27 p	-21.1	-21.1	-21.1	---	---	28.7	ESE	0.48	31.3	-37.2	---	---	727.8	0.027	0.000	17.4	85	1
03/15/17	4:28 p	-21.1	-21.1	-21.1	---	---	27.8	ESE	0.46	31.3	-37.0	---	---	727.8	0.027	0.000	17.4	85	1
03/15/17	4:29 p	-21.1	-21.1	-21.1	---	---	28.7	ESE	0.48	32.2	-37.2	---	---	727.8	0.027	0.000	17.4	85	1
03/15/17	4:30 p	-21.1	-21.1	-21.1	---	---	27.8	ESE	0.46	29.6	-37.0	---	---	727.8	0.027	0.000	17.4	85	1
03/15/17	4:31 p	-21.1	-21.1	-21.1	---	---	27.0	ESE	0.45	29.6	-36.8	---	---	727.9	0.027	0.000	17.4	86	1
03/15/17	4:32 p	-21.1	-21.1	-21.2	---	---	27.0	ESE	0.45	29.6	-36.8	---	---	727.8	0.027	0.000	17.4	85	1
03/15/17	4:33 p	-21.2	-21.2	-21.2	---	---	28.7	ESE	0.48	31.3	-37.3	---	---	727.7	0.027	0.000	17.4	85	1
03/15/17	4:34 p	-21.2	-21.1	-21.2	---	---	27.0	ESE	0.45	29.6	-36.9	---	---	727.8	0.027	0.000	17.4	85	1
03/15/17	4:35 p	-21.1	-21.1	-21.2	---	---	27.8	ESE	0.46	30.4	-37.0	---	---	727.8	0.027	0.000	17.4	85	1
03/15/17	4:36 p	-21.1	-21.1	-21.2	---	---	27.8	ESE	0.46	30.4	-37.0	---	---	727.8	0.027	0.000	17.4	85	1
03/15/17	4:37 p	-21.2	-21.1	-21.2	---	---	28.7	ESE	0.48	30.4	-37.3	---	---	727.8	0.027	0.000	17.4	85	1
03/15/17	4:38 p	-21.2	-21.1	-21.2	---	---	26.1	ESE	0.43	29.6	-36.7	---	---	727.8	0.027	0.000	17.5	85	1
03/15/17	4:39 p	-21.2	-21.2	-21.2	---	---	26.1	ESE	0.43	28.7	-36.7	---	---	727.8	0.027	0.000	17.5	85	1
03/15/17	4:40 p	-21.2	-21.1	-21.2	---	---	28.7	ESE	0.48	30.4	-37.3	---	---	727.8	0.027	0.000	17.5	85	1
03/15/17	4:41 p	-21.2	-21.1	-21.2	---	---	27.0	ESE	0.45	29.6	-36.9	---	---	727.8	0.027	0.000	17.5	85	1
03/15/17	4:42 p	-21.2	-21.1	-21.2	---	---	27.0	ESE	0.45	28.7	-36.9	---	---	727.8	0.027	0.000	17.5	85	1
03/15/17	4:43 p	-21.2	-21.1	-21.2	---	---	27.8	ESE	0.46	30.4	-37.1	---	---	727.8	0.027	0.000	17.5	85	1
03/15/17	4:44 p	-21.2	-21.2	-21.2	---	---	27.8	ESE	0.46	32.2	-37.1	---	---	727.7	0.027	0.000	17.5	86	1
03/15/17	4:45 p	-21.2	-21.1	-21.2	---	---	28.7	ESE	0.48	31.3	-37.3	---	---	727.7	0.027	0.000	17.5	85	1
03/15/17	4:46 p	-21.2	-21.2	-21.2	---	---	27.8	ESE	0.46	31.3	-37.2	---	---	727.8	0.027	0.000	17.5	86	1
03/15/17	4:47 p	-21.2	-21.2	-21.2	---	---	28.7	ESE	0.48	30.4	-37.3	---	---	727.7	0.027	0.000	17.5	85	1
03/15/17	4:48 p	-21.2	-21.2	-21.2	---	---	28.7	ESE	0.48	30.4	-37.3	---	---	727.8	0.027	0.000	17.5	85	1
03/15/17	4:49 p	-21.2	-21.2	-21.2	---	---	27.8	ESE	0.46	32.2	-37.1	---	---	727.8	0.027	0.000	17.5	86	1
03/15/17	4:50 p	-21.2	-21.2	-21.2	---	---	28.7	ESE	0.48	31.3	-37.3	---	---	727.7	0.027	0.000	17.5	86	1
03/15/17	4:51 p	-21.2	-21.2	-21.2	---	---	27.0	ESE	0.45	31.3	-36.9	---	---	727.8	0.027	0.000	17.5	86	1
03/15/17	4:52 p	-21.2	-21.2	-21.2	---	---	28.7	ESE	0.48	31.3	-37.3	---	---	727.8	0.027	0.000	17.5	86	1
03/15/17	4:53 p	-21.2	-21.2	-21.2	---	---	28.7	ESE	0.48	32.2	-37.3	---	---	727.7	0.027	0.000	17.5	85	1
03/15/17	4:54 p	-21.2	-21.2	-21.3	---	---	28.7	ESE	0.48	30.4	-37.3	---	---	727.8	0.027	0.000	17.5	86	1
03/15/17	4:55 p	-21.2	-21.2	-21.3	---	---	28.7	ESE	0.48	30.4	-37.3	---	---	727.8	0.027	0.000	17.5	86	1
03/15/17	4:56 p	-21.2	-21.2	-21.3	---	---	28.7	ESE	0.48	31.3	-37.3	---	---	727.7	0.027	0.000	17.5	86	1
03/15/17	4:57 p	-21.3	-21.2	-21.3	---	---	28.7	ESE	0.48	30.4	-37.4	---	---	727.8	0.028	0.000	17.5	86	1
03/15/17	4:58 p	-21.3	-21.2	-21.3	---	---	27.8	ESE	0.46	30.4	-37.2	---	---	727.8	0.028	0.000	17.5	86	1
03/15/17	4:59 p	-21.3	-21.2	-21.3	---	---	28.7	ESE	0.48	30.4	-37.4	---	---	727.8	0.028	0.000	17.5	86	1
03/15/17	5:00 p	-21.3	-21.2	-21.3	---	---	27.8	ESE	0.46	29.6	-37.2	---	---	727.7	0.028	0.000	17.5	86	1
03/15/17	5:01 p	-21.3	-21.3	-21.3	---	---	27.8	ESE	0.46	30.4	-37.2	---	---	727.8	0.028	0.000	17.5	86	1
03/15/17	5:02 p	-21.3	-21.2	-21.3	---	---	27.0	ESE	0.45	29.6	-37.1	---	---	727.8	0.028	0.000	17.5	86	1
03/15/17	5:03 p	-21.3	-21.2	-21.3	---	---	28.7	ESE	0.48	31.3	-37.5	---	---	727.8	0.028	0.000	17.5	86	1
03/15/17	5:04 p	-21.3	-21.2	-21.3	---	---	28.7	ESE	0.48	30.4	-37.4	---	---	727.7	0.028	0.000	17.5	86	1
03/15/17	5:05 p	-21.3	-21.2	-21.3	---	---	28.7	ESE	0.48	30.4	-37.4	---	---	727.7	0.028	0.000	17.5	86	1
03/15/17	5:06 p	-21.3	-21.3	-21.3	---	---	27.8	ESE	0.46	29.6	-37.2	---	---	727.7	0.028	0.000	17.5	86	1
03/15/17	5:07 p	-21.3	-21.3	-21.3	---	---	28.7	ESE	0.48	31.3	-37.5	---	---	727.8	0.028	0.000	17.6	86	1
03/15/17	5:08 p	-21.3	-21.3	-21.3	---	---	27.0	ESE	0.45	30.4	-37.1	---	---	727.7	0.028	0.000	17.6	86	1
03/15/17	5:09 p	-21.3	-21.3	-21.3	---	---	26.1	ESE	0.43	27.8	-36.9	---	---	727.7	0.028	0.000	17.6	86	1
03/15/17	5:10 p	-21.3	-21.2	-21.3	---	---	25.2	ESE	0.42	27.8	-36.7	---	---	727.8	0.028	0.000	17.6	85	1
03/15/17	5:11 p	-21.3	-21.3	-21.3	---	---	27.8	E	0.46	29.6	-37.3	---	---	727.8	0.028	0.000	17.6	86	1
03/15/17	5:12 p	-21.3	-21.3	-21.3	---	---	27.0	ESE	0.45	30.4	-37.1	---	---	727.8	0.028	0.000	17.6	86	1
03/15/17	5:13 p	-21.3	-21.3	-21.3	---	---	26.1	ESE	0.43	29.6	-36.9	---	---	727.8	0.028	0.000	17.6	86	1
03/15/17	5:14 p	-21.3	-21.3	-21.4	---	---	27.8	ESE	0.46	29.6	-37.3	---	---	727.8	0.028	0.000	17.6	86	1
03/15/17	5:15 p	-21.3	-21.2	-21.4	---	---	26.1	ESE	0.43	29.6	-36.9	---	---	727.8	0.028	0.000	17.6	86	1
03/15/17	5:16 p	-21.3	-21.3	-21.3	---	---	27.0	ESE	0.45	30.4	-37.1	---	---	727.8	0.028	0.000	17.6	86	1
03/15/17	5:17 p	-21.3	-21.3	-21.3	---	---	27.8	ESE	0.46	30.4	-37.3	---	---	727.8	0.028	0.000	17.6	86	1
03/15/17	5:18 p	-21.3	-21.3	-21.4	---	---	27.0	ESE	0.45	29.6	-37.1	---	---	727.8	0.028	0.000	17.6	86	1
03/15/17	5:19 p	-21.3	-21.3	-21.4	---	---	27.8	ESE	0.46	30.4	-37.3	---	---	727.8	0.028	0.000	17.6	86	1
03/15/17	5:20 p	-21.3	-21.3	-21.4	---	---	27.0	ESE	0.45	29.6	-37.1	---	---	727.8	0.028	0.000	17.6	86	1
03/15/17	5:21 p	-21.3	-21.3	-21.4	---	---	28.7	ESE	0.48	30.4	-37.5	---	---	727.8	0.028	0.000	17.6	86	1
03/15/17	5:22 p	-21.3	-21.3	-21.3	---	---	28.7	ESE	0.48	32.2	-37.5	---	---	727.7	0.028	0.000	17.6	85	1
03/15/17	5:23 p	-21.3	-21.3	-21.4	---	---	27.0	ESE	0.45	30.4	-37.1	---	---	727.8	0.028	0.000	17.6	86	1
03/15/17	5:24 p	-21.3	-21.3	-21.4	---	---	27.0	ESE	0.45	31.3	-37.1	---	---	727.7	0.028	0.000	17.6	85	1
03/15/17	5:25 p	-21.3	-21.3	-21.4	---	---	27.8	ESE	0.46	30.4	-37.3	---	---	727.7	0.028	0.000	17.6	85	1
03/15/17	5:26 p	-21.3	-21.3	-21.4	---	---	27.0	ESE	0.45	29.6	-37.1	---	---	727.7	0.028	0.000	17.6	85	1
03/15/17	5:27 p	-21.4	-21.3	-21.4	---	---	27.8	ESE	0.46	30.4	-37.4	---	---	727.7	0.028	0.000	17.6	85	1
03/15/17	5:28 p	-21.3	-21.3	-21.4	---	---	27.0	ESE	0.45	31.3	-37.1	---	---	727.7	0.028	0.000	17.6	86	1
03/15/17	5:29 p	-21.4	-21.3	-21.4	---	---	27.0	ESE	0.45	30.4	-37.2	---	---	727.7	0.028	0.000	17.6	85	1
03/15/17	5:30 p	-21.4	-21.3	-21.4	---	---	26.1	ESE	0.43	30.4	-37.0	---	---	727.7	0.028	0.000	17.6	85	1
03/15/17	5:31 p	-21.4	-21.3	-21.4	---	---	27.8	ESE	0.46	30.4	-37.4	---	---	727.7	0.028	0.000	17.6	86	1
03/15/17	5:32 p	-21.4	-21.3	-21.4	---	---	27.8	ESE	0.46	30.4	-37.4	---	---	727.7	0.028	0.000	17.6	85	1
03/15/17	5:33 p	-21.4	-21.3	-21.4	---	---	27.8	ESE	0.46	29.6	-37.4	---	---	727.7	0.028	0.000	17.6	85	1
03/15/17	5:34 p	-21.3	-21.3	-21.4	---	---	27.0	ESE	0.45	29.6	-37.1	---	---	727.7	0.028	0.000	17.6	85	1
03/15/17	5:35 p	-21.3	-21.3	-21.4	---	---	27.0	ESE	0.45	28.7	-37.1	---	---	727.7	0.028	0.000	17.6	85	1
03/15/17	5:36 p	-21.4	-21.3	-21.4	---	---	27.0	ESE	0.45	30.4	-37.2	---	---	727.8	0.028	0.000	17.6	85	1
03/15/17	5:37 p	-21.4	-21.4	-21.4	---	---	26.1	ESE	0.43	28.7	-37.0	---	---	727.8	0.028	0.000	17.6	85	1
03/15/17	5:38 p	-21.4	-21.3	-21.4	---	---	26.1	ESE	0.43	29.6	-37.0	---	---	727.9	0.028	0.000	17.6	85	1
03/15/17	5:39 p	-21.4	-21.4	-21.4	---	---	28.7	ESE	0.48	30.4	-37.6	---	---	727.8	0.028	0.000	17.6	85	1
03/15/17	5:40 p	-21.4	-21.3	-21.4	---	---	27.8	ESE	0.46	30.4	-37.4	---	---	727.7	0.028	0.000	17.6	85	1
03/15/17	5:41 p	-21.4	-21.3	-21.4	---	---	27.0	ESE	0.45	29.6	-37.2	---	---	727.8	0.028	0.000	17.6	85	1
03/15/17	5:42 p	-21.4	-21.3	-21.4	---	---	26.1	ESE	0.43	28.7	-37.0	---	---	727.8	0.028	0.000	17.6	85	1
03/15/17	5:43 p	-21.4	-21.3	-21.4	---	---	27.0	ESE	0.45	29.6	-37.2	---	---	727.8	0.028	0.000	17.6	85	1
03/15/17	5:44 p	-21.4	-21.3	-21.4	---	---	26.1	ESE	0.43	29.6	-37.0	---	---	727.7	0.028	0.000	17.6	85	1
03/15/17	5:45 p	-21.4	-21.3	-21.4	---	---	28.7	ESE	0.48	30.4	-37.6	---	---	727.7	0.028	0.000	17.6	85	1
03/15/17	5:46 p	-21.4	-21.3	-21.4	---	---	26.1	ESE	0.43	28.7	-37.0	---	---	727.8	0.028	0.000	17.6	85	1
03/15/17	5:47 p	-21.4	-21.3	-21.4	---	---	27.8	ESE	0.46	29.6	-37.4	---	---	727.8	0.028	0.000	17.6	85	1
03/15/17	5:48 p	-21.4	-21.4	-21.4	---	---	27.0	ESE	0.45	28.7	-37.2	---	---	727.7	0.028	0.000	17.6	85	1
03/15/17	5:49 p	-21.4	-21.4	-21.4	---	---	25.2	ESE	0.42	29.6	-36.8	---	---	727.8	0.028	0.000	17.7	85	1
03/15/17	5:50 p	-21.4	-21.4	-21.4	---	---	26.1	ESE	0.43	27.8	-37.0	---	---	727.8	0.028	0.000	17.6	85	1
03/15/17	5:51 p	-21.4	-21.4	-21.4	---	---	27.8	ESE	0.46	30.4	-37.4	---	---	727.8	0.028	0.000	17.6	85	1
03/15/17	5:52 p	-21.4	-21.4	-21.4	---	---	27.0	ESE	0.45	29.6	-37.2	---	---	727.8	0.028	0.000	17.6	85	1
03/15/17	5:53 p	-21.4	-21.4	-21.4	---	---	27.0	ESE	0.45	28.7	-37.2	---	---	727.8	0.028	0.000	17.6	85	1
03/15/17	5:54 p	-21.4	-21.4	-21.4	---	---	27.0	ESE	0.45	28.7	-37.2	---	---	727.7	0.028	0.000	17.7	85	1
03/15/17	5:55 p	-21.4	-21.3	-21.4	---	---	25.2	ESE	0.42	27.8	-36.8	---	---	727.9	0.028	0.000	17.6	87	1
03/15/17	5:56 p	-21.4	-21.4	-21.4	---	---	25.2	ESE	0.42	28.7	-36.8	---	---	727.8	0.028	0.000	17.6	86	1
03/15/17	5:57 p	-21.4	-21.4	-21.4	---	---	26.1	ESE	0.43	27.8	-37.0	---	---	727.8	0.028	0.000	17.6	86	1
03/15/17	5:58 p	-21.4	-21.3	-21.4	---	---	27.0	ESE	0.45	28.7	-37.2	---	---	727.8	0.028	0.000	17.7	86	1
03/15/17	5:59 p	-21.4	-21.3	-21.4	---	---	25.2	ESE	0.42	27.8	-36.8	---	---	727.8	0.028	0.000	17.7	86	1
03/15/17	6:00 p	-21.4	-21.3	-21.4	---	---	25.2	ESE	0.42	27.8	-36.8	---	---	727.8	0.028	0.000	17.7	86	1
03/15/17	6:01 p	-21.4	-21.3	-21.4	---	---	25.2	ESE	0.42	28.7	-36.8	---	---	727.7	0.028	0.000	17.7	86	1
03/15/17	6:02 p	-21.4	-21.3	-21.4	---	---	26.1	ESE	0.43	29.6	-37.0	---	---	727.8	0.028	0.000	17.7	86	1
03/15/17	6:03 p	-21.4	-21.3	-21.4	---	---	27.0	ESE	0.45	29.6	-37.2	---	---	727.7	0.028	0.000	17.7	86	1
03/15/17	6:04 p	-21.4	-21.3	-21.4	---	---	26.1	ESE	0.43	28.7	-37.0	---	---	727.8	0.028	0.000	17.7	86	1
03/15/17	6:05 p	-21.4	-21.4	-21.4	---	---	27.0	ESE	0.45	30.4	-37.2	---	---	727.8	0.028	0.000	17.7	86	1
03/15/17	6:06 p	-21.4	-21.3	-21.4	---	---	27.0	ESE	0.45	29.6	-37.2	---	---	727.8	0.028	0.000	17.7	86	1
03/15/17	6:07 p	-21.4	-21.3	-21.4	---	---	26.1	ESE	0.43	29.6	-37.0	---	---	727.8	0.028	0.000	17.7	86	1
03/15/17	6:08 p	-21.3	-21.3	-21.4	---	---	27.8	ESE	0.46	30.4	-37.3	---	---	727.7	0.028	0.000	17.7	86	1
03/15/17	6:09 p	-21.4	-21.3	-21.4	---	---	27.0	ESE	0.45	29.6	-37.2	---	---	727.8	0.028	0.000	17.7	87	1
03/15/17	6:10 p	-21.4	-21.3	-21.4	---	---	27.8	ESE	0.46	29.6	-37.4	---	---	727.8	0.028	0.000	17.7	86	1
03/15/17	6:11 p	-21.4	-21.3	-21.4	---	---	28.7	ESE	0.48	30.4	-37.6	---	---	727.8	0.028	0.000	17.7	86	1
03/15/17	6:12 p	-21.4	-21.3	-21.4	---	---	26.1	ESE	0.43	28.7	-37.0	---	---	727.8	0.028	0.000	17.7	86	1
03/15/17	6:13 p	-21.4	-21.4	-21.4	---	---	25.2	ESE	0.42	27.8	-36.8	---	---	727.7	0.028	0.000	17.7	86	1
03/15/17	6:14 p	-21.4	-21.3	-21.4	---	---	26.1	ESE	0.43	28.7	-37.0	---	---	727.8	0.028	0.000	17.7	86	1
03/15/17	6:15 p	-21.4	-21.4	-21.4	---	---	25.2	ESE	0.42	27.8	-36.8	---	---	727.8	0.028	0.000	17.7	86	1
03/15/17	6:16 p	-21.3	-21.3	-21.4	---	---	25.2	ESE	0.42	28.7	-36.7	---	---	727.8	0.028	0.000	17.7	86	1
03/15/17	6:17 p	-21.4	-21.3	-21.4	---	---	27.0	ESE	0.45	30.4	-37.2	---	---	727.8	0.028	0.000	17.7	86	1
03/15/17	6:18 p	-21.4	-21.3	-21.4	---	---	25.2	ESE	0.42	27.8	-36.8	---	---	727.8	0.028	0.000	17.7	86	1
03/15/17	6:19 p	-21.4	-21.3	-21.4	---	---	27.0	ESE	0.45	29.6	-37.2	---	---	727.8	0.028	0.000	17.7	86	1
03/15/17	6:20 p	-21.4	-21.3	-21.4	---	---	27.0	ESE	0.45	30.4	-37.2	---	---	727.8	0.028	0.000	17.7	86	1
03/15/17	6:21 p	-21.4	-21.3	-21.4	---	---	26.1	ESE	0.43	28.7	-37.0	---	---	727.8	0.028	0.000	17.7	86	1
03/15/17	6:22 p	-21.3	-21.3	-21.4	---	---	26.1	ESE	0.43	28.7	-36.9	---	---	727.8	0.028	0.000	17.7	86	1
03/15/17	6:23 p	-21.3	-21.3	-21.4	---	---	27.0	ESE	0.45	29.6	-37.1	---	---	727.8	0.028	0.000	17.7	86	1
03/15/17	6:24 p	-21.3	-21.3	-21.3	---	---	26.1	ESE	0.43	27.8	-36.9	---	---	727.8	0.028	0.000	17.7	86	1
03/15/17	6:25 p	-21.3	-21.3	-21.3	---	---	26.1	ESE	0.43	27.8	-36.9	---	---	727.8	0.028	0.000	17.7	86	1
03/15/17	6:26 p	-21.3	-21.3	-21.3	---	---	27.0	ESE	0.45	29.6	-37.1	---	---	727.8	0.028	0.000	17.7	86	1
03/15/17	6:27 p	-21.3	-21.3	-21.3	---	---	26.1	ESE	0.43	28.7	-36.9	---	---	727.9	0.028	0.000	17.7	87	1
03/15/17	6:28 p	-21.3	-21.2	-21.3	---	---	27.0	ESE	0.45	30.4	-37.1	---	---	727.9	0.028	0.000	17.7	86	1
03/15/17	6:29 p	-21.3	-21.2	-21.3	---	---	30.4	ESE	0.51	33.0	-37.8	---	---	727.7	0.028	0.000	17.7	86	1
03/15/17	6:30 p	-21.3	-21.3	-21.3	---	---	27.0	ESE	0.45	29.6	-37.1	---	---	727.8	0.028	0.000	17.7	86	1
03/15/17	6:31 p	-21.3	-21.2	-21.3	---	---	27.8	ESE	0.46	31.3	-37.2	---	---	727.7	0.028	0.000	17.7	86	1
03/15/17	6:32 p	-21.3	-21.3	-21.3	---	---	28.7	ESE	0.48	31.3	-37.4	---	---	727.8	0.028	0.000	17.7	86	1
03/15/17	6:33 p	-21.3	-21.3	-21.3	---	---	27.0	ESE	0.45	30.4	-37.1	---	---	727.8	0.028	0.000	17.7	86	1
03/15/17	6:34 p	-21.3	-21.3	-21.3	---	---	27.0	ESE	0.45	29.6	-37.1	---	---	727.8	0.028	0.000	17.7	87	1
03/15/17	6:35 p	-21.3	-21.2	-21.3	---	---	27.0	ESE	0.45	30.4	-37.1	---	---	727.8	0.028	0.000	17.7	87	1
03/15/17	6:36 p	-21.3	-21.3	-21.3	---	---	26.1	ESE	0.43	27.8	-36.8	---	---	727.8	0.028	0.000	17.7	87	1
03/15/17	6:37 p	-21.3	-21.3	-21.3	---	---	26.1	ESE	0.43	27.8	-36.9	---	---	727.9	0.028	0.000	17.7	87	1
03/15/17	6:38 p	-21.3	-21.3	-21.3	---	---	25.2	ESE	0.42	27.8	-36.7	---	---	727.9	0.028	0.000	17.7	87	1
03/15/17	6:39 p	-21.3	-21.3	-21.4	---	---	26.1	ESE	0.43	28.7	-36.9	---	---	727.9	0.028	0.000	17.7	87	1
03/15/17	6:40 p	-21.3	-21.3	-21.4	---	---	27.8	ESE	0.46	30.4	-37.3	---	---	727.9	0.028	0.000	17.7	87	1
03/15/17	6:41 p	-21.3	-21.3	-21.4	---	---	26.1	ESE	0.43	28.7	-36.9	---	---	727.9	0.028	0.000	17.7	87	1
03/15/17	6:42 p	-21.3	-21.3	-21.4	---	---	27.8	ESE	0.46	30.4	-37.3	---	---	727.8	0.028	0.000	17.7	87	1
03/15/17	6:43 p	-21.4	-21.3	-21.4	---	---	27.0	ESE	0.45	27.8	-37.2	---	---	727.8	0.028	0.000	17.7	87	1
03/15/17	6:44 p	-21.4	-21.3	-21.4	---	---	27.0	ESE	0.45	30.4	-37.2	---	---	727.9	0.028	0.000	17.8	87	1
03/15/17	6:45 p	-21.4	-21.3	-21.4	---	---	26.1	ESE	0.43	28.7	-37.0	---	---	727.8	0.028	0.000	17.8	87	1
03/15/17	6:46 p	-21.4	-21.4	-21.4	---	---	26.1	ESE	0.43	27.8	-37.0	---	---	727.8	0.028	0.000	17.8	88	1
03/15/17	6:47 p	-21.4	-21.4	-21.4	---	---	27.0	ESE	0.45	28.7	-37.2	---	---	727.8	0.028	0.000	17.8	88	1
03/15/17	6:48 p	-21.4	-21.4	-21.4	---	---	25.2	ESE	0.42	27.8	-36.8	---	---	727.8	0.028	0.000	17.8	88	1
03/15/17	6:49 p	-21.4	-21.4	-21.4	---	---	26.1	ESE	0.43	28.7	-37.0	---	---	727.8	0.028	0.000	17.8	87	1
03/15/17	6:50 p	-21.4	-21.4	-21.4	---	---	26.1	ESE	0.43	28.7	-37.1	---	---	727.9	0.028	0.000	17.8	87	1
03/15/17	6:51 p	-21.4	-21.4	-21.4	---	---	27.0	ESE	0.45	29.6	-37.3	---	---	727.9	0.028	0.000	17.8	87	1
03/15/17	6:52 p	-21.4	-21.4	-21.4	---	---	25.2	ESE	0.42	27.0	-36.9	---	---	727.8	0.028	0.000	17.8	87	1
03/15/17	6:53 p	-21.4	-21.4	-21.4	---	---	26.1	ESE	0.43	27.8	-37.1	---	---	727.9	0.028	0.000	17.8	87	1
03/15/17	6:54 p	-21.4	-21.4	-21.5	---	---	23.5	ESE	0.39	26.1	-36.4	---	---	727.9	0.028	0.000	17.8	87	1
03/15/17	6:55 p	-21.4	-21.4	-21.5	---	---	24.3	ESE	0.41	27.8	-36.7	---	---	727.9	0.028	0.000	17.8	87	1
03/15/17	6:56 p	-21.4	-21.4	-21.5	---	---	24.3	ESE	0.41	27.0	-36.7	---	---	727.8	0.028	0.000	17.8	87	1
03/15/17	6:57 p	-21.5	-21.4	-21.5	---	---	26.1	ESE	0.43	28.7	-37.2	---	---	727.9	0.028	0.000	17.8	87	1
03/15/17	6:58 p	-21.5	-21.5	-21.6	---	---	25.2	ESE	0.42	29.6	-36.9	---	---	727.9	0.028	0.000	17.8	86	1
03/15/17	6:59 p	-21.5	-21.5	-21.6	---	---	28.7	ESE	0.48	30.4	-37.7	---	---	727.8	0.028	0.000	17.8	86	1
03/15/17	7:00 p	-21.6	-21.6	-21.6	---	---	25.2	ESE	0.42	28.7	-37.0	---	---	727.9	0.028	0.000	17.8	86	1
03/15/17	7:01 p	-21.6	-21.4	-21.6	---	---	27.0	ESE	0.45	28.7	-37.4	---	---	727.9	0.028	0.000	17.8	86	1
03/15/17	7:02 p	-21.6	-21.6	-21.6	---	---	26.1	ESE	0.43	27.8	-37.3	---	---	727.9	0.028	0.000	17.8	86	1
03/15/17	7:03 p	-21.6	-21.6	-21.6	---	---	27.0	ESE	0.45	28.7	-37.5	---	---	727.9	0.028	0.000	17.8	86	1
03/15/17	7:04 p	-21.6	-21.6	-21.6	---	---	25.2	ESE	0.42	28.7	-37.1	---	---	727.9	0.028	0.000	17.8	86	1
03/15/17	7:05 p	-21.6	-21.6	-21.7	---	---	26.1	ESE	0.43	29.6	-37.3	---	---	727.9	0.028	0.000	17.8	86	1
03/15/17	7:06 p	-21.7	-21.6	-21.7	---	---	26.1	ESE	0.43	29.6	-37.4	---	---	727.8	0.028	0.000	17.8	86	1
03/15/17	7:07 p	-21.7	-21.6	-21.7	---	---	26.1	ESE	0.43	28.7	-37.4	---	---	727.9	0.028	0.000	17.8	87	1
03/15/17	7:08 p	-21.6	-21.6	-21.7	---	---	24.3	ESE	0.41	27.0	-36.9	---	---	727.9	0.028	0.000	17.8	87	1
03/15/17	7:09 p	-21.7	-21.6	-21.7	---	---	24.3	ESE	0.41	28.7	-36.9	---	---	727.9	0.028	0.000	17.8	87	1
03/15/17	7:10 p	-21.7	-21.6	-21.7	---	---	26.1	ESE	0.43	27.8	-37.4	---	---	727.9	0.028	0.000	17.8	87	1
03/15/17	7:11 p	-21.7	-21.7	-21.7	---	---	25.2	ESE	0.42	27.8	-37.2	---	---	727.9	0.028	0.000	17.8	87	1
03/15/17	7:12 p	-21.7	-21.6	-21.7	---	---	26.1	ESE	0.43	28.7	-37.4	---	---	727.9	0.028	0.000	17.8	87	1
03/15/17	7:13 p	-21.7	-21.7	-21.7	---	---	25.2	ESE	0.42	29.6	-37.2	---	---	727.8	0.028	0.000	17.8	87	1
03/15/17	7:14 p	-21.7	-21.6	-21.7	---	---	27.0	ESE	0.45	29.6	-37.6	---	---	727.8	0.028	0.000	17.8	87	1
03/15/17	7:15 p	-21.7	-21.6	-21.7	---	---	25.2	ESE	0.42	27.8	-37.2	---	---	727.8	0.028	0.000	17.8	87	1
03/15/17	7:16 p	-21.7	-21.6	-21.7	---	---	27.0	ESE	0.45	28.7	-37.6	---	---	727.8	0.028	0.000	17.8	86	1
03/15/17	7:17 p	-21.7	-21.7	-21.7	---	---	26.1	ESE	0.43	28.7	-37.4	---	---	727.8	0.028	0.000	17.8	86	1
03/15/17	7:18 p	-21.6	-21.6	-21.7	---	---	26.1	ESE	0.43	28.7	-37.3	---	---	727.8	0.028	0.000	17.8	86	1
03/15/17	7:19 p	-21.7	-21.6	-21.7	---	---	27.0	ESE	0.45	29.6	-37.6	---	---	727.8	0.028	0.000	17.8	87	1
03/15/17	7:20 p	-21.7	-21.6	-21.7	---	---	26.1	ESE	0.43	28.7	-37.4	---	---	727.9	0.028	0.000	17.8	87	1
03/15/17	7:21 p	-21.6	-21.6	-21.6	---	---	24.3	ESE	0.41	27.0	-36.9	---	---	727.9	0.028	0.000	17.8	87	1
03/15/17	7:22 p	-21.6	-21.6	-21.7	---	---	25.2	ESE	0.42	27.0	-37.1	---	---	727.9	0.028	0.000	17.8	87	1
03/15/17	7:23 p	-21.6	-21.6	-21.6	---	---	27.0	ESE	0.45	29.6	-37.5	---	---	727.8	0.028	0.000	17.8	87	1
03/15/17	7:24 p	-21.6	-21.6	-21.7	---	---	26.1	ESE	0.43	28.7	-37.3	---	---	727.8	0.028	0.000	17.8	87	1
03/15/17	7:25 p	-21.6	-21.6	-21.6	---	---	26.1	ESE	0.43	28.7	-37.3	---	---	727.9	0.028	0.000	17.8	87	1
03/15/17	7:26 p	-21.6	-21.6	-21.6	---	---	26.1	ESE	0.43	28.7	-37.3	---	---	727.8	0.028	0.000	17.8	86	1
03/15/17	7:27 p	-21.6	-21.6	-21.6	---	---	27.0	ESE	0.45	29.6	-37.5	---	---	727.8	0.028	0.000	17.8	85	1
03/15/17	7:28 p	-21.6	-21.6	-21.6	---	---	27.0	ESE	0.45	28.7	-37.5	---	---	727.8	0.028	0.000	17.8	86	1
03/15/17	7:29 p	-21.6	-21.6	-21.6	---	---	27.0	ESE	0.45	28.7	-37.5	---	---	727.9	0.028	0.000	17.8	86	1
03/15/17	7:30 p	-21.6	-21.6	-21.6	---	---	26.1	ESE	0.43	28.7	-37.2	---	---	727.9	0.028	0.000	17.8	85	1
03/15/17	7:31 p	-21.6	-21.6	-21.6	---	---	27.0	ESE	0.45	29.6	-37.5	---	---	727.8	0.028	0.000	17.8	85	1
03/15/17	7:32 p	-21.6	-21.6	-21.6	---	---	24.3	ESE	0.41	27.0	-36.8	---	---	727.9	0.028	0.000	17.8	85	1
03/15/17	7:33 p	-21.6	-21.6	-21.6	---	---	25.2	ESE	0.42	27.0	-37.0	---	---	727.9	0.028	0.000	17.8	86	1
03/15/17	7:34 p	-21.5	-21.5	-21.6	---	---	25.2	ESE	0.42	27.8	-36.9	---	---	728.0	0.028	0.000	17.8	86	1
03/15/17	7:35 p	-21.5	-21.5	-21.6	---	---	26.1	ESE	0.43	28.7	-37.2	---	---	728.0	0.028	0.000	17.8	85	1
03/15/17	7:36 p	-21.6	-21.5	-21.6	---	---	24.3	ESE	0.41	26.1	-36.8	---	---	728.0	0.028	0.000	17.8	85	1
03/15/17	7:37 p	-21.5	-21.5	-21.6	---	---	23.5	ESE	0.39	27.0	-36.6	---	---	727.9	0.028	0.000	17.8	86	1
03/15/17	7:38 p	-21.5	-21.4	-21.6	---	---	25.2	ESE	0.42	27.0	-36.9	---	---	727.9	0.028	0.000	17.9	85	1
03/15/17	7:39 p	-21.5	-21.5	-21.5	---	---	22.6	ESE	0.38	27.0	-36.3	---	---	728.0	0.028	0.000	17.8	85	1
03/15/17	7:40 p	-21.5	-21.4	-21.5	---	---	25.2	ESE	0.42	27.8	-36.9	---	---	727.9	0.028	0.000	17.9	85	1
03/15/17	7:41 p	-21.5	-21.5	-21.5	---	---	23.5	ESE	0.39	25.2	-36.6	---	---	728.0	0.028	0.000	17.8	86	1
03/15/17	7:42 p	-21.5	-21.4	-21.5	---	---	25.2	ESE	0.42	27.8	-36.9	---	---	728.0	0.028	0.000	17.9	87	1
03/15/17	7:43 p	-21.4	-21.4	-21.4	---	---	24.3	ESE	0.41	27.0	-36.7	---	---	727.9	0.028	0.000	17.9	87	1
03/15/17	7:44 p	-21.4	-21.4	-21.4	---	---	24.3	ESE	0.41	26.1	-36.7	---	---	727.9	0.028	0.000	17.9	87	1
03/15/17	7:45 p	-21.4	-21.4	-21.4	---	---	25.2	ESE	0.42	27.0	-36.9	---	---	727.9	0.028	0.000	17.9	87	1
03/15/17	7:46 p	-21.4	-21.4	-21.4	---	---	24.3	ESE	0.41	26.1	-36.7	---	---	727.9	0.028	0.000	17.9	87	1
03/15/17	7:47 p	-21.4	-21.4	-21.4	---	---	24.3	ESE	0.41	27.0	-36.6	---	---	727.9	0.028	0.000	17.9	87	1
03/15/17	7:48 p	-21.4	-21.4	-21.4	---	---	26.1	ESE	0.43	28.7	-37.0	---	---	727.9	0.028	0.000	17.9	87	1
03/15/17	7:49 p	-21.4	-21.3	-21.4	---	---	24.3	ESE	0.41	27.0	-36.6	---	---	727.8	0.028	0.000	17.9	88	1
03/15/17	7:50 p	-21.4	-21.3	-21.4	---	---	25.2	ESE	0.42	28.7	-36.8	---	---	727.8	0.028	0.000	17.9	87	1
03/15/17	7:51 p	-21.3	-21.3	-21.4	---	---	27.0	ESE	0.45	29.6	-37.1	---	---	727.9	0.028	0.000	17.9	88	1
03/15/17	7:52 p	-21.3	-21.3	-21.3	---	---	27.0	ESE	0.45	30.4	-37.1	---	---	727.8	0.028	0.000	17.9	87	1
03/15/17	7:53 p	-21.3	-21.3	-21.3	---	---	25.2	ESE	0.42	28.7	-36.7	---	---	727.7	0.028	0.000	17.9	87	1
03/15/17	7:54 p	-21.3	-21.3	-21.3	---	---	26.1	ESE	0.43	28.7	-36.8	---	---	727.9	0.028	0.000	17.9	88	1
03/15/17	7:55 p	-21.3	-21.3	-21.3	---	---	27.8	ESE	0.46	30.4	-37.2	---	---	727.8	0.028	0.000	17.9	88	1
03/15/17	7:56 p	-21.3	-21.2	-21.3	---	---	26.1	ESE	0.43	28.7	-36.8	---	---	727.8	0.028	0.000	17.9	88	1
03/15/17	7:57 p	-21.3	-21.3	-21.3	---	---	25.2	ESE	0.42	27.8	-36.7	---	---	727.8	0.028	0.000	17.9	87	1
03/15/17	7:58 p	-21.2	-21.2	-21.3	---	---	23.5	ESE	0.39	25.2	-36.2	---	---	728.0	0.027	0.000	17.9	87	1
03/15/17	7:59 p	-21.2	-21.2	-21.2	---	---	22.6	ESE	0.38	24.3	-35.9	---	---	727.9	0.027	0.000	17.9	87	1
03/15/17	8:00 p	-21.2	-21.2	-21.3	---	---	23.5	ESE	0.39	27.0	-36.2	---	---	727.9	0.027	0.000	17.9	87	1
03/15/17	8:01 p	-21.2	-21.2	-21.2	---	---	23.5	ESE	0.39	26.1	-36.2	---	---	727.8	0.027	0.000	17.9	87	1
03/15/17	8:02 p	-21.2	-21.2	-21.2	---	---	25.2	ESE	0.42	27.8	-36.6	---	---	727.8	0.027	0.000	17.9	87	1
03/15/17	8:03 p	-21.2	-21.2	-21.2	---	---	25.2	ESE	0.42	27.8	-36.6	---	---	727.9	0.027	0.000	17.9	87	1
03/15/17	8:04 p	-21.2	-21.2	-21.2	---	---	25.2	ESE	0.42	28.7	-36.6	---	---	727.9	0.027	0.000	17.9	86	1
03/15/17	8:05 p	-21.2	-21.1	-21.2	---	---	27.0	ESE	0.45	29.6	-36.9	---	---	727.8	0.027	0.000	17.9	86	1
03/15/17	8:06 p	-21.2	-21.2	-21.2	---	---	27.0	ESE	0.45	29.6	-36.9	---	---	727.8	0.027	0.000	17.9	87	1
03/15/17	8:07 p	-21.2	-21.1	-21.2	---	---	27.0	ESE	0.45	28.7	-36.9	---	---	727.8	0.027	0.000	17.9	87	1
03/15/17	8:08 p	-21.2	-21.1	-21.2	---	---	26.1	ESE	0.43	27.8	-36.7	---	---	727.8	0.027	0.000	17.9	88	1
03/15/17	8:09 p	-21.1	-21.1	-21.2	---	---	24.3	ESE	0.41	27.0	-36.2	---	---	727.8	0.027	0.000	17.9	88	1
03/15/17	8:10 p	-21.1	-21.1	-21.2	---	---	24.3	ESE	0.41	26.1	-36.2	---	---	727.8	0.027	0.000	17.9	87	1
03/15/17	8:11 p	-21.1	-21.1	-21.1	---	---	24.3	ESE	0.41	26.1	-36.2	---	---	727.9	0.027	0.000	17.9	88	1
03/15/17	8:12 p	-21.1	-21.1	-21.1	---	---	24.3	ESE	0.41	27.8	-36.2	---	---	727.8	0.027	0.000	17.9	87	1
03/15/17	8:13 p	-21.1	-21.1	-21.1	---	---	25.2	ESE	0.42	27.8	-36.3	---	---	727.8	0.027	0.000	17.9	88	1
03/15/17	8:14 p	-21.1	-21.1	-21.1	---	---	27.0	ESE	0.45	28.7	-36.7	---	---	727.8	0.027	0.000	17.9	88	1
03/15/17	8:15 p	-21.1	-21.0	-21.1	---	---	25.2	ESE	0.42	27.8	-36.3	---	---	727.9	0.027	0.000	17.9	87	1
03/15/17	8:16 p	-21.1	-21.0	-21.1	---	---	26.1	ESE	0.43	28.7	-36.6	---	---	727.8	0.027	0.000	17.9	87	1
03/15/17	8:17 p	-21.0	-21.0	-21.1	---	---	26.1	ESE	0.43	27.8	-36.4	---	---	727.8	0.027	0.000	17.9	88	1
03/15/17	8:18 p	-21.1	-21.0	-21.1	---	---	25.2	ESE	0.42	27.0	-36.3	---	---	727.8	0.027	0.000	17.9	87	1
03/15/17	8:19 p	-21.0	-20.9	-21.0	---	---	23.5	ESE	0.39	27.0	-35.8	---	---	727.9	0.027	0.000	17.9	88	1
03/15/17	8:20 p	-21.0	-21.0	-21.0	---	---	25.2	E	0.42	27.8	-36.3	---	---	727.8	0.027	0.000	17.9	88	1
03/15/17	8:21 p	-20.9	-20.9	-21.0	---	---	26.1	E	0.43	27.8	-36.4	---	---	727.8	0.027	0.000	17.9	88	1
03/15/17	8:22 p	-21.0	-20.9	-21.0	---	---	26.1	ESE	0.43	28.7	-36.4	---	---	727.7	0.027	0.000	17.9	87	1
03/15/17	8:23 p	-20.9	-20.9	-21.0	---	---	27.0	ESE	0.45	29.6	-36.6	---	---	727.7	0.027	0.000	17.9	85	1
03/15/17	8:24 p	-21.0	-20.9	-21.0	---	---	26.1	ESE	0.43	29.6	-36.4	---	---	727.8	0.027	0.000	17.9	85	1
03/15/17	8:25 p	-20.9	-20.9	-21.0	---	---	27.0	ESE	0.45	28.7	-36.6	---	---	727.7	0.027	0.000	17.9	85	1
03/15/17	8:26 p	-20.9	-20.9	-21.0	---	---	26.1	ESE	0.43	28.7	-36.4	---	---	727.8	0.027	0.000	17.9	85	1
03/15/17	8:27 p	-21.0	-20.9	-21.0	---	---	25.2	ESE	0.42	27.8	-36.3	---	---	727.7	0.027	0.000	17.9	86	1
03/15/17	8:28 p	-20.9	-20.9	-21.0	---	---	25.2	ESE	0.42	27.8	-36.2	---	---	727.7	0.027	0.000	17.9	86	1
03/15/17	8:29 p	-21.0	-21.0	-21.0	---	---	26.1	ESE	0.43	27.8	-36.4	---	---	727.8	0.027	0.000	17.9	86	1
03/15/17	8:30 p	-21.0	-21.0	-21.0	---	---	25.2	ESE	0.42	27.0	-36.3	---	---	727.8	0.027	0.000	17.8	85	1
03/15/17	8:31 p	-21.0	-21.0	-21.0	---	---	24.3	ESE	0.41	26.1	-36.1	---	---	727.8	0.027	0.000	17.8	85	1
03/15/17	8:32 p	-21.0	-20.9	-21.0	---	---	23.5	ESE	0.39	25.2	-35.8	---	---	727.8	0.027	0.000	17.8	86	1
03/15/17	8:33 p	-21.0	-20.9	-21.0	---	---	22.6	ESE	0.38	25.2	-35.7	---	---	727.8	0.027	0.000	17.8	86	1
03/15/17	8:34 p	-21.0	-20.9	-21.0	---	---	22.6	ESE	0.38	24.3	-35.7	---	---	727.9	0.027	0.000	17.7	85	1
03/15/17	8:35 p	-20.9	-20.9	-21.0	---	---	23.5	ESE	0.39	26.1	-35.8	---	---	727.8	0.027	0.000	17.7	86	1
03/15/17	8:36 p	-21.0	-21.0	-21.0	---	---	24.3	ESE	0.41	26.1	-36.1	---	---	727.8	0.027	0.000	17.6	86	1
03/15/17	8:37 p	-21.0	-20.9	-21.0	---	---	25.2	ESE	0.42	27.8	-36.3	---	---	727.8	0.027	0.000	17.6	85	1
03/15/17	8:38 p	-21.0	-21.0	-21.0	---	---	24.3	ESE	0.41	27.8	-36.1	---	---	727.8	0.027	0.000	17.6	85	1
03/15/17	8:39 p	-21.0	-20.9	-21.0	---	---	25.2	ESE	0.42	27.0	-36.3	---	---	727.7	0.027	0.000	17.6	85	1
03/15/17	8:40 p	-21.0	-20.9	-21.0	---	---	27.0	ESE	0.45	29.6	-36.7	---	---	727.7	0.027	0.000	17.6	85	1
03/15/17	8:41 p	-20.9	-20.9	-20.9	---	---	26.1	ESE	0.43	28.7	-36.4	---	---	727.8	0.027	0.000	17.6	85	1
03/15/17	8:42 p	-20.9	-20.9	-20.9	---	---	26.1	ESE	0.43	28.7	-36.4	---	---	727.8	0.027	0.000	17.6	85	1
03/15/17	8:43 p	-20.9	-20.9	-21.0	---	---	26.1	ESE	0.43	28.7	-36.4	---	---	727.8	0.027	0.000	17.6	85	1
03/15/17	8:44 p	-20.9	-20.9	-20.9	---	---	27.0	ESE	0.45	28.7	-36.6	---	---	727.8	0.027	0.000	17.6	85	1
03/15/17	8:45 p	-20.9	-20.9	-20.9	---	---	26.1	ESE	0.43	27.8	-36.4	---	---	727.7	0.027	0.000	17.6	85	1
03/15/17	8:46 p	-20.9	-20.9	-20.9	---	---	26.1	ESE	0.43	27.8	-36.4	---	---	727.8	0.027	0.000	17.7	85	1
03/15/17	8:47 p	-20.9	-20.9	-21.0	---	---	23.5	ESE	0.39	25.2	-35.8	---	---	727.8	0.027	0.000	17.7	85	1
03/15/17	8:48 p	-20.9	-20.9	-20.9	---	---	24.3	ESE	0.41	26.1	-36.0	---	---	727.8	0.027	0.000	17.7	86	1
03/15/17	8:49 p	-20.9	-20.9	-20.9	---	---	24.3	ESE	0.41	27.0	-36.0	---	---	727.8	0.027	0.000	17.7	85	1
03/15/17	8:50 p	-20.9	-20.9	-20.9	---	---	26.1	ESE	0.43	28.7	-36.4	---	---	727.8	0.027	0.000	17.7	85	1
03/15/17	8:51 p	-20.9	-20.9	-20.9	---	---	24.3	ESE	0.41	28.7	-36.0	---	---	727.8	0.027	0.000	17.7	86	1
03/15/17	8:52 p	-20.9	-20.9	-20.9	---	---	25.2	ESE	0.42	28.7	-36.2	---	---	727.8	0.027	0.000	17.7	86	1
03/15/17	8:53 p	-20.9	-20.9	-20.9	---	---	27.0	ESE	0.45	27.8	-36.6	---	---	727.8	0.027	0.000	17.7	86	1
03/15/17	8:54 p	-20.9	-20.9	-20.9	---	---	26.1	ESE	0.43	28.7	-36.3	---	---	727.8	0.027	0.000	17.7	85	1
03/15/17	8:55 p	-20.9	-20.9	-20.9	---	---	26.1	ESE	0.43	27.8	-36.4	---	---	727.8	0.027	0.000	17.7	85	1
03/15/17	8:56 p	-20.9	-20.9	-20.9	---	---	24.3	ESE	0.41	27.8	-36.0	---	---	727.8	0.027	0.000	17.7	85	1
03/15/17	8:57 p	-20.9	-20.9	-20.9	---	---	23.5	ESE	0.39	27.8	-35.8	---	---	727.7	0.027	0.000	17.7	85	1
03/15/17	8:58 p	-20.9	-20.9	-20.9	---	---	24.3	ESE	0.41	27.8	-35.9	---	---	727.9	0.027	0.000	17.7	85	1
03/15/17	8:59 p	-20.9	-20.9	-20.9	---	---	25.2	ESE	0.42	27.0	-36.1	---	---	727.7	0.027	0.000	17.7	85	1
03/15/17	9:00 p	-20.9	-20.9	-20.9	---	---	25.2	ESE	0.42	26.1	-36.1	---	---	727.7	0.027	0.000	17.7	85	1
03/15/17	9:01 p	-20.9	-20.9	-20.9	---	---	25.2	ESE	0.42	27.8	-36.1	---	---	727.8	0.027	0.000	17.7	85	1
03/15/17	9:02 p	-20.9	-20.9	-20.9	---	---	27.0	ESE	0.45	28.7	-36.5	---	---	727.7	0.027	0.000	17.8	85	1
03/15/17	9:03 p	-20.9	-20.9	-20.9	---	---	24.3	ESE	0.41	27.0	-35.9	---	---	727.8	0.027	0.000	17.8	85	1
03/15/17	9:04 p	-20.9	-20.9	-20.9	---	---	24.3	ESE	0.41	26.1	-35.9	---	---	727.7	0.027	0.000	17.8	85	1
03/15/17	9:05 p	-20.9	-20.9	-20.9	---	---	23.5	ESE	0.39	25.2	-35.7	---	---	727.8	0.027	0.000	17.8	86	1
03/15/17	9:06 p	-20.9	-20.9	-20.9	---	---	23.5	ESE	0.39	26.1	-35.7	---	---	727.7	0.027	0.000	17.8	86	1
03/15/17	9:07 p	-20.9	-20.9	-20.9	---	---	24.3	ESE	0.41	27.0	-35.9	---	---	727.7	0.027	0.000	17.8	86	1
03/15/17	9:08 p	-20.9	-20.8	-20.9	---	---	26.1	ESE	0.43	28.7	-36.3	---	---	727.8	0.027	0.000	17.8	86	1
03/15/17	9:09 p	-20.9	-20.9	-20.9	---	---	26.1	ESE	0.43	29.6	-36.3	---	---	727.6	0.027	0.000	17.8	86	1
03/15/17	9:10 p	-20.9	-20.8	-20.9	---	---	27.0	ESE	0.45	28.7	-36.5	---	---	727.6	0.027	0.000	17.8	86	1
03/15/17	9:11 p	-20.9	-20.8	-20.9	---	---	27.0	ESE	0.45	29.6	-36.5	---	---	727.6	0.027	0.000	17.8	86	1
03/15/17	9:12 p	-20.9	-20.8	-20.9	---	---	26.1	ESE	0.43	29.6	-36.3	---	---	727.7	0.027	0.000	17.8	86	1
03/15/17	9:13 p	-20.8	-20.8	-20.9	---	---	26.1	ESE	0.43	27.0	-36.2	---	---	727.7	0.027	0.000	17.8	86	1
03/15/17	9:14 p	-20.8	-20.8	-20.9	---	---	25.2	ESE	0.42	27.0	-36.1	---	---	727.7	0.027	0.000	17.8	86	1
03/15/17	9:15 p	-20.9	-20.8	-20.9	---	---	24.3	ESE	0.41	26.1	-35.9	---	---	727.7	0.027	0.000	17.8	86	1
03/15/17	9:16 p	-20.8	-20.8	-20.9	---	---	24.3	ESE	0.41	27.0	-35.8	---	---	727.7	0.027	0.000	17.8	85	1
03/15/17	9:17 p	-20.8	-20.8	-20.8	---	---	27.0	ESE	0.45	28.7	-36.4	---	---	727.8	0.027	0.000	17.8	85	1
03/15/17	9:18 p	-20.8	-20.8	-20.8	---	---	25.2	ESE	0.42	27.8	-36.1	---	---	727.8	0.027	0.000	17.8	85	1
03/15/17	9:19 p	-20.8	-20.8	-20.8	---	---	26.1	ESE	0.43	28.7	-36.2	---	---	727.7	0.027	0.000	17.8	85	1
03/15/17	9:20 p	-20.8	-20.8	-20.9	---	---	25.2	ESE	0.42	27.8	-36.1	---	---	727.7	0.027	0.000	17.8	85	1
03/15/17	9:21 p	-20.8	-20.8	-20.8	---	---	25.2	ESE	0.42	27.8	-36.1	---	---	727.7	0.027	0.000	17.8	85	1
03/15/17	9:22 p	-20.8	-20.8	-20.8	---	---	26.1	ESE	0.43	28.7	-36.2	---	---	727.6	0.027	0.000	17.8	85	1
03/15/17	9:23 p	-20.8	-20.8	-20.8	---	---	25.2	ESE	0.42	27.8	-36.1	---	---	727.7	0.027	0.000	17.8	85	1
03/15/17	9:24 p	-20.8	-20.8	-20.8	---	---	26.1	ESE	0.43	29.6	-36.2	---	---	727.6	0.027	0.000	17.8	85	1
03/15/17	9:25 p	-20.8	-20.8	-20.8	---	---	26.1	ESE	0.43	29.6	-36.2	---	---	727.6	0.027	0.000	17.8	85	1
03/15/17	9:26 p	-20.8	-20.8	-20.8	---	---	25.2	ESE	0.42	28.7	-36.1	---	---	727.7	0.027	0.000	17.8	85	1
03/15/17	9:27 p	-20.8	-20.8	-20.8	---	---	26.1	ESE	0.43	28.7	-36.2	---	---	727.7	0.027	0.000	17.9	85	1
03/15/17	9:28 p	-20.8	-20.8	-20.8	---	---	24.3	ESE	0.41	27.0	-35.8	---	---	727.7	0.027	0.000	17.8	85	1
03/15/17	9:29 p	-20.8	-20.8	-20.8	---	---	25.2	ESE	0.42	28.7	-36.1	---	---	727.7	0.027	0.000	17.8	85	1
03/15/17	9:30 p	-20.8	-20.8	-20.8	---	---	27.0	ESE	0.45	30.4	-36.4	---	---	727.6	0.027	0.000	17.9	85	1
03/15/17	9:31 p	-20.8	-20.8	-20.8	---	---	27.0	ESE	0.45	29.6	-36.4	---	---	727.5	0.027	0.000	17.9	85	1
03/15/17	9:32 p	-20.8	-20.8	-20.8	---	---	28.7	ESE	0.48	30.4	-36.8	---	---	727.5	0.027	0.000	17.9	85	1
03/15/17	9:33 p	-20.8	-20.8	-20.8	---	---	28.7	ESE	0.48	31.3	-36.8	---	---	727.7	0.027	0.000	17.9	85	1
03/15/17	9:34 p	-20.8	-20.8	-20.8	---	---	28.7	ESE	0.48	31.3	-36.8	---	---	727.6	0.027	0.000	17.9	86	1
03/15/17	9:35 p	-20.8	-20.8	-20.8	---	---	26.1	ESE	0.43	27.8	-36.2	---	---	727.6	0.027	0.000	17.9	85	1
03/15/17	9:36 p	-20.8	-20.8	-20.8	---	---	25.2	ESE	0.42	27.0	-36.1	---	---	727.7	0.027	0.000	17.9	85	1
03/15/17	9:37 p	-20.8	-20.8	-20.9	---	---	23.5	ESE	0.39	26.1	-35.6	---	---	727.8	0.027	0.000	17.9	86	1
03/15/17	9:38 p	-20.8	-20.8	-20.9	---	---	23.5	ESE	0.39	26.1	-35.6	---	---	727.7	0.027	0.000	17.9	86	1
03/15/17	9:39 p	-20.9	-20.8	-20.9	---	---	24.3	ESE	0.41	27.8	-35.9	---	---	727.7	0.027	0.000	17.9	86	1
03/15/17	9:40 p	-20.9	-20.8	-20.9	---	---	26.1	ESE	0.43	27.8	-36.3	---	---	727.7	0.027	0.000	17.9	86	1
03/15/17	9:41 p	-20.9	-20.8	-20.9	---	---	23.5	ESE	0.39	26.1	-35.7	---	---	727.6	0.027	0.000	17.9	85	1
03/15/17	9:42 p	-20.9	-20.9	-20.9	---	---	26.1	ESE	0.43	28.7	-36.3	---	---	727.6	0.027	0.000	17.9	85	1
03/15/17	9:43 p	-20.9	-20.9	-20.9	---	---	25.2	ESE	0.42	27.8	-36.1	---	---	727.7	0.027	0.000	17.9	85	1
03/15/17	9:44 p	-20.9	-20.9	-20.9	---	---	25.2	ESE	0.42	27.8	-36.1	---	---	727.7	0.027	0.000	17.9	85	1
03/15/17	9:45 p	-20.9	-20.9	-20.9	---	---	25.2	ESE	0.42	28.7	-36.1	---	---	727.6	0.027	0.000	17.9	85	1
03/15/17	9:46 p	-20.9	-20.9	-20.9	---	---	25.2	ESE	0.42	28.7	-36.1	---	---	727.6	0.027	0.000	17.9	85	1
03/15/17	9:47 p	-20.9	-20.9	-20.9	---	---	25.2	ESE	0.42	29.6	-36.1	---	---	727.6	0.027	0.000	17.9	85	1
03/15/17	9:48 p	-20.9	-20.9	-20.9	---	---	26.1	ESE	0.43	29.6	-36.3	---	---	727.6	0.027	0.000	17.9	85	1
03/15/17	9:49 p	-20.9	-20.8	-20.9	---	---	25.2	ESE	0.42	27.8	-36.1	---	---	727.6	0.027	0.000	17.9	85	1
03/15/17	9:50 p	-20.9	-20.9	-20.9	---	---	25.2	ESE	0.42	27.0	-36.1	---	---	727.6	0.027	0.000	17.9	85	1
03/15/17	9:51 p	-20.9	-20.9	-20.9	---	---	22.6	ESE	0.38	25.2	-35.5	---	---	727.7	0.027	0.000	17.9	85	1
03/15/17	9:52 p	-20.9	-20.9	-20.9	---	---	24.3	ESE	0.41	27.8	-36.0	---	---	727.6	0.027	0.000	17.9	85	1
03/15/17	9:53 p	-20.9	-20.9	-20.9	---	---	24.3	ESE	0.41	27.0	-36.0	---	---	727.6	0.027	0.000	17.9	85	1
03/15/17	9:54 p	-20.9	-20.9	-20.9	---	---	24.3	ESE	0.41	26.1	-36.0	---	---	727.6	0.027	0.000	17.9	85	1
03/15/17	9:55 p	-20.9	-20.9	-20.9	---	---	23.5	ESE	0.39	26.1	-35.8	---	---	727.6	0.027	0.000	17.9	85	1
03/15/17	9:56 p	-20.9	-20.9	-20.9	---	---	26.1	ESE	0.43	29.6	-36.4	---	---	727.6	0.027	0.000	17.9	85	1
03/15/17	9:57 p	-20.9	-20.9	-20.9	---	---	27.8	ESE	0.46	29.6	-36.8	---	---	727.5	0.027	0.000	17.9	85	1
03/15/17	9:58 p	-20.9	-20.9	-20.9	---	---	27.0	ESE	0.45	28.7	-36.6	---	---	727.5	0.027	0.000	17.9	85	1
03/15/17	9:59 p	-20.9	-20.9	-20.9	---	---	27.0	ESE	0.45	29.6	-36.5	---	---	727.6	0.027	0.000	17.9	85	1
03/15/17	10:00 p	-20.9	-20.9	-20.9	---	---	27.0	ESE	0.45	29.6	-36.6	---	---	727.5	0.027	0.000	17.9	85	1
03/15/17	10:01 p	-20.9	-20.9	-20.9	---	---	26.1	ESE	0.43	27.8	-36.3	---	---	727.5	0.027	0.000	17.9	86	1
03/15/17	10:02 p	-20.9	-20.9	-20.9	---	---	25.2	ESE	0.42	27.8	-36.1	---	---	727.5	0.027	0.000	17.9	86	1
03/15/17	10:03 p	-20.9	-20.9	-20.9	---	---	24.3	ESE	0.41	27.0	-35.9	---	---	727.5	0.027	0.000	17.9	85	1
03/15/17	10:04 p	-20.9	-20.9	-20.9	---	---	24.3	ESE	0.41	27.0	-35.9	---	---	727.6	0.027	0.000	17.9	85	1
03/15/17	10:05 p	-20.9	-20.9	-20.9	---	---	24.3	ESE	0.41	28.7	-35.9	---	---	727.5	0.027	0.000	17.9	85	1
03/15/17	10:06 p	-20.9	-20.9	-20.9	---	---	27.0	ESE	0.45	29.6	-36.5	---	---	727.6	0.027	0.000	17.9	86	1
03/15/17	10:07 p	-20.9	-20.9	-20.9	---	---	25.2	ESE	0.42	28.7	-36.1	---	---	727.6	0.027	0.000	18.0	85	1
03/15/17	10:08 p	-20.9	-20.9	-20.9	---	---	25.2	ESE	0.42	28.7	-36.1	---	---	727.5	0.027	0.000	17.9	86	1
03/15/17	10:09 p	-20.9	-20.9	-20.9	---	---	24.3	ESE	0.41	27.8	-35.9	---	---	727.5	0.027	0.000	17.9	85	1
03/15/17	10:10 p	-20.9	-20.9	-20.9	---	---	24.3	ESE	0.41	27.8	-35.9	---	---	727.5	0.027	0.000	18.0	85	1
03/15/17	10:11 p	-20.9	-20.9	-20.9	---	---	25.2	ESE	0.42	28.7	-36.1	---	---	727.5	0.027	0.000	18.0	85	1
03/15/17	10:12 p	-20.9	-20.8	-20.9	---	---	27.0	ESE	0.45	29.6	-36.5	---	---	727.5	0.027	0.000	18.0	86	1
03/15/17	10:13 p	-20.9	-20.9	-20.9	---	---	28.7	ESE	0.48	30.4	-36.9	---	---	727.4	0.027	0.000	18.0	86	1
03/15/17	10:14 p	-20.9	-20.9	-20.9	---	---	28.7	ESE	0.48	29.6	-36.9	---	---	727.4	0.027	0.000	18.0	86	1
03/15/17	10:15 p	-20.9	-20.9	-20.9	---	---	28.7	ESE	0.48	32.2	-36.9	---	---	727.5	0.027	0.000	18.0	86	1
03/15/17	10:16 p	-20.9	-20.9	-20.9	---	---	27.8	ESE	0.46	29.6	-36.7	---	---	727.4	0.027	0.000	18.0	86	1
03/15/17	10:17 p	-20.9	-20.9	-20.9	---	---	27.8	ESE	0.46	29.6	-36.7	---	---	727.4	0.027	0.000	18.0	86	1
03/15/17	10:18 p	-20.9	-20.9	-20.9	---	---	27.0	ESE	0.45	28.7	-36.5	---	---	727.5	0.027	0.000	18.0	86	1
03/15/17	10:19 p	-20.9	-20.9	-20.9	---	---	25.2	ESE	0.42	27.0	-36.1	---	---	727.4	0.027	0.000	18.0	86	1
03/15/17	10:20 p	-20.9	-20.9	-20.9	---	---	24.3	ESE	0.41	27.0	-35.9	---	---	727.4	0.027	0.000	18.0	86	1
03/15/17	10:21 p	-20.9	-20.9	-20.9	---	---	25.2	ESE	0.42	27.8	-36.1	---	---	727.5	0.027	0.000	17.9	86	1
03/15/17	10:22 p	-20.9	-20.9	-20.9	---	---	27.8	ESE	0.46	29.6	-36.7	---	---	727.4	0.027	0.000	17.9	86	1
03/15/17	10:23 p	-20.9	-20.9	-20.9	---	---	27.8	ESE	0.46	31.3	-36.7	---	---	727.4	0.027	0.000	17.9	86	1
03/15/17	10:24 p	-20.9	-20.9	-20.9	---	---	27.8	ESE	0.46	32.2	-36.7	---	---	727.4	0.027	0.000	17.8	86	1
03/15/17	10:25 p	-20.9	-20.9	-20.9	---	---	27.8	ESE	0.46	31.3	-36.7	---	---	727.3	0.027	0.000	17.8	86	1
03/15/17	10:26 p	-20.9	-20.9	-20.9	---	---	27.8	ESE	0.46	32.2	-36.7	---	---	727.3	0.027	0.000	17.8	85	1
03/15/17	10:27 p	-20.9	-20.9	-20.9	---	---	29.6	ESE	0.49	33.0	-37.1	---	---	727.3	0.027	0.000	17.7	86	1
03/15/17	10:28 p	-20.9	-20.8	-20.9	---	---	29.6	ESE	0.49	33.0	-37.1	---	---	727.4	0.027	0.000	17.7	86	1
03/15/17	10:29 p	-20.9	-20.9	-20.9	---	---	27.8	ESE	0.46	30.4	-36.8	---	---	727.3	0.027	0.000	17.7	86	1
03/15/17	10:30 p	-20.9	-20.9	-20.9	---	---	29.6	ESE	0.49	31.3	-37.1	---	---	727.4	0.027	0.000	17.6	86	1
03/15/17	10:31 p	-20.9	-20.9	-20.9	---	---	30.4	ESE	0.51	32.2	-37.3	---	---	727.3	0.027	0.000	17.6	85	1
03/15/17	10:32 p	-20.9	-20.9	-20.9	---	---	27.0	ESE	0.45	29.6	-36.6	---	---	727.4	0.027	0.000	17.6	85	1
03/15/17	10:33 p	-21.0	-20.9	-21.0	---	---	25.2	ESE	0.42	28.7	-36.3	---	---	727.4	0.027	0.000	17.6	86	1
03/15/17	10:34 p	-21.0	-21.0	-21.0	---	---	26.1	ESE	0.43	28.7	-36.4	---	---	727.3	0.027	0.000	17.6	85	1
03/15/17	10:35 p	-21.0	-21.0	-21.0	---	---	27.8	ESE	0.46	31.3	-36.8	---	---	727.2	0.027	0.000	17.6	85	1
03/15/17	10:36 p	-21.0	-21.0	-21.1	---	---	28.7	ESE	0.48	32.2	-37.1	---	---	727.3	0.027	0.000	17.6	86	1
03/15/17	10:37 p	-21.0	-21.0	-21.0	---	---	28.7	ESE	0.48	32.2	-37.1	---	---	727.3	0.027	0.000	17.6	85	1
03/15/17	10:38 p	-21.0	-21.0	-21.1	---	---	30.4	ESE	0.51	33.9	-37.4	---	---	727.2	0.027	0.000	17.6	85	1
03/15/17	10:39 p	-21.0	-21.0	-21.1	---	---	30.4	ESE	0.51	33.0	-37.4	---	---	727.2	0.027	0.000	17.7	85	1
03/15/17	10:40 p	-21.0	-21.0	-21.1	---	---	29.6	ESE	0.49	31.3	-37.2	---	---	727.3	0.027	0.000	17.7	86	1
03/15/17	10:41 p	-21.1	-21.0	-21.1	---	---	29.6	ESE	0.49	31.3	-37.3	---	---	727.2	0.027	0.000	17.7	86	1
03/15/17	10:42 p	-21.0	-21.0	-21.1	---	---	27.0	ESE	0.45	30.4	-36.7	---	---	727.3	0.027	0.000	17.7	86	1
03/15/17	10:43 p	-21.1	-21.1	-21.1	---	---	28.7	ESE	0.48	31.3	-37.1	---	---	727.1	0.027	0.000	17.7	86	1
03/15/17	10:44 p	-21.1	-21.0	-21.1	---	---	30.4	ESE	0.51	33.0	-37.4	---	---	727.2	0.027	0.000	17.7	86	1
03/15/17	10:45 p	-21.1	-21.1	-21.1	---	---	27.8	ESE	0.46	29.6	-36.9	---	---	727.2	0.027	0.000	17.7	86	1
03/15/17	10:46 p	-21.1	-21.1	-21.1	---	---	29.6	ESE	0.49	33.0	-37.3	---	---	727.2	0.027	0.000	17.7	86	1
03/15/17	10:47 p	-21.1	-21.1	-21.1	---	---	29.6	ESE	0.49	32.2	-37.3	---	---	727.1	0.027	0.000	17.7	86	1
03/15/17	10:48 p	-21.1	-21.1	-21.1	---	---	31.3	ESE	0.52	34.8	-37.6	---	---	727.1	0.027	0.000	17.7	86	1
03/15/17	10:49 p	-21.1	-21.1	-21.1	---	---	32.2	ESE	0.54	35.7	-37.9	---	---	726.9	0.027	0.000	17.7	86	1
03/15/17	10:50 p	-21.1	-21.1	-21.1	---	---	33.9	ESE	0.57	35.7	-38.2	---	---	726.9	0.027	0.000	17.7	86	1
03/15/17	10:51 p	-21.1	-21.0	-21.1	---	---	31.3	ESE	0.52	35.7	-37.7	---	---	727.0	0.027	0.000	17.7	86	1
03/15/17	10:52 p	-21.1	-21.1	-21.1	---	---	32.2	ESE	0.54	35.7	-37.9	---	---	726.9	0.027	0.000	17.7	86	1
03/15/17	10:53 p	-21.1	-21.1	-21.1	---	---	33.0	ESE	0.55	36.5	-38.1	---	---	726.8	0.027	0.000	17.6	86	1
03/15/17	10:54 p	-21.1	-21.1	-21.2	---	---	33.0	ESE	0.55	35.7	-38.1	---	---	726.9	0.027	0.000	17.6	86	1
03/15/17	10:55 p	-21.2	-21.1	-21.2	---	---	31.3	ESE	0.52	33.9	-37.8	---	---	726.9	0.027	0.000	17.6	86	1
03/15/17	10:56 p	-21.1	-21.1	-21.2	---	---	32.2	ESE	0.54	35.7	-37.9	---	---	726.8	0.027	0.000	17.7	86	1
03/15/17	10:57 p	-21.2	-21.2	-21.2	---	---	33.9	ESE	0.57	36.5	-38.3	---	---	726.9	0.027	0.000	17.6	86	1
03/15/17	10:58 p	-21.2	-21.1	-21.2	---	---	33.0	ESE	0.55	34.8	-38.1	---	---	726.8	0.027	0.000	17.6	86	1
03/15/17	10:59 p	-21.2	-21.2	-21.2	---	---	33.0	ESE	0.55	35.7	-38.1	---	---	726.8	0.027	0.000	17.6	86	1
03/15/17	11:00 p	-21.2	-21.1	-21.2	---	---	32.2	ESE	0.54	33.9	-37.9	---	---	726.8	0.027	0.000	17.6	86	1
03/15/17	11:01 p	-21.2	-21.2	-21.2	---	---	30.4	ESE	0.51	34.8	-37.6	---	---	726.8	0.027	0.000	17.6	86	1
03/15/17	11:02 p	-21.2	-21.2	-21.2	---	---	33.0	ESE	0.55	36.5	-38.1	---	---	726.7	0.027	0.000	17.6	86	1
03/15/17	11:03 p	-21.2	-21.2	-21.2	---	---	33.0	ESE	0.55	34.8	-38.2	---	---	726.8	0.027	0.000	17.6	86	1
03/15/17	11:04 p	-21.2	-21.2	-21.2	---	---	30.4	ESE	0.51	33.9	-37.7	---	---	726.9	0.027	0.000	17.6	86	1
03/15/17	11:05 p	-21.2	-21.2	-21.2	---	---	32.2	ESE	0.54	34.8	-38.0	---	---	726.8	0.027	0.000	17.6	86	1
03/15/17	11:06 p	-21.2	-21.2	-21.2	---	---	31.3	ESE	0.52	33.0	-37.8	---	---	726.8	0.027	0.000	17.6	87	1
03/15/17	11:07 p	-21.2	-21.2	-21.2	---	---	29.6	ESE	0.49	32.2	-37.4	---	---	726.9	0.027	0.000	17.6	87	1
03/15/17	11:08 p	-21.2	-21.2	-21.2	---	---	30.4	ESE	0.51	32.2	-37.6	---	---	726.8	0.027	0.000	17.6	87	1
03/15/17	11:09 p	-21.2	-21.2	-21.2	---	---	30.4	ESE	0.51	34.8	-37.6	---	---	726.8	0.027	0.000	17.6	86	1
03/15/17	11:10 p	-21.2	-21.2	-21.2	---	---	32.2	ESE	0.54	35.7	-37.9	---	---	726.8	0.027	0.000	17.6	86	1
03/15/17	11:11 p	-21.2	-21.2	-21.2	---	---	32.2	ESE	0.54	35.7	-37.9	---	---	726.8	0.027	0.000	17.6	87	1
03/15/17	11:12 p	-21.2	-21.2	-21.2	---	---	32.2	ESE	0.54	36.5	-37.9	---	---	726.7	0.027	0.000	17.6	87	1
03/15/17	11:13 p	-21.2	-21.2	-21.2	---	---	32.2	ESE	0.54	35.7	-37.9	---	---	726.8	0.027	0.000	17.6	86	1
03/15/17	11:14 p	-21.2	-21.2	-21.2	---	---	33.9	ESE	0.57	37.4	-38.3	---	---	726.8	0.027	0.000	17.6	86	1
03/15/17	11:15 p	-21.1	-21.1	-21.2	---	---	33.9	ESE	0.57	35.7	-38.2	---	---	726.6	0.027	0.000	17.6	86	1
03/15/17	11:16 p	-21.1	-21.1	-21.1	---	---	34.8	ESE	0.58	36.5	-38.3	---	---	726.8	0.027	0.000	17.6	86	1
03/15/17	11:17 p	-21.1	-21.1	-21.1	---	---	32.2	ESE	0.54	34.8	-37.9	---	---	726.6	0.027	0.000	17.6	86	1
03/15/17	11:18 p	-21.1	-21.1	-21.1	---	---	31.3	ESE	0.52	33.9	-37.7	---	---	726.9	0.027	0.000	17.6	86	1
03/15/17	11:19 p	-21.1	-21.1	-21.1	---	---	31.3	ESE	0.52	33.9	-37.7	---	---	726.7	0.027	0.000	17.6	86	1
03/15/17	11:20 p	-21.1	-21.1	-21.1	---	---	31.3	ESE	0.52	34.8	-37.6	---	---	726.7	0.027	0.000	17.6	86	1
03/15/17	11:21 p	-21.1	-21.0	-21.1	---	---	31.3	ESE	0.52	33.9	-37.6	---	---	726.8	0.027	0.000	17.6	86	1
03/15/17	11:22 p	-21.0	-21.0	-21.1	---	---	31.3	ESE	0.52	33.9	-37.6	---	---	726.7	0.027	0.000	17.6	86	1
03/15/17	11:23 p	-21.0	-20.9	-21.0	---	---	33.0	ESE	0.55	35.7	-37.9	---	---	726.6	0.027	0.000	17.6	86	1
03/15/17	11:24 p	-21.0	-21.0	-21.0	---	---	33.9	ESE	0.57	35.7	-38.1	---	---	726.6	0.027	0.000	17.6	86	1
03/15/17	11:25 p	-20.9	-20.9	-21.0	---	---	33.9	ESE	0.57	36.5	-37.9	---	---	726.6	0.027	0.000	17.6	86	1
03/15/17	11:26 p	-20.9	-20.9	-20.9	---	---	35.7	ESE	0.59	38.3	-38.3	---	---	726.6	0.027	0.000	17.6	86	1
03/15/17	11:27 p	-20.9	-20.9	-20.9	---	---	33.0	ESE	0.55	36.5	-37.7	---	---	726.6	0.027	0.000	17.6	86	1
03/15/17	11:28 p	-20.9	-20.9	-20.9	---	---	33.0	ESE	0.55	36.5	-37.7	---	---	726.6	0.027	0.000	17.6	86	1
03/15/17	11:29 p	-20.9	-20.8	-20.9	---	---	34.8	ESE	0.58	37.4	-38.1	---	---	726.4	0.027	0.000	17.6	86	1
03/15/17	11:30 p	-20.8	-20.8	-20.8	---	---	34.8	ESE	0.58	37.4	-37.9	---	---	726.4	0.027	0.000	17.6	85	1
03/15/17	11:31 p	-20.8	-20.8	-20.8	---	---	33.9	ESE	0.57	38.3	-37.7	---	---	726.5	0.027	0.000	17.6	86	1
03/15/17	11:32 p	-20.8	-20.7	-20.8	---	---	33.9	ESE	0.57	37.4	-37.7	---	---	726.5	0.027	0.000	17.6	85	1
03/15/17	11:33 p	-20.7	-20.7	-20.8	---	---	33.9	ESE	0.57	37.4	-37.7	---	---	726.5	0.027	0.000	17.5	86	1
03/15/17	11:34 p	-20.7	-20.7	-20.7	---	---	33.9	ESE	0.57	37.4	-37.7	---	---	726.5	0.027	0.000	17.6	86	1
03/15/17	11:35 p	-20.7	-20.7	-20.7	---	---	33.9	ESE	0.57	36.5	-37.6	---	---	726.5	0.027	0.000	17.6	86	1
03/15/17	11:36 p	-20.7	-20.6	-20.7	---	---	34.8	ESE	0.58	36.5	-37.7	---	---	726.5	0.027	0.000	17.6	86	1
03/15/17	11:37 p	-20.6	-20.6	-20.6	---	---	35.7	ESE	0.59	39.1	-37.7	---	---	726.5	0.027	0.000	17.5	86	1
03/15/17	11:38 p	-20.6	-20.6	-20.6	---	---	37.4	ESE	0.62	40.9	-38.0	---	---	726.3	0.027	0.000	17.5	85	1
03/15/17	11:39 p	-20.6	-20.5	-20.6	---	---	36.5	ESE	0.61	40.9	-37.9	---	---	726.3	0.027	0.000	17.5	85	1
03/15/17	11:40 p	-20.5	-20.5	-20.6	---	---	36.5	ESE	0.61	40.0	-37.8	---	---	726.4	0.027	0.000	17.5	86	1
03/15/17	11:41 p	-20.5	-20.4	-20.5	---	---	36.5	ESE	0.61	39.1	-37.8	---	---	726.5	0.027	0.000	17.5	85	1
03/15/17	11:42 p	-20.4	-20.4	-20.5	---	---	36.5	ESE	0.61	40.0	-37.7	---	---	726.3	0.027	0.000	17.5	86	1
03/15/17	11:43 p	-20.4	-20.4	-20.4	---	---	36.5	ESE	0.61	39.1	-37.7	---	---	726.4	0.027	0.000	17.5	86	1
03/15/17	11:44 p	-20.4	-20.4	-20.4	---	---	36.5	ESE	0.61	39.1	-37.7	---	---	726.3	0.027	0.000	17.5	86	1
03/15/17	11:45 p	-20.4	-20.4	-20.4	---	---	34.8	ESE	0.58	39.1	-37.4	---	---	726.4	0.027	0.000	17.4	85	1
03/15/17	11:46 p	-20.4	-20.4	-20.4	---	---	34.8	ESE	0.58	38.3	-37.4	---	---	726.5	0.027	0.000	17.5	86	1
03/15/17	11:47 p	-20.4	-20.4	-20.4	---	---	34.8	ESE	0.58	38.3	-37.4	---	---	726.5	0.027	0.000	17.4	86	1
03/15/17	11:48 p	-20.4	-20.4	-20.4	---	---	35.7	ESE	0.59	39.1	-37.6	---	---	726.5	0.027	0.000	17.5	86	1
03/15/17	11:49 p	-20.4	-20.4	-20.4	---	---	35.7	ESE	0.59	38.3	-37.6	---	---	726.5	0.027	0.000	17.5	85	1
03/15/17	11:50 p	-20.4	-20.4	-20.4	---	---	34.8	ESE	0.58	38.3	-37.4	---	---	726.4	0.027	0.000	17.4	86	1
03/15/17	11:51 p	-20.4	-20.4	-20.4	---	---	37.4	ESE	0.62	40.0	-37.8	---	---	726.3	0.027	0.000	17.4	86	1
03/15/17	11:52 p	-20.4	-20.4	-20.4	---	---	35.7	ESE	0.59	37.4	-37.5	---	---	726.4	0.027	0.000	17.4	86	1
03/15/17	11:53 p	-20.4	-20.3	-20.4	---	---	35.7	ESE	0.59	38.3	-37.5	---	---	726.5	0.027	0.000	17.4	85	1
03/15/17	11:54 p	-20.4	-20.3	-20.4	---	---	35.7	ESE	0.59	38.3	-37.5	---	---	726.5	0.027	0.000	17.4	86	1
03/15/17	11:55 p	-20.3	-20.3	-20.3	---	---	34.8	ESE	0.58	39.1	-37.3	---	---	726.4	0.027	0.000	17.4	86	1
03/15/17	11:56 p	-20.3	-20.3	-20.3	---	---	35.7	ESE	0.59	37.4	-37.4	---	---	726.5	0.027	0.000	17.4	86	1
03/15/17	11:57 p	-20.3	-20.3	-20.3	---	---	36.5	ESE	0.61	39.1	-37.6	---	---	726.3	0.027	0.000	17.4	86	1
03/15/17	11:58 p	-20.3	-20.2	-20.3	---	---	35.7	ESE	0.59	39.1	-37.3	---	---	726.4	0.027	0.000	17.4	86	1
03/15/17	11:59 p	-20.3	-20.2	-20.3	---	---	35.7	ESE	0.59	39.1	-37.3	---	---	726.4	0.027	0.000	17.4	86	1
03/16/17	12:00 a	-20.2	-20.2	-20.3	---	---	34.8	ESE	0.58	38.3	-37.1	---	---	726.5	0.027	0.000	17.4	86	1
03/16/17	12:01 a	-20.3	-20.2	-20.3	---	---	34.8	ESE	0.58	37.4	-37.2	---	---	726.4	0.027	0.000	17.4	86	1
03/16/17	12:02 a	-20.2	-20.2	-20.2	---	---	33.9	ESE	0.57	37.4	-36.9	---	---	726.4	0.027	0.000	17.4	86	1
03/16/17	12:03 a	-20.2	-20.2	-20.2	---	---	32.2	ESE	0.54	36.5	-36.7	---	---	726.5	0.027	0.000	17.4	86	1
03/16/17	12:04 a	-20.2	-20.2	-20.2	---	---	33.0	ESE	0.55	37.4	-36.8	---	---	726.4	0.027	0.000	17.4	86	1
03/16/17	12:05 a	-20.2	-20.2	-20.2	---	---	32.2	ESE	0.54	35.7	-36.7	---	---	726.4	0.027	0.000	17.4	86	1
03/16/17	12:06 a	-20.2	-20.2	-20.2	---	---	33.9	ESE	0.57	38.3	-36.9	---	---	726.3	0.027	0.000	17.4	86	1
03/16/17	12:07 a	-20.2	-20.2	-20.2	---	---	36.5	ESE	0.61	39.1	-37.4	---	---	726.3	0.027	0.000	17.4	86	1
03/16/17	12:08 a	-20.2	-20.2	-20.2	---	---	34.8	ESE	0.58	37.4	-37.1	---	---	726.4	0.027	0.000	17.4	86	1
03/16/17	12:09 a	-20.2	-20.2	-20.2	---	---	35.7	ESE	0.59	38.3	-37.2	---	---	726.4	0.027	0.000	17.4	86	1
03/16/17	12:10 a	-20.2	-20.2	-20.2	---	---	33.9	ESE	0.57	36.5	-36.9	---	---	726.4	0.027	0.000	17.4	86	1
03/16/17	12:11 a	-20.2	-20.2	-20.2	---	---	33.9	ESE	0.57	36.5	-36.9	---	---	726.3	0.027	0.000	17.4	86	1
03/16/17	12:12 a	-20.2	-20.2	-20.2	---	---	33.9	ESE	0.57	37.4	-36.9	---	---	726.4	0.027	0.000	17.4	86	1
03/16/17	12:13 a	-20.2	-20.2	-20.2	---	---	34.8	ESE	0.58	38.3	-37.1	---	---	726.3	0.027	0.000	17.4	86	1
03/16/17	12:14 a	-20.2	-20.2	-20.2	---	---	34.8	ESE	0.58	37.4	-37.1	---	---	726.3	0.027	0.000	17.4	86	1
03/16/17	12:15 a	-20.2	-20.2	-20.2	---	---	34.8	ESE	0.58	39.1	-37.1	---	---	726.4	0.027	0.000	17.4	86	1
03/16/17	12:16 a	-20.1	-20.1	-20.2	---	---	34.8	ESE	0.58	39.1	-36.9	---	---	726.2	0.027	0.000	17.4	86	1
03/16/17	12:17 a	-20.1	-20.1	-20.2	---	---	33.9	ESE	0.57	38.3	-36.8	---	---	726.3	0.027	0.000	17.4	86	1
03/16/17	12:18 a	-20.1	-20.1	-20.1	---	---	35.7	ESE	0.59	37.4	-37.1	---	---	726.3	0.027	0.000	17.4	85	1
03/16/17	12:19 a	-20.1	-20.1	-20.1	---	---	35.7	ESE	0.59	39.1	-37.1	---	---	726.3	0.027	0.000	17.4	86	1
03/16/17	12:20 a	-20.1	-20.1	-20.1	---	---	35.7	ESE	0.59	38.3	-37.1	---	---	726.4	0.027	0.000	17.4	86	1
03/16/17	12:21 a	-20.1	-20.1	-20.1	---	---	35.7	ESE	0.59	38.3	-37.0	---	---	726.3	0.027	0.000	17.4	86	1
03/16/17	12:22 a	-20.1	-20.1	-20.1	---	---	35.7	ESE	0.59	38.3	-37.1	---	---	726.3	0.027	0.000	17.4	86	1
03/16/17	12:23 a	-20.1	-20.1	-20.1	---	---	35.7	ESE	0.59	38.3	-37.1	---	---	726.4	0.027	0.000	17.4	86	1
03/16/17	12:24 a	-20.1	-20.1	-20.1	---	---	34.8	ESE	0.58	38.3	-36.9	---	---	726.4	0.027	0.000	17.5	86	1
03/16/17	12:25 a	-20.1	-20.1	-20.1	---	---	33.9	ESE	0.57	37.4	-36.8	---	---	726.5	0.027	0.000	17.6	86	1
03/16/17	12:26 a	-20.1	-20.1	-20.1	---	---	32.2	ESE	0.54	35.7	-36.5	---	---	726.5	0.027	0.000	17.7	86	1
03/16/17	12:27 a	-20.1	-20.1	-20.1	---	---	33.0	ESE	0.55	36.5	-36.7	---	---	726.4	0.027	0.000	17.8	87	1
03/16/17	12:28 a	-20.1	-20.1	-20.2	---	---	33.9	ESE	0.57	36.5	-36.8	---	---	726.3	0.027	0.000	18.1	86	1
03/16/17	12:29 a	-20.1	-20.1	-20.2	---	---	33.9	ESE	0.57	37.4	-36.8	---	---	726.2	0.027	0.000	18.1	87	1
03/16/17	12:30 a	-20.1	-20.1	-20.2	---	---	34.8	ESE	0.58	39.1	-36.9	---	---	726.2	0.027	0.000	18.2	87	1
03/16/17	12:31 a	-20.2	-20.2	-20.2	---	---	36.5	ESE	0.61	39.1	-37.3	---	---	726.3	0.027	0.000	18.3	87	1
03/16/17	12:32 a	-20.2	-20.2	-20.2	---	---	34.8	ESE	0.58	38.3	-37.1	---	---	726.3	0.027	0.000	18.4	87	1
03/16/17	12:33 a	-20.2	-20.2	-20.2	---	---	35.7	ESE	0.59	39.1	-37.2	---	---	726.3	0.027	0.000	18.4	87	1
03/16/17	12:34 a	-20.2	-20.2	-20.2	---	---	36.5	ESE	0.61	39.1	-37.4	---	---	726.2	0.027	0.000	18.5	86	1
03/16/17	12:35 a	-20.2	-20.2	-20.3	---	---	37.4	ESE	0.62	40.0	-37.6	---	---	726.3	0.027	0.000	18.6	84	1
03/16/17	12:36 a	-20.2	-20.2	-20.3	---	---	34.8	ESE	0.58	36.5	-37.1	---	---	726.3	0.027	0.000	18.7	84	1
03/16/17	12:37 a	-20.3	-20.3	-20.3	---	---	32.2	ESE	0.54	34.8	-36.7	---	---	726.4	0.027	0.000	18.7	88	1
03/16/17	12:38 a	-20.3	-20.3	-20.3	---	---	32.2	ESE	0.54	35.7	-36.7	---	---	726.3	0.027	0.000	18.7	86	1
03/16/17	12:39 a	-20.3	-20.3	-20.3	---	---	33.0	ESE	0.55	35.7	-36.9	---	---	726.3	0.027	0.000	18.7	87	1
03/16/17	12:40 a	-20.3	-20.3	-20.3	---	---	33.0	ESE	0.55	36.5	-36.9	---	---	726.2	0.027	0.000	18.7	86	1
03/16/17	12:41 a	-20.4	-20.3	-20.4	---	---	33.9	ESE	0.57	36.5	-37.2	---	---	726.2	0.027	0.000	18.7	88	1
03/16/17	12:42 a	-20.4	-20.3	-20.4	---	---	32.2	ESE	0.54	36.5	-36.9	---	---	726.3	0.027	0.000	18.8	87	1
03/16/17	12:43 a	-20.4	-20.4	-20.4	---	---	33.0	ESE	0.55	37.4	-37.1	---	---	726.3	0.027	0.000	18.8	88	1
03/16/17	12:44 a	-20.4	-20.4	-20.4	---	---	31.3	ESE	0.52	33.9	-36.8	---	---	726.3	0.027	0.000	18.8	88	1
03/16/17	12:45 a	-20.4	-20.4	-20.4	---	---	32.2	ESE	0.54	36.5	-36.9	---	---	726.3	0.027	0.000	18.8	86	1
03/16/17	12:46 a	-20.4	-20.4	-20.4	---	---	31.3	ESE	0.52	35.7	-36.8	---	---	726.3	0.027	0.000	18.9	87	1
03/16/17	12:47 a	-20.5	-20.5	-20.5	---	---	31.3	ESE	0.52	34.8	-36.9	---	---	726.4	0.027	0.000	18.9	85	1
03/16/17	12:48 a	-20.5	-20.5	-20.5	---	---	33.0	ESE	0.55	35.7	-37.2	---	---	726.4	0.027	0.000	18.9	84	1
03/16/17	12:49 a	-20.5	-20.5	-20.5	---	---	32.2	ESE	0.54	37.4	-37.0	---	---	726.2	0.027	0.000	19.0	88	1
03/16/17	12:50 a	-20.5	-20.5	-20.5	---	---	32.2	ESE	0.54	35.7	-37.0	---	---	726.3	0.027	0.000	19.0	88	1
03/16/17	12:51 a	-20.5	-20.5	-20.5	---	---	32.2	ESE	0.54	34.8	-37.0	---	---	726.2	0.027	0.000	19.0	87	1
03/16/17	12:52 a	-20.5	-20.5	-20.5	---	---	33.9	ESE	0.57	38.3	-37.3	---	---	726.1	0.027	0.000	19.1	88	1
03/16/17	12:53 a	-20.5	-20.4	-20.5	---	---	34.8	ESE	0.58	38.3	-37.5	---	---	726.2	0.027	0.000	19.2	88	1
03/16/17	12:54 a	-20.5	-20.4	-20.5	---	---	34.8	ESE	0.58	37.4	-37.5	---	---	726.2	0.027	0.000	19.3	90	1
03/16/17	12:55 a	-20.4	-20.4	-20.5	---	---	33.9	ESE	0.57	37.4	-37.3	---	---	726.3	0.027	0.000	19.4	92	1
03/16/17	12:56 a	-20.4	-20.4	-20.4	---	---	32.2	ESE	0.54	36.5	-36.9	---	---	726.3	0.027	0.000	19.4	92	1
03/16/17	12:57 a	-20.4	-20.4	-20.4	---	---	33.0	ESE	0.55	36.5	-37.1	---	---	726.4	0.027	0.000	19.4	92	1
03/16/17	12:58 a	-20.4	-20.4	-20.4	---	---	33.0	ESE	0.55	36.5	-37.1	---	---	726.3	0.027	0.000	19.4	91	1
03/16/17	12:59 a	-20.4	-20.4	-20.4	---	---	33.9	ESE	0.57	38.3	-37.3	---	---	726.2	0.027	0.000	19.4	92	1
03/16/17	1:00 a	-20.4	-20.4	-20.4	---	---	35.7	ESE	0.59	40.0	-37.6	---	---	726.2	0.027	0.000	19.4	92	1
03/16/17	1:01 a	-20.4	-20.4	-20.4	---	---	36.5	ESE	0.61	40.0	-37.6	---	---	726.3	0.027	0.000	19.4	92	1
03/16/17	1:02 a	-20.4	-20.4	-20.4	---	---	35.7	ESE	0.59	39.1	-37.5	---	---	726.3	0.027	0.000	19.4	92	1
03/16/17	1:03 a	-20.4	-20.4	-20.4	---	---	33.9	ESE	0.57	36.5	-37.2	---	---	726.2	0.027	0.000	19.4	92	1
03/16/17	1:04 a	-20.4	-20.4	-20.4	---	---	31.3	ESE	0.52	34.8	-36.7	---	---	726.3	0.027	0.000	19.4	93	1
03/16/17	1:05 a	-20.4	-20.4	-20.4	---	---	33.9	ESE	0.57	37.4	-37.2	---	---	726.2	0.027	0.000	19.4	93	1
03/16/17	1:07 a	-20.4	-20.3	-20.4	---	---	34.8	ESE	0.58	37.4	-37.3	---	---	726.1	0.027	0.000	19.4	93	1
03/16/17	1:08 a	-20.4	-20.4	-20.4	---	---	36.5	ESE	0.61	38.3	-37.6	---	---	726.1	0.027	0.000	19.4	93	1
03/16/17	1:09 a	-20.4	-20.4	-20.4	---	---	34.8	ESE	0.58	37.4	-37.3	---	---	726.2	0.027	0.000	19.4	94	1
03/16/17	1:10 a	-20.4	-20.4	-20.4	---	---	33.9	ESE	0.57	38.3	-37.2	---	---	726.1	0.027	0.000	19.4	94	1
03/16/17	1:11 a	-20.4	-20.4	-20.4	---	---	35.7	ESE	0.59	39.1	-37.5	---	---	726.1	0.027	0.000	19.4	93	1
03/16/17	1:12 a	-20.4	-20.4	-20.4	---	---	35.7	ESE	0.59	38.3	-37.6	---	---	726.1	0.027	0.000	19.4	93	1
03/16/17	1:13 a	-20.4	-20.4	-20.4	---	---	34.8	ESE	0.58	37.4	-37.4	---	---	726.2	0.027	0.000	19.5	93	1
03/16/17	1:14 a	-20.4	-20.4	-20.4	---	---	33.0	ESE	0.55	35.7	-37.1	---	---	726.2	0.027	0.000	19.4	93	1
03/16/17	1:15 a	-20.4	-20.4	-20.5	---	---	34.8	ESE	0.58	39.1	-37.4	---	---	726.2	0.027	0.000	19.5	93	1
03/16/17	1:16 a	-20.5	-20.4	-20.5	---	---	35.7	ESE	0.59	39.1	-37.7	---	---	726.2	0.027	0.000	19.5	92	1
03/16/17	1:17 a	-20.5	-20.5	-20.5	---	---	34.8	ESE	0.58	37.4	-37.5	---	---	726.1	0.027	0.000	19.5	93	1
03/16/17	1:18 a	-20.5	-20.5	-20.5	---	---	35.7	ESE	0.59	40.0	-37.7	---	---	726.1	0.027	0.000	19.6	92	1
03/16/17	1:19 a	-20.5	-20.5	-20.6	---	---	34.8	ESE	0.58	39.1	-37.5	---	---	726.1	0.027	0.000	19.6	93	1
03/16/17	1:20 a	-20.6	-20.5	-20.6	---	---	35.7	ESE	0.59	39.1	-37.7	---	---	726.1	0.027	0.000	19.5	89	1
03/16/17	1:21 a	-20.6	-20.6	-20.6	---	---	35.7	ESE	0.59	39.1	-37.7	---	---	726.1	0.027	0.000	19.4	89	1
03/16/17	1:22 a	-20.6	-20.6	-20.6	---	---	34.8	ESE	0.58	37.4	-37.6	---	---	726.2	0.027	0.000	19.4	88	1
03/16/17	1:23 a	-20.6	-20.6	-20.6	---	---	34.8	ESE	0.58	38.3	-37.6	---	---	726.2	0.027	0.000	19.3	89	1
03/16/17	1:24 a	-20.6	-20.6	-20.6	---	---	35.7	ESE	0.59	39.1	-37.7	---	---	726.1	0.027	0.000	19.3	89	1
03/16/17	1:25 a	-20.6	-20.6	-20.6	---	---	35.7	ESE	0.59	39.1	-37.8	---	---	726.1	0.027	0.000	19.2	90	1
03/16/17	1:26 a	-20.6	-20.6	-20.6	---	---	37.4	ESE	0.62	40.9	-38.1	---	---	726.0	0.027	0.000	19.2	90	1
03/16/17	1:27 a	-20.7	-20.6	-20.7	---	---	36.5	ESE	0.61	40.9	-38.0	---	---	726.1	0.027	0.000	19.1	90	1
03/16/17	1:28 a	-20.7	-20.6	-20.7	---	---	35.7	ESE	0.59	39.1	-37.9	---	---	726.0	0.027	0.000	19.1	89	1
03/16/17	1:29 a	-20.7	-20.6	-20.7	---	---	34.8	ESE	0.58	40.0	-37.7	---	---	726.0	0.027	0.000	19.0	89	1
03/16/17	1:30 a	-20.7	-20.6	-20.7	---	---	35.7	ESE	0.59	38.3	-37.9	---	---	726.0	0.027	0.000	18.9	90	1
03/16/17	1:31 a	-20.7	-20.7	-20.7	---	---	36.5	ESE	0.61	39.1	-38.0	---	---	726.1	0.027	0.000	18.9	89	1
03/16/17	1:32 a	-20.7	-20.7	-20.7	---	---	34.8	ESE	0.58	38.3	-37.7	---	---	726.1	0.027	0.000	18.9	89	1
03/16/17	1:33 a	-20.7	-20.7	-20.7	---	---	34.8	ESE	0.58	38.3	-37.8	---	---	726.1	0.027	0.000	18.9	89	1
03/16/17	1:34 a	-20.7	-20.7	-20.7	---	---	33.9	ESE	0.57	36.5	-37.7	---	---	726.1	0.027	0.000	18.9	90	1
03/16/17	1:35 a	-20.7	-20.7	-20.7	---	---	34.8	ESE	0.58	37.4	-37.8	---	---	726.0	0.027	0.000	19.0	89	1
03/16/17	1:36 a	-20.7	-20.7	-20.8	---	---	35.7	ESE	0.59	39.1	-37.9	---	---	725.9	0.027	0.000	19.1	90	1
03/16/17	1:37 a	-20.7	-20.7	-20.8	---	---	35.7	ESE	0.59	40.0	-37.9	---	---	726.0	0.027	0.000	19.1	90	1
03/16/17	1:38 a	-20.8	-20.7	-20.8	---	---	37.4	ESE	0.62	39.1	-38.3	---	---	725.9	0.027	0.000	19.2	90	1
03/16/17	1:39 a	-20.8	-20.7	-20.8	---	---	37.4	ESE	0.62	40.0	-38.3	---	---	725.9	0.027	0.000	19.2	90	1
03/16/17	1:40 a	-20.8	-20.8	-20.8	---	---	36.5	ESE	0.61	38.3	-38.2	---	---	726.0	0.027	0.000	19.3	90	1
03/16/17	1:41 a	-20.8	-20.7	-20.8	---	---	35.7	ESE	0.59	38.3	-38.1	---	---	725.9	0.027	0.000	19.3	90	1
03/16/17	1:42 a	-20.7	-20.7	-20.8	---	---	35.7	ESE	0.59	39.1	-37.9	---	---	725.8	0.027	0.000	19.3	89	1
03/16/17	1:43 a	-20.8	-20.7	-20.8	---	---	35.7	ESE	0.59	39.1	-38.1	---	---	725.9	0.027	0.000	19.4	89	1
03/16/17	1:44 a	-20.8	-20.7	-20.8	---	---	34.8	ESE	0.58	38.3	-37.9	---	---	726.0	0.027	0.000	19.4	89	1
03/16/17	1:45 a	-20.8	-20.8	-20.8	---	---	36.5	ESE	0.61	39.1	-38.2	---	---	725.9	0.027	0.000	19.4	89	1
03/16/17	1:46 a	-20.8	-20.7	-20.8	---	---	36.5	ESE	0.61	39.1	-38.2	---	---	725.9	0.027	0.000	19.5	90	1
03/16/17	1:47 a	-20.8	-20.7	-20.8	---	---	34.8	ESE	0.58	37.4	-37.9	---	---	725.9	0.027	0.000	19.6	89	1
03/16/17	1:48 a	-20.8	-20.7	-20.8	---	---	35.7	ESE	0.59	38.3	-38.1	---	---	726.0	0.027	0.000	19.6	89	1
03/16/17	1:49 a	-20.8	-20.7	-20.8	---	---	33.9	ESE	0.57	37.4	-37.7	---	---	725.9	0.027	0.000	19.6	89	1
03/16/17	1:50 a	-20.8	-20.7	-20.8	---	---	34.8	ESE	0.58	38.3	-37.9	---	---	725.9	0.027	0.000	19.6	89	1
03/16/17	1:51 a	-20.8	-20.7	-20.8	---	---	36.5	ESE	0.61	40.0	-38.2	---	---	725.9	0.027	0.000	19.6	89	1
03/16/17	1:52 a	-20.8	-20.7	-20.8	---	---	34.8	ESE	0.58	40.0	-37.9	---	---	725.9	0.027	0.000	19.6	89	1
03/16/17	1:53 a	-20.7	-20.7	-20.8	---	---	35.7	ESE	0.59	38.3	-37.9	---	---	725.9	0.027	0.000	19.6	89	1
03/16/17	1:54 a	-20.8	-20.7	-20.8	---	---	35.7	ESE	0.59	39.1	-38.1	---	---	725.8	0.027	0.000	19.6	90	1
03/16/17	1:55 a	-20.7	-20.7	-20.8	---	---	35.7	ESE	0.59	38.3	-37.9	---	---	725.8	0.027	0.000	19.6	89	1
03/16/17	1:56 a	-20.8	-20.7	-20.8	---	---	35.7	ESE	0.59	39.1	-38.1	---	---	725.9	0.027	0.000	19.7	90	1
03/16/17	1:57 a	-20.8	-20.7	-20.8	---	---	33.9	ESE	0.57	36.5	-37.7	---	---	725.9	0.027	0.000	19.6	88	1
03/16/17	1:58 a	-20.8	-20.7	-20.8	---	---	34.8	ESE	0.58	40.0	-37.9	---	---	725.8	0.027	0.000	19.7	88	1
03/16/17	1:59 a	-20.8	-20.8	-20.8	---	---	36.5	ESE	0.61	39.1	-38.2	---	---	725.6	0.027	0.000	19.7	87	1
03/16/17	2:00 a	-20.8	-20.8	-20.8	---	---	36.5	ESE	0.61	42.6	-38.2	---	---	725.7	0.027	0.000	19.7	90	1
03/16/17	2:01 a	-20.8	-20.7	-20.8	---	---	37.4	ESE	0.62	40.0	-38.3	---	---	725.7	0.027	0.000	19.7	90	1
03/16/17	2:02 a	-20.8	-20.8	-20.8	---	---	37.4	ESE	0.62	41.7	-38.3	---	---	725.8	0.027	0.000	19.7	88	1
03/16/17	2:03 a	-20.8	-20.8	-20.8	---	---	35.7	ESE	0.59	39.1	-38.1	---	---	725.8	0.027	0.000	19.8	83	1
03/16/17	2:04 a	-20.8	-20.8	-20.8	---	---	34.8	ESE	0.58	37.4	-37.9	---	---	725.9	0.027	0.000	19.8	81	1
03/16/17	2:05 a	-20.8	-20.8	-20.8	---	---	33.9	ESE	0.57	39.1	-37.8	---	---	725.9	0.027	0.000	19.8	76	1
03/16/17	2:06 a	-20.8	-20.8	-20.8	---	---	33.9	ESE	0.57	38.3	-37.8	---	---	726.0	0.027	0.000	19.8	75	1
03/16/17	2:07 a	-20.8	-20.8	-20.8	---	---	34.8	ESE	0.58	37.4	-37.9	---	---	725.9	0.027	0.000	19.8	76	1
03/16/17	2:08 a	-20.8	-20.8	-20.8	---	---	34.8	ESE	0.58	38.3	-37.9	---	---	725.7	0.027	0.000	19.8	69	1
03/16/17	2:09 a	-20.8	-20.8	-20.8	---	---	36.5	ESE	0.61	39.1	-38.3	---	---	725.6	0.027	0.000	19.8	72	1
03/16/17	2:10 a	-20.9	-20.8	-20.9	---	---	37.4	ESE	0.62	41.7	-38.5	---	---	725.6	0.027	0.000	19.9	69	1
03/16/17	2:11 a	-20.9	-20.9	-20.9	---	---	38.3	ESE	0.64	41.7	-38.6	---	---	725.7	0.027	0.000	19.8	72	1
03/16/17	2:12 a	-20.9	-20.9	-20.9	---	---	37.4	ESE	0.62	39.1	-38.5	---	---	725.7	0.027	0.000	19.8	70	1
03/16/17	2:13 a	-20.9	-20.9	-20.9	---	---	36.5	ESE	0.61	39.1	-38.4	---	---	725.9	0.027	0.000	19.7	64	1
03/16/17	2:14 a	-20.9	-20.9	-20.9	---	---	35.7	ESE	0.59	37.4	-38.3	---	---	725.9	0.027	0.000	19.7	64	1
03/16/17	2:15 a	-20.9	-20.9	-21.0	---	---	33.9	ESE	0.57	38.3	-37.9	---	---	725.8	0.027	0.000	19.6	63	1
03/16/17	2:16 a	-21.0	-21.0	-21.0	---	---	37.4	ESE	0.62	39.1	-38.6	---	---	725.6	0.027	0.000	19.6	63	1
03/16/17	2:17 a	-21.0	-21.0	-21.1	---	---	35.7	ESE	0.59	40.0	-38.3	---	---	725.6	0.027	0.000	19.4	63	1
03/16/17	2:18 a	-21.1	-21.0	-21.1	---	---	38.3	ESE	0.64	40.0	-38.8	---	---	725.6	0.027	0.000	19.4	63	1
03/16/17	2:19 a	-21.1	-21.1	-21.1	---	---	36.5	ESE	0.61	40.9	-38.6	---	---	725.5	0.027	0.000	19.3	63	1
03/16/17	2:20 a	-21.1	-21.1	-21.1	---	---	38.3	ESE	0.64	40.9	-38.9	---	---	725.6	0.027	0.000	19.3	63	1
03/16/17	2:21 a	-21.1	-21.1	-21.2	---	---	36.5	ESE	0.61	39.1	-38.7	---	---	725.7	0.027	0.000	19.2	64	1
03/16/17	2:22 a	-21.2	-21.2	-21.2	---	---	35.7	ESE	0.59	39.1	-38.6	---	---	725.7	0.027	0.000	19.2	63	1
03/16/17	2:23 a	-21.2	-21.2	-21.2	---	---	33.9	ESE	0.57	38.3	-38.3	---	---	725.7	0.027	0.000	19.2	63	1
03/16/17	2:24 a	-21.2	-21.2	-21.2	---	---	33.9	ESE	0.57	37.4	-38.3	---	---	725.8	0.027	0.000	19.2	63	1
03/16/17	2:25 a	-21.2	-21.2	-21.3	---	---	33.9	ESE	0.57	37.4	-38.3	---	---	725.6	0.027	0.000	19.2	63	1
03/16/17	2:26 a	-21.3	-21.2	-21.3	---	---	36.5	ESE	0.61	40.9	-38.9	---	---	725.4	0.028	0.000	19.2	64	1
03/16/17	2:27 a	-21.3	-21.3	-21.3	---	---	38.3	ESE	0.64	40.0	-39.2	---	---	725.4	0.028	0.000	19.2	65	1
03/16/17	2:28 a	-21.3	-21.3	-21.4	---	---	34.8	ESE	0.58	38.3	-38.7	---	---	725.7	0.028	0.000	19.2	65	1
03/16/17	2:29 a	-21.4	-21.3	-21.4	---	---	34.8	ESE	0.58	37.4	-38.7	---	---	725.7	0.028	0.000	19.3	64	1
03/16/17	2:30 a	-21.4	-21.4	-21.4	---	---	33.9	ESE	0.57	37.4	-38.6	---	---	725.8	0.028	0.000	19.3	65	1
03/16/17	2:31 a	-21.4	-21.4	-21.4	---	---	34.8	ESE	0.58	37.4	-38.8	---	---	725.6	0.028	0.000	19.4	65	1
03/16/17	2:32 a	-21.4	-21.4	-21.5	---	---	34.8	ESE	0.58	38.3	-38.8	---	---	725.6	0.028	0.000	19.4	65	1
03/16/17	2:33 a	-21.5	-21.4	-21.5	---	---	36.5	ESE	0.61	39.1	-39.2	---	---	725.5	0.028	0.000	19.4	65	1
03/16/17	2:34 a	-21.5	-21.5	-21.5	---	---	37.4	ESE	0.62	40.9	-39.3	---	---	725.4	0.028	0.000	19.5	65	1
03/16/17	2:35 a	-21.5	-21.5	-21.6	---	---	36.5	ESE	0.61	39.1	-39.2	---	---	725.6	0.028	0.000	19.6	65	1
03/16/17	2:36 a	-21.6	-21.6	-21.6	---	---	34.8	ESE	0.58	38.3	-38.9	---	---	725.7	0.028	0.000	19.6	64	1
03/16/17	2:37 a	-21.6	-21.6	-21.6	---	---	34.8	ESE	0.58	37.4	-38.9	---	---	725.7	0.028	0.000	19.6	65	1
03/16/17	2:38 a	-21.6	-21.6	-21.6	---	---	33.9	ESE	0.57	38.3	-38.9	---	---	725.7	0.028	0.000	19.7	65	1
03/16/17	2:39 a	-21.6	-21.6	-21.6	---	---	37.4	ESE	0.62	40.0	-39.5	---	---	725.4	0.028	0.000	19.7	64	1
03/16/17	2:40 a	-21.6	-21.6	-21.7	---	---	36.5	ESE	0.61	39.1	-39.3	---	---	725.5	0.028	0.000	19.7	64	1
03/16/17	2:41 a	-21.7	-21.6	-21.7	---	---	35.7	ESE	0.59	39.1	-39.3	---	---	725.6	0.028	0.000	19.7	64	1
03/16/17	2:42 a	-21.7	-21.7	-21.7	---	---	34.8	ESE	0.58	39.1	-39.1	---	---	725.7	0.028	0.000	19.8	64	1
03/16/17	2:43 a	-21.7	-21.7	-21.7	---	---	33.9	ESE	0.57	37.4	-39.1	---	---	725.6	0.028	0.000	19.8	64	1
03/16/17	2:44 a	-21.7	-21.7	-21.8	---	---	35.7	ESE	0.59	37.4	-39.3	---	---	725.6	0.028	0.000	19.8	64	1
03/16/17	2:45 a	-21.8	-21.7	-21.8	---	---	36.5	ESE	0.61	39.1	-39.6	---	---	725.4	0.028	0.000	19.8	64	1
03/16/17	2:46 a	-21.8	-21.8	-21.8	---	---	35.7	ESE	0.59	40.0	-39.4	---	---	725.6	0.028	0.000	19.8	64	1
03/16/17	2:47 a	-21.8	-21.8	-21.8	---	---	34.8	ESE	0.58	38.3	-39.3	---	---	725.7	0.028	0.000	19.8	64	1
03/16/17	2:48 a	-21.8	-21.8	-21.8	---	---	34.8	ESE	0.58	38.3	-39.3	---	---	725.6	0.028	0.000	19.8	64	1
03/16/17	2:49 a	-21.8	-21.8	-21.8	---	---	35.7	ESE	0.59	40.0	-39.5	---	---	725.6	0.028	0.000	19.8	64	1
03/16/17	2:50 a	-21.8	-21.8	-21.9	---	---	33.9	ESE	0.57	37.4	-39.2	---	---	725.6	0.028	0.000	19.7	64	1
03/16/17	2:51 a	-21.9	-21.8	-21.9	---	---	34.8	ESE	0.58	36.5	-39.4	---	---	725.6	0.028	0.000	19.7	63	1
03/16/17	2:52 a	-21.9	-21.8	-21.9	---	---	35.7	ESE	0.59	38.3	-39.6	---	---	725.5	0.028	0.000	19.6	64	1
03/16/17	2:53 a	-21.9	-21.8	-21.9	---	---	35.7	ESE	0.59	39.1	-39.6	---	---	725.7	0.028	0.000	19.6	64	1
03/16/17	2:54 a	-21.9	-21.9	-21.9	---	---	36.5	ESE	0.61	38.3	-39.7	---	---	725.6	0.028	0.000	19.5	64	1
03/16/17	2:55 a	-21.9	-21.9	-21.9	---	---	35.7	ESE	0.59	37.4	-39.6	---	---	725.7	0.028	0.000	19.5	64	1
03/16/17	2:56 a	-21.9	-21.9	-21.9	---	---	35.7	ESE	0.59	39.1	-39.7	---	---	725.7	0.028	0.000	19.4	65	1
03/16/17	2:57 a	-21.9	-21.9	-21.9	---	---	33.9	ESE	0.57	36.5	-39.3	---	---	725.7	0.028	0.000	19.4	65	1
03/16/17	2:58 a	-21.9	-21.9	-21.9	---	---	33.9	ESE	0.57	37.4	-39.3	---	---	725.7	0.028	0.000	19.4	65	1
03/16/17	2:59 a	-21.9	-21.9	-21.9	---	---	33.9	ESE	0.57	37.4	-39.3	---	---	725.6	0.028	0.000	19.4	65	1
03/16/17	3:00 a	-21.9	-21.9	-21.9	---	---	34.8	ESE	0.58	40.0	-39.5	---	---	725.5	0.028	0.000	19.3	65	1
03/16/17	3:01 a	-21.9	-21.9	-22.0	---	---	37.4	ESE	0.62	40.0	-39.9	---	---	725.6	0.028	0.000	19.3	65	1
03/16/17	3:02 a	-21.9	-21.9	-21.9	---	---	34.8	ESE	0.58	37.4	-39.5	---	---	725.7	0.028	0.000	19.3	65	1
03/16/17	3:03 a	-21.9	-21.9	-22.0	---	---	33.9	ESE	0.57	36.5	-39.3	---	---	725.7	0.028	0.000	19.2	65	1
03/16/17	3:04 a	-21.9	-21.9	-21.9	---	---	33.9	ESE	0.57	37.4	-39.3	---	---	725.6	0.028	0.000	19.2	65	1
03/16/17	3:05 a	-21.9	-21.9	-21.9	---	---	34.8	ESE	0.58	40.0	-39.5	---	---	725.7	0.028	0.000	19.2	65	1
03/16/17	3:06 a	-21.9	-21.9	-21.9	---	---	33.9	ESE	0.57	38.3	-39.3	---	---	725.6	0.028	0.000	19.1	65	1
03/16/17	3:07 a	-21.9	-21.9	-21.9	---	---	34.8	ESE	0.58	37.4	-39.5	---	---	725.5	0.028	0.000	19.1	65	1
03/16/17	3:08 a	-21.9	-21.9	-21.9	---	---	35.7	ESE	0.59	38.3	-39.7	---	---	725.6	0.028	0.000	19.0	66	1
03/16/17	3:09 a	-21.9	-21.9	-21.9	---	---	35.7	ESE	0.59	38.3	-39.6	---	---	725.5	0.028	0.000	19.0	66	1
03/16/17	3:10 a	-21.9	-21.9	-21.9	---	---	34.8	ESE	0.58	37.4	-39.4	---	---	725.5	0.028	0.000	19.0	66	1
03/16/17	3:11 a	-21.9	-21.8	-21.9	---	---	35.7	ESE	0.59	40.0	-39.6	---	---	725.4	0.028	0.000	18.9	66	1
03/16/17	3:12 a	-21.9	-21.8	-21.9	---	---	35.7	ESE	0.59	39.1	-39.6	---	---	725.6	0.028	0.000	18.9	67	1
03/16/17	3:13 a	-21.8	-21.8	-21.8	---	---	34.8	ESE	0.58	37.4	-39.3	---	---	725.6	0.028	0.000	18.9	67	1
03/16/17	3:14 a	-21.8	-21.8	-21.8	---	---	34.8	ESE	0.58	36.5	-39.3	---	---	725.5	0.028	0.000	18.9	68	1
03/16/17	3:15 a	-21.8	-21.8	-21.8	---	---	33.9	ESE	0.57	36.5	-39.2	---	---	725.5	0.028	0.000	18.9	70	1
03/16/17	3:16 a	-21.8	-21.8	-21.8	---	---	36.5	ESE	0.61	40.0	-39.6	---	---	725.4	0.028	0.000	18.8	70	1
03/16/17	3:17 a	-21.7	-21.7	-21.8	---	---	36.5	ESE	0.61	39.1	-39.5	---	---	725.4	0.028	0.000	18.8	70	1
03/16/17	3:18 a	-21.7	-21.7	-21.7	---	---	36.5	ESE	0.61	39.1	-39.5	---	---	725.4	0.028	0.000	18.8	70	1
03/16/17	3:19 a	-21.7	-21.7	-21.7	---	---	34.8	ESE	0.58	37.4	-39.2	---	---	725.5	0.028	0.000	18.8	71	1
03/16/17	3:20 a	-21.7	-21.7	-21.7	---	---	34.8	ESE	0.58	37.4	-39.1	---	---	725.6	0.028	0.000	18.8	70	1
03/16/17	3:21 a	-21.7	-21.7	-21.7	---	---	33.0	ESE	0.55	36.5	-38.8	---	---	725.7	0.028	0.000	18.8	64	1
03/16/17	3:22 a	-21.7	-21.6	-21.7	---	---	32.2	ESE	0.54	35.7	-38.7	---	---	725.7	0.028	0.000	18.8	71	1
03/16/17	3:23 a	-21.6	-21.6	-21.7	---	---	35.7	ESE	0.59	39.1	-39.2	---	---	725.4	0.028	0.000	18.8	69	1
03/16/17	3:24 a	-21.6	-21.6	-21.6	---	---	36.5	ESE	0.61	39.1	-39.3	---	---	725.3	0.028	0.000	18.8	65	1
03/16/17	3:25 a	-21.6	-21.6	-21.7	---	---	37.4	ESE	0.62	40.9	-39.5	---	---	725.4	0.028	0.000	18.7	66	1
03/16/17	3:26 a	-21.6	-21.6	-21.6	---	---	36.5	ESE	0.61	40.0	-39.3	---	---	725.6	0.028	0.000	18.7	66	1
03/16/17	3:27 a	-21.6	-21.6	-21.6	---	---	35.7	ESE	0.59	38.3	-39.2	---	---	725.6	0.028	0.000	18.7	66	1
03/16/17	3:28 a	-21.6	-21.6	-21.6	---	---	36.5	ESE	0.61	40.0	-39.3	---	---	725.5	0.028	0.000	18.7	68	1
03/16/17	3:29 a	-21.6	-21.6	-21.6	---	---	35.7	ESE	0.59	38.3	-39.2	---	---	725.6	0.028	0.000	18.7	71	1
03/16/17	3:30 a	-21.6	-21.6	-21.6	---	---	36.5	ESE	0.61	39.1	-39.3	---	---	725.5	0.028	0.000	18.7	72	1
03/16/17	3:31 a	-21.6	-21.6	-21.7	---	---	34.8	ESE	0.58	39.1	-39.1	---	---	725.6	0.028	0.000	18.7	73	1
03/16/17	3:32 a	-21.7	-21.6	-21.7	---	---	37.4	ESE	0.62	40.0	-39.6	---	---	725.4	0.028	0.000	18.7	73	1
03/16/17	3:33 a	-21.7	-21.7	-21.7	---	---	38.3	ESE	0.64	40.0	-39.7	---	---	725.4	0.028	0.000	18.7	74	1
03/16/17	3:34 a	-21.7	-21.7	-21.7	---	---	36.5	ESE	0.61	40.0	-39.4	---	---	725.5	0.028	0.000	18.6	63	1
03/16/17	3:35 a	-21.7	-21.7	-21.7	---	---	36.5	ESE	0.61	38.3	-39.5	---	---	725.5	0.028	0.000	18.6	76	1
03/16/17	3:36 a	-21.7	-21.7	-21.7	---	---	36.5	ESE	0.61	40.9	-39.5	---	---	725.4	0.028	0.000	18.6	70	1
03/16/17	3:37 a	-21.7	-21.7	-21.8	---	---	37.4	ESE	0.62	40.0	-39.7	---	---	725.7	0.028	0.000	18.5	77	1
03/16/17	3:38 a	-21.8	-21.7	-21.8	---	---	36.5	ESE	0.61	39.1	-39.6	---	---	725.4	0.028	0.000	18.4	81	1
03/16/17	3:39 a	-21.8	-21.8	-21.8	---	---	38.3	ESE	0.64	40.9	-39.9	---	---	725.4	0.028	0.000	18.4	67	1
03/16/17	3:40 a	-21.8	-21.8	-21.8	---	---	36.5	ESE	0.61	39.1	-39.7	---	---	725.5	0.028	0.000	18.3	73	1
03/16/17	3:41 a	-21.8	-21.8	-21.8	---	---	35.7	ESE	0.59	37.4	-39.5	---	---	725.6	0.028	0.000	18.3	79	1
03/16/17	3:42 a	-21.9	-21.8	-21.9	---	---	34.8	ESE	0.58	39.1	-39.4	---	---	725.4	0.028	0.000	18.3	83	1
03/16/17	3:43 a	-21.9	-21.9	-21.9	---	---	37.4	ESE	0.62	42.6	-39.9	---	---	725.3	0.028	0.000	18.3	81	1
03/16/17	3:44 a	-21.9	-21.9	-21.9	---	---	39.1	ESE	0.65	40.9	-40.3	---	---	725.5	0.028	0.000	18.2	86	1
03/16/17	3:45 a	-21.9	-21.9	-22.0	---	---	36.5	ESE	0.61	40.9	-39.8	---	---	725.6	0.028	0.000	18.2	87	1
03/16/17	3:46 a	-22.0	-21.9	-22.0	---	---	36.5	ESE	0.61	40.0	-39.9	---	---	725.6	0.028	0.000	18.2	88	1
03/16/17	3:47 a	-22.0	-22.0	-22.1	---	---	34.8	ESE	0.58	37.4	-39.6	---	---	725.5	0.028	0.000	18.2	91	1
03/16/17	3:48 a	-22.1	-22.1	-22.1	---	---	36.5	ESE	0.61	39.1	-39.9	---	---	725.5	0.028	0.000	18.2	93	1
03/16/17	3:49 a	-22.1	-22.0	-22.1	---	---	37.4	ESE	0.62	41.7	-40.1	---	---	725.4	0.028	0.000	18.2	90	1
03/16/17	3:50 a	-22.1	-22.1	-22.1	---	---	37.4	ESE	0.62	40.9	-40.2	---	---	725.4	0.028	0.000	18.2	92	1
03/16/17	3:51 a	-22.1	-22.1	-22.1	---	---	37.4	ESE	0.62	40.0	-40.2	---	---	725.5	0.028	0.000	18.2	93	1
03/16/17	3:52 a	-22.2	-22.2	-22.2	---	---	37.4	ESE	0.62	40.0	-40.3	---	---	725.6	0.028	0.000	18.2	93	1
03/16/17	3:53 a	-22.2	-22.2	-22.2	---	---	36.5	ESE	0.61	39.1	-40.1	---	---	725.4	0.028	0.000	18.2	92	1
03/16/17	3:54 a	-22.2	-22.2	-22.2	---	---	38.3	ESE	0.64	40.0	-40.5	---	---	725.4	0.028	0.000	18.2	92	1
03/16/17	3:55 a	-22.3	-22.2	-22.3	---	---	38.3	ESE	0.64	39.1	-40.6	---	---	725.5	0.028	0.000	18.2	93	1
03/16/17	3:56 a	-22.3	-22.2	-22.3	---	---	34.8	ESE	0.58	39.1	-39.9	---	---	725.6	0.028	0.000	18.2	93	1
03/16/17	3:57 a	-22.3	-22.3	-22.3	---	---	36.5	ESE	0.61	40.0	-40.3	---	---	725.4	0.028	0.000	18.2	93	1
03/16/17	3:58 a	-22.3	-22.3	-22.3	---	---	37.4	ESE	0.62	40.9	-40.5	---	---	725.3	0.028	0.000	18.2	94	1
03/16/17	3:59 a	-22.4	-22.3	-22.4	---	---	36.5	ESE	0.61	40.0	-40.4	---	---	725.4	0.028	0.000	18.2	94	1
03/16/17	4:00 a	-22.4	-22.4	-22.4	---	---	35.7	ESE	0.59	38.3	-40.3	---	---	725.4	0.028	0.000	18.2	94	1
03/16/17	4:01 a	-22.4	-22.4	-22.4	---	---	36.5	ESE	0.61	40.0	-40.5	---	---	725.3	0.028	0.000	18.2	94	1
03/16/17	4:02 a	-22.4	-22.4	-22.4	---	---	38.3	ESE	0.64	41.7	-40.8	---	---	725.5	0.028	0.000	18.2	94	1
03/16/17	4:03 a	-22.5	-22.4	-22.5	---	---	35.7	ESE	0.59	39.1	-40.4	---	---	725.5	0.028	0.000	18.2	95	1
03/16/17	4:04 a	-22.5	-22.5	-22.5	---	---	34.8	ESE	0.58	38.3	-40.3	---	---	725.4	0.028	0.000	18.2	95	1
03/16/17	4:05 a	-22.6	-22.5	-22.6	---	---	39.1	ESE	0.65	41.7	-41.1	---	---	725.3	0.028	0.000	18.2	94	1
03/16/17	4:06 a	-22.6	-22.6	-22.6	---	---	38.3	ESE	0.64	40.0	-40.9	---	---	725.4	0.028	0.000	18.2	94	1
03/16/17	4:07 a	-22.6	-22.6	-22.6	---	---	36.5	ESE	0.61	39.1	-40.7	---	---	725.4	0.028	0.000	18.2	95	1
03/16/17	4:08 a	-22.7	-22.6	-22.7	---	---	36.5	ESE	0.61	39.1	-40.8	---	---	725.4	0.028	0.000	18.2	95	1
03/16/17	4:09 a	-22.7	-22.7	-22.7	---	---	36.5	ESE	0.61	39.1	-40.8	---	---	725.4	0.028	0.000	18.2	94	1
03/16/17	4:10 a	-22.7	-22.7	-22.7	---	---	38.3	ESE	0.64	40.0	-41.2	---	---	725.3	0.029	0.000	18.2	95	1
03/16/17	4:11 a	-22.7	-22.7	-22.8	---	---	37.4	ESE	0.62	40.9	-41.1	---	---	725.3	0.029	0.000	18.2	95	1
03/16/17	4:12 a	-22.8	-22.7	-22.8	---	---	38.3	ESE	0.64	40.9	-41.3	---	---	725.4	0.029	0.000	18.2	95	1
03/16/17	4:13 a	-22.8	-22.8	-22.8	---	---	35.7	ESE	0.59	40.9	-40.8	---	---	725.4	0.029	0.000	18.2	95	1
03/16/17	4:14 a	-22.8	-22.8	-22.8	---	---	35.7	ESE	0.59	38.3	-40.9	---	---	725.4	0.029	0.000	18.2	95	1
03/16/17	4:15 a	-22.8	-22.8	-22.9	---	---	36.5	ESE	0.61	38.3	-41.1	---	---	725.4	0.029	0.000	18.2	95	1
03/16/17	4:16 a	-22.9	-22.9	-22.9	---	---	35.7	ESE	0.59	39.1	-41.0	---	---	725.3	0.029	0.000	18.2	95	1
03/16/17	4:17 a	-22.9	-22.9	-22.9	---	---	37.4	ESE	0.62	39.1	-41.3	---	---	725.2	0.029	0.000	18.2	95	1
03/16/17	4:18 a	-22.9	-22.9	-22.9	---	---	37.4	ESE	0.62	40.0	-41.4	---	---	725.3	0.029	0.000	18.2	95	1
03/16/17	4:19 a	-22.9	-22.9	-23.0	---	---	35.7	ESE	0.59	37.4	-41.1	---	---	725.4	0.029	0.000	18.2	95	1
03/16/17	4:20 a	-23.0	-23.0	-23.0	---	---	33.9	ESE	0.57	36.5	-40.8	---	---	725.4	0.029	0.000	18.2	95	1
03/16/17	4:21 a	-23.0	-23.0	-23.0	---	---	34.8	ESE	0.58	37.4	-41.0	---	---	725.4	0.029	0.000	18.2	95	1
03/16/17	4:22 a	-23.1	-23.0	-23.1	---	---	34.8	ESE	0.58	38.3	-41.1	---	---	725.3	0.029	0.000	18.1	95	1
03/16/17	4:23 a	-23.1	-23.0	-23.1	---	---	35.7	ESE	0.59	39.1	-41.2	---	---	725.4	0.029	0.000	18.1	95	1
03/16/17	4:24 a	-23.1	-23.1	-23.1	---	---	35.7	ESE	0.59	37.4	-41.2	---	---	725.5	0.029	0.000	18.1	95	1
03/16/17	4:25 a	-23.1	-23.1	-23.1	---	---	34.8	ESE	0.58	37.4	-41.1	---	---	725.4	0.029	0.000	18.1	95	1
03/16/17	4:26 a	-23.1	-23.1	-23.1	---	---	35.7	ESE	0.59	38.3	-41.3	---	---	725.4	0.029	0.000	18.1	95	1
03/16/17	4:27 a	-23.1	-23.1	-23.2	---	---	35.7	ESE	0.59	38.3	-41.3	---	---	725.3	0.029	0.000	18.1	95	1
03/16/17	4:28 a	-23.2	-23.1	-23.2	---	---	34.8	ESE	0.58	37.4	-41.2	---	---	725.4	0.029	0.000	18.1	95	1
03/16/17	4:29 a	-23.2	-23.1	-23.2	---	---	33.9	ESE	0.57	36.5	-41.1	---	---	725.4	0.029	0.000	18.1	95	1
03/16/17	4:30 a	-23.2	-23.2	-23.2	---	---	36.5	ESE	0.61	38.3	-41.5	---	---	725.3	0.029	0.000	18.1	95	1
03/16/17	4:31 a	-23.2	-23.2	-23.2	---	---	35.7	ESE	0.59	39.1	-41.4	---	---	725.4	0.029	0.000	18.1	95	1
03/16/17	4:32 a	-23.2	-23.2	-23.2	---	---	35.7	ESE	0.59	38.3	-41.4	---	---	725.3	0.029	0.000	18.1	95	1
03/16/17	4:33 a	-23.2	-23.2	-23.2	---	---	37.4	ESE	0.62	39.1	-41.7	---	---	725.3	0.029	0.000	18.1	95	1
03/16/17	4:34 a	-23.2	-23.2	-23.2	---	---	36.5	ESE	0.61	39.1	-41.6	---	---	725.3	0.029	0.000	18.1	94	1
03/16/17	4:35 a	-23.2	-23.2	-23.2	---	---	36.5	ESE	0.61	38.3	-41.6	---	---	725.4	0.029	0.000	18.1	95	1
03/16/17	4:36 a	-23.2	-23.2	-23.2	---	---	34.8	ESE	0.58	37.4	-41.3	---	---	725.6	0.029	0.000	18.1	95	1
03/16/17	4:37 a	-23.2	-23.2	-23.2	---	---	33.9	ESE	0.57	36.5	-41.1	---	---	725.4	0.029	0.000	18.1	95	1
03/16/17	4:38 a	-23.2	-23.2	-23.3	---	---	35.7	ESE	0.59	39.1	-41.4	---	---	725.2	0.029	0.000	18.1	95	1
03/16/17	4:39 a	-23.2	-23.2	-23.3	---	---	37.4	ESE	0.62	40.0	-41.8	---	---	725.3	0.029	0.000	18.1	94	1
03/16/17	4:40 a	-23.3	-23.2	-23.3	---	---	37.4	ESE	0.62	40.0	-41.8	---	---	725.3	0.029	0.000	18.1	94	1
03/16/17	4:41 a	-23.3	-23.3	-23.3	---	---	35.7	ESE	0.59	38.3	-41.5	---	---	725.4	0.029	0.000	18.1	94	1
03/16/17	4:42 a	-23.3	-23.3	-23.3	---	---	36.5	ESE	0.61	39.1	-41.7	---	---	725.3	0.029	0.000	18.1	94	1
03/16/17	4:43 a	-23.3	-23.3	-23.3	---	---	38.3	ESE	0.64	40.0	-42.0	---	---	725.4	0.029	0.000	18.1	94	1
03/16/17	4:44 a	-23.3	-23.3	-23.3	---	---	35.7	ESE	0.59	38.3	-41.5	---	---	725.5	0.029	0.000	18.1	94	1
03/16/17	4:45 a	-23.3	-23.3	-23.3	---	---	35.7	ESE	0.59	39.1	-41.5	---	---	725.4	0.029	0.000	18.1	94	1
03/16/17	4:46 a	-23.3	-23.3	-23.3	---	---	36.5	ESE	0.61	38.3	-41.7	---	---	725.4	0.029	0.000	18.1	94	1
03/16/17	4:47 a	-23.3	-23.3	-23.3	---	---	34.8	ESE	0.58	38.3	-41.4	---	---	725.4	0.029	0.000	18.1	94	1
03/16/17	4:48 a	-23.3	-23.3	-23.3	---	---	37.4	ESE	0.62	40.0	-41.9	---	---	725.3	0.029	0.000	18.1	94	1
03/16/17	4:49 a	-23.3	-23.3	-23.3	---	---	37.4	ESE	0.62	40.9	-41.9	---	---	725.3	0.029	0.000	18.1	94	1
03/16/17	4:50 a	-23.3	-23.3	-23.3	---	---	38.3	ESE	0.64	40.0	-42.1	---	---	725.4	0.029	0.000	18.1	94	1
03/16/17	4:51 a	-23.3	-23.3	-23.4	---	---	35.7	ESE	0.59	39.1	-41.6	---	---	725.4	0.029	0.000	18.1	94	1
03/16/17	4:52 a	-23.3	-23.3	-23.3	---	---	35.7	ESE	0.59	40.0	-41.6	---	---	725.4	0.029	0.000	18.1	94	1
03/16/17	4:53 a	-23.3	-23.3	-23.4	---	---	38.3	ESE	0.64	40.9	-42.1	---	---	725.3	0.029	0.000	18.1	94	1
03/16/17	4:54 a	-23.4	-23.3	-23.4	---	---	38.3	ESE	0.64	40.9	-42.1	---	---	725.3	0.029	0.000	18.1	94	1
03/16/17	4:55 a	-23.4	-23.3	-23.4	---	---	38.3	ESE	0.64	40.9	-42.1	---	---	725.3	0.029	0.000	18.1	94	1
03/16/17	4:56 a	-23.4	-23.4	-23.4	---	---	36.5	ESE	0.61	39.1	-41.8	---	---	725.3	0.029	0.000	18.1	94	1
03/16/17	4:57 a	-23.4	-23.4	-23.4	---	---	35.7	ESE	0.59	39.1	-41.7	---	---	725.4	0.029	0.000	18.1	94	1
03/16/17	4:58 a	-23.4	-23.4	-23.4	---	---	37.4	ESE	0.62	40.0	-42.0	---	---	725.3	0.029	0.000	18.1	94	1
03/16/17	4:59 a	-23.4	-23.4	-23.4	---	---	37.4	ESE	0.62	40.0	-42.0	---	---	725.3	0.029	0.000	18.1	94	1
03/16/17	5:00 a	-23.4	-23.4	-23.4	---	---	37.4	ESE	0.62	41.7	-42.1	---	---	725.3	0.029	0.000	18.1	94	1
03/16/17	5:01 a	-23.4	-23.4	-23.4	---	---	38.3	ESE	0.64	41.7	-42.2	---	---	725.3	0.029	0.000	18.1	94	1
03/16/17	5:02 a	-23.4	-23.4	-23.4	---	---	35.7	ESE	0.59	39.1	-41.8	---	---	725.4	0.029	0.000	18.1	94	1
03/16/17	5:03 a	-23.4	-23.4	-23.4	---	---	36.5	ESE	0.61	39.1	-41.9	---	---	725.3	0.029	0.000	18.1	94	1
03/16/17	5:04 a	-23.4	-23.4	-23.5	---	---	37.4	ESE	0.62	40.0	-42.1	---	---	725.2	0.029	0.000	18.1	94	1
03/16/17	5:05 a	-23.4	-23.4	-23.5	---	---	38.3	ESE	0.64	40.0	-42.2	---	---	725.4	0.029	0.000	18.1	94	1
03/16/17	5:06 a	-23.5	-23.4	-23.5	---	---	37.4	ESE	0.62	39.1	-42.2	---	---	725.4	0.029	0.000	18.1	94	1
03/16/17	5:07 a	-23.5	-23.4	-23.5	---	---	37.4	ESE	0.62	40.9	-42.2	---	---	725.3	0.029	0.000	18.1	94	1
03/16/17	5:08 a	-23.5	-23.4	-23.5	---	---	38.3	ESE	0.64	40.0	-42.3	---	---	725.3	0.029	0.000	18.1	94	1
03/16/17	5:09 a	-23.5	-23.5	-23.6	---	---	37.4	ESE	0.62	40.0	-42.2	---	---	725.4	0.029	0.000	18.1	94	1
03/16/17	5:10 a	-23.5	-23.5	-23.6	---	---	35.7	ESE	0.59	39.1	-41.8	---	---	725.3	0.029	0.000	18.0	94	1
03/16/17	5:11 a	-23.6	-23.6	-23.6	---	---	36.5	ESE	0.61	39.1	-42.1	---	---	725.3	0.029	0.000	18.0	94	1
03/16/17	5:12 a	-23.6	-23.5	-23.6	---	---	36.5	ESE	0.61	39.1	-42.1	---	---	725.4	0.029	0.000	18.1	94	1
03/16/17	5:13 a	-23.6	-23.5	-23.6	---	---	33.9	ESE	0.57	37.4	-41.6	---	---	725.4	0.029	0.000	18.0	94	1
03/16/17	5:14 a	-23.6	-23.6	-23.6	---	---	36.5	ESE	0.61	39.1	-42.1	---	---	725.3	0.029	0.000	18.0	94	1
03/16/17	5:15 a	-23.6	-23.6	-23.6	---	---	35.7	ESE	0.59	38.3	-41.9	---	---	725.3	0.029	0.000	18.0	94	1
03/16/17	5:16 a	-23.6	-23.6	-23.6	---	---	34.8	ESE	0.58	37.4	-41.8	---	---	725.4	0.029	0.000	18.0	94	1
03/16/17	5:17 a	-23.6	-23.6	-23.6	---	---	35.7	ESE	0.59	38.3	-41.9	---	---	725.3	0.029	0.000	18.0	93	1
03/16/17	5:18 a	-23.6	-23.6	-23.6	---	---	36.5	ESE	0.61	39.1	-42.1	---	---	725.3	0.029	0.000	18.0	93	1
03/16/17	5:19 a	-23.6	-23.6	-23.6	---	---	36.5	ESE	0.61	38.3	-42.2	---	---	725.4	0.029	0.000	18.0	94	1
03/16/17	5:20 a	-23.6	-23.6	-23.6	---	---	34.8	ESE	0.58	39.1	-41.8	---	---	725.3	0.029	0.000	18.0	93	1
03/16/17	5:21 a	-23.6	-23.6	-23.6	---	---	36.5	ESE	0.61	38.3	-42.1	---	---	725.4	0.029	0.000	18.0	94	1
03/16/17	5:22 a	-23.6	-23.6	-23.6	---	---	36.5	ESE	0.61	38.3	-42.1	---	---	725.4	0.029	0.000	18.0	93	1
03/16/17	5:23 a	-23.6	-23.6	-23.6	---	---	35.7	ESE	0.59	39.1	-41.9	---	---	725.4	0.029	0.000	18.0	93	1
03/16/17	5:24 a	-23.6	-23.6	-23.6	---	---	35.7	ESE	0.59	37.4	-41.9	---	---	725.4	0.029	0.000	18.0	93	1
03/16/17	5:25 a	-23.6	-23.6	-23.6	---	---	36.5	ESE	0.61	39.1	-42.1	---	---	725.4	0.029	0.000	18.0	93	1
03/16/17	5:26 a	-23.6	-23.6	-23.6	---	---	35.7	ESE	0.59	38.3	-41.9	---	---	725.5	0.029	0.000	18.0	94	1
03/16/17	5:27 a	-23.6	-23.6	-23.6	---	---	34.8	ESE	0.58	36.5	-41.8	---	---	725.4	0.029	0.000	18.0	93	1
03/16/17	5:28 a	-23.6	-23.6	-23.6	---	---	36.5	ESE	0.61	40.0	-42.1	---	---	725.3	0.029	0.000	17.9	94	1
03/16/17	5:29 a	-23.6	-23.6	-23.6	---	---	38.3	ESE	0.64	40.0	-42.4	---	---	725.4	0.029	0.000	17.9	94	1
03/16/17	5:30 a	-23.6	-23.6	-23.6	---	---	35.7	ESE	0.59	38.3	-41.9	---	---	725.4	0.029	0.000	17.9	94	1
03/16/17	5:31 a	-23.6	-23.6	-23.6	---	---	35.7	ESE	0.59	38.3	-41.9	---	---	725.3	0.029	0.000	18.0	93	1
03/16/17	5:32 a	-23.6	-23.6	-23.6	---	---	36.5	ESE	0.61	39.1	-42.1	---	---	725.4	0.029	0.000	17.9	93	1
03/16/17	5:33 a	-23.6	-23.6	-23.6	---	---	36.5	ESE	0.61	39.1	-42.1	---	---	725.3	0.029	0.000	17.9	93	1
03/16/17	5:34 a	-23.6	-23.6	-23.6	---	---	35.7	ESE	0.59	38.3	-41.9	---	---	725.4	0.029	0.000	17.9	94	1
03/16/17	5:35 a	-23.6	-23.6	-23.6	---	---	34.8	ESE	0.58	38.3	-41.8	---	---	725.4	0.029	0.000	17.9	94	1
03/16/17	5:36 a	-23.6	-23.6	-23.6	---	---	36.5	ESE	0.61	38.3	-42.1	---	---	725.4	0.029	0.000	17.9	94	1
03/16/17	5:37 a	-23.6	-23.5	-23.6	---	---	34.8	ESE	0.58	38.3	-41.8	---	---	725.5	0.029	0.000	17.9	94	1
03/16/17	5:38 a	-23.6	-23.6	-23.6	---	---	35.7	ESE	0.59	38.3	-41.9	---	---	725.3	0.029	0.000	17.9	93	1
03/16/17	5:39 a	-23.6	-23.6	-23.6	---	---	36.5	ESE	0.61	38.3	-42.1	---	---	725.5	0.029	0.000	17.9	94	1
03/16/17	5:40 a	-23.6	-23.6	-23.6	---	---	35.7	ESE	0.59	39.1	-41.9	---	---	725.3	0.029	0.000	17.9	94	1
03/16/17	5:41 a	-23.6	-23.5	-23.6	---	---	34.8	ESE	0.58	38.3	-41.8	---	---	725.4	0.029	0.000	17.9	94	1
03/16/17	5:42 a	-23.6	-23.5	-23.6	---	---	36.5	ESE	0.61	40.0	-42.1	---	---	725.3	0.029	0.000	17.9	94	1
03/16/17	5:43 a	-23.5	-23.5	-23.6	---	---	34.8	ESE	0.58	38.3	-41.7	---	---	725.3	0.029	0.000	17.9	94	1
03/16/17	5:44 a	-23.5	-23.5	-23.6	---	---	35.7	ESE	0.59	38.3	-41.8	---	---	725.3	0.029	0.000	17.9	94	1
03/16/17	5:45 a	-23.5	-23.5	-23.6	---	---	35.7	ESE	0.59	37.4	-41.8	---	---	725.3	0.029	0.000	17.9	94	1
03/16/17	5:46 a	-23.5	-23.5	-23.5	---	---	34.8	ESE	0.58	38.3	-41.7	---	---	725.3	0.029	0.000	17.9	94	1
03/16/17	5:47 a	-23.5	-23.4	-23.5	---	---	36.5	ESE	0.61	38.3	-42.0	---	---	725.3	0.029	0.000	17.9	94	1
03/16/17	5:48 a	-23.5	-23.4	-23.5	---	---	35.7	ESE	0.59	38.3	-41.8	---	---	725.4	0.029	0.000	17.9	94	1
03/16/17	5:49 a	-23.5	-23.5	-23.5	---	---	35.7	ESE	0.59	39.1	-41.8	---	---	725.4	0.029	0.000	17.9	94	1
03/16/17	5:50 a	-23.5	-23.4	-23.5	---	---	34.8	ESE	0.58	37.4	-41.7	---	---	725.3	0.029	0.000	17.9	94	1
03/16/17	5:51 a	-23.4	-23.4	-23.5	---	---	36.5	ESE	0.61	40.0	-41.9	---	---	725.3	0.029	0.000	17.9	94	1
03/16/17	5:52 a	-23.4	-23.4	-23.4	---	---	37.4	ESE	0.62	39.1	-42.1	---	---	725.3	0.029	0.000	17.9	94	1
03/16/17	5:53 a	-23.4	-23.4	-23.4	---	---	34.8	ESE	0.58	38.3	-41.6	---	---	725.4	0.029	0.000	17.9	94	1
03/16/17	5:54 a	-23.4	-23.4	-23.4	---	---	35.7	ESE	0.59	38.3	-41.8	---	---	725.4	0.029	0.000	17.9	94	1
03/16/17	5:55 a	-23.4	-23.4	-23.4	---	---	35.7	ESE	0.59	38.3	-41.8	---	---	725.3	0.029	0.000	17.9	94	1
03/16/17	5:56 a	-23.4	-23.4	-23.4	---	---	36.5	ESE	0.61	39.1	-41.9	---	---	725.3	0.029	0.000	17.9	94	1
03/16/17	5:57 a	-23.4	-23.4	-23.4	---	---	34.8	ESE	0.58	37.4	-41.6	---	---	725.4	0.029	0.000	17.9	94	1
03/16/17	5:58 a	-23.4	-23.4	-23.4	---	---	36.5	ESE	0.61	38.3	-41.8	---	---	725.3	0.029	0.000	17.9	94	1
03/16/17	5:59 a	-23.4	-23.4	-23.4	---	---	36.5	ESE	0.61	39.1	-41.8	---	---	725.3	0.029	0.000	17.9	94	1
03/16/17	6:00 a	-23.4	-23.4	-23.4	---	---	35.7	ESE	0.59	38.3	-41.8	---	---	725.3	0.029	0.000	17.9	94	1
03/16/17	6:01 a	-23.4	-23.4	-23.4	---	---	35.7	ESE	0.59	38.3	-41.7	---	---	725.3	0.029	0.000	17.9	94	1
03/16/17	6:02 a	-23.4	-23.4	-23.4	---	---	35.7	ESE	0.59	38.3	-41.7	---	---	725.4	0.029	0.000	17.9	94	1
03/16/17	6:03 a	-23.4	-23.4	-23.4	---	---	34.8	ESE	0.58	37.4	-41.5	---	---	725.4	0.029	0.000	17.9	94	1
03/16/17	6:04 a	-23.4	-23.4	-23.4	---	---	33.9	ESE	0.57	36.5	-41.3	---	---	725.4	0.029	0.000	17.9	94	1
03/16/17	6:05 a	-23.4	-23.4	-23.4	---	---	35.7	ESE	0.59	38.3	-41.7	---	---	725.4	0.029	0.000	17.9	94	1
03/16/17	6:06 a	-23.3	-23.3	-23.4	---	---	34.8	ESE	0.58	37.4	-41.4	---	---	725.4	0.029	0.000	17.9	94	1
03/16/17	6:07 a	-23.4	-23.3	-23.4	---	---	33.0	ESE	0.55	36.5	-41.2	---	---	725.4	0.029	0.000	17.9	94	1
03/16/17	6:08 a	-23.3	-23.3	-23.4	---	---	34.8	ESE	0.58	39.1	-41.4	---	---	725.2	0.029	0.000	17.9	94	1
03/16/17	6:09 a	-23.3	-23.3	-23.4	---	---	35.7	ESE	0.59	38.3	-41.6	---	---	725.4	0.029	0.000	17.9	94	1
03/16/17	6:10 a	-23.3	-23.3	-23.3	---	---	35.7	ESE	0.59	38.3	-41.6	---	---	725.2	0.029	0.000	17.9	94	1
03/16/17	6:11 a	-23.3	-23.3	-23.4	---	---	33.9	ESE	0.57	37.4	-41.3	---	---	725.4	0.029	0.000	17.9	94	1
03/16/17	6:12 a	-23.3	-23.3	-23.3	---	---	34.8	ESE	0.58	36.5	-41.4	---	---	725.4	0.029	0.000	17.9	94	1
03/16/17	6:13 a	-23.3	-23.3	-23.3	---	---	34.8	ESE	0.58	37.4	-41.4	---	---	725.3	0.029	0.000	17.9	94	1
03/16/17	6:14 a	-23.3	-23.3	-23.3	---	---	36.5	ESE	0.61	39.1	-41.7	---	---	725.4	0.029	0.000	17.9	94	1
03/16/17	6:15 a	-23.3	-23.3	-23.3	---	---	33.0	ESE	0.55	35.7	-41.1	---	---	725.4	0.029	0.000	17.9	94	1
03/16/17	6:16 a	-23.3	-23.3	-23.3	---	---	34.8	ESE	0.58	40.0	-41.4	---	---	725.2	0.029	0.000	17.9	94	1
03/16/17	6:17 a	-23.3	-23.3	-23.3	---	---	34.8	ESE	0.58	37.4	-41.4	---	---	725.4	0.029	0.000	17.8	93	1
03/16/17	6:18 a	-23.3	-23.2	-23.3	---	---	33.0	ESE	0.55	37.4	-41.1	---	---	725.4	0.029	0.000	17.8	94	1
03/16/17	6:19 a	-23.3	-23.2	-23.3	---	---	36.5	ESE	0.61	39.1	-41.7	---	---	725.3	0.029	0.000	17.8	94	1
03/16/17	6:20 a	-23.3	-23.2	-23.3	---	---	33.9	ESE	0.57	35.7	-41.2	---	---	725.5	0.029	0.000	17.8	94	1
03/16/17	6:21 a	-23.3	-23.2	-23.3	---	---	33.0	ESE	0.55	37.4	-41.1	---	---	725.3	0.029	0.000	17.8	94	1
03/16/17	6:22 a	-23.2	-23.2	-23.3	---	---	35.7	ESE	0.59	38.3	-41.4	---	---	725.4	0.029	0.000	17.8	94	1
03/16/17	6:23 a	-23.2	-23.2	-23.2	---	---	33.0	ESE	0.55	36.5	-40.9	---	---	725.4	0.029	0.000	17.8	94	1
03/16/17	6:24 a	-23.2	-23.2	-23.2	---	---	34.8	ESE	0.58	38.3	-41.3	---	---	725.2	0.029	0.000	17.8	94	1
03/16/17	6:25 a	-23.2	-23.2	-23.2	---	---	33.9	ESE	0.57	39.1	-41.1	---	---	725.4	0.029	0.000	17.8	94	1
03/16/17	6:26 a	-23.2	-23.2	-23.2	---	---	33.9	E	0.57	36.5	-41.1	---	---	725.4	0.029	0.000	17.8	94	1
03/16/17	6:27 a	-23.2	-23.2	-23.2	---	---	34.8	ESE	0.58	38.3	-41.3	---	---	725.4	0.029	0.000	17.8	94	1
03/16/17	6:28 a	-23.2	-23.2	-23.2	---	---	33.9	ESE	0.57	37.4	-41.1	---	---	725.3	0.029	0.000	17.8	94	1
03/16/17	6:29 a	-23.2	-23.2	-23.2	---	---	33.9	ESE	0.57	35.7	-41.1	---	---	725.4	0.029	0.000	17.8	94	1
03/16/17	6:30 a	-23.2	-23.2	-23.2	---	---	34.8	ESE	0.58	36.5	-41.3	---	---	725.3	0.029	0.000	17.8	94	1
03/16/17	6:31 a	-23.2	-23.2	-23.2	---	---	35.7	ESE	0.59	39.1	-41.4	---	---	725.4	0.029	0.000	17.8	94	1
03/16/17	6:32 a	-23.2	-23.2	-23.2	---	---	33.9	ESE	0.57	35.7	-41.1	---	---	725.3	0.029	0.000	17.8	94	1
03/16/17	6:33 a	-23.2	-23.2	-23.2	---	---	35.7	ESE	0.59	37.4	-41.4	---	---	725.3	0.029	0.000	17.8	94	1
03/16/17	6:34 a	-23.2	-23.2	-23.2	---	---	33.0	ESE	0.55	37.4	-40.9	---	---	725.3	0.029	0.000	17.8	94	1
03/16/17	6:35 a	-23.2	-23.2	-23.2	---	---	35.7	E	0.59	37.4	-41.4	---	---	725.4	0.029	0.000	17.8	94	1
03/16/17	6:36 a	-23.2	-23.2	-23.2	---	---	35.7	ESE	0.59	38.3	-41.4	---	---	725.3	0.029	0.000	17.8	94	1
03/16/17	6:37 a	-23.2	-23.2	-23.2	---	---	33.9	ESE	0.57	36.5	-41.1	---	---	725.4	0.029	0.000	17.8	94	1
03/16/17	6:38 a	-23.2	-23.2	-23.2	---	---	33.0	ESE	0.55	36.5	-40.9	---	---	725.4	0.029	0.000	17.8	94	1
03/16/17	6:39 a	-23.2	-23.2	-23.2	---	---	33.9	ESE	0.57	36.5	-41.1	---	---	725.4	0.029	0.000	17.8	93	1
03/16/17	6:40 a	-23.2	-23.2	-23.2	---	---	33.9	E	0.57	35.7	-41.1	---	---	725.5	0.029	0.000	17.8	94	1
03/16/17	6:41 a	-23.2	-23.2	-23.2	---	---	34.8	ESE	0.58	38.3	-41.2	---	---	725.4	0.029	0.000	17.8	94	1
03/16/17	6:42 a	-23.2	-23.2	-23.2	---	---	33.0	ESE	0.55	35.7	-40.9	---	---	725.6	0.029	0.000	17.8	94	1
03/16/17	6:43 a	-23.2	-23.2	-23.2	---	---	32.2	ESE	0.54	34.8	-40.7	---	---	725.4	0.029	0.000	17.8	94	1
03/16/17	6:44 a	-23.2	-23.2	-23.2	---	---	33.0	ESE	0.55	35.7	-40.9	---	---	725.5	0.029	0.000	17.8	94	1
03/16/17	6:45 a	-23.2	-23.2	-23.2	---	---	33.9	ESE	0.57	35.7	-41.1	---	---	725.5	0.029	0.000	17.8	94	1
03/16/17	6:46 a	-23.2	-23.2	-23.2	---	---	32.2	ESE	0.54	34.8	-40.7	---	---	725.4	0.029	0.000	17.8	94	1
03/16/17	6:47 a	-23.2	-23.2	-23.2	---	---	34.8	ESE	0.58	38.3	-41.2	---	---	725.5	0.029	0.000	17.8	94	1
03/16/17	6:48 a	-23.2	-23.2	-23.2	---	---	33.9	ESE	0.57	36.5	-41.1	---	---	725.3	0.029	0.000	17.8	94	1
03/16/17	6:49 a	-23.2	-23.1	-23.2	---	---	34.8	ESE	0.58	35.7	-41.2	---	---	725.5	0.029	0.000	17.8	94	1
03/16/17	6:50 a	-23.2	-23.1	-23.2	---	---	32.2	ESE	0.54	34.8	-40.7	---	---	725.4	0.029	0.000	17.8	94	1
03/16/17	6:51 a	-23.1	-23.1	-23.2	---	---	33.9	ESE	0.57	37.4	-40.9	---	---	725.3	0.029	0.000	17.8	93	1
03/16/17	6:52 a	-23.1	-23.1	-23.1	---	---	33.0	ESE	0.55	37.4	-40.8	---	---	725.4	0.029	0.000	17.8	93	1
03/16/17	6:53 a	-23.1	-23.1	-23.1	---	---	33.0	ESE	0.55	36.5	-40.8	---	---	725.4	0.029	0.000	17.8	93	1
03/16/17	6:54 a	-23.1	-23.1	-23.1	---	---	33.0	ESE	0.55	35.7	-40.8	---	---	725.4	0.029	0.000	17.8	94	1
03/16/17	6:55 a	-23.1	-23.1	-23.1	---	---	33.9	ESE	0.57	35.7	-40.9	---	---	725.5	0.029	0.000	17.8	94	1
03/16/17	6:56 a	-23.1	-23.1	-23.1	---	---	32.2	ESE	0.54	34.8	-40.6	---	---	725.4	0.029	0.000	17.8	93	1
03/16/17	6:57 a	-23.0	-23.0	-23.1	---	---	33.9	ESE	0.57	37.4	-40.8	---	---	725.5	0.029	0.000	17.8	94	1
03/16/17	6:58 a	-23.0	-23.0	-23.0	---	---	32.2	ESE	0.54	36.5	-40.5	---	---	725.4	0.029	0.000	17.8	94	1
03/16/17	6:59 a	-22.9	-22.9	-23.0	---	---	35.7	E	0.59	37.4	-41.1	---	---	725.6	0.029	0.000	17.8	93	1
03/16/17	7:00 a	-22.9	-22.9	-22.9	---	---	27.8	E	0.46	30.4	-39.5	---	---	725.7	0.029	0.000	17.8	93	1
03/16/17	7:01 a	-22.9	-22.9	-22.9	---	---	32.2	ESE	0.54	36.5	-40.3	---	---	725.3	0.029	0.000	17.8	93	1
03/16/17	7:02 a	-22.9	-22.8	-22.9	---	---	37.4	ESE	0.62	40.0	-41.3	---	---	725.4	0.029	0.000	17.8	93	1
03/16/17	7:03 a	-22.8	-22.8	-22.8	---	---	28.7	ESE	0.48	33.0	-39.6	---	---	725.6	0.029	0.000	17.8	94	1
03/16/17	7:04 a	-22.8	-22.8	-22.8	---	---	33.0	ESE	0.55	39.1	-40.3	---	---	725.2	0.029	0.000	17.8	93	1
03/16/17	7:05 a	-22.8	-22.7	-22.8	---	---	35.7	ESE	0.59	40.0	-40.8	---	---	725.5	0.029	0.000	17.8	94	1
03/16/17	7:06 a	-22.7	-22.7	-22.7	---	---	30.4	E	0.51	33.9	-39.8	---	---	725.3	0.029	0.000	17.8	93	1
03/16/17	7:07 a	-22.7	-22.7	-22.7	---	---	35.7	ESE	0.59	38.3	-40.7	---	---	725.3	0.029	0.000	17.8	94	1
03/16/17	7:08 a	-22.7	-22.7	-22.7	---	---	32.2	ESE	0.54	36.5	-40.0	---	---	725.6	0.028	0.000	17.7	94	1
03/16/17	7:09 a	-22.6	-22.6	-22.6	---	---	34.8	ESE	0.58	40.9	-40.4	---	---	725.1	0.028	0.000	17.7	93	1
03/16/17	7:10 a	-22.6	-22.6	-22.6	---	---	30.4	ESE	0.51	38.3	-39.6	---	---	725.8	0.028	0.000	17.7	93	1
03/16/17	7:11 a	-22.6	-22.6	-22.6	---	---	32.2	ESE	0.54	37.4	-39.9	---	---	725.3	0.028	0.000	17.7	93	1
03/16/17	7:12 a	-22.6	-22.5	-22.6	---	---	31.3	E	0.52	34.8	-39.7	---	---	725.5	0.028	0.000	17.7	93	1
03/16/17	7:13 a	-22.5	-22.5	-22.5	---	---	32.2	ESE	0.54	36.5	-39.8	---	---	725.2	0.028	0.000	17.7	93	1
03/16/17	7:14 a	-22.5	-22.5	-22.5	---	---	34.8	ESE	0.58	39.1	-40.3	---	---	725.2	0.028	0.000	17.7	93	1
03/16/17	7:15 a	-22.4	-22.4	-22.5	---	---	32.2	ESE	0.54	35.7	-39.7	---	---	725.4	0.028	0.000	17.7	94	1
03/16/17	7:16 a	-22.4	-22.4	-22.4	---	---	33.0	ESE	0.55	37.4	-39.9	---	---	725.0	0.028	0.000	17.7	93	1
03/16/17	7:17 a	-22.4	-22.4	-22.4	---	---	34.8	E	0.58	39.1	-40.2	---	---	725.5	0.028	0.000	17.7	93	1
03/16/17	7:18 a	-22.4	-22.4	-22.4	---	---	28.7	E	0.48	32.2	-38.9	---	---	725.6	0.028	0.000	17.7	93	1
03/16/17	7:19 a	-22.4	-22.4	-22.4	---	---	33.9	ESE	0.57	40.0	-39.9	---	---	724.9	0.028	0.000	17.7	93	1
03/16/17	7:20 a	-22.3	-22.3	-22.4	---	---	38.3	ESE	0.64	42.6	-40.7	---	---	725.1	0.028	0.000	17.7	93	1
03/16/17	7:21 a	-22.3	-22.3	-22.4	---	---	34.8	ESE	0.58	39.1	-40.1	---	---	725.3	0.028	0.000	17.7	93	1
03/16/17	7:22 a	-22.3	-22.3	-22.3	---	---	30.4	E	0.51	34.8	-39.2	---	---	725.7	0.028	0.000	17.7	93	1
03/16/17	7:23 a	-22.3	-22.3	-22.3	---	---	29.6	ESE	0.49	36.5	-39.1	---	---	725.1	0.028	0.000	17.7	93	1
03/16/17	7:24 a	-22.3	-22.3	-22.3	---	---	39.1	ESE	0.65	41.7	-40.8	---	---	725.1	0.028	0.000	17.7	93	1
03/16/17	7:25 a	-22.3	-22.3	-22.3	---	---	37.4	ESE	0.62	40.9	-40.4	---	---	725.4	0.028	0.000	17.7	93	1
03/16/17	7:26 a	-22.3	-22.3	-22.3	---	---	29.6	ESE	0.49	34.8	-38.9	---	---	725.2	0.028	0.000	17.7	93	1
03/16/17	7:27 a	-22.3	-22.3	-22.3	---	---	34.8	ESE	0.58	37.4	-39.9	---	---	725.4	0.028	0.000	17.7	93	1
03/16/17	7:28 a	-22.3	-22.3	-22.3	---	---	30.4	E	0.51	33.0	-39.2	---	---	725.5	0.028	0.000	17.7	93	1
03/16/17	7:29 a	-22.3	-22.3	-22.3	---	---	27.8	ESE	0.46	31.3	-38.7	---	---	725.3	0.028	0.000	17.7	93	1
03/16/17	7:30 a	-22.3	-22.3	-22.3	---	---	37.4	ESE	0.62	41.7	-40.5	---	---	724.8	0.028	0.000	17.7	93	1
03/16/17	7:31 a	-22.3	-22.3	-22.3	---	---	38.3	ESE	0.64	42.6	-40.7	---	---	725.1	0.028	0.000	17.7	93	1
03/16/17	7:32 a	-22.3	-22.3	-22.3	---	---	30.4	ESE	0.51	34.8	-39.2	---	---	725.6	0.028	0.000	17.7	93	1
03/16/17	7:33 a	-22.3	-22.3	-22.3	---	---	26.1	ESE	0.43	28.7	-38.3	---	---	725.4	0.028	0.000	17.7	93	1
03/16/17	7:34 a	-22.3	-22.3	-22.4	---	---	34.8	ESE	0.58	40.0	-40.1	---	---	724.8	0.028	0.000	17.7	93	1
03/16/17	7:35 a	-22.3	-22.3	-22.4	---	---	39.1	ESE	0.65	42.6	-40.8	---	---	725.1	0.028	0.000	17.7	93	1
03/16/17	7:36 a	-22.4	-22.3	-22.4	---	---	31.3	ESE	0.52	35.7	-39.4	---	---	725.5	0.028	0.000	17.7	93	1
03/16/17	7:37 a	-22.4	-22.4	-22.4	---	---	28.7	ESE	0.48	31.3	-38.9	---	---	725.5	0.028	0.000	17.7	93	1
03/16/17	7:38 a	-22.4	-22.4	-22.4	---	---	29.6	E	0.49	33.9	-39.1	---	---	725.2	0.028	0.000	17.7	93	1
03/16/17	7:39 a	-22.4	-22.4	-22.4	---	---	35.7	ESE	0.59	39.1	-40.3	---	---	724.8	0.028	0.000	17.7	93	1
03/16/17	7:40 a	-22.4	-22.4	-22.4	---	---	38.3	ESE	0.64	40.9	-40.8	---	---	725.0	0.028	0.000	17.7	93	1
03/16/17	7:41 a	-22.4	-22.4	-22.4	---	---	29.6	ESE	0.49	34.8	-39.2	---	---	725.4	0.028	0.000	17.7	93	1
03/16/17	7:42 a	-22.4	-22.4	-22.4	---	---	33.9	ESE	0.57	40.0	-40.1	---	---	725.0	0.028	0.000	17.7	93	1
03/16/17	7:43 a	-22.5	-22.4	-22.5	---	---	33.9	ESE	0.57	36.5	-40.1	---	---	725.2	0.028	0.000	17.7	93	1
03/16/17	7:44 a	-22.5	-22.4	-22.5	---	---	35.7	ESE	0.59	38.3	-40.4	---	---	725.3	0.028	0.000	17.7	93	1
03/16/17	7:45 a	-22.5	-22.5	-22.5	---	---	27.8	ESE	0.46	32.2	-38.9	---	---	725.3	0.028	0.000	17.7	93	1
03/16/17	7:46 a	-22.5	-22.4	-22.5	---	---	33.9	ESE	0.57	37.4	-40.1	---	---	725.0	0.028	0.000	17.7	93	1
03/16/17	7:47 a	-22.5	-22.5	-22.5	---	---	33.0	ESE	0.55	36.5	-39.9	---	---	725.1	0.028	0.000	17.7	93	1
03/16/17	7:48 a	-22.5	-22.5	-22.5	---	---	36.5	ESE	0.61	40.0	-40.6	---	---	725.0	0.028	0.000	17.7	93	1
03/16/17	7:49 a	-22.5	-22.5	-22.5	---	---	34.8	ESE	0.58	38.3	-40.3	---	---	725.2	0.028	0.000	17.7	93	1
03/16/17	7:50 a	-22.5	-22.5	-22.6	---	---	32.2	ESE	0.54	35.7	-39.8	---	---	725.1	0.028	0.000	17.7	93	1
03/16/17	7:51 a	-22.5	-22.5	-22.6	---	---	35.7	ESE	0.59	38.3	-40.4	---	---	725.1	0.028	0.000	17.7	93	1
03/16/17	7:52 a	-22.5	-22.5	-22.6	---	---	36.5	ESE	0.61	39.1	-40.6	---	---	725.1	0.028	0.000	17.7	93	1
03/16/17	7:53 a	-22.5	-22.5	-22.5	---	---	30.4	ESE	0.51	34.8	-39.4	---	---	725.2	0.028	0.000	17.7	93	1
03/16/17	7:54 a	-22.5	-22.5	-22.5	---	---	33.0	ESE	0.55	35.7	-39.9	---	---	725.3	0.028	0.000	17.7	93	1
03/16/17	7:55 a	-22.5	-22.5	-22.5	---	---	32.2	ESE	0.54	34.8	-39.8	---	---	725.3	0.028	0.000	17.7	93	1
03/16/17	7:56 a	-22.5	-22.4	-22.5	---	---	31.3	ESE	0.52	34.8	-39.6	---	---	725.2	0.028	0.000	17.7	93	1
03/16/17	7:57 a	-22.5	-22.4	-22.5	---	---	33.0	ESE	0.55	34.8	-39.9	---	---	725.2	0.028	0.000	17.7	92	1
03/16/17	7:58 a	-22.5	-22.4	-22.5	---	---	33.9	ESE	0.57	37.4	-40.1	---	---	725.2	0.028	0.000	17.7	92	1
03/16/17	7:59 a	-22.4	-22.4	-22.5	---	---	32.2	ESE	0.54	35.7	-39.7	---	---	725.1	0.028	0.000	17.7	92	1
03/16/17	8:00 a	-22.4	-22.4	-22.4	---	---	31.3	ESE	0.52	35.7	-39.6	---	---	725.2	0.028	0.000	17.7	93	1
03/16/17	8:01 a	-22.4	-22.4	-22.4	---	---	32.2	ESE	0.54	34.8	-39.7	---	---	725.1	0.028	0.000	17.7	92	1
03/16/17	8:02 a	-22.4	-22.4	-22.4	---	---	33.0	ESE	0.55	36.5	-39.8	---	---	725.2	0.028	0.000	17.7	92	1
03/16/17	8:03 a	-22.4	-22.4	-22.4	---	---	32.2	ESE	0.54	34.8	-39.6	---	---	725.2	0.028	0.000	17.7	92	1
03/16/17	8:04 a	-22.4	-22.4	-22.4	---	---	31.3	ESE	0.52	33.9	-39.4	---	---	725.3	0.028	0.000	17.7	92	1
03/16/17	8:05 a	-22.4	-22.3	-22.4	---	---	28.7	ESE	0.48	35.7	-38.9	---	---	725.1	0.028	0.000	17.7	92	1
03/16/17	8:06 a	-22.3	-22.3	-22.4	---	---	33.9	ESE	0.57	39.1	-39.9	---	---	725.1	0.028	0.000	17.7	92	1
03/16/17	8:07 a	-22.3	-22.3	-22.4	---	---	30.4	ESE	0.51	34.8	-39.2	---	---	725.4	0.028	0.000	17.7	92	1
03/16/17	8:08 a	-22.3	-22.3	-22.3	---	---	29.6	ESE	0.49	31.3	-39.1	---	---	725.2	0.028	0.000	17.7	92	1
03/16/17	8:09 a	-22.3	-22.3	-22.3	---	---	29.6	ESE	0.49	33.9	-39.1	---	---	725.3	0.028	0.000	17.7	92	1
03/16/17	8:10 a	-22.3	-22.3	-22.3	---	---	29.6	ESE	0.49	33.9	-39.1	---	---	725.3	0.028	0.000	17.7	92	1
03/16/17	8:11 a	-22.3	-22.3	-22.3	---	---	32.2	ESE	0.54	34.8	-39.6	---	---	725.2	0.028	0.000	17.7	92	1
03/16/17	8:12 a	-22.3	-22.3	-22.3	---	---	33.0	ESE	0.55	34.8	-39.7	---	---	725.3	0.028	0.000	17.7	92	1
03/16/17	8:13 a	-22.3	-22.3	-22.3	---	---	30.4	ESE	0.51	33.0	-39.2	---	---	725.3	0.028	0.000	17.7	92	1
03/16/17	8:14 a	-22.3	-22.3	-22.3	---	---	33.9	ESE	0.57	36.5	-39.9	---	---	725.2	0.028	0.000	17.7	92	1
03/16/17	8:15 a	-22.3	-22.3	-22.3	---	---	31.3	ESE	0.52	34.8	-39.4	---	---	725.4	0.028	0.000	17.7	92	1
03/16/17	8:16 a	-22.3	-22.3	-22.3	---	---	30.4	ESE	0.51	33.0	-39.2	---	---	725.1	0.028	0.000	17.7	92	1
03/16/17	8:17 a	-22.3	-22.3	-22.3	---	---	33.9	E	0.57	37.4	-39.9	---	---	725.3	0.028	0.000	17.7	92	1
03/16/17	8:18 a	-22.3	-22.3	-22.3	---	---	27.8	E	0.46	33.9	-38.7	---	---	725.4	0.028	0.000	17.7	92	1
03/16/17	8:19 a	-22.3	-22.3	-22.3	---	---	31.3	ESE	0.52	39.1	-39.4	---	---	724.8	0.028	0.000	17.7	92	1
03/16/17	8:20 a	-22.3	-22.3	-22.3	---	---	34.8	ESE	0.58	38.3	-40.1	---	---	725.2	0.028	0.000	17.7	92	1
03/16/17	8:21 a	-22.3	-22.3	-22.3	---	---	32.2	ESE	0.54	37.4	-39.6	---	---	725.1	0.028	0.000	17.6	93	1
03/16/17	8:22 a	-22.3	-22.3	-22.3	---	---	33.0	ESE	0.55	35.7	-39.7	---	---	725.3	0.028	0.000	17.7	93	1
03/16/17	8:23 a	-22.3	-22.3	-22.3	---	---	30.4	ESE	0.51	32.2	-39.2	---	---	725.2	0.028	0.000	17.7	92	1
03/16/17	8:24 a	-22.3	-22.3	-22.3	---	---	34.8	ESE	0.58	41.7	-40.1	---	---	724.8	0.028	0.000	17.7	93	1
03/16/17	8:25 a	-22.3	-22.3	-22.3	---	---	33.0	ESE	0.55	39.1	-39.7	---	---	725.4	0.028	0.000	17.7	92	1
03/16/17	8:26 a	-22.3	-22.3	-22.3	---	---	29.6	ESE	0.49	38.3	-39.1	---	---	724.9	0.028	0.000	17.6	92	1
03/16/17	8:27 a	-22.3	-22.3	-22.3	---	---	35.7	ESE	0.59	40.0	-40.2	---	---	725.3	0.028	0.000	17.6	92	1
03/16/17	8:28 a	-22.3	-22.3	-22.3	---	---	31.3	ESE	0.52	33.0	-39.4	---	---	725.3	0.028	0.000	17.6	93	1
03/16/17	8:29 a	-22.3	-22.3	-22.3	---	---	31.3	ESE	0.52	33.0	-39.3	---	---	725.2	0.028	0.000	17.6	92	1
03/16/17	8:30 a	-22.3	-22.3	-22.3	---	---	31.3	E	0.52	34.8	-39.3	---	---	725.0	0.028	0.000	17.6	92	1
03/16/17	8:31 a	-22.3	-22.3	-22.3	---	---	35.7	ESE	0.59	39.1	-40.1	---	---	725.0	0.028	0.000	17.6	93	1
03/16/17	8:32 a	-22.3	-22.3	-22.3	---	---	33.0	ESE	0.55	36.5	-39.7	---	---	725.2	0.028	0.000	17.6	93	1
03/16/17	8:33 a	-22.3	-22.2	-22.3	---	---	26.1	E	0.43	31.3	-38.2	---	---	725.3	0.028	0.000	17.6	92	1
03/16/17	8:34 a	-22.3	-22.2	-22.3	---	---	33.0	ESE	0.55	39.1	-39.7	---	---	724.7	0.028	0.000	17.6	92	1
03/16/17	8:35 a	-22.3	-22.2	-22.3	---	---	34.8	ESE	0.58	40.0	-39.9	---	---	725.2	0.028	0.000	17.6	92	1
03/16/17	8:36 a	-22.3	-22.2	-22.3	---	---	30.4	E	0.51	32.2	-39.2	---	---	725.3	0.028	0.000	17.6	92	1
03/16/17	8:37 a	-22.2	-22.2	-22.3	---	---	32.2	ESE	0.54	38.3	-39.4	---	---	724.8	0.028	0.000	17.6	91	1
03/16/17	8:38 a	-22.2	-22.2	-22.2	---	---	32.2	E	0.54	36.5	-39.4	---	---	725.2	0.028	0.000	17.6	91	1
03/16/17	8:39 a	-22.2	-22.2	-22.2	---	---	33.0	ESE	0.55	40.0	-39.6	---	---	724.8	0.028	0.000	17.6	91	1
03/16/17	8:40 a	-22.2	-22.2	-22.2	---	---	34.8	ESE	0.58	39.1	-39.9	---	---	725.2	0.028	0.000	17.6	91	1
03/16/17	8:41 a	-22.2	-22.2	-22.2	---	---	31.3	ESE	0.52	33.9	-39.2	---	---	725.1	0.028	0.000	17.6	92	1
03/16/17	8:42 a	-22.2	-22.2	-22.2	---	---	30.4	ESE	0.51	33.9	-39.1	---	---	725.2	0.028	0.000	17.6	92	1
03/16/17	8:43 a	-22.2	-22.2	-22.2	---	---	33.9	ESE	0.57	37.4	-39.7	---	---	725.1	0.028	0.000	17.6	91	1
03/16/17	8:44 a	-22.2	-22.2	-22.2	---	---	31.3	ESE	0.52	32.2	-39.2	---	---	725.1	0.028	0.000	17.6	92	1
03/16/17	8:45 a	-22.2	-22.2	-22.2	---	---	33.0	ESE	0.55	35.7	-39.5	---	---	725.0	0.028	0.000	17.6	92	1
03/16/17	8:46 a	-22.2	-22.2	-22.2	---	---	30.4	ESE	0.51	33.9	-39.0	---	---	725.1	0.028	0.000	17.6	92	1
03/16/17	8:47 a	-22.2	-22.2	-22.2	---	---	29.6	ESE	0.49	32.2	-38.8	---	---	725.2	0.028	0.000	17.6	92	1
03/16/17	8:48 a	-22.2	-22.1	-22.2	---	---	30.4	ESE	0.51	33.0	-39.0	---	---	724.9	0.028	0.000	17.6	92	1
03/16/17	8:49 a	-22.1	-22.1	-22.2	---	---	32.2	ESE	0.54	37.4	-39.3	---	---	725.0	0.028	0.000	17.6	92	1
03/16/17	8:50 a	-22.1	-22.1	-22.1	---	---	31.3	E	0.52	35.7	-39.1	---	---	725.1	0.028	0.000	17.6	92	1
03/16/17	8:51 a	-22.1	-22.1	-22.1	---	---	34.8	ESE	0.58	38.3	-39.7	---	---	725.0	0.028	0.000	17.6	92	1
03/16/17	8:52 a	-22.1	-22.1	-22.1	---	---	34.8	ESE	0.58	36.5	-39.7	---	---	725.0	0.028	0.000	17.6	92	1
03/16/17	8:53 a	-22.1	-22.1	-22.1	---	---	33.0	E	0.55	37.4	-39.4	---	---	725.0	0.028	0.000	17.6	92	1
03/16/17	8:54 a	-22.1	-22.1	-22.1	---	---	33.0	ESE	0.55	37.4	-39.4	---	---	725.0	0.028	0.000	17.6	91	1
03/16/17	8:55 a	-22.1	-22.1	-22.1	---	---	33.9	ESE	0.57	36.5	-39.5	---	---	725.1	0.028	0.000	17.6	92	1
03/16/17	8:56 a	-22.1	-22.1	-22.1	---	---	32.2	E	0.54	35.7	-39.2	---	---	725.1	0.028	0.000	17.6	92	1
03/16/17	8:57 a	-22.1	-22.1	-22.1	---	---	30.4	E	0.51	34.8	-38.8	---	---	725.0	0.028	0.000	17.6	92	1
03/16/17	8:58 a	-22.1	-22.1	-22.1	---	---	31.3	E	0.52	33.0	-39.0	---	---	725.0	0.028	0.000	17.6	92	1
03/16/17	8:59 a	-22.1	-22.1	-22.1	---	---	32.2	E	0.54	35.7	-39.2	---	---	724.9	0.028	0.000	17.6	92	1
03/16/17	9:00 a	-22.1	-22.1	-22.1	---	---	33.9	E	0.57	37.4	-39.6	---	---	725.0	0.028	0.000	17.6	91	1
03/16/17	9:01 a	-22.1	-22.1	-22.1	---	---	33.0	E	0.55	36.5	-39.3	---	---	725.1	0.028	0.000	17.6	93	1
03/16/17	9:02 a	-22.1	-22.1	-22.1	---	---	31.3	ESE	0.52	34.8	-39.0	---	---	724.9	0.028	0.000	17.6	93	1
03/16/17	9:03 a	-22.1	-22.1	-22.1	---	---	33.9	ESE	0.57	36.5	-39.6	---	---	724.9	0.028	0.000	17.6	93	1
03/16/17	9:04 a	-22.1	-22.1	-22.1	---	---	33.9	ESE	0.57	35.7	-39.5	---	---	725.0	0.028	0.000	17.6	93	1
03/16/17	9:05 a	-22.1	-22.1	-22.1	---	---	32.2	ESE	0.54	35.7	-39.3	---	---	724.8	0.028	0.000	17.6	93	1
03/16/17	9:06 a	-22.1	-22.1	-22.2	---	---	33.9	ESE	0.57	38.3	-39.6	---	---	725.0	0.028	0.000	17.6	93	1
03/16/17	9:07 a	-22.2	-22.1	-22.2	---	---	33.0	ESE	0.55	36.5	-39.5	---	---	725.0	0.028	0.000	17.6	92	1
03/16/17	9:08 a	-22.2	-22.1	-22.2	---	---	29.6	E	0.49	31.3	-38.8	---	---	725.1	0.028	0.000	17.6	92	1
03/16/17	9:09 a	-22.2	-22.2	-22.2	---	---	30.4	E	0.51	33.0	-39.0	---	---	724.8	0.028	0.000	17.6	93	1
03/16/17	9:10 a	-22.2	-22.2	-22.2	---	---	34.8	ESE	0.58	39.1	-39.9	---	---	724.6	0.028	0.000	17.6	92	1
03/16/17	9:11 a	-22.2	-22.2	-22.2	---	---	35.7	ESE	0.59	40.0	-40.1	---	---	724.9	0.028	0.000	17.6	92	1
03/16/17	9:12 a	-22.2	-22.2	-22.3	---	---	32.2	E	0.54	36.5	-39.4	---	---	725.3	0.028	0.000	17.6	92	1
03/16/17	9:13 a	-22.3	-22.2	-22.3	---	---	23.5	E	0.39	27.0	-37.6	---	---	725.6	0.028	0.000	17.6	93	1
03/16/17	9:14 a	-22.3	-22.3	-22.3	---	---	22.6	E	0.38	32.2	-37.3	---	---	725.1	0.028	0.000	17.6	92	1
03/16/17	9:15 a	-22.3	-22.3	-22.3	---	---	35.7	ESE	0.59	40.0	-40.2	---	---	724.8	0.028	0.000	17.6	93	1
03/16/17	9:16 a	-22.3	-22.3	-22.3	---	---	32.2	ESE	0.54	35.7	-39.6	---	---	725.1	0.028	0.000	17.6	93	1
03/16/17	9:17 a	-22.3	-22.3	-22.4	---	---	28.7	ESE	0.48	31.3	-38.8	---	---	725.1	0.028	0.000	17.5	92	1
03/16/17	9:18 a	-22.4	-22.4	-22.4	---	---	30.4	E	0.51	32.2	-39.3	---	---	725.0	0.028	0.000	17.5	93	1
03/16/17	9:19 a	-22.4	-22.4	-22.4	---	---	30.4	ESE	0.51	33.9	-39.3	---	---	725.1	0.028	0.000	17.5	93	1
03/16/17	9:20 a	-22.4	-22.4	-22.4	---	---	29.6	E	0.49	33.0	-39.2	---	---	725.0	0.028	0.000	17.5	93	1
03/16/17	9:21 a	-22.4	-22.4	-22.4	---	---	29.6	E	0.49	32.2	-39.2	---	---	725.1	0.028	0.000	17.5	93	1
03/16/17	9:22 a	-22.4	-22.4	-22.5	---	---	28.7	E	0.48	34.8	-39.0	---	---	724.7	0.028	0.000	17.5	92	1
03/16/17	9:23 a	-22.5	-22.4	-22.5	---	---	33.0	ESE	0.55	36.5	-39.9	---	---	724.7	0.028	0.000	17.5	93	1
03/16/17	9:24 a	-22.5	-22.5	-22.5	---	---	33.9	ESE	0.57	36.5	-40.1	---	---	725.0	0.028	0.000	17.5	93	1
03/16/17	9:25 a	-22.5	-22.5	-22.5	---	---	29.6	E	0.49	33.9	-39.3	---	---	725.1	0.028	0.000	17.5	93	1
03/16/17	9:26 a	-22.5	-22.5	-22.5	---	---	28.7	E	0.48	31.3	-39.1	---	---	724.9	0.028	0.000	17.5	93	1
03/16/17	9:27 a	-22.5	-22.5	-22.6	---	---	30.4	E	0.51	33.9	-39.4	---	---	724.9	0.028	0.000	17.5	93	1
03/16/17	9:28 a	-22.5	-22.5	-22.6	---	---	28.7	E	0.48	32.2	-39.1	---	---	725.1	0.028	0.000	17.5	93	1
03/16/17	9:29 a	-22.5	-22.5	-22.5	---	---	27.8	E	0.46	29.6	-38.9	---	---	724.9	0.028	0.000	17.5	93	1
03/16/17	9:30 a	-22.6	-22.6	-22.6	---	---	32.2	E	0.54	36.5	-39.9	---	---	724.9	0.028	0.000	17.5	93	1
03/16/17	9:31 a	-22.6	-22.6	-22.6	---	---	31.3	E	0.52	35.7	-39.7	---	---	725.0	0.028	0.000	17.5	93	1
03/16/17	9:32 a	-22.6	-22.6	-22.6	---	---	28.7	E	0.48	33.0	-39.2	---	---	725.1	0.028	0.000	17.5	93	1
03/16/17	9:33 a	-22.6	-22.6	-22.6	---	---	28.7	E	0.48	37.4	-39.2	---	---	724.6	0.028	0.000	17.5	93	1
03/16/17	9:34 a	-22.6	-22.6	-22.6	---	---	33.9	ESE	0.57	36.5	-40.2	---	---	724.7	0.028	0.000	17.5	93	1
03/16/17	9:35 a	-22.6	-22.6	-22.6	---	---	32.2	ESE	0.54	36.5	-39.9	---	---	724.8	0.028	0.000	17.5	93	1
03/16/17	9:36 a	-22.6	-22.6	-22.6	---	---	33.9	ESE	0.57	38.3	-40.2	---	---	725.0	0.028	0.000	17.5	93	1
03/16/17	9:37 a	-22.6	-22.6	-22.6	---	---	28.7	ESE	0.48	33.0	-39.2	---	---	724.9	0.028	0.000	17.5	93	1
03/16/17	9:38 a	-22.6	-22.6	-22.6	---	---	31.3	ESE	0.52	33.0	-39.7	---	---	724.8	0.028	0.000	17.5	93	1
03/16/17	9:39 a	-22.6	-22.6	-22.6	---	---	32.2	ESE	0.54	35.7	-39.9	---	---	724.9	0.028	0.000	17.5	93	1
03/16/17	9:40 a	-22.6	-22.6	-22.6	---	---	31.3	ESE	0.52	33.0	-39.8	---	---	724.8	0.028	0.000	17.5	93	1
03/16/17	9:41 a	-22.6	-22.6	-22.6	---	---	32.2	ESE	0.54	35.7	-39.9	---	---	724.8	0.028	0.000	17.5	93	1
03/16/17	9:42 a	-22.6	-22.6	-22.6	---	---	30.4	E	0.51	35.7	-39.6	---	---	724.9	0.028	0.000	17.5	93	1
03/16/17	9:43 a	-22.6	-22.6	-22.6	---	---	32.2	ESE	0.54	35.7	-39.9	---	---	724.8	0.028	0.000	17.5	93	1
03/16/17	9:44 a	-22.6	-22.6	-22.6	---	---	33.0	ESE	0.55	36.5	-40.1	---	---	724.9	0.028	0.000	17.5	93	1
03/16/17	9:45 a	-22.6	-22.6	-22.6	---	---	31.3	ESE	0.52	34.8	-39.8	---	---	724.9	0.028	0.000	17.5	93	1
03/16/17	9:46 a	-22.6	-22.6	-22.6	---	---	32.2	ESE	0.54	34.8	-39.9	---	---	724.8	0.028	0.000	17.5	93	1
03/16/17	9:47 a	-22.6	-22.6	-22.6	---	---	34.8	ESE	0.58	38.3	-40.4	---	---	724.9	0.028	0.000	17.5	93	1
03/16/17	9:48 a	-22.6	-22.6	-22.6	---	---	28.7	ESE	0.48	33.0	-39.2	---	---	724.8	0.028	0.000	17.5	93	1
03/16/17	9:49 a	-22.6	-22.6	-22.7	---	---	33.0	ESE	0.55	34.8	-40.1	---	---	724.7	0.028	0.000	17.5	93	1
03/16/17	9:50 a	-22.7	-22.6	-22.7	---	---	31.3	ESE	0.52	33.9	-39.8	---	---	724.9	0.028	0.000	17.5	93	1
03/16/17	9:51 a	-22.7	-22.7	-22.7	---	---	33.0	ESE	0.55	34.8	-40.2	---	---	724.8	0.028	0.000	17.5	93	1
03/16/17	9:52 a	-22.7	-22.6	-22.7	---	---	29.6	ESE	0.49	33.0	-39.5	---	---	724.9	0.028	0.000	17.5	93	1
03/16/17	9:53 a	-22.7	-22.6	-22.7	---	---	32.2	E	0.54	34.8	-40.0	---	---	724.9	0.028	0.000	17.5	93	1
03/16/17	9:54 a	-22.7	-22.7	-22.7	---	---	29.6	E	0.49	32.2	-39.5	---	---	725.0	0.028	0.000	17.5	93	1
03/16/17	9:55 a	-22.7	-22.7	-22.7	---	---	28.7	E	0.48	32.2	-39.3	---	---	725.0	0.028	0.000	17.5	93	1
03/16/17	9:56 a	-22.7	-22.7	-22.7	---	---	30.4	ESE	0.51	33.0	-39.7	---	---	724.8	0.028	0.000	17.5	93	1
03/16/17	9:57 a	-22.7	-22.7	-22.7	---	---	33.9	ESE	0.57	35.7	-40.3	---	---	724.9	0.028	0.000	17.5	93	1
03/16/17	9:58 a	-22.7	-22.7	-22.7	---	---	30.4	E	0.51	35.7	-39.7	---	---	724.8	0.028	0.000	17.5	93	1
03/16/17	9:59 a	-22.7	-22.7	-22.7	---	---	30.4	E	0.51	34.8	-39.7	---	---	725.0	0.028	0.000	17.5	93	1
03/16/17	10:00 a	-22.7	-22.7	-22.7	---	---	29.6	E	0.49	32.2	-39.5	---	---	724.9	0.028	0.000	17.5	93	1
03/16/17	10:01 a	-22.7	-22.7	-22.7	---	---	29.6	E	0.49	33.0	-39.5	---	---	724.9	0.028	0.000	17.4	93	1
03/16/17	10:02 a	-22.7	-22.7	-22.7	---	---	32.2	ESE	0.54	33.9	-40.0	---	---	724.9	0.028	0.000	17.4	93	1
03/16/17	10:03 a	-22.7	-22.7	-22.7	---	---	29.6	E	0.49	32.2	-39.6	---	---	724.9	0.029	0.000	17.4	93	1
03/16/17	10:04 a	-22.7	-22.7	-22.7	---	---	33.0	ESE	0.55	34.8	-40.2	---	---	724.8	0.028	0.000	17.4	92	1
03/16/17	10:05 a	-22.7	-22.7	-22.7	---	---	30.4	E	0.51	35.7	-39.7	---	---	725.0	0.028	0.000	17.4	92	1
03/16/17	10:06 a	-22.7	-22.7	-22.7	---	---	29.6	ESE	0.49	35.7	-39.5	---	---	724.7	0.028	0.000	17.4	92	1
03/16/17	10:07 a	-22.7	-22.7	-22.7	---	---	31.3	ESE	0.52	36.5	-39.8	---	---	725.0	0.028	0.000	17.4	92	1
03/16/17	10:08 a	-22.7	-22.7	-22.7	---	---	28.7	ESE	0.48	32.2	-39.4	---	---	724.8	0.029	0.000	17.4	92	1
03/16/17	10:09 a	-22.7	-22.7	-22.7	---	---	29.6	ESE	0.49	33.9	-39.5	---	---	724.8	0.028	0.000	17.4	92	1
03/16/17	10:10 a	-22.7	-22.7	-22.7	---	---	31.3	ESE	0.52	33.9	-39.8	---	---	725.0	0.028	0.000	17.4	92	1
03/16/17	10:11 a	-22.7	-22.7	-22.7	---	---	29.6	E	0.49	31.3	-39.5	---	---	724.8	0.028	0.000	17.4	92	1
03/16/17	10:12 a	-22.7	-22.7	-22.7	---	---	30.4	ESE	0.51	34.8	-39.7	---	---	724.9	0.028	0.000	17.4	92	1
03/16/17	10:13 a	-22.7	-22.7	-22.7	---	---	30.4	ESE	0.51	33.9	-39.8	---	---	724.8	0.029	0.000	17.4	92	1
03/16/17	10:14 a	-22.7	-22.7	-22.7	---	---	31.3	ESE	0.52	33.0	-39.9	---	---	724.8	0.029	0.000	17.4	93	1
03/16/17	10:15 a	-22.7	-22.7	-22.7	---	---	30.4	ESE	0.51	33.0	-39.8	---	---	724.8	0.029	0.000	17.4	93	1
03/16/17	10:16 a	-22.7	-22.7	-22.7	---	---	29.6	ESE	0.49	33.0	-39.6	---	---	724.9	0.029	0.000	17.4	93	1
03/16/17	10:17 a	-22.7	-22.7	-22.7	---	---	32.2	ESE	0.54	34.8	-40.1	---	---	724.7	0.029	0.000	17.4	93	1
03/16/17	10:18 a	-22.7	-22.7	-22.7	---	---	32.2	ESE	0.54	36.5	-40.1	---	---	725.0	0.029	0.000	17.4	93	1
03/16/17	10:19 a	-22.7	-22.7	-22.7	---	---	27.0	E	0.45	30.4	-39.0	---	---	724.8	0.029	0.000	17.4	93	1
03/16/17	10:20 a	-22.7	-22.7	-22.7	---	---	29.6	E	0.49	31.3	-39.6	---	---	724.8	0.029	0.000	17.4	93	1
03/16/17	10:21 a	-22.7	-22.7	-22.7	---	---	33.0	ESE	0.55	37.4	-40.3	---	---	724.7	0.029	0.000	17.4	92	1
03/16/17	10:22 a	-22.7	-22.7	-22.8	---	---	29.6	ESE	0.49	33.9	-39.6	---	---	724.9	0.029	0.000	17.4	92	1
03/16/17	10:23 a	-22.7	-22.7	-22.7	---	---	28.7	E	0.48	38.3	-39.4	---	---	724.4	0.029	0.000	17.4	92	1
03/16/17	10:24 a	-22.7	-22.7	-22.8	---	---	35.7	ESE	0.59	40.0	-40.7	---	---	724.6	0.029	0.000	17.4	92	1
03/16/17	10:25 a	-22.8	-22.7	-22.8	---	---	26.1	E	0.43	29.6	-38.9	---	---	725.0	0.029	0.000	17.4	92	1
03/16/17	10:26 a	-22.8	-22.7	-22.8	---	---	30.4	ESE	0.51	33.9	-39.8	---	---	724.8	0.029	0.000	17.4	92	1
03/16/17	10:27 a	-22.8	-22.7	-22.8	---	---	28.7	ESE	0.48	33.0	-39.4	---	---	724.8	0.029	0.000	17.4	92	1
03/16/17	10:28 a	-22.8	-22.7	-22.8	---	---	29.6	ESE	0.49	32.2	-39.7	---	---	724.7	0.029	0.000	17.4	93	1
03/16/17	10:29 a	-22.8	-22.8	-22.8	---	---	32.2	ESE	0.54	33.9	-40.2	---	---	724.6	0.029	0.000	17.4	93	1
03/16/17	10:30 a	-22.8	-22.8	-22.8	---	---	29.6	ESE	0.49	34.8	-39.7	---	---	725.0	0.029	0.000	17.4	93	1
03/16/17	10:31 a	-22.8	-22.7	-22.8	---	---	27.0	ESE	0.45	35.7	-39.1	---	---	724.4	0.029	0.000	17.4	92	1
03/16/17	10:32 a	-22.8	-22.8	-22.8	---	---	33.0	ESE	0.55	36.5	-40.3	---	---	724.8	0.029	0.000	17.4	93	1
03/16/17	10:33 a	-22.8	-22.8	-22.8	---	---	29.6	ESE	0.49	32.2	-39.7	---	---	724.8	0.029	0.000	17.4	92	1
03/16/17	10:34 a	-22.8	-22.8	-22.8	---	---	30.4	ESE	0.51	33.9	-39.8	---	---	724.8	0.029	0.000	17.4	92	1
03/16/17	10:35 a	-22.8	-22.8	-22.8	---	---	30.4	ESE	0.51	32.2	-39.8	---	---	724.8	0.029	0.000	17.4	93	1
03/16/17	10:36 a	-22.8	-22.8	-22.8	---	---	31.3	ESE	0.52	34.8	-40.0	---	---	724.6	0.029	0.000	17.4	92	1
03/16/17	10:37 a	-22.8	-22.8	-22.8	---	---	33.0	ESE	0.55	35.7	-40.4	---	---	724.8	0.029	0.000	17.4	92	1
03/16/17	10:38 a	-22.8	-22.8	-22.8	---	---	25.2	ESE	0.42	27.0	-38.8	---	---	724.7	0.029	0.000	17.4	93	1
03/16/17	10:39 a	-22.8	-22.8	-22.8	---	---	36.5	ESE	0.61	41.7	-41.1	---	---	724.6	0.029	0.000	17.4	93	1
03/16/17	10:40 a	-22.8	-22.8	-22.8	---	---	30.4	E	0.51	33.9	-39.9	---	---	724.9	0.029	0.000	17.4	93	1
03/16/17	10:41 a	-22.8	-22.8	-22.9	---	---	26.1	E	0.43	29.6	-38.9	---	---	725.0	0.029	0.000	17.4	92	1
03/16/17	10:42 a	-22.8	-22.8	-22.9	---	---	20.9	E	0.35	23.5	-37.6	---	---	725.1	0.029	0.000	17.4	93	1
03/16/17	10:43 a	-22.9	-22.8	-22.9	---	---	25.2	ESE	0.42	36.5	-38.8	---	---	724.6	0.029	0.000	17.4	92	1
03/16/17	10:44 a	-22.9	-22.9	-22.9	---	---	31.3	E	0.52	35.7	-40.2	---	---	725.0	0.029	0.000	17.4	93	1
03/16/17	10:45 a	-22.9	-22.8	-22.9	---	---	21.7	E	0.36	29.6	-37.9	---	---	725.1	0.029	0.000	17.4	92	1
03/16/17	10:46 a	-22.9	-22.9	-22.9	---	---	29.6	E	0.49	34.8	-39.8	---	---	724.8	0.029	0.000	17.4	92	1
03/16/17	10:47 a	-22.9	-22.9	-22.9	---	---	27.0	E	0.45	27.8	-39.2	---	---	724.9	0.029	0.000	17.4	93	1
03/16/17	10:48 a	-22.9	-22.9	-22.9	---	---	29.6	ESE	0.49	33.0	-39.8	---	---	724.6	0.029	0.000	17.4	92	1
03/16/17	10:49 a	-22.9	-22.9	-22.9	---	---	30.4	ESE	0.51	39.1	-40.1	---	---	724.6	0.029	0.000	17.4	93	1
03/16/17	10:50 a	-22.9	-22.9	-22.9	---	---	32.2	ESE	0.54	36.5	-40.4	---	---	724.7	0.029	0.000	17.4	93	1
03/16/17	10:51 a	-22.9	-22.9	-22.9	---	---	27.0	ESE	0.45	30.4	-39.3	---	---	724.9	0.029	0.000	17.4	92	1
03/16/17	10:52 a	-22.9	-22.9	-22.9	---	---	31.3	ESE	0.52	35.7	-40.2	---	---	724.6	0.029	0.000	17.4	92	1
03/16/17	10:53 a	-22.9	-22.9	-22.9	---	---	32.2	ESE	0.54	33.9	-40.4	---	---	724.7	0.029	0.000	17.4	93	1
03/16/17	10:54 a	-22.9	-22.9	-23.0	---	---	27.8	ESE	0.46	30.4	-39.5	---	---	724.9	0.029	0.000	17.4	93	1
03/16/17	10:55 a	-22.9	-22.9	-23.0	---	---	28.7	ESE	0.48	33.9	-39.7	---	---	724.6	0.029	0.000	17.4	93	1
03/16/17	10:56 a	-23.0	-23.0	-23.0	---	---	31.3	ESE	0.52	33.9	-40.3	---	---	724.6	0.029	0.000	17.4	93	1
03/16/17	10:57 a	-23.0	-22.9	-23.0	---	---	30.4	E	0.51	33.0	-40.1	---	---	724.8	0.029	0.000	17.4	93	1
03/16/17	10:58 a	-23.0	-23.0	-23.1	---	---	30.4	E	0.51	33.9	-40.1	---	---	724.6	0.029	0.000	17.4	93	1
03/16/17	10:59 a	-23.0	-23.0	-23.0	---	---	31.3	ESE	0.52	33.9	-40.3	---	---	724.7	0.029	0.000	17.4	92	1
03/16/17	11:00 a	-23.0	-23.0	-23.1	---	---	27.8	ESE	0.46	33.0	-39.6	---	---	724.7	0.029	0.000	17.4	92	1
03/16/17	11:01 a	-23.1	-23.0	-23.1	---	---	29.6	E	0.49	33.9	-40.1	---	---	724.9	0.029	0.000	17.4	93	1
03/16/17	11:02 a	-23.1	-23.0	-23.1	---	---	25.2	E	0.42	28.7	-39.1	---	---	724.8	0.029	0.000	17.4	92	1
03/16/17	11:03 a	-23.1	-23.0	-23.1	---	---	31.3	ESE	0.52	33.9	-40.4	---	---	724.5	0.029	0.000	17.4	92	1
03/16/17	11:04 a	-23.1	-23.1	-23.1	---	---	33.9	ESE	0.57	39.1	-40.9	---	---	724.8	0.029	0.000	17.4	93	1
03/16/17	11:05 a	-23.1	-23.1	-23.1	---	---	29.6	ESE	0.49	30.4	-40.1	---	---	724.8	0.029	0.000	17.4	92	1
03/16/17	11:06 a	-23.1	-23.1	-23.1	---	---	27.0	E	0.45	30.4	-39.4	---	---	724.8	0.029	0.000	17.4	92	1
03/16/17	11:07 a	-23.1	-23.1	-23.1	---	---	31.3	E	0.52	34.8	-40.4	---	---	724.7	0.029	0.000	17.4	92	1
03/16/17	11:08 a	-23.1	-23.1	-23.1	---	---	30.4	E	0.51	31.3	-40.3	---	---	724.8	0.029	0.000	17.4	93	1
03/16/17	11:09 a	-23.1	-23.1	-23.1	---	---	22.6	E	0.38	29.6	-38.4	---	---	725.0	0.029	0.000	17.4	92	1
03/16/17	11:10 a	-23.1	-23.1	-23.1	---	---	28.7	ESE	0.48	37.4	-39.9	---	---	724.6	0.029	0.000	17.4	92	1
03/16/17	11:11 a	-23.1	-23.1	-23.1	---	---	33.0	E	0.55	34.8	-40.8	---	---	724.7	0.029	0.000	17.4	92	1
03/16/17	11:12 a	-23.2	-23.1	-23.2	---	---	28.7	E	0.48	32.2	-40.0	---	---	725.0	0.029	0.000	17.4	92	1
03/16/17	11:13 a	-23.2	-23.1	-23.2	---	---	23.5	E	0.39	28.7	-38.8	---	---	724.9	0.029	0.000	17.4	92	1
03/16/17	11:14 a	-23.1	-23.1	-23.2	---	---	27.8	E	0.46	31.3	-39.7	---	---	724.8	0.029	0.000	17.4	93	1
03/16/17	11:15 a	-23.2	-23.1	-23.2	---	---	29.6	E	0.49	32.2	-40.2	---	---	724.8	0.029	0.000	17.4	93	1
03/16/17	11:16 a	-23.2	-23.2	-23.2	---	---	27.0	E	0.45	30.4	-39.6	---	---	725.0	0.029	0.000	17.4	93	1
03/16/17	11:17 a	-23.2	-23.2	-23.2	---	---	28.7	E	0.48	34.8	-40.0	---	---	724.5	0.029	0.000	17.4	93	1
03/16/17	11:18 a	-23.2	-23.2	-23.2	---	---	29.6	ESE	0.49	34.8	-40.2	---	---	724.8	0.029	0.000	17.4	92	1
03/16/17	11:19 a	-23.2	-23.2	-23.2	---	---	30.4	E	0.51	33.0	-40.4	---	---	724.8	0.029	0.000	17.4	92	1
03/16/17	11:20 a	-23.2	-23.2	-23.2	---	---	28.7	E	0.48	31.3	-40.0	---	---	724.8	0.029	0.000	17.4	93	1
03/16/17	11:21 a	-23.2	-23.2	-23.2	---	---	29.6	E	0.49	31.3	-40.2	---	---	724.7	0.029	0.000	17.4	92	1
03/16/17	11:22 a	-23.2	-23.2	-23.2	---	---	30.4	E	0.51	33.0	-40.4	---	---	724.7	0.029	0.000	17.4	93	1
03/16/17	11:23 a	-23.2	-23.2	-23.2	---	---	28.7	E	0.48	33.9	-40.0	---	---	725.0	0.029	0.000	17.4	92	1
03/16/17	11:24 a	-23.2	-23.2	-23.2	---	---	26.1	E	0.43	32.2	-39.5	---	---	724.7	0.029	0.000	17.4	93	1
03/16/17	11:25 a	-23.2	-23.2	-23.2	---	---	33.9	ESE	0.57	35.7	-41.1	---	---	724.9	0.029	0.000	17.4	93	1
03/16/17	11:26 a	-23.2	-23.2	-23.2	---	---	26.1	E	0.43	28.7	-39.5	---	---	724.8	0.029	0.000	17.4	92	1
03/16/17	11:27 a	-23.2	-23.2	-23.3	---	---	33.0	ESE	0.55	40.0	-40.9	---	---	724.4	0.029	0.000	17.4	92	1
03/16/17	11:28 a	-23.2	-23.2	-23.3	---	---	29.6	E	0.49	33.9	-40.3	---	---	724.9	0.029	0.000	17.4	92	1
03/16/17	11:29 a	-23.2	-23.2	-23.3	---	---	23.5	E	0.39	27.0	-38.8	---	---	725.1	0.029	0.000	17.4	92	1
03/16/17	11:30 a	-23.3	-23.2	-23.3	---	---	22.6	E	0.38	26.1	-38.7	---	---	724.8	0.029	0.000	17.4	92	1
03/16/17	11:31 a	-23.3	-23.2	-23.3	---	---	35.7	ESE	0.59	38.3	-41.5	---	---	724.7	0.029	0.000	17.4	92	1
03/16/17	11:32 a	-23.3	-23.2	-23.3	---	---	28.7	ESE	0.48	31.3	-40.2	---	---	724.9	0.029	0.000	17.4	92	1
03/16/17	11:33 a	-23.3	-23.3	-23.3	---	---	28.7	ESE	0.48	34.8	-40.2	---	---	724.5	0.029	0.000	17.4	92	1
03/16/17	11:34 a	-23.3	-23.3	-23.3	---	---	29.6	E	0.49	35.7	-40.3	---	---	724.8	0.029	0.000	17.4	92	1
03/16/17	11:35 a	-23.3	-23.3	-23.3	---	---	28.7	ESE	0.48	34.8	-40.2	---	---	724.6	0.029	0.000	17.4	92	1
03/16/17	11:36 a	-23.3	-23.3	-23.3	---	---	34.8	ESE	0.58	37.4	-41.4	---	---	724.5	0.029	0.000	17.4	92	1
03/16/17	11:37 a	-23.3	-23.3	-23.3	---	---	27.0	E	0.45	34.8	-39.8	---	---	724.7	0.029	0.000	17.4	92	1
03/16/17	11:38 a	-23.3	-23.3	-23.3	---	---	33.9	E	0.57	36.5	-41.3	---	---	724.7	0.029	0.000	17.4	92	1
03/16/17	11:39 a	-23.3	-23.3	-23.3	---	---	20.9	E	0.35	29.6	-38.2	---	---	725.1	0.029	0.000	17.4	92	1
03/16/17	11:40 a	-23.3	-23.3	-23.3	---	---	27.0	E	0.45	36.5	-39.8	---	---	724.6	0.029	0.000	17.4	91	1
03/16/17	11:41 a	-23.3	-23.3	-23.3	---	---	30.4	E	0.51	33.0	-40.6	---	---	725.0	0.029	0.000	17.4	91	1
03/16/17	11:42 a	-23.3	-23.3	-23.3	---	---	21.7	E	0.36	26.1	-38.6	---	---	725.0	0.029	0.000	17.4	91	1
03/16/17	11:43 a	-23.3	-23.3	-23.3	---	---	27.8	ESE	0.46	33.0	-40.1	---	---	724.7	0.029	0.000	17.4	91	1
03/16/17	11:44 a	-23.3	-23.3	-23.3	---	---	29.6	E	0.49	33.0	-40.4	---	---	724.5	0.029	0.000	17.4	92	1
03/16/17	11:45 a	-23.3	-23.3	-23.3	---	---	30.4	E	0.51	33.9	-40.6	---	---	724.6	0.029	0.000	17.4	92	1
03/16/17	11:46 a	-23.3	-23.3	-23.4	---	---	29.6	E	0.49	33.0	-40.4	---	---	724.6	0.029	0.000	17.4	92	1
03/16/17	11:47 a	-23.3	-23.3	-23.4	---	---	29.6	E	0.49	33.9	-40.4	---	---	724.8	0.029	0.000	17.4	92	1
03/16/17	11:48 a	-23.4	-23.3	-23.4	---	---	27.8	E	0.46	33.9	-40.1	---	---	724.4	0.029	0.000	17.4	92	1
03/16/17	11:49 a	-23.4	-23.3	-23.4	---	---	33.9	ESE	0.57	35.7	-41.3	---	---	724.5	0.029	0.000	17.4	92	1
03/16/17	11:50 a	-23.4	-23.3	-23.4	---	---	29.6	E	0.49	33.9	-40.5	---	---	724.8	0.029	0.000	17.4	92	1
03/16/17	11:51 a	-23.4	-23.4	-23.4	---	---	25.2	E	0.42	31.3	-39.5	---	---	724.4	0.029	0.000	17.3	92	1
03/16/17	11:52 a	-23.4	-23.4	-23.4	---	---	33.0	ESE	0.55	36.5	-41.2	---	---	724.4	0.029	0.000	17.4	92	1
03/16/17	11:53 a	-23.4	-23.4	-23.4	---	---	31.3	E	0.52	34.8	-40.8	---	---	724.6	0.029	0.000	17.4	92	1
03/16/17	11:54 a	-23.4	-23.4	-23.4	---	---	27.8	E	0.46	30.4	-40.1	---	---	724.6	0.029	0.000	17.4	92	1
03/16/17	11:55 a	-23.4	-23.4	-23.4	---	---	28.7	E	0.48	34.8	-40.3	---	---	724.3	0.029	0.000	17.4	93	1
03/16/17	11:56 a	-23.4	-23.4	-23.4	---	---	32.2	ESE	0.54	33.9	-41.0	---	---	724.4	0.029	0.000	17.4	93	1
03/16/17	11:57 a	-23.4	-23.4	-23.4	---	---	31.3	E	0.52	34.8	-40.8	---	---	724.5	0.029	0.000	17.4	93	1
03/16/17	11:58 a	-23.4	-23.4	-23.4	---	---	31.3	E	0.52	33.9	-40.8	---	---	724.4	0.029	0.000	17.4	93	1
03/16/17	11:59 a	-23.4	-23.4	-23.4	---	---	28.7	E	0.48	30.4	-40.4	---	---	724.6	0.029	0.000	17.4	93	1
03/16/17	12:00 p	-23.4	-23.4	-23.4	---	---	29.6	E	0.49	32.2	-40.6	---	---	724.6	0.029	0.000	17.4	93	1
03/16/17	12:01 p	-23.4	-23.4	-23.4	---	---	28.7	E	0.48	34.8	-40.4	---	---	724.4	0.029	0.000	17.4	92	1
03/16/17	12:02 p	-23.4	-23.4	-23.4	---	---	33.0	ESE	0.55	34.8	-41.3	---	---	724.4	0.029	0.000	17.4	92	1
03/16/17	12:03 p	-23.4	-23.4	-23.4	---	---	33.0	E	0.55	36.5	-41.3	---	---	724.3	0.029	0.000	17.4	92	1
03/16/17	12:04 p	-23.4	-23.4	-23.4	---	---	30.4	E	0.51	33.0	-40.7	---	---	724.6	0.029	0.000	17.4	93	1
03/16/17	12:05 p	-23.4	-23.4	-23.4	---	---	30.4	E	0.51	34.8	-40.7	---	---	724.3	0.029	0.000	17.4	93	1
03/16/17	12:06 p	-23.4	-23.4	-23.5	---	---	33.0	E	0.55	35.7	-41.3	---	---	724.5	0.029	0.000	17.4	92	1
03/16/17	12:07 p	-23.4	-23.4	-23.5	---	---	28.7	E	0.48	30.4	-40.4	---	---	724.5	0.029	0.000	17.4	92	1
03/16/17	12:08 p	-23.4	-23.4	-23.4	---	---	29.6	E	0.49	33.9	-40.6	---	---	724.3	0.029	0.000	17.4	93	1
03/16/17	12:09 p	-23.4	-23.4	-23.4	---	---	32.2	E	0.54	35.7	-41.1	---	---	724.5	0.029	0.000	17.4	92	1
03/16/17	12:10 p	-23.4	-23.4	-23.5	---	---	29.6	E	0.49	31.3	-40.6	---	---	724.5	0.029	0.000	17.3	92	1
03/16/17	12:11 p	-23.4	-23.4	-23.5	---	---	30.4	E	0.51	35.7	-40.7	---	---	724.5	0.029	0.000	17.4	92	1
03/16/17	12:12 p	-23.5	-23.4	-23.5	---	---	30.4	E	0.51	32.2	-40.8	---	---	724.6	0.029	0.000	17.4	92	1
03/16/17	12:13 p	-23.5	-23.4	-23.5	---	---	29.6	E	0.49	33.0	-40.7	---	---	724.6	0.029	0.000	17.4	92	1
03/16/17	12:14 p	-23.5	-23.4	-23.5	---	---	27.0	E	0.45	31.3	-40.1	---	---	724.5	0.029	0.000	17.4	92	1
03/16/17	12:15 p	-23.5	-23.4	-23.5	---	---	30.4	E	0.51	36.5	-40.8	---	---	724.4	0.029	0.000	17.4	92	1
03/16/17	12:16 p	-23.5	-23.4	-23.5	---	---	33.9	E	0.57	36.5	-41.5	---	---	724.4	0.029	0.000	17.4	93	1
03/16/17	12:17 p	-23.5	-23.4	-23.5	---	---	25.2	E	0.42	34.8	-39.7	---	---	724.6	0.029	0.000	17.4	92	1
03/16/17	12:18 p	-23.5	-23.4	-23.5	---	---	34.8	ESE	0.58	40.0	-41.7	---	---	724.2	0.029	0.000	17.4	92	1
03/16/17	12:19 p	-23.5	-23.4	-23.5	---	---	35.7	ESE	0.59	38.3	-41.8	---	---	724.4	0.029	0.000	17.4	92	1
03/16/17	12:20 p	-23.5	-23.5	-23.5	---	---	34.8	E	0.58	40.0	-41.7	---	---	724.7	0.029	0.000	17.4	93	1
03/16/17	12:21 p	-23.5	-23.5	-23.5	---	---	23.5	E	0.39	28.7	-39.2	---	---	725.0	0.029	0.000	17.4	93	1
03/16/17	12:22 p	-23.5	-23.4	-23.5	---	---	21.7	E	0.36	32.2	-38.8	---	---	724.5	0.029	0.000	17.4	92	1
03/16/17	12:23 p	-23.5	-23.5	-23.5	---	---	29.6	E	0.49	33.9	-40.7	---	---	724.7	0.029	0.000	17.4	92	1
03/16/17	12:24 p	-23.5	-23.5	-23.5	---	---	27.8	E	0.46	31.3	-40.3	---	---	724.5	0.029	0.000	17.4	92	1
03/16/17	12:25 p	-23.5	-23.4	-23.5	---	---	32.2	E	0.54	34.8	-41.2	---	---	724.5	0.029	0.000	17.3	92	1
03/16/17	12:26 p	-23.5	-23.5	-23.5	---	---	26.1	E	0.43	27.8	-39.9	---	---	724.8	0.029	0.000	17.4	93	1
03/16/17	12:27 p	-23.5	-23.5	-23.5	---	---	24.3	E	0.41	28.7	-39.4	---	---	724.6	0.029	0.000	17.4	93	1
03/16/17	12:28 p	-23.5	-23.5	-23.5	---	---	28.7	E	0.48	30.4	-40.4	---	---	724.6	0.029	0.000	17.4	92	1
03/16/17	12:29 p	-23.5	-23.5	-23.5	---	---	29.6	E	0.49	32.2	-40.7	---	---	724.5	0.029	0.000	17.4	93	1
03/16/17	12:30 p	-23.5	-23.5	-23.5	---	---	30.4	ESE	0.51	32.2	-40.8	---	---	724.5	0.029	0.000	17.3	92	1
03/16/17	12:31 p	-23.5	-23.5	-23.5	---	---	29.6	E	0.49	31.3	-40.7	---	---	724.6	0.029	0.000	17.4	93	1
03/16/17	12:32 p	-23.5	-23.5	-23.5	---	---	27.8	E	0.46	30.4	-40.3	---	---	724.6	0.029	0.000	17.4	92	1
03/16/17	12:33 p	-23.5	-23.5	-23.5	---	---	27.0	E	0.45	30.4	-40.1	---	---	724.5	0.029	0.000	17.4	92	1
03/16/17	12:34 p	-23.5	-23.5	-23.6	---	---	27.8	E	0.46	32.2	-40.3	---	---	724.7	0.029	0.000	17.4	92	1
03/16/17	12:35 p	-23.5	-23.5	-23.5	---	---	26.1	E	0.43	32.2	-39.9	---	---	724.5	0.029	0.000	17.4	92	1
03/16/17	12:36 p	-23.5	-23.4	-23.5	---	---	27.8	E	0.46	33.0	-40.3	---	---	724.7	0.029	0.000	17.4	93	1
03/16/17	12:37 p	-23.5	-23.5	-23.5	---	---	30.4	E	0.51	33.9	-40.8	---	---	724.6	0.029	0.000	17.4	92	1
03/16/17	12:38 p	-23.5	-23.4	-23.5	---	---	27.0	E	0.45	28.7	-40.1	---	---	724.8	0.029	0.000	17.4	93	1
03/16/17	12:39 p	-23.4	-23.4	-23.4	---	---	27.0	E	0.45	28.7	-40.0	---	---	724.8	0.029	0.000	17.4	92	1
03/16/17	12:40 p	-23.4	-23.4	-23.5	---	---	25.2	E	0.42	27.0	-39.6	---	---	724.6	0.029	0.000	17.4	92	1
03/16/17	12:41 p	-23.4	-23.4	-23.4	---	---	28.7	E	0.48	32.2	-40.4	---	---	724.6	0.029	0.000	17.3	92	1
03/16/17	12:42 p	-23.4	-23.4	-23.4	---	---	24.3	E	0.41	28.7	-39.4	---	---	724.7	0.029	0.000	17.3	92	1
03/16/17	12:43 p	-23.4	-23.4	-23.4	---	---	27.0	E	0.45	29.6	-40.0	---	---	724.8	0.029	0.000	17.3	93	1
03/16/17	12:44 p	-23.4	-23.4	-23.4	---	---	26.1	E	0.43	32.2	-39.8	---	---	724.6	0.029	0.000	17.4	92	1
03/16/17	12:45 p	-23.4	-23.4	-23.4	---	---	30.4	E	0.51	35.7	-40.7	---	---	724.5	0.029	0.000	17.3	92	1
03/16/17	12:46 p	-23.4	-23.4	-23.4	---	---	27.8	E	0.46	33.0	-40.1	---	---	724.5	0.029	0.000	17.3	92	1
03/16/17	12:47 p	-23.4	-23.4	-23.4	---	---	28.7	E	0.48	33.9	-40.3	---	---	724.5	0.029	0.000	17.3	93	1
03/16/17	12:48 p	-23.4	-23.4	-23.4	---	---	29.6	E	0.49	31.3	-40.5	---	---	724.4	0.029	0.000	17.3	92	1
03/16/17	12:49 p	-23.4	-23.3	-23.4	---	---	30.4	E	0.51	32.2	-40.7	---	---	724.5	0.029	0.000	17.3	93	1
03/16/17	12:50 p	-23.4	-23.3	-23.4	---	---	28.7	E	0.48	32.2	-40.3	---	---	724.5	0.029	0.000	17.3	92	1
03/16/17	12:51 p	-23.3	-23.3	-23.4	---	---	29.6	E	0.49	33.0	-40.4	---	---	724.4	0.029	0.000	17.3	92	1
03/16/17	12:52 p	-23.3	-23.3	-23.4	---	---	30.4	E	0.51	32.2	-40.6	---	---	724.7	0.029	0.000	17.3	92	1
03/16/17	12:53 p	-23.3	-23.3	-23.4	---	---	24.3	E	0.41	28.7	-39.2	---	---	724.6	0.029	0.000	17.4	92	1
03/16/17	12:54 p	-23.3	-23.3	-23.3	---	---	29.6	E	0.49	33.9	-40.4	---	---	724.3	0.029	0.000	17.3	92	1
03/16/17	12:55 p	-23.3	-23.3	-23.3	---	---	33.9	E	0.57	38.3	-41.3	---	---	724.2	0.029	0.000	17.4	92	1
03/16/17	12:56 p	-23.3	-23.3	-23.3	---	---	33.0	ESE	0.55	35.7	-41.1	---	---	724.3	0.029	0.000	17.3	92	1
03/16/17	12:57 p	-23.3	-23.3	-23.3	---	---	30.4	ESE	0.51	33.9	-40.6	---	---	724.5	0.029	0.000	17.3	92	1
03/16/17	12:58 p	-23.3	-23.3	-23.3	---	---	29.6	E	0.49	33.9	-40.4	---	---	724.7	0.029	0.000	17.3	92	1
03/16/17	12:59 p	-23.3	-23.3	-23.3	---	---	28.7	E	0.48	30.4	-40.2	---	---	724.6	0.029	0.000	17.3	92	1
03/16/17	1:00 p	-23.3	-23.3	-23.3	---	---	27.8	E	0.46	30.4	-40.1	---	---	724.7	0.029	0.000	17.3	92	1
03/16/17	1:01 p	-23.3	-23.3	-23.3	---	---	26.1	E	0.43	29.6	-39.6	---	---	724.8	0.029	0.000	17.3	92	1
03/16/17	1:02 p	-23.3	-23.3	-23.3	---	---	27.8	E	0.46	33.9	-40.1	---	---	724.5	0.029	0.000	17.3	92	1
03/16/17	1:03 p	-23.3	-23.3	-23.3	---	---	28.7	E	0.48	33.0	-40.2	---	---	724.7	0.029	0.000	17.3	92	1
03/16/17	1:04 p	-23.3	-23.3	-23.3	---	---	27.8	E	0.46	32.2	-40.1	---	---	724.6	0.029	0.000	17.3	92	1
03/16/17	1:05 p	-23.3	-23.3	-23.3	---	---	27.8	E	0.46	31.3	-40.1	---	---	724.5	0.029	0.000	17.3	92	1
03/16/17	1:06 p	-23.3	-23.3	-23.3	---	---	28.7	E	0.48	32.2	-40.2	---	---	724.6	0.029	0.000	17.3	92	1
03/16/17	1:07 p	-23.3	-23.3	-23.3	---	---	30.4	E	0.51	32.2	-40.6	---	---	724.6	0.029	0.000	17.3	92	1
03/16/17	1:08 p	-23.3	-23.3	-23.3	---	---	28.7	E	0.48	31.3	-40.2	---	---	724.7	0.029	0.000	17.3	92	1
03/16/17	1:09 p	-23.3	-23.3	-23.4	---	---	28.7	E	0.48	31.3	-40.2	---	---	724.7	0.029	0.000	17.3	92	1
03/16/17	1:10 p	-23.3	-23.3	-23.4	---	---	27.0	E	0.45	29.6	-39.8	---	---	724.6	0.029	0.000	17.4	92	1
03/16/17	1:11 p	-23.4	-23.3	-23.4	---	---	29.6	E	0.49	33.0	-40.5	---	---	724.3	0.029	0.000	17.4	92	1
03/16/17	1:12 p	-23.4	-23.3	-23.4	---	---	30.4	E	0.51	33.0	-40.7	---	---	724.3	0.029	0.000	17.4	92	1
03/16/17	1:13 p	-23.4	-23.3	-23.4	---	---	33.0	ESE	0.55	36.5	-41.2	---	---	724.4	0.029	0.000	17.4	92	1
03/16/17	1:14 p	-23.4	-23.3	-23.4	---	---	29.6	E	0.49	31.3	-40.5	---	---	724.4	0.029	0.000	17.4	92	1
03/16/17	1:15 p	-23.4	-23.4	-23.4	---	---	31.3	E	0.52	33.0	-40.8	---	---	724.4	0.029	0.000	17.4	92	1
03/16/17	1:16 p	-23.4	-23.4	-23.4	---	---	28.7	E	0.48	33.0	-40.3	---	---	724.6	0.029	0.000	17.4	92	1
03/16/17	1:17 p	-23.4	-23.4	-23.4	---	---	31.3	E	0.52	33.9	-40.8	---	---	724.4	0.029	0.000	17.4	92	1
03/16/17	1:18 p	-23.4	-23.4	-23.4	---	---	29.6	E	0.49	33.0	-40.6	---	---	724.6	0.029	0.000	17.4	92	1
03/16/17	1:19 p	-23.4	-23.4	-23.4	---	---	27.8	E	0.46	32.2	-40.2	---	---	724.7	0.029	0.000	17.4	92	1
03/16/17	1:20 p	-23.4	-23.4	-23.4	---	---	26.1	E	0.43	28.7	-39.8	---	---	724.6	0.029	0.000	17.4	92	1
03/16/17	1:21 p	-23.4	-23.4	-23.4	---	---	27.0	E	0.45	30.4	-40.0	---	---	724.5	0.029	0.000	17.4	92	1
03/16/17	1:22 p	-23.4	-23.4	-23.5	---	---	26.1	E	0.43	30.4	-39.8	---	---	724.6	0.029	0.000	17.4	92	1
03/16/17	1:23 p	-23.5	-23.4	-23.5	---	---	29.6	E	0.49	31.3	-40.7	---	---	724.5	0.029	0.000	17.4	92	1
03/16/17	1:24 p	-23.5	-23.4	-23.5	---	---	32.2	E	0.54	33.9	-41.2	---	---	724.4	0.029	0.000	17.4	92	1
03/16/17	1:25 p	-23.5	-23.5	-23.5	---	---	30.4	E	0.51	33.0	-40.8	---	---	724.5	0.029	0.000	17.4	92	1
03/16/17	1:26 p	-23.5	-23.5	-23.5	---	---	26.1	E	0.43	28.7	-39.9	---	---	724.6	0.029	0.000	17.4	91	1
03/16/17	1:27 p	-23.6	-23.5	-23.6	---	---	28.7	E	0.48	30.4	-40.6	---	---	724.4	0.029	0.000	17.4	92	1
03/16/17	1:28 p	-23.6	-23.5	-23.6	---	---	28.7	E	0.48	31.3	-40.6	---	---	724.5	0.029	0.000	17.5	92	1
03/16/17	1:29 p	-23.6	-23.6	-23.6	---	---	30.4	E	0.51	31.3	-40.9	---	---	724.4	0.029	0.000	17.5	92	1
03/16/17	1:30 p	-23.6	-23.6	-23.6	---	---	30.4	E	0.51	33.9	-40.9	---	---	724.4	0.029	0.000	17.5	92	1
03/16/17	1:31 p	-23.6	-23.6	-23.6	---	---	28.7	E	0.48	32.2	-40.6	---	---	724.6	0.029	0.000	17.5	92	1
03/16/17	1:32 p	-23.6	-23.6	-23.6	---	---	25.2	E	0.42	28.7	-39.8	---	---	724.6	0.029	0.000	17.5	92	1
03/16/17	1:33 p	-23.6	-23.6	-23.6	---	---	29.6	E	0.49	33.0	-40.8	---	---	724.4	0.029	0.000	17.5	92	1
03/16/17	1:34 p	-23.6	-23.6	-23.6	---	---	30.4	E	0.51	35.7	-41.0	---	---	724.4	0.029	0.000	17.5	92	1
03/16/17	1:35 p	-23.6	-23.6	-23.7	---	---	27.8	E	0.46	31.3	-40.4	---	---	724.7	0.029	0.000	17.6	92	1
03/16/17	1:36 p	-23.7	-23.6	-23.7	---	---	25.2	E	0.42	27.0	-39.9	---	---	724.7	0.029	0.000	17.6	92	1
03/16/17	1:37 p	-23.7	-23.7	-23.7	---	---	31.3	E	0.52	34.8	-41.2	---	---	724.4	0.029	0.000	17.6	91	1
03/16/17	1:38 p	-23.7	-23.7	-23.7	---	---	27.0	E	0.45	33.9	-40.3	---	---	724.8	0.029	0.000	17.6	92	1
03/16/17	1:39 p	-23.7	-23.7	-23.7	---	---	27.0	E	0.45	29.6	-40.3	---	---	724.7	0.029	0.000	17.6	92	1
03/16/17	1:40 p	-23.7	-23.7	-23.7	---	---	26.1	E	0.43	28.7	-40.2	---	---	724.6	0.029	0.000	17.6	92	1
03/16/17	1:41 p	-23.7	-23.7	-23.7	---	---	28.7	E	0.48	30.4	-40.8	---	---	724.5	0.029	0.000	17.6	92	1
03/16/17	1:42 p	-23.7	-23.7	-23.8	---	---	30.4	E	0.51	33.0	-41.1	---	---	724.6	0.029	0.000	17.6	91	1
03/16/17	1:43 p	-23.7	-23.7	-23.8	---	---	26.1	E	0.43	29.6	-40.2	---	---	724.6	0.029	0.000	17.6	92	1
03/16/17	1:44 p	-23.8	-23.8	-23.8	---	---	27.8	E	0.46	31.3	-40.7	---	---	724.5	0.029	0.000	17.6	92	1
03/16/17	1:45 p	-23.8	-23.8	-23.8	---	---	29.6	E	0.49	31.3	-41.0	---	---	724.6	0.029	0.000	17.6	92	1
03/16/17	1:46 p	-23.8	-23.8	-23.8	---	---	29.6	E	0.49	32.2	-41.0	---	---	724.7	0.029	0.000	17.6	92	1
03/16/17	1:47 p	-23.8	-23.8	-23.8	---	---	27.0	E	0.45	30.4	-40.4	---	---	724.4	0.029	0.000	17.6	92	1
03/16/17	1:48 p	-23.8	-23.8	-23.8	---	---	31.3	E	0.52	33.9	-41.4	---	---	724.4	0.029	0.000	17.6	92	1
03/16/17	1:49 p	-23.8	-23.8	-23.8	---	---	27.8	E	0.46	31.3	-40.7	---	---	724.6	0.029	0.000	17.6	92	1
03/16/17	1:50 p	-23.8	-23.8	-23.9	---	---	27.0	E	0.45	29.6	-40.5	---	---	724.6	0.029	0.000	17.5	92	1
03/16/17	1:51 p	-23.8	-23.8	-23.8	---	---	27.0	E	0.45	30.4	-40.5	---	---	724.8	0.029	0.000	17.5	92	1
03/16/17	1:52 p	-23.8	-23.8	-23.9	---	---	24.3	E	0.41	26.1	-39.9	---	---	724.7	0.029	0.000	17.5	92	1
03/16/17	1:53 p	-23.9	-23.8	-23.9	---	---	27.0	E	0.45	29.6	-40.6	---	---	724.8	0.029	0.000	17.5	92	1
03/16/17	1:54 p	-23.9	-23.8	-23.9	---	---	26.1	E	0.43	28.7	-40.4	---	---	724.6	0.029	0.000	17.5	92	1
03/16/17	1:55 p	-23.9	-23.9	-23.9	---	---	27.0	E	0.45	29.6	-40.6	---	---	724.8	0.029	0.000	17.5	92	1
03/16/17	1:56 p	-23.9	-23.9	-23.9	---	---	21.7	E	0.36	25.2	-39.3	---	---	724.8	0.029	0.000	17.5	92	1
03/16/17	1:57 p	-23.9	-23.9	-23.9	---	---	22.6	E	0.38	25.2	-39.6	---	---	724.7	0.029	0.000	17.5	92	1
03/16/17	1:58 p	-23.9	-23.9	-23.9	---	---	25.2	E	0.42	28.7	-40.3	---	---	724.7	0.029	0.000	17.5	92	1
03/16/17	1:59 p	-23.9	-23.9	-23.9	---	---	26.1	E	0.43	28.7	-40.4	---	---	724.7	0.029	0.000	17.5	92	1
03/16/17	2:00 p	-23.9	-23.9	-23.9	---	---	24.3	E	0.41	27.8	-40.1	---	---	724.4	0.029	0.000	17.5	92	1
03/16/17	2:01 p	-23.9	-23.9	-23.9	---	---	27.0	E	0.45	28.7	-40.7	---	---	724.5	0.029	0.000	17.5	92	1
03/16/17	2:02 p	-23.9	-23.9	-23.9	---	---	27.0	E	0.45	28.7	-40.7	---	---	724.6	0.029	0.000	17.5	92	1
03/16/17	2:03 p	-23.9	-23.9	-24.0	---	---	25.2	E	0.42	27.8	-40.3	---	---	724.6	0.029	0.000	17.5	92	1
03/16/17	2:04 p	-23.9	-23.9	-24.0	---	---	26.1	E	0.43	31.3	-40.4	---	---	724.5	0.029	0.000	17.5	92	1
03/16/17	2:05 p	-24.0	-23.9	-24.0	---	---	31.3	E	0.52	33.0	-41.7	---	---	724.6	0.029	0.000	17.5	92	1
03/16/17	2:06 p	-24.0	-23.9	-24.0	---	---	26.1	E	0.43	29.6	-40.6	---	---	724.8	0.029	0.000	17.5	92	1
03/16/17	2:07 p	-24.0	-23.9	-24.1	---	---	23.5	E	0.39	27.8	-39.9	---	---	724.6	0.029	0.000	17.5	92	1
03/16/17	2:08 p	-24.0	-24.0	-24.0	---	---	25.2	E	0.42	27.8	-40.3	---	---	724.6	0.029	0.000	17.5	92	1
03/16/17	2:09 p	-24.0	-24.0	-24.1	---	---	24.3	E	0.41	27.0	-40.1	---	---	724.6	0.029	0.000	17.5	92	1
03/16/17	2:10 p	-24.0	-24.0	-24.1	---	---	26.1	E	0.43	27.8	-40.6	---	---	724.6	0.029	0.000	17.5	92	1
03/16/17	2:11 p	-24.0	-24.0	-24.1	---	---	25.2	E	0.42	28.7	-40.3	---	---	724.7	0.029	0.000	17.5	92	1
03/16/17	2:12 p	-24.1	-24.0	-24.1	---	---	24.3	E	0.41	27.0	-40.2	---	---	724.5	0.029	0.000	17.5	92	1
03/16/17	2:13 p	-24.1	-24.1	-24.1	---	---	25.2	E	0.42	27.0	-40.4	---	---	724.7	0.029	0.000	17.5	92	1
03/16/17	2:14 p	-24.1	-24.1	-24.1	---	---	26.1	E	0.43	28.7	-40.6	---	---	724.6	0.029	0.000	17.5	92	1
03/16/17	2:15 p	-24.1	-24.1	-24.1	---	---	26.1	E	0.43	28.7	-40.6	---	---	724.5	0.029	0.000	17.5	92	1
03/16/17	2:16 p	-24.1	-24.1	-24.1	---	---	26.1	E	0.43	29.6	-40.6	---	---	724.6	0.029	0.000	17.5	92	1
03/16/17	2:17 p	-24.1	-24.1	-24.1	---	---	24.3	E	0.41	29.6	-40.3	---	---	724.7	0.029	0.000	17.5	91	1
03/16/17	2:18 p	-24.1	-24.1	-24.1	---	---	23.5	E	0.39	27.8	-40.1	---	---	724.5	0.029	0.000	17.5	91	1
03/16/17	2:19 p	-24.1	-24.1	-24.1	---	---	25.2	E	0.42	27.8	-40.5	---	---	724.6	0.029	0.000	17.5	91	1
03/16/17	2:20 p	-24.1	-24.1	-24.2	---	---	25.2	E	0.42	27.0	-40.5	---	---	724.5	0.029	0.000	17.5	91	1
03/16/17	2:21 p	-24.2	-24.1	-24.2	---	---	27.0	E	0.45	29.6	-41.0	---	---	724.5	0.030	0.000	17.5	91	1
03/16/17	2:22 p	-24.2	-24.1	-24.2	---	---	25.2	E	0.42	27.0	-40.6	---	---	724.5	0.030	0.000	17.5	92	1
03/16/17	2:23 p	-24.2	-24.1	-24.2	---	---	24.3	E	0.41	27.8	-40.3	---	---	724.6	0.030	0.000	17.5	92	1
03/16/17	2:24 p	-24.2	-24.2	-24.2	---	---	27.8	E	0.46	31.3	-41.2	---	---	724.5	0.030	0.000	17.5	92	1
03/16/17	2:25 p	-24.2	-24.2	-24.2	---	---	25.2	E	0.42	28.7	-40.6	---	---	724.4	0.030	0.000	17.4	92	1
03/16/17	2:26 p	-24.2	-24.2	-24.2	---	---	28.7	E	0.48	30.4	-41.4	---	---	724.6	0.030	0.000	17.5	92	1
03/16/17	2:27 p	-24.2	-24.2	-24.2	---	---	25.2	E	0.42	27.0	-40.6	---	---	724.6	0.030	0.000	17.4	91	1
03/16/17	2:28 p	-24.2	-24.2	-24.2	---	---	25.2	E	0.42	28.7	-40.6	---	---	724.5	0.030	0.000	17.4	92	1
03/16/17	2:29 p	-24.2	-24.1	-24.2	---	---	29.6	E	0.49	31.3	-41.6	---	---	724.5	0.030	0.000	17.4	92	1
03/16/17	2:30 p	-24.2	-24.2	-24.2	---	---	26.1	E	0.43	29.6	-40.8	---	---	724.3	0.030	0.000	17.4	90	1
03/16/17	2:31 p	-24.2	-24.2	-24.2	---	---	27.8	E	0.46	28.7	-41.2	---	---	724.5	0.030	0.000	17.4	90	1
03/16/17	2:32 p	-24.2	-24.2	-24.2	---	---	26.1	E	0.43	27.8	-40.8	---	---	724.6	0.030	0.000	17.4	91	1
03/16/17	2:33 p	-24.2	-24.2	-24.2	---	---	27.0	E	0.45	29.6	-41.1	---	---	724.4	0.030	0.000	17.4	91	1
03/16/17	2:34 p	-24.2	-24.2	-24.2	---	---	27.0	E	0.45	28.7	-41.1	---	---	724.4	0.030	0.000	17.4	91	1
03/16/17	2:35 p	-24.2	-24.2	-24.2	---	---	28.7	E	0.48	30.4	-41.4	---	---	724.4	0.030	0.000	17.4	91	1
03/16/17	2:36 p	-24.2	-24.2	-24.2	---	---	27.0	E	0.45	28.7	-41.0	---	---	724.4	0.030	0.000	17.4	91	1
03/16/17	2:37 p	-24.2	-24.2	-24.2	---	---	27.8	E	0.46	30.4	-41.2	---	---	724.5	0.030	0.000	17.4	91	1
03/16/17	2:38 p	-24.2	-24.2	-24.2	---	---	26.1	E	0.43	27.8	-40.8	---	---	724.5	0.030	0.000	17.4	91	1
03/16/17	2:39 p	-24.2	-24.2	-24.2	---	---	23.5	E	0.39	26.1	-40.1	---	---	724.6	0.030	0.000	17.4	91	1
03/16/17	2:40 p	-24.2	-24.2	-24.2	---	---	24.3	E	0.41	27.0	-40.3	---	---	724.6	0.030	0.000	17.4	91	1
03/16/17	2:41 p	-24.2	-24.2	-24.2	---	---	25.2	E	0.42	27.0	-40.6	---	---	724.5	0.030	0.000	17.4	91	1
03/16/17	2:42 p	-24.2	-24.1	-24.2	---	---	27.0	E	0.45	29.6	-41.0	---	---	724.5	0.030	0.000	17.4	92	1
03/16/17	2:43 p	-24.2	-24.2	-24.2	---	---	27.8	E	0.46	29.6	-41.2	---	---	724.5	0.030	0.000	17.4	92	1
03/16/17	2:44 p	-24.2	-24.1	-24.2	---	---	27.0	E	0.45	28.7	-41.0	---	---	724.5	0.030	0.000	17.4	92	1
03/16/17	2:45 p	-24.2	-24.1	-24.2	---	---	29.6	E	0.49	31.3	-41.6	---	---	724.4	0.030	0.000	17.4	92	1
03/16/17	2:46 p	-24.2	-24.1	-24.2	---	---	28.7	E	0.48	30.4	-41.4	---	---	724.4	0.030	0.000	17.4	92	1
03/16/17	2:47 p	-24.2	-24.1	-24.2	---	---	27.0	E	0.45	30.4	-41.0	---	---	724.6	0.030	0.000	17.4	92	1
03/16/17	2:48 p	-24.2	-24.1	-24.2	---	---	26.1	E	0.43	28.7	-40.8	---	---	724.5	0.030	0.000	17.4	92	1
03/16/17	2:49 p	-24.1	-24.1	-24.2	---	---	26.1	E	0.43	27.8	-40.7	---	---	724.6	0.029	0.000	17.4	92	1
03/16/17	2:50 p	-24.1	-24.1	-24.2	---	---	27.8	E	0.46	30.4	-41.1	---	---	724.5	0.029	0.000	17.4	92	1
03/16/17	2:51 p	-24.1	-24.1	-24.1	---	---	28.7	E	0.48	31.3	-41.3	---	---	724.5	0.029	0.000	17.4	92	1
03/16/17	2:52 p	-24.1	-24.1	-24.2	---	---	24.3	E	0.41	26.1	-40.3	---	---	724.7	0.029	0.000	17.4	92	1
03/16/17	2:53 p	-24.1	-24.1	-24.1	---	---	24.3	E	0.41	27.0	-40.3	---	---	724.5	0.029	0.000	17.4	92	1
03/16/17	2:54 p	-24.1	-24.1	-24.1	---	---	27.0	E	0.45	29.6	-40.9	---	---	724.5	0.029	0.000	17.4	92	1
03/16/17	2:55 p	-24.1	-24.1	-24.1	---	---	27.0	E	0.45	29.6	-40.9	---	---	724.5	0.029	0.000	17.4	92	1
03/16/17	2:56 p	-24.1	-24.1	-24.1	---	---	27.8	E	0.46	31.3	-41.1	---	---	724.5	0.029	0.000	17.4	92	1
03/16/17	2:57 p	-24.1	-24.1	-24.1	---	---	27.8	E	0.46	31.3	-41.1	---	---	724.4	0.029	0.000	17.4	92	1
03/16/17	2:58 p	-24.1	-24.1	-24.1	---	---	27.0	E	0.45	29.6	-40.8	---	---	724.6	0.029	0.000	17.4	92	1
03/16/17	2:59 p	-24.1	-24.1	-24.1	---	---	26.1	E	0.43	30.4	-40.6	---	---	724.4	0.029	0.000	17.4	92	1
03/16/17	3:00 p	-24.1	-24.1	-24.1	---	---	28.7	E	0.48	32.2	-41.2	---	---	724.5	0.029	0.000	17.4	92	1
03/16/17	3:01 p	-24.1	-24.1	-24.1	---	---	27.8	E	0.46	29.6	-41.1	---	---	724.5	0.029	0.000	17.4	92	1
03/16/17	3:02 p	-24.1	-24.1	-24.1	---	---	27.0	E	0.45	29.6	-40.8	---	---	724.7	0.029	0.000	17.4	92	1
03/16/17	3:03 p	-24.1	-24.1	-24.1	---	---	19.1	E	0.32	21.7	-38.7	---	---	724.7	0.029	0.000	17.4	92	1
03/16/17	3:04 p	-24.1	-24.1	-24.1	---	---	24.3	E	0.41	28.7	-40.2	---	---	724.5	0.029	0.000	17.4	92	1
03/16/17	3:05 p	-24.1	-24.1	-24.1	---	---	27.0	E	0.45	30.4	-40.9	---	---	724.5	0.029	0.000	17.4	92	1
03/16/17	3:06 p	-24.1	-24.1	-24.1	---	---	27.8	E	0.46	30.4	-41.0	---	---	724.6	0.029	0.000	17.4	92	1
03/16/17	3:07 p	-24.1	-24.1	-24.1	---	---	25.2	E	0.42	27.0	-40.4	---	---	724.5	0.029	0.000	17.4	92	1
03/16/17	3:08 p	-24.1	-24.1	-24.1	---	---	26.1	E	0.43	27.8	-40.7	---	---	724.5	0.029	0.000	17.4	92	1
03/16/17	3:09 p	-24.1	-24.1	-24.1	---	---	27.0	E	0.45	30.4	-40.9	---	---	724.3	0.029	0.000	17.4	92	1
03/16/17	3:10 p	-24.1	-24.1	-24.1	---	---	27.0	E	0.45	29.6	-40.9	---	---	724.4	0.029	0.000	17.4	92	1
03/16/17	3:11 p	-24.1	-24.1	-24.1	---	---	30.4	E	0.51	33.0	-41.7	---	---	724.3	0.029	0.000	17.4	92	1
03/16/17	3:12 p	-24.1	-24.1	-24.1	---	---	28.7	E	0.48	30.4	-41.3	---	---	724.5	0.029	0.000	17.4	92	1
03/16/17	3:13 p	-24.1	-24.1	-24.1	---	---	27.0	E	0.45	30.4	-40.9	---	---	724.7	0.029	0.000	17.4	92	1
03/16/17	3:14 p	-24.1	-24.1	-24.1	---	---	22.6	E	0.38	25.2	-39.8	---	---	724.7	0.029	0.000	17.4	92	1
03/16/17	3:15 p	-24.1	-24.1	-24.1	---	---	23.5	E	0.39	30.4	-40.1	---	---	724.3	0.029	0.000	17.4	92	1
03/16/17	3:16 p	-24.1	-24.1	-24.1	---	---	32.2	E	0.54	33.0	-42.0	---	---	724.3	0.029	0.000	17.4	92	1
03/16/17	3:17 p	-24.1	-24.1	-24.2	---	---	25.2	E	0.42	29.6	-40.5	---	---	724.7	0.029	0.000	17.4	92	1
03/16/17	3:18 p	-24.1	-24.1	-24.1	---	---	24.3	E	0.41	28.7	-40.3	---	---	724.5	0.029	0.000	17.4	92	1
03/16/17	3:19 p	-24.1	-24.1	-24.1	---	---	27.0	E	0.45	29.6	-40.9	---	---	724.5	0.029	0.000	17.4	92	1
03/16/17	3:20 p	-24.1	-24.1	-24.2	---	---	26.1	E	0.43	28.7	-40.7	---	---	724.4	0.029	0.000	17.4	92	1
03/16/17	3:21 p	-24.2	-24.1	-24.2	---	---	27.8	E	0.46	29.6	-41.2	---	---	724.4	0.030	0.000	17.4	92	1
03/16/17	3:22 p	-24.2	-24.1	-24.2	---	---	27.0	E	0.45	29.6	-41.0	---	---	724.4	0.030	0.000	17.4	92	1
03/16/17	3:23 p	-24.2	-24.1	-24.2	---	---	26.1	E	0.43	28.7	-40.8	---	---	724.5	0.030	0.000	17.4	91	1
03/16/17	3:24 p	-24.2	-24.1	-24.2	---	---	28.7	E	0.48	32.2	-41.4	---	---	724.4	0.030	0.000	17.4	91	1
03/16/17	3:25 p	-24.2	-24.1	-24.2	---	---	28.7	E	0.48	31.3	-41.4	---	---	724.4	0.030	0.000	17.4	92	1
03/16/17	3:26 p	-24.2	-24.2	-24.2	---	---	27.0	E	0.45	29.6	-41.0	---	---	724.3	0.030	0.000	17.4	91	1
03/16/17	3:27 p	-24.2	-24.2	-24.2	---	---	28.7	E	0.48	32.2	-41.4	---	---	724.3	0.030	0.000	17.4	91	1
03/16/17	3:28 p	-24.2	-24.2	-24.2	---	---	27.0	E	0.45	29.6	-41.0	---	---	724.4	0.030	0.000	17.4	91	1
03/16/17	3:29 p	-24.2	-24.2	-24.2	---	---	27.0	E	0.45	30.4	-41.0	---	---	724.3	0.030	0.000	17.4	91	1
03/16/17	3:30 p	-24.2	-24.2	-24.2	---	---	27.8	E	0.46	29.6	-41.2	---	---	724.4	0.030	0.000	17.4	91	1
03/16/17	3:31 p	-24.2	-24.2	-24.2	---	---	28.7	E	0.48	32.2	-41.4	---	---	724.3	0.030	0.000	17.4	91	1
03/16/17	3:32 p	-24.2	-24.2	-24.2	---	---	27.8	E	0.46	29.6	-41.2	---	---	724.5	0.030	0.000	17.4	91	1
03/16/17	3:33 p	-24.2	-24.2	-24.2	---	---	27.0	E	0.45	28.7	-41.0	---	---	724.4	0.030	0.000	17.4	91	1
03/16/17	3:34 p	-24.2	-24.2	-24.2	---	---	24.3	E	0.41	27.8	-40.4	---	---	724.3	0.030	0.000	17.4	91	1
03/16/17	3:35 p	-24.2	-24.2	-24.2	---	---	24.3	E	0.41	28.7	-40.4	---	---	724.3	0.030	0.000	17.4	91	1
03/16/17	3:36 p	-24.2	-24.2	-24.2	---	---	27.0	E	0.45	28.7	-41.1	---	---	724.4	0.030	0.000	17.4	92	1
03/16/17	3:37 p	-24.2	-24.2	-24.2	---	---	25.2	E	0.42	29.6	-40.6	---	---	724.3	0.030	0.000	17.4	91	1
03/16/17	3:38 p	-24.2	-24.2	-24.2	---	---	27.8	E	0.46	32.2	-41.2	---	---	724.3	0.030	0.000	17.4	92	1
03/16/17	3:39 p	-24.2	-24.2	-24.2	---	---	28.7	E	0.48	31.3	-41.4	---	---	724.2	0.030	0.000	17.4	92	1
03/16/17	3:40 p	-24.2	-24.2	-24.2	---	---	28.7	E	0.48	32.2	-41.4	---	---	724.2	0.030	0.000	17.4	92	1
03/16/17	3:41 p	-24.2	-24.2	-24.2	---	---	26.1	E	0.43	31.3	-40.8	---	---	724.4	0.030	0.000	17.4	92	1
03/16/17	3:42 p	-24.2	-24.2	-24.2	---	---	28.7	E	0.48	31.3	-41.4	---	---	724.1	0.030	0.000	17.3	92	1
03/16/17	3:43 p	-24.2	-24.2	-24.2	---	---	28.7	E	0.48	32.2	-41.4	---	---	724.2	0.030	0.000	17.4	92	1
03/16/17	3:44 p	-24.2	-24.2	-24.2	---	---	27.8	E	0.46	29.6	-41.2	---	---	724.3	0.030	0.000	17.4	92	1
03/16/17	3:45 p	-24.2	-24.2	-24.2	---	---	24.3	E	0.41	26.1	-40.4	---	---	724.4	0.030	0.000	17.4	92	1
03/16/17	3:46 p	-24.2	-24.2	-24.2	---	---	25.2	E	0.42	27.0	-40.6	---	---	724.2	0.030	0.000	17.4	92	1
03/16/17	3:47 p	-24.2	-24.2	-24.3	---	---	27.0	E	0.45	29.6	-41.1	---	---	724.2	0.030	0.000	17.4	92	1
03/16/17	3:48 p	-24.2	-24.2	-24.2	---	---	27.8	E	0.46	29.6	-41.2	---	---	724.3	0.030	0.000	17.4	92	1
03/16/17	3:49 p	-24.2	-24.2	-24.2	---	---	27.0	E	0.45	27.8	-41.1	---	---	724.3	0.030	0.000	17.4	92	1
03/16/17	3:50 p	-24.2	-24.2	-24.2	---	---	27.0	ESE	0.45	31.3	-41.1	---	---	724.1	0.030	0.000	17.4	92	1
03/16/17	3:51 p	-24.2	-24.2	-24.2	---	---	27.8	ESE	0.46	31.3	-41.2	---	---	724.3	0.030	0.000	17.4	92	1
03/16/17	3:52 p	-24.2	-24.2	-24.2	---	---	24.3	E	0.41	27.0	-40.3	---	---	724.3	0.030	0.000	17.4	92	1
03/16/17	3:53 p	-24.2	-24.2	-24.2	---	---	22.6	E	0.38	25.2	-39.9	---	---	724.3	0.030	0.000	17.4	92	1
03/16/17	3:54 p	-24.2	-24.2	-24.2	---	---	25.2	E	0.42	26.1	-40.6	---	---	724.2	0.030	0.000	17.4	92	1
03/16/17	3:55 p	-24.2	-24.2	-24.2	---	---	26.1	E	0.43	29.6	-40.8	---	---	724.2	0.030	0.000	17.4	91	1
03/16/17	3:56 p	-24.2	-24.2	-24.2	---	---	26.1	E	0.43	27.8	-40.8	---	---	724.3	0.030	0.000	17.4	92	1
03/16/17	3:57 p	-24.2	-24.1	-24.2	---	---	26.1	E	0.43	27.8	-40.8	---	---	724.2	0.030	0.000	17.3	92	1
03/16/17	3:58 p	-24.2	-24.1	-24.2	---	---	25.2	E	0.42	27.0	-40.6	---	---	724.2	0.030	0.000	17.3	92	1
03/16/17	3:59 p	-24.2	-24.2	-24.2	---	---	25.2	E	0.42	27.0	-40.6	---	---	724.2	0.030	0.000	17.4	92	1
03/16/17	4:00 p	-24.2	-24.1	-24.2	---	---	26.1	E	0.43	27.8	-40.8	---	---	724.3	0.030	0.000	17.3	92	1
03/16/17	4:01 p	-24.1	-24.1	-24.1	---	---	22.6	E	0.38	24.3	-39.8	---	---	724.4	0.029	0.000	17.3	92	1
03/16/17	4:02 p	-24.1	-24.1	-24.1	---	---	25.2	E	0.42	32.2	-40.5	---	---	724.1	0.029	0.000	17.3	92	1
03/16/17	4:03 p	-24.1	-24.1	-24.1	---	---	22.6	E	0.38	28.7	-39.8	---	---	724.4	0.029	0.000	17.3	92	1
03/16/17	4:04 p	-24.1	-24.1	-24.1	---	---	25.2	E	0.42	27.8	-40.4	---	---	724.1	0.029	0.000	17.3	92	1
03/16/17	4:05 p	-24.1	-24.1	-24.1	---	---	26.1	E	0.43	28.7	-40.6	---	---	724.2	0.029	0.000	17.3	92	1
03/16/17	4:06 p	-24.1	-24.1	-24.1	---	---	24.3	E	0.41	33.0	-40.2	---	---	724.1	0.029	0.000	17.3	92	1
03/16/17	4:07 p	-24.1	-24.0	-24.1	---	---	30.4	E	0.51	34.8	-41.6	---	---	724.3	0.029	0.000	17.3	92	1
03/16/17	4:08 p	-24.1	-24.0	-24.1	---	---	21.7	E	0.36	24.3	-39.5	---	---	724.5	0.029	0.000	17.3	92	1
03/16/17	4:09 p	-24.0	-24.0	-24.0	---	---	22.6	E	0.38	27.0	-39.7	---	---	724.0	0.029	0.000	17.3	92	1
03/16/17	4:10 p	-24.0	-24.0	-24.0	---	---	28.7	ESE	0.48	31.3	-41.1	---	---	724.2	0.029	0.000	17.3	92	1
03/16/17	4:11 p	-24.0	-23.9	-24.0	---	---	27.8	ESE	0.46	33.9	-40.9	---	---	723.8	0.029	0.000	17.3	92	1
03/16/17	4:12 p	-23.9	-23.9	-23.9	---	---	31.3	ESE	0.52	34.8	-41.6	---	---	724.0	0.029	0.000	17.3	92	1
03/16/17	4:13 p	-23.9	-23.9	-23.9	---	---	27.8	E	0.46	33.9	-40.9	---	---	724.5	0.029	0.000	17.3	92	1
03/16/17	4:14 p	-23.9	-23.9	-23.9	---	---	18.3	E	0.30	22.6	-38.3	---	---	724.4	0.029	0.000	17.3	92	1
03/16/17	4:15 p	-23.9	-23.9	-24.0	---	---	23.5	ESE	0.39	33.9	-39.8	---	---	723.9	0.029	0.000	17.3	92	1
03/16/17	4:16 p	-23.9	-23.9	-23.9	---	---	32.2	ESE	0.54	33.9	-41.8	---	---	724.0	0.029	0.000	17.3	92	1
03/16/17	4:17 p	-23.9	-23.9	-23.9	---	---	29.6	ESE	0.49	33.0	-41.3	---	---	724.0	0.029	0.000	17.3	92	1
03/16/17	4:18 p	-23.9	-23.9	-23.9	---	---	27.8	E	0.46	33.0	-40.9	---	---	724.2	0.029	0.000	17.3	92	1
03/16/17	4:19 p	-23.9	-23.9	-23.9	---	---	22.6	E	0.38	25.2	-39.6	---	---	724.3	0.029	0.000	17.3	92	1
03/16/17	4:20 p	-23.9	-23.9	-23.9	---	---	22.6	E	0.38	26.1	-39.6	---	---	724.1	0.029	0.000	17.3	92	1
03/16/17	4:21 p	-23.9	-23.9	-23.9	---	---	29.6	ESE	0.49	33.0	-41.3	---	---	724.0	0.029	0.000	17.3	92	1
03/16/17	4:22 p	-23.9	-23.9	-24.0	---	---	28.7	E	0.48	30.4	-41.1	---	---	724.1	0.029	0.000	17.3	92	1
03/16/17	4:23 p	-23.9	-23.9	-23.9	---	---	27.0	E	0.45	29.6	-40.7	---	---	724.1	0.029	0.000	17.3	92	1
03/16/17	4:24 p	-23.9	-23.9	-24.0	---	---	27.8	E	0.46	31.3	-40.9	---	---	724.3	0.029	0.000	17.3	92	1
03/16/17	4:25 p	-23.9	-23.9	-24.0	---	---	22.6	E	0.38	27.0	-39.6	---	---	724.2	0.029	0.000	17.3	92	1
03/16/17	4:26 p	-24.0	-23.9	-24.0	---	---	26.1	E	0.43	28.7	-40.6	---	---	724.2	0.029	0.000	17.3	92	1
03/16/17	4:27 p	-24.0	-24.0	-24.1	---	---	27.0	E	0.45	30.4	-40.7	---	---	724.0	0.029	0.000	17.3	92	1
03/16/17	4:28 p	-24.0	-24.0	-24.1	---	---	27.0	E	0.45	30.4	-40.7	---	---	724.2	0.029	0.000	17.3	92	1
03/16/17	4:29 p	-24.1	-24.0	-24.1	---	---	27.0	E	0.45	30.4	-40.8	---	---	724.1	0.029	0.000	17.3	92	1
03/16/17	4:30 p	-24.1	-24.0	-24.1	---	---	23.5	E	0.39	27.8	-39.9	---	---	724.1	0.029	0.000	17.3	92	1
03/16/17	4:31 p	-24.1	-24.0	-24.1	---	---	28.7	E	0.48	32.2	-41.2	---	---	724.0	0.029	0.000	17.3	92	1
03/16/17	4:32 p	-24.1	-24.1	-24.1	---	---	29.6	E	0.49	33.0	-41.4	---	---	724.0	0.029	0.000	17.3	92	1
03/16/17	4:33 p	-24.1	-24.1	-24.1	---	---	25.2	E	0.42	30.4	-40.4	---	---	724.3	0.029	0.000	17.3	92	1
03/16/17	4:34 p	-24.1	-24.1	-24.1	---	---	24.3	E	0.41	26.1	-40.3	---	---	724.1	0.029	0.000	17.3	92	1
03/16/17	4:35 p	-24.1	-24.1	-24.2	---	---	27.8	E	0.46	33.9	-41.1	---	---	723.9	0.029	0.000	17.3	92	1
03/16/17	4:36 p	-24.2	-24.1	-24.2	---	---	29.6	E	0.49	31.3	-41.6	---	---	724.1	0.030	0.000	17.3	92	1
03/16/17	4:37 p	-24.2	-24.2	-24.2	---	---	27.8	E	0.46	29.6	-41.2	---	---	724.1	0.030	0.000	17.3	92	1
03/16/17	4:38 p	-24.2	-24.2	-24.2	---	---	25.2	E	0.42	27.8	-40.6	---	---	724.1	0.030	0.000	17.3	92	1
03/16/17	4:39 p	-24.2	-24.2	-24.2	---	---	27.0	E	0.45	31.3	-41.1	---	---	723.8	0.030	0.000	17.3	92	1
03/16/17	4:40 p	-24.2	-24.2	-24.2	---	---	30.4	ESE	0.51	33.0	-41.8	---	---	724.0	0.030	0.000	17.3	92	1
03/16/17	4:41 p	-24.2	-24.2	-24.3	---	---	27.8	E	0.46	30.4	-41.2	---	---	724.2	0.030	0.000	17.3	92	1
03/16/17	4:42 p	-24.3	-24.3	-24.3	---	---	22.6	E	0.38	25.2	-40.1	---	---	724.2	0.030	0.000	17.3	92	1
03/16/17	4:43 p	-24.3	-24.3	-24.3	---	---	22.6	E	0.38	27.8	-40.1	---	---	724.0	0.030	0.000	17.3	92	1
03/16/17	4:44 p	-24.3	-24.3	-24.3	---	---	29.6	ESE	0.49	32.2	-41.7	---	---	723.8	0.030	0.000	17.3	92	1
03/16/17	4:45 p	-24.3	-24.3	-24.3	---	---	27.8	ESE	0.46	33.0	-41.4	---	---	723.9	0.030	0.000	17.3	92	1
03/16/17	4:46 p	-24.3	-24.3	-24.4	---	---	29.6	ESE	0.49	32.2	-41.8	---	---	723.9	0.030	0.000	17.3	92	1
03/16/17	4:47 p	-24.4	-24.3	-24.4	---	---	28.7	ESE	0.48	32.2	-41.7	---	---	724.0	0.030	0.000	17.3	92	1
03/16/17	4:48 p	-24.4	-24.4	-24.4	---	---	26.1	ESE	0.43	29.6	-41.1	---	---	724.0	0.030	0.000	17.3	92	1
03/16/17	4:49 p	-24.4	-24.4	-24.4	---	---	31.3	ESE	0.52	35.7	-42.2	---	---	723.8	0.030	0.000	17.3	92	1
03/16/17	4:50 p	-24.4	-24.4	-24.4	---	---	27.8	ESE	0.46	29.6	-41.6	---	---	724.0	0.030	0.000	17.3	92	1
03/16/17	4:51 p	-24.4	-24.4	-24.5	---	---	25.2	E	0.42	28.7	-40.9	---	---	724.1	0.030	0.000	17.3	92	1
03/16/17	4:52 p	-24.4	-24.4	-24.5	---	---	27.8	E	0.46	30.4	-41.6	---	---	724.0	0.030	0.000	17.3	92	1
03/16/17	4:53 p	-24.5	-24.4	-24.5	---	---	25.2	E	0.42	27.8	-41.0	---	---	724.2	0.030	0.000	17.3	92	1
03/16/17	4:54 p	-24.5	-24.5	-24.5	---	---	25.2	E	0.42	27.0	-41.0	---	---	724.0	0.030	0.000	17.3	92	1
03/16/17	4:55 p	-24.5	-24.5	-24.6	---	---	25.2	E	0.42	27.8	-41.0	---	---	724.0	0.030	0.000	17.3	92	1
03/16/17	4:56 p	-24.5	-24.5	-24.6	---	---	27.0	E	0.45	31.3	-41.4	---	---	723.9	0.030	0.000	17.3	92	1
03/16/17	4:57 p	-24.6	-24.5	-24.6	---	---	27.0	ESE	0.45	30.4	-41.5	---	---	723.9	0.030	0.000	17.3	92	1
03/16/17	4:58 p	-24.6	-24.6	-24.6	---	---	27.0	ESE	0.45	30.4	-41.5	---	---	724.0	0.030	0.000	17.3	92	1
03/16/17	4:59 p	-24.6	-24.6	-24.6	---	---	28.7	ESE	0.48	30.4	-41.9	---	---	723.9	0.030	0.000	17.3	92	1
03/16/17	5:00 p	-24.6	-24.6	-24.6	---	---	27.0	ESE	0.45	30.4	-41.6	---	---	724.2	0.030	0.000	17.3	92	1
03/16/17	5:01 p	-24.6	-24.6	-24.6	---	---	23.5	E	0.39	26.1	-40.7	---	---	724.1	0.030	0.000	17.3	92	1
03/16/17	5:02 p	-24.6	-24.6	-24.6	---	---	24.3	E	0.41	26.1	-40.9	---	---	724.1	0.030	0.000	17.3	92	1
03/16/17	5:03 p	-24.6	-24.6	-24.7	---	---	27.0	ESE	0.45	30.4	-41.6	---	---	723.9	0.030	0.000	17.3	92	1
03/16/17	5:04 p	-24.6	-24.6	-24.7	---	---	26.1	E	0.43	28.7	-41.4	---	---	724.2	0.030	0.000	17.3	92	1
03/16/17	5:05 p	-24.6	-24.6	-24.7	---	---	22.6	E	0.38	25.2	-40.5	---	---	724.2	0.030	0.000	17.3	92	1
03/16/17	5:06 p	-24.7	-24.7	-24.7	---	---	24.3	E	0.41	27.8	-41.0	---	---	724.0	0.030	0.000	17.3	92	1
03/16/17	5:07 p	-24.7	-24.7	-24.7	---	---	27.0	E	0.45	30.4	-41.7	---	---	724.0	0.030	0.000	17.3	92	1
03/16/17	5:08 p	-24.7	-24.7	-24.7	---	---	24.3	ESE	0.41	28.7	-41.0	---	---	724.1	0.030	0.000	17.3	92	1
03/16/17	5:09 p	-24.7	-24.7	-24.7	---	---	24.3	E	0.41	25.2	-41.0	---	---	724.2	0.030	0.000	17.3	92	1
03/16/17	5:10 p	-24.7	-24.7	-24.7	---	---	24.3	E	0.41	26.1	-41.0	---	---	724.0	0.030	0.000	17.3	92	1
03/16/17	5:11 p	-24.7	-24.7	-24.7	---	---	24.3	E	0.41	26.1	-41.1	---	---	724.1	0.030	0.000	17.3	92	1
03/16/17	5:12 p	-24.7	-24.7	-24.7	---	---	23.5	E	0.39	27.0	-40.9	---	---	724.0	0.030	0.000	17.3	92	1
03/16/17	5:13 p	-24.7	-24.7	-24.7	---	---	25.2	E	0.42	27.8	-41.3	---	---	724.1	0.030	0.000	17.3	92	1
03/16/17	5:14 p	-24.7	-24.7	-24.8	---	---	23.5	E	0.39	25.2	-40.9	---	---	724.1	0.030	0.000	17.3	92	1
03/16/17	5:15 p	-24.7	-24.7	-24.8	---	---	23.5	E	0.39	25.2	-40.9	---	---	724.2	0.030	0.000	17.3	92	1
03/16/17	5:16 p	-24.7	-24.7	-24.7	---	---	24.3	E	0.41	26.1	-41.1	---	---	724.1	0.030	0.000	17.3	92	1
03/16/17	5:17 p	-24.7	-24.7	-24.7	---	---	24.3	E	0.41	28.7	-41.1	---	---	724.4	0.030	0.000	17.3	92	1
03/16/17	5:18 p	-24.8	-24.7	-24.8	---	---	17.4	E	0.29	21.7	-39.1	---	---	724.3	0.030	0.000	17.3	92	1
03/16/17	5:19 p	-24.8	-24.7	-24.8	---	---	23.5	E	0.39	27.0	-40.9	---	---	724.1	0.030	0.000	17.3	92	1
03/16/17	5:20 p	-24.8	-24.7	-24.8	---	---	25.2	E	0.42	27.8	-41.4	---	---	724.1	0.030	0.000	17.3	92	1
03/16/17	5:21 p	-24.8	-24.7	-24.8	---	---	23.5	E	0.39	25.2	-40.9	---	---	724.1	0.030	0.000	17.3	92	1
03/16/17	5:22 p	-24.8	-24.8	-24.8	---	---	21.7	E	0.36	24.3	-40.4	---	---	724.1	0.030	0.000	17.3	92	1
03/16/17	5:23 p	-24.8	-24.7	-24.8	---	---	26.1	E	0.43	27.8	-41.6	---	---	723.9	0.030	0.000	17.3	92	1
03/16/17	5:24 p	-24.8	-24.7	-24.8	---	---	24.3	E	0.41	27.0	-41.2	---	---	724.0	0.030	0.000	17.3	92	1
03/16/17	5:25 p	-24.8	-24.8	-24.8	---	---	23.5	E	0.39	24.3	-40.9	---	---	724.1	0.030	0.000	17.3	92	1
03/16/17	5:26 p	-24.8	-24.8	-24.8	---	---	23.5	E	0.39	27.0	-40.9	---	---	723.9	0.030	0.000	17.3	92	1
03/16/17	5:27 p	-24.8	-24.8	-24.8	---	---	25.2	E	0.42	27.0	-41.4	---	---	724.0	0.030	0.000	17.3	92	1
03/16/17	5:28 p	-24.8	-24.8	-24.8	---	---	23.5	E	0.39	25.2	-41.0	---	---	724.0	0.030	0.000	17.3	92	1
03/16/17	5:29 p	-24.8	-24.8	-24.8	---	---	25.2	E	0.42	27.8	-41.4	---	---	724.0	0.030	0.000	17.3	91	1
03/16/17	5:30 p	-24.8	-24.8	-24.8	---	---	22.6	E	0.38	27.0	-40.8	---	---	724.1	0.030	0.000	17.3	92	1
03/16/17	5:31 p	-24.8	-24.8	-24.8	---	---	25.2	E	0.42	28.7	-41.4	---	---	723.9	0.030	0.000	17.3	92	1
03/16/17	5:32 p	-24.8	-24.8	-24.9	---	---	27.0	E	0.45	30.4	-41.9	---	---	724.1	0.030	0.000	17.3	92	1
03/16/17	5:33 p	-24.8	-24.8	-24.9	---	---	20.9	E	0.35	25.2	-40.3	---	---	724.2	0.030	0.000	17.3	92	1
03/16/17	5:34 p	-24.8	-24.8	-24.9	---	---	22.6	E	0.38	25.2	-40.8	---	---	724.0	0.030	0.000	17.3	92	1
03/16/17	5:35 p	-24.8	-24.8	-24.9	---	---	27.0	E	0.45	28.7	-41.9	---	---	723.9	0.030	0.000	17.3	92	1
03/16/17	5:36 p	-24.9	-24.8	-24.9	---	---	27.0	E	0.45	30.4	-41.9	---	---	724.0	0.030	0.000	17.3	92	1
03/16/17	5:37 p	-24.9	-24.8	-24.9	---	---	27.8	ESE	0.46	30.4	-42.2	---	---	723.9	0.030	0.000	17.3	91	1
03/16/17	5:38 p	-24.9	-24.8	-24.9	---	---	27.8	E	0.46	31.3	-42.2	---	---	724.0	0.030	0.000	17.3	92	1
03/16/17	5:39 p	-24.9	-24.9	-24.9	---	---	27.8	E	0.46	29.6	-42.2	---	---	723.8	0.030	0.000	17.3	92	1
03/16/17	5:40 p	-24.9	-24.8	-24.9	---	---	27.8	E	0.46	30.4	-42.2	---	---	723.9	0.030	0.000	17.3	92	1
03/16/17	5:41 p	-24.9	-24.8	-24.9	---	---	24.3	E	0.41	26.1	-41.3	---	---	724.0	0.030	0.000	17.2	92	1
03/16/17	5:42 p	-24.9	-24.9	-24.9	---	---	26.1	E	0.43	29.6	-41.7	---	---	724.0	0.030	0.000	17.3	92	1
03/16/17	5:43 p	-24.9	-24.9	-24.9	---	---	26.1	E	0.43	27.8	-41.7	---	---	724.0	0.030	0.000	17.3	92	1
03/16/17	5:44 p	-24.9	-24.9	-24.9	---	---	26.1	E	0.43	27.8	-41.7	---	---	723.9	0.030	0.000	17.2	92	1
03/16/17	5:45 p	-24.9	-24.9	-24.9	---	---	23.5	E	0.39	27.0	-41.1	---	---	723.9	0.030	0.000	17.3	92	1
03/16/17	5:46 p	-24.9	-24.9	-24.9	---	---	27.0	E	0.45	30.4	-41.9	---	---	723.8	0.030	0.000	17.3	92	1
03/16/17	5:47 p	-24.9	-24.9	-24.9	---	---	27.0	E	0.45	31.3	-42.1	---	---	724.0	0.030	0.000	17.2	92	1
03/16/17	5:48 p	-24.9	-24.9	-24.9	---	---	23.5	E	0.39	27.8	-41.2	---	---	724.2	0.030	0.000	17.2	92	1
03/16/17	5:49 p	-24.9	-24.9	-24.9	---	---	20.9	E	0.35	24.3	-40.4	---	---	723.9	0.030	0.000	17.2	92	1
03/16/17	5:50 p	-24.9	-24.9	-24.9	---	---	29.6	E	0.49	31.3	-42.6	---	---	723.7	0.030	0.000	17.2	92	1
03/16/17	5:51 p	-24.9	-24.9	-24.9	---	---	25.2	E	0.42	29.6	-41.6	---	---	724.0	0.030	0.000	17.2	92	1
03/16/17	5:52 p	-24.9	-24.9	-24.9	---	---	25.2	E	0.42	27.8	-41.6	---	---	724.0	0.030	0.000	17.2	92	1
03/16/17	5:53 p	-24.9	-24.9	-24.9	---	---	25.2	E	0.42	28.7	-41.6	---	---	723.8	0.030	0.000	17.3	92	1
03/16/17	5:54 p	-25.0	-24.9	-25.0	---	---	26.1	E	0.43	28.7	-41.9	---	---	723.9	0.030	0.000	17.2	92	1
03/16/17	5:55 p	-25.0	-24.9	-25.0	---	---	25.2	E	0.42	27.0	-41.7	---	---	723.9	0.030	0.000	17.2	92	1
03/16/17	5:56 p	-25.0	-24.9	-25.0	---	---	28.7	E	0.48	31.3	-42.5	---	---	723.8	0.030	0.000	17.2	92	1
03/16/17	5:57 p	-25.0	-24.9	-25.0	---	---	18.3	E	0.30	27.0	-39.7	---	---	724.1	0.030	0.000	17.2	92	1
03/16/17	5:58 p	-25.0	-24.9	-25.0	---	---	29.6	E	0.49	33.9	-42.7	---	---	723.7	0.030	0.000	17.2	92	1
03/16/17	5:59 p	-25.0	-24.9	-25.0	---	---	22.6	E	0.38	27.8	-41.0	---	---	723.9	0.030	0.000	17.3	92	1
03/16/17	6:00 p	-25.0	-25.0	-25.0	---	---	31.3	E	0.52	37.4	-43.1	---	---	723.9	0.030	0.000	17.2	92	1
03/16/17	6:01 p	-25.0	-25.0	-25.0	---	---	23.5	E	0.39	27.8	-41.2	---	---	724.0	0.030	0.000	17.2	92	1
03/16/17	6:02 p	-25.0	-25.0	-25.0	---	---	25.2	E	0.42	27.0	-41.7	---	---	723.9	0.030	0.000	17.2	92	1
03/16/17	6:03 p	-25.0	-25.0	-25.1	---	---	25.2	E	0.42	27.8	-41.7	---	---	723.8	0.030	0.000	17.2	92	1
03/16/17	6:04 p	-25.0	-25.0	-25.0	---	---	29.6	E	0.49	31.3	-42.7	---	---	723.8	0.030	0.000	17.2	92	1
03/16/17	6:05 p	-25.0	-25.0	-25.1	---	---	27.8	E	0.46	30.4	-42.3	---	---	724.0	0.030	0.000	17.2	92	1
03/16/17	6:06 p	-25.0	-25.0	-25.1	---	---	25.2	E	0.42	27.8	-41.7	---	---	723.8	0.030	0.000	17.2	92	1
03/16/17	6:07 p	-25.1	-25.0	-25.1	---	---	27.8	E	0.46	30.4	-42.4	---	---	723.7	0.030	0.000	17.2	92	1
03/16/17	6:08 p	-25.1	-25.0	-25.1	---	---	28.7	E	0.48	33.0	-42.6	---	---	723.8	0.030	0.000	17.2	92	1
03/16/17	6:09 p	-25.1	-25.0	-25.1	---	---	24.3	E	0.41	28.7	-41.6	---	---	723.8	0.030	0.000	17.2	92	1
03/16/17	6:10 p	-25.1	-25.0	-25.1	---	---	27.8	E	0.46	29.6	-42.4	---	---	723.8	0.030	0.000	17.2	92	1
03/16/17	6:11 p	-25.1	-25.0	-25.1	---	---	24.3	E	0.41	26.1	-41.6	---	---	723.8	0.030	0.000	17.2	92	1
03/16/17	6:12 p	-25.1	-25.1	-25.1	---	---	27.0	E	0.45	33.0	-42.2	---	---	723.5	0.030	0.000	17.2	92	1
03/16/17	6:13 p	-25.1	-25.0	-25.1	---	---	29.6	E	0.49	32.2	-42.8	---	---	723.6	0.030	0.000	17.2	92	1
03/16/17	6:14 p	-25.1	-25.1	-25.1	---	---	28.7	E	0.48	30.4	-42.6	---	---	723.8	0.030	0.000	17.2	92	1
03/16/17	6:15 p	-25.1	-25.1	-25.1	---	---	27.8	E	0.46	29.6	-42.4	---	---	723.8	0.030	0.000	17.2	92	1
03/16/17	6:16 p	-25.1	-25.1	-25.1	---	---	23.5	E	0.39	25.2	-41.3	---	---	724.0	0.030	0.000	17.2	92	1
03/16/17	6:17 p	-25.1	-25.1	-25.1	---	---	23.5	E	0.39	25.2	-41.3	---	---	723.8	0.030	0.000	17.2	92	1
03/16/17	6:18 p	-25.1	-25.1	-25.1	---	---	26.1	E	0.43	30.4	-42.0	---	---	723.6	0.030	0.000	17.2	92	1
03/16/17	6:19 p	-25.1	-25.1	-25.1	---	---	30.4	E	0.51	33.0	-42.9	---	---	723.6	0.030	0.000	17.2	92	1
03/16/17	6:20 p	-25.1	-25.1	-25.1	---	---	25.2	E	0.42	27.8	-41.8	---	---	723.8	0.030	0.000	17.2	92	1
03/16/17	6:21 p	-25.1	-25.1	-25.1	---	---	27.0	E	0.45	30.4	-42.3	---	---	723.9	0.030	0.000	17.2	92	1
03/16/17	6:22 p	-25.1	-25.1	-25.1	---	---	27.8	E	0.46	30.4	-42.4	---	---	723.7	0.030	0.000	17.2	92	1
03/16/17	6:23 p	-25.1	-25.1	-25.1	---	---	27.0	E	0.45	28.7	-42.3	---	---	723.7	0.030	0.000	17.2	92	1
03/16/17	6:24 p	-25.1	-25.1	-25.1	---	---	27.8	E	0.46	29.6	-42.4	---	---	723.8	0.030	0.000	17.2	92	1
03/16/17	6:25 p	-25.1	-25.1	-25.1	---	---	27.8	E	0.46	29.6	-42.4	---	---	723.7	0.030	0.000	17.2	92	1
03/16/17	6:26 p	-25.1	-25.1	-25.1	---	---	27.0	E	0.45	29.6	-42.2	---	---	723.6	0.030	0.000	17.2	92	1
03/16/17	6:27 p	-25.1	-25.1	-25.1	---	---	29.6	E	0.49	31.3	-42.8	---	---	723.7	0.030	0.000	17.2	92	1
03/16/17	6:28 p	-25.1	-25.1	-25.1	---	---	27.8	E	0.46	31.3	-42.4	---	---	723.7	0.030	0.000	17.2	92	1
03/16/17	6:29 p	-25.1	-25.1	-25.1	---	---	26.1	E	0.43	29.6	-42.0	---	---	723.9	0.030	0.000	17.2	92	1
03/16/17	6:30 p	-25.1	-25.1	-25.1	---	---	22.6	E	0.38	26.1	-41.1	---	---	723.9	0.030	0.000	17.2	92	1
03/16/17	6:31 p	-25.1	-25.1	-25.1	---	---	25.2	E	0.42	28.7	-41.8	---	---	723.8	0.030	0.000	17.2	92	1
03/16/17	6:32 p	-25.1	-25.1	-25.1	---	---	28.7	E	0.48	29.6	-42.6	---	---	723.7	0.030	0.000	17.2	92	1
03/16/17	6:33 p	-25.1	-25.1	-25.1	---	---	27.8	E	0.46	29.6	-42.4	---	---	723.8	0.030	0.000	17.2	92	1
03/16/17	6:34 p	-25.1	-25.1	-25.1	---	---	24.3	E	0.41	26.1	-41.6	---	---	723.8	0.030	0.000	17.2	92	1
03/16/17	6:35 p	-25.1	-25.1	-25.1	---	---	26.1	E	0.43	29.6	-42.0	---	---	723.7	0.030	0.000	17.2	92	1
03/16/17	6:36 p	-25.1	-25.1	-25.1	---	---	26.1	E	0.43	27.8	-42.0	---	---	723.8	0.030	0.000	17.2	92	1
03/16/17	6:37 p	-25.1	-25.1	-25.1	---	---	25.2	E	0.42	27.0	-41.8	---	---	723.7	0.030	0.000	17.2	92	1
03/16/17	6:38 p	-25.1	-25.1	-25.1	---	---	26.1	E	0.43	27.8	-42.0	---	---	723.8	0.030	0.000	17.2	92	1
03/16/17	6:39 p	-25.1	-25.1	-25.1	---	---	24.3	E	0.41	27.0	-41.6	---	---	723.8	0.030	0.000	17.2	92	1
03/16/17	6:40 p	-25.1	-25.1	-25.1	---	---	25.2	E	0.42	27.0	-41.8	---	---	723.8	0.030	0.000	17.2	92	1
03/16/17	6:41 p	-25.1	-25.1	-25.1	---	---	24.3	E	0.41	27.0	-41.6	---	---	723.8	0.030	0.000	17.2	92	1
03/16/17	6:42 p	-25.1	-25.1	-25.1	---	---	21.7	E	0.36	25.2	-40.8	---	---	723.8	0.030	0.000	17.2	91	1
03/16/17	6:43 p	-25.1	-25.1	-25.1	---	---	24.3	E	0.41	27.0	-41.6	---	---	723.7	0.030	0.000	17.2	91	1
03/16/17	6:44 p	-25.1	-25.1	-25.1	---	---	26.1	E	0.43	27.8	-42.0	---	---	723.6	0.030	0.000	17.2	92	1
03/16/17	6:45 p	-25.1	-25.1	-25.1	---	---	27.0	E	0.45	28.7	-42.2	---	---	723.8	0.030	0.000	17.2	91	1
03/16/17	6:46 p	-25.1	-25.1	-25.1	---	---	27.0	E	0.45	28.7	-42.2	---	---	723.7	0.030	0.000	17.2	92	1
03/16/17	6:47 p	-25.1	-25.1	-25.1	---	---	25.2	E	0.42	28.7	-41.8	---	---	723.7	0.030	0.000	17.2	91	1
03/16/17	6:48 p	-25.1	-25.1	-25.1	---	---	24.3	E	0.41	26.1	-41.6	---	---	723.8	0.030	0.000	17.2	92	1
03/16/17	6:49 p	-25.1	-25.0	-25.1	---	---	23.5	E	0.39	26.1	-41.3	---	---	723.6	0.030	0.000	17.2	92	1
03/16/17	6:50 p	-25.1	-25.1	-25.1	---	---	27.8	E	0.46	29.6	-42.4	---	---	723.6	0.030	0.000	17.2	92	1
03/16/17	6:51 p	-25.0	-25.0	-25.1	---	---	24.3	E	0.41	26.1	-41.4	---	---	723.8	0.030	0.000	17.2	92	1
03/16/17	6:52 p	-25.0	-25.0	-25.1	---	---	25.2	E	0.42	27.0	-41.7	---	---	723.7	0.030	0.000	17.2	92	1
03/16/17	6:53 p	-25.0	-25.0	-25.1	---	---	25.2	E	0.42	27.0	-41.7	---	---	723.7	0.030	0.000	17.2	92	1
03/16/17	6:54 p	-25.0	-25.0	-25.1	---	---	27.8	E	0.46	30.4	-42.3	---	---	723.7	0.030	0.000	17.2	91	1
03/16/17	6:55 p	-25.0	-25.0	-25.0	---	---	25.2	E	0.42	29.6	-41.7	---	---	723.7	0.030	0.000	17.2	91	1
03/16/17	6:56 p	-25.0	-25.0	-25.0	---	---	24.3	E	0.41	27.8	-41.4	---	---	723.8	0.030	0.000	17.2	91	1
03/16/17	6:57 p	-25.0	-25.0	-25.0	---	---	23.5	E	0.39	27.8	-41.2	---	---	723.6	0.030	0.000	17.2	91	1
03/16/17	6:58 p	-25.0	-24.9	-25.0	---	---	26.1	E	0.43	29.6	-41.9	---	---	723.6	0.030	0.000	17.2	91	1
03/16/17	6:59 p	-25.0	-24.9	-25.0	---	---	27.8	ESE	0.46	29.6	-42.3	---	---	723.6	0.030	0.000	17.2	91	1
03/16/17	7:00 p	-25.0	-24.9	-25.0	---	---	27.0	ESE	0.45	28.7	-42.1	---	---	723.6	0.030	0.000	17.2	91	1
03/16/17	7:01 p	-25.0	-24.9	-25.0	---	---	27.8	E	0.46	30.4	-42.3	---	---	723.6	0.030	0.000	17.2	91	1
03/16/17	7:02 p	-25.0	-24.9	-25.0	---	---	27.8	ESE	0.46	30.4	-42.3	---	---	723.5	0.030	0.000	17.2	91	1
03/16/17	7:03 p	-24.9	-24.9	-25.0	---	---	28.7	ESE	0.48	30.4	-42.4	---	---	723.4	0.030	0.000	17.2	91	1
03/16/17	7:04 p	-25.0	-24.9	-25.0	---	---	29.6	ESE	0.49	32.2	-42.7	---	---	723.6	0.030	0.000	17.2	92	1
03/16/17	7:05 p	-24.9	-24.9	-24.9	---	---	25.2	E	0.42	31.3	-41.6	---	---	724.0	0.030	0.000	17.2	92	1
03/16/17	7:06 p	-24.9	-24.9	-25.0	---	---	22.6	E	0.38	24.3	-40.9	---	---	723.9	0.030	0.000	17.2	92	1
03/16/17	7:07 p	-24.9	-24.9	-24.9	---	---	24.3	E	0.41	26.1	-41.4	---	---	723.7	0.030	0.000	17.2	92	1
03/16/17	7:08 p	-24.9	-24.9	-24.9	---	---	27.8	ESE	0.46	31.3	-42.2	---	---	723.7	0.030	0.000	17.2	92	1
03/16/17	7:09 p	-24.9	-24.9	-24.9	---	---	26.1	ESE	0.43	29.6	-41.8	---	---	723.7	0.030	0.000	17.2	92	1
03/16/17	7:10 p	-24.9	-24.9	-24.9	---	---	27.0	E	0.45	28.7	-42.1	---	---	723.7	0.030	0.000	17.2	92	1
03/16/17	7:11 p	-24.9	-24.9	-24.9	---	---	25.2	E	0.42	27.0	-41.6	---	---	723.6	0.030	0.000	17.2	92	1
03/16/17	7:12 p	-24.9	-24.9	-24.9	---	---	24.3	E	0.41	27.0	-41.4	---	---	723.9	0.030	0.000	17.2	92	1
03/16/17	7:13 p	-24.9	-24.9	-24.9	---	---	20.9	E	0.35	25.2	-40.4	---	---	723.7	0.030	0.000	17.2	92	1
03/16/17	7:14 p	-24.9	-24.9	-24.9	---	---	26.1	ESE	0.43	36.5	-41.8	---	---	723.3	0.030	0.000	17.2	92	1
03/16/17	7:15 p	-24.9	-24.9	-24.9	---	---	32.2	ESE	0.54	35.7	-43.2	---	---	723.5	0.030	0.000	17.2	92	1
03/16/17	7:16 p	-24.9	-24.9	-24.9	---	---	28.7	E	0.48	31.3	-42.3	---	---	723.7	0.030	0.000	17.2	92	1
03/16/17	7:17 p	-24.9	-24.9	-24.9	---	---	18.3	E	0.30	27.8	-39.6	---	---	724.0	0.030	0.000	17.2	92	1
03/16/17	7:18 p	-24.9	-24.8	-24.9	---	---	19.1	E	0.32	30.4	-39.8	---	---	723.5	0.030	0.000	17.2	92	1
03/16/17	7:19 p	-24.9	-24.8	-24.9	---	---	28.7	ESE	0.48	30.4	-42.3	---	---	723.5	0.030	0.000	17.2	92	1
03/16/17	7:20 p	-24.8	-24.8	-24.9	---	---	27.0	ESE	0.45	32.2	-41.9	---	---	723.7	0.030	0.000	17.2	92	1
03/16/17	7:21 p	-24.8	-24.8	-24.8	---	---	27.8	E	0.46	30.4	-42.1	---	---	723.6	0.030	0.000	17.2	92	1
03/16/17	7:22 p	-24.8	-24.8	-24.8	---	---	24.3	E	0.41	28.7	-41.2	---	---	723.8	0.030	0.000	17.2	92	1
03/16/17	7:23 p	-24.8	-24.8	-24.8	---	---	23.5	E	0.39	26.1	-40.9	---	---	723.7	0.030	0.000	17.2	92	1
03/16/17	7:24 p	-24.8	-24.7	-24.8	---	---	23.5	E	0.39	26.1	-40.9	---	---	723.8	0.030	0.000	17.2	92	1
03/16/17	7:25 p	-24.7	-24.7	-24.7	---	---	25.2	ESE	0.42	28.7	-41.3	---	---	723.5	0.030	0.000	17.2	92	1
03/16/17	7:26 p	-24.7	-24.7	-24.7	---	---	29.6	E	0.49	31.3	-42.3	---	---	723.7	0.030	0.000	17.2	92	1
03/16/17	7:27 p	-24.7	-24.7	-24.7	---	---	21.7	E	0.36	27.0	-40.3	---	---	723.9	0.030	0.000	17.2	92	1
03/16/17	7:28 p	-24.7	-24.6	-24.7	---	---	19.1	ESE	0.32	24.3	-39.6	---	---	723.7	0.030	0.000	17.2	92	1
03/16/17	7:29 p	-24.6	-24.6	-24.7	---	---	27.8	ESE	0.46	30.4	-41.8	---	---	723.6	0.030	0.000	17.2	92	1
03/16/17	7:30 p	-24.6	-24.6	-24.6	---	---	23.5	ESE	0.39	26.1	-40.7	---	---	723.5	0.030	0.000	17.2	92	1
03/16/17	7:31 p	-24.6	-24.6	-24.6	---	---	28.7	E	0.48	33.9	-42.0	---	---	723.5	0.030	0.000	17.2	92	1
03/16/17	7:32 p	-24.6	-24.6	-24.6	---	---	27.8	E	0.46	30.4	-41.7	---	---	723.7	0.030	0.000	17.2	92	1
03/16/17	7:33 p	-24.6	-24.6	-24.6	---	---	26.1	ESE	0.43	31.3	-41.3	---	---	723.4	0.030	0.000	17.2	92	1
03/16/17	7:34 p	-24.6	-24.5	-24.6	---	---	25.2	ESE	0.42	28.7	-41.1	---	---	723.6	0.030	0.000	17.2	92	1
03/16/17	7:35 p	-24.5	-24.5	-24.5	---	---	26.1	ESE	0.43	28.7	-41.2	---	---	723.5	0.030	0.000	17.2	92	1
03/16/17	7:36 p	-24.5	-24.4	-24.5	---	---	27.8	E	0.46	30.4	-41.6	---	---	723.7	0.030	0.000	17.2	92	1
03/16/17	7:37 p	-24.4	-24.4	-24.4	---	---	25.2	E	0.42	27.0	-40.9	---	---	723.6	0.030	0.000	17.2	92	1
03/16/17	7:38 p	-24.4	-24.4	-24.4	---	---	24.3	ESE	0.41	26.1	-40.7	---	---	723.6	0.030	0.000	17.2	92	1
03/16/17	7:39 p	-24.4	-24.4	-24.4	---	---	27.0	ESE	0.45	29.6	-41.3	---	---	723.6	0.030	0.000	17.2	92	1
03/16/17	7:40 p	-24.4	-24.4	-24.4	---	---	24.3	E	0.41	26.1	-40.7	---	---	723.6	0.030	0.000	17.2	92	1
03/16/17	7:41 p	-24.4	-24.3	-24.4	---	---	25.2	E	0.42	27.0	-40.8	---	---	723.6	0.030	0.000	17.2	92	1
03/16/17	7:42 p	-24.4	-24.4	-24.4	---	---	23.5	E	0.39	27.0	-40.4	---	---	723.7	0.030	0.000	17.2	92	1
03/16/17	7:43 p	-24.3	-24.3	-24.4	---	---	25.2	E	0.42	30.4	-40.8	---	---	723.5	0.030	0.000	17.2	92	1
03/16/17	7:44 p	-24.3	-24.3	-24.3	---	---	26.1	E	0.43	29.6	-41.0	---	---	723.6	0.030	0.000	17.2	92	1
03/16/17	7:45 p	-24.3	-24.3	-24.3	---	---	24.3	ESE	0.41	28.7	-40.6	---	---	723.7	0.030	0.000	17.2	92	1
03/16/17	7:46 p	-24.3	-24.3	-24.3	---	---	20.9	E	0.35	26.1	-39.6	---	---	723.6	0.030	0.000	17.2	92	1
03/16/17	7:47 p	-24.3	-24.3	-24.3	---	---	27.0	E	0.45	29.6	-41.1	---	---	723.4	0.030	0.000	17.2	91	1
03/16/17	7:48 p	-24.3	-24.3	-24.3	---	---	27.8	E	0.46	30.4	-41.4	---	---	723.7	0.030	0.000	17.2	92	1
03/16/17	7:49 p	-24.3	-24.3	-24.3	---	---	20.9	E	0.35	25.2	-39.6	---	---	723.8	0.030	0.000	17.2	92	1
03/16/17	7:50 p	-24.3	-24.3	-24.3	---	---	24.3	ESE	0.41	33.9	-40.5	---	---	723.3	0.030	0.000	17.2	92	1
03/16/17	7:51 p	-24.3	-24.3	-24.3	---	---	32.2	ESE	0.54	34.8	-42.3	---	---	723.7	0.030	0.000	17.2	92	1
03/16/17	7:52 p	-24.3	-24.3	-24.3	---	---	21.7	ESE	0.36	27.0	-39.8	---	---	723.6	0.030	0.000	17.2	92	1
03/16/17	7:53 p	-24.3	-24.3	-24.3	---	---	27.0	ESE	0.45	29.6	-41.2	---	---	723.4	0.030	0.000	17.2	92	1
03/16/17	7:54 p	-24.3	-24.3	-24.3	---	---	23.5	ESE	0.39	27.8	-40.3	---	---	723.6	0.030	0.000	17.2	92	1
03/16/17	7:55 p	-24.3	-24.3	-24.3	---	---	28.7	ESE	0.48	32.2	-41.6	---	---	723.5	0.030	0.000	17.2	92	1
03/16/17	7:56 p	-24.3	-24.3	-24.3	---	---	24.3	E	0.41	29.6	-40.6	---	---	723.7	0.030	0.000	17.2	92	1
03/16/17	7:57 p	-24.3	-24.3	-24.3	---	---	22.6	ESE	0.38	28.7	-40.1	---	---	723.3	0.030	0.000	17.2	92	1
03/16/17	7:58 p	-24.3	-24.3	-24.3	---	---	28.7	E	0.48	34.8	-41.6	---	---	723.7	0.030	0.000	17.1	92	1
03/16/17	7:59 p	-24.3	-24.3	-24.3	---	---	21.7	ESE	0.36	27.0	-39.9	---	---	723.4	0.030	0.000	17.1	92	1
03/16/17	8:00 p	-24.3	-24.3	-24.3	---	---	29.6	E	0.49	33.0	-41.8	---	---	723.5	0.030	0.000	17.1	92	1
03/16/17	8:01 p	-24.3	-24.3	-24.3	---	---	23.5	E	0.39	27.8	-40.3	---	---	723.4	0.030	0.000	17.1	91	1
03/16/17	8:02 p	-24.3	-24.3	-24.4	---	---	27.0	ESE	0.45	32.2	-41.2	---	---	723.6	0.030	0.000	17.1	92	1
03/16/17	8:03 p	-24.3	-24.3	-24.3	---	---	27.0	ESE	0.45	36.5	-41.2	---	---	723.1	0.030	0.000	17.2	92	1
03/16/17	8:04 p	-24.3	-24.3	-24.4	---	---	27.8	E	0.46	38.3	-41.4	---	---	724.0	0.030	0.000	17.2	92	1
03/16/17	8:05 p	-24.4	-24.3	-24.4	---	---	20.0	E	0.33	27.0	-39.4	---	---	723.4	0.030	0.000	17.1	92	1
03/16/17	8:06 p	-24.4	-24.3	-24.4	---	---	29.6	ESE	0.49	35.7	-41.9	---	---	723.3	0.030	0.000	17.1	92	1
03/16/17	8:07 p	-24.3	-24.3	-24.4	---	---	27.0	E	0.45	33.9	-41.2	---	---	723.7	0.030	0.000	17.1	92	1
03/16/17	8:08 p	-24.3	-24.3	-24.4	---	---	22.6	ESE	0.38	26.1	-40.1	---	---	723.5	0.030	0.000	17.1	92	1
03/16/17	8:09 p	-24.3	-24.3	-24.4	---	---	27.0	ESE	0.45	34.8	-41.2	---	---	723.1	0.030	0.000	17.1	92	1
03/16/17	8:10 p	-24.4	-24.3	-24.4	---	---	30.4	ESE	0.51	34.8	-42.1	---	---	723.4	0.030	0.000	17.1	92	1
03/16/17	8:11 p	-24.4	-24.3	-24.4	---	---	23.5	E	0.39	31.3	-40.4	---	---	723.4	0.030	0.000	17.1	92	1
03/16/17	8:12 p	-24.4	-24.3	-24.4	---	---	27.0	ESE	0.45	31.3	-41.3	---	---	723.5	0.030	0.000	17.1	92	1
03/16/17	8:13 p	-24.4	-24.3	-24.4	---	---	27.0	ESE	0.45	33.0	-41.3	---	---	723.2	0.030	0.000	17.1	92	1
03/16/17	8:14 p	-24.3	-24.3	-24.4	---	---	27.8	ESE	0.46	31.3	-41.4	---	---	723.5	0.030	0.000	17.1	92	1
03/16/17	8:15 p	-24.3	-24.3	-24.4	---	---	26.1	ESE	0.43	30.4	-41.0	---	---	723.4	0.030	0.000	17.1	91	1
03/16/17	8:16 p	-24.3	-24.3	-24.4	---	---	29.6	ESE	0.49	32.2	-41.8	---	---	723.4	0.030	0.000	17.1	91	1
03/16/17	8:17 p	-24.3	-24.3	-24.4	---	---	25.2	E	0.42	30.4	-40.8	---	---	723.8	0.030	0.000	17.1	91	1
03/16/17	8:18 p	-24.3	-24.3	-24.3	---	---	24.3	ESE	0.41	33.9	-40.6	---	---	723.2	0.030	0.000	17.1	91	1
03/16/17	8:19 p	-24.3	-24.3	-24.3	---	---	30.4	ESE	0.51	32.2	-41.9	---	---	723.5	0.030	0.000	17.1	91	1
03/16/17	8:20 p	-24.3	-24.3	-24.3	---	---	26.1	E	0.43	29.6	-41.0	---	---	723.5	0.030	0.000	17.1	91	1
03/16/17	8:21 p	-24.3	-24.3	-24.3	---	---	25.2	E	0.42	29.6	-40.8	---	---	723.4	0.030	0.000	17.2	91	1
03/16/17	8:22 p	-24.3	-24.3	-24.3	---	---	28.7	ESE	0.48	33.9	-41.6	---	---	723.2	0.030	0.000	17.2	91	1
03/16/17	8:23 p	-24.3	-24.3	-24.3	---	---	30.4	ESE	0.51	33.9	-41.9	---	---	723.4	0.030	0.000	17.1	91	1
03/16/17	8:24 p	-24.3	-24.3	-24.3	---	---	24.3	E	0.41	27.0	-40.6	---	---	723.4	0.030	0.000	17.2	91	1
03/16/17	8:25 p	-24.3	-24.3	-24.3	---	---	27.8	ESE	0.46	37.4	-41.4	---	---	722.9	0.030	0.000	17.1	91	1
03/16/17	8:26 p	-24.3	-24.3	-24.3	---	---	30.4	ESE	0.51	38.3	-41.9	---	---	723.4	0.030	0.000	17.1	91	1
03/16/17	8:27 p	-24.3	-24.3	-24.3	---	---	24.3	E	0.41	28.7	-40.6	---	---	723.5	0.030	0.000	17.1	91	1
03/16/17	8:28 p	-24.3	-24.3	-24.3	---	---	29.6	ESE	0.49	33.9	-41.8	---	---	723.1	0.030	0.000	17.1	91	1
03/16/17	8:29 p	-24.3	-24.3	-24.3	---	---	29.6	ESE	0.49	33.9	-41.8	---	---	723.5	0.030	0.000	17.1	91	1
03/16/17	8:30 p	-24.3	-24.3	-24.3	---	---	25.2	E	0.42	33.0	-40.8	---	---	723.2	0.030	0.000	17.1	91	1
03/16/17	8:31 p	-24.3	-24.3	-24.3	---	---	28.7	ESE	0.48	35.7	-41.5	---	---	723.4	0.030	0.000	17.1	91	1
03/16/17	8:32 p	-24.3	-24.3	-24.3	---	---	27.8	E	0.46	31.3	-41.3	---	---	723.4	0.030	0.000	17.1	91	1
03/16/17	8:33 p	-24.3	-24.3	-24.3	---	---	27.0	E	0.45	30.4	-41.1	---	---	723.5	0.030	0.000	17.1	91	1
03/16/17	8:34 p	-24.3	-24.3	-24.3	---	---	27.8	ESE	0.46	33.9	-41.3	---	---	723.5	0.030	0.000	17.1	91	1
03/16/17	8:35 p	-24.3	-24.2	-24.3	---	---	27.0	ESE	0.45	33.9	-41.1	---	---	723.1	0.030	0.000	17.1	91	1
03/16/17	8:36 p	-24.3	-24.3	-24.3	---	---	27.0	ESE	0.45	28.7	-41.1	---	---	723.4	0.030	0.000	17.1	91	1
03/16/17	8:37 p	-24.3	-24.3	-24.3	---	---	27.8	E	0.46	32.2	-41.3	---	---	723.2	0.030	0.000	17.1	91	1
03/16/17	8:38 p	-24.3	-24.3	-24.3	---	---	28.7	ESE	0.48	31.3	-41.5	---	---	723.5	0.030	0.000	17.1	92	1
03/16/17	8:39 p	-24.3	-24.3	-24.3	---	---	24.3	E	0.41	29.6	-40.5	---	---	723.1	0.030	0.000	17.1	92	1
03/16/17	8:40 p	-24.3	-24.2	-24.3	---	---	27.0	E	0.45	33.0	-41.1	---	---	723.5	0.030	0.000	17.1	91	1
03/16/17	8:41 p	-24.2	-24.2	-24.3	---	---	28.7	E	0.48	33.0	-41.4	---	---	723.4	0.030	0.000	17.1	92	1
03/16/17	8:42 p	-24.2	-24.2	-24.3	---	---	27.8	ESE	0.46	34.8	-41.2	---	---	723.1	0.030	0.000	17.1	91	1
03/16/17	8:43 p	-24.3	-24.2	-24.3	---	---	27.0	E	0.45	33.9	-41.1	---	---	723.3	0.030	0.000	17.1	92	1
03/16/17	8:44 p	-24.3	-24.3	-24.3	---	---	27.8	ESE	0.46	33.0	-41.3	---	---	723.2	0.030	0.000	17.1	92	1
03/16/17	8:45 p	-24.3	-24.3	-24.3	---	---	31.3	ESE	0.52	36.5	-42.1	---	---	723.5	0.030	0.000	17.1	92	1
03/16/17	8:46 p	-24.3	-24.3	-24.3	---	---	27.0	ESE	0.45	33.0	-41.1	---	---	723.3	0.030	0.000	17.1	91	1
03/16/17	8:47 p	-24.3	-24.2	-24.3	---	---	27.8	ESE	0.46	29.6	-41.3	---	---	723.2	0.030	0.000	17.1	92	1
03/16/17	8:48 p	-24.3	-24.3	-24.3	---	---	29.6	E	0.49	34.8	-41.7	---	---	723.4	0.030	0.000	17.1	91	1
03/16/17	8:49 p	-24.3	-24.3	-24.3	---	---	29.6	ESE	0.49	33.9	-41.7	---	---	723.1	0.030	0.000	17.1	91	1
03/16/17	8:50 p	-24.3	-24.3	-24.3	---	---	30.4	ESE	0.51	33.9	-41.9	---	---	723.2	0.030	0.000	17.1	91	1
03/16/17	8:51 p	-24.3	-24.3	-24.3	---	---	28.7	E	0.48	33.0	-41.5	---	---	723.3	0.030	0.000	17.1	91	1
03/16/17	8:52 p	-24.3	-24.3	-24.3	---	---	30.4	ESE	0.51	33.9	-41.9	---	---	723.2	0.030	0.000	17.1	91	1
03/16/17	8:53 p	-24.3	-24.3	-24.3	---	---	30.4	ESE	0.51	32.2	-41.9	---	---	723.2	0.030	0.000	17.1	90	1
03/16/17	8:54 p	-24.3	-24.3	-24.3	---	---	29.6	E	0.49	32.2	-41.8	---	---	723.4	0.030	0.000	17.1	91	1
03/16/17	8:55 p	-24.3	-24.3	-24.3	---	---	31.3	ESE	0.52	34.8	-42.2	---	---	723.1	0.030	0.000	17.1	91	1
03/16/17	8:56 p	-24.3	-24.3	-24.3	---	---	29.6	ESE	0.49	32.2	-41.8	---	---	723.4	0.030	0.000	17.1	91	1
03/16/17	8:57 p	-24.3	-24.3	-24.3	---	---	29.6	ESE	0.49	34.8	-41.7	---	---	723.1	0.030	0.000	17.1	91	1
03/16/17	8:58 p	-24.3	-24.3	-24.3	---	---	28.7	ESE	0.48	33.0	-41.6	---	---	723.2	0.030	0.000	17.1	92	1
03/16/17	8:59 p	-24.3	-24.3	-24.3	---	---	29.6	ESE	0.49	33.9	-41.8	---	---	723.2	0.030	0.000	17.1	91	1
03/16/17	9:00 p	-24.3	-24.3	-24.3	---	---	28.7	ESE	0.48	33.0	-41.6	---	---	723.3	0.030	0.000	17.1	91	1
03/16/17	9:01 p	-24.3	-24.3	-24.3	---	---	29.6	ESE	0.49	33.0	-41.8	---	---	723.2	0.030	0.000	17.1	91	1
03/16/17	9:02 p	-24.3	-24.3	-24.3	---	---	30.4	ESE	0.51	33.9	-41.9	---	---	723.4	0.030	0.000	17.1	91	1
03/16/17	9:03 p	-24.3	-24.3	-24.3	---	---	28.7	ESE	0.48	33.0	-41.6	---	---	723.1	0.030	0.000	17.1	91	1
03/16/17	9:04 p	-24.3	-24.3	-24.3	---	---	29.6	ESE	0.49	32.2	-41.8	---	---	723.3	0.030	0.000	17.1	92	1
03/16/17	9:05 p	-24.3	-24.3	-24.3	---	---	27.0	ESE	0.45	30.4	-41.2	---	---	723.4	0.030	0.000	17.1	92	1
03/16/17	9:06 p	-24.3	-24.3	-24.3	---	---	29.6	ESE	0.49	34.8	-41.8	---	---	723.2	0.030	0.000	17.1	92	1
03/16/17	9:07 p	-24.3	-24.3	-24.3	---	---	27.8	E	0.46	32.2	-41.4	---	---	723.4	0.030	0.000	17.1	92	1
03/16/17	9:08 p	-24.3	-24.3	-24.3	---	---	30.4	ESE	0.51	35.7	-41.9	---	---	723.2	0.030	0.000	17.1	92	1
03/16/17	9:09 p	-24.3	-24.3	-24.3	---	---	27.8	E	0.46	30.4	-41.4	---	---	723.2	0.030	0.000	17.1	92	1
03/16/17	9:10 p	-24.3	-24.3	-24.3	---	---	30.4	ESE	0.51	33.0	-41.9	---	---	723.2	0.030	0.000	17.1	91	1
03/16/17	9:11 p	-24.3	-24.3	-24.3	---	---	29.6	ESE	0.49	31.3	-41.8	---	---	723.2	0.030	0.000	17.1	92	1
03/16/17	9:12 p	-24.3	-24.3	-24.3	---	---	29.6	ESE	0.49	33.0	-41.8	---	---	723.2	0.030	0.000	17.1	92	1
03/16/17	9:13 p	-24.3	-24.3	-24.3	---	---	29.6	ESE	0.49	33.0	-41.8	---	---	723.3	0.030	0.000	17.1	92	1
03/16/17	9:14 p	-24.3	-24.3	-24.3	---	---	27.8	ESE	0.46	33.9	-41.4	---	---	723.1	0.030	0.000	17.1	91	1
03/16/17	9:15 p	-24.3	-24.3	-24.3	---	---	29.6	E	0.49	33.0	-41.8	---	---	723.2	0.030	0.000	17.1	92	1
03/16/17	9:16 p	-24.3	-24.3	-24.3	---	---	30.4	ESE	0.51	33.9	-41.9	---	---	723.2	0.030	0.000	17.1	92	1
03/16/17	9:17 p	-24.3	-24.3	-24.3	---	---	27.0	E	0.45	30.4	-41.2	---	---	723.3	0.030	0.000	17.1	91	1
03/16/17	9:18 p	-24.3	-24.3	-24.3	---	---	30.4	ESE	0.51	34.8	-41.9	---	---	723.3	0.030	0.000	17.1	91	1
03/16/17	9:19 p	-24.3	-24.3	-24.3	---	---	26.1	ESE	0.43	29.6	-41.0	---	---	723.3	0.030	0.000	17.1	91	1
03/16/17	9:20 p	-24.3	-24.3	-24.3	---	---	30.4	ESE	0.51	32.2	-41.9	---	---	723.2	0.030	0.000	17.1	91	1
03/16/17	9:21 p	-24.3	-24.3	-24.3	---	---	31.3	ESE	0.52	33.9	-42.2	---	---	723.3	0.030	0.000	17.1	91	1
03/16/17	9:22 p	-24.3	-24.3	-24.3	---	---	28.7	ESE	0.48	33.0	-41.6	---	---	723.1	0.030	0.000	17.1	91	1
03/16/17	9:23 p	-24.3	-24.3	-24.3	---	---	29.6	ESE	0.49	31.3	-41.7	---	---	723.2	0.030	0.000	17.1	92	1
03/16/17	9:24 p	-24.3	-24.3	-24.3	---	---	31.3	ESE	0.52	33.9	-42.2	---	---	723.0	0.030	0.000	17.1	92	1
03/16/17	9:25 p	-24.3	-24.3	-24.3	---	---	29.6	ESE	0.49	33.0	-41.8	---	---	723.1	0.030	0.000	17.1	91	1
03/16/17	9:26 p	-24.3	-24.3	-24.3	---	---	32.2	ESE	0.54	33.9	-42.3	---	---	723.2	0.030	0.000	17.1	91	1
03/16/17	9:27 p	-24.3	-24.3	-24.3	---	---	27.8	E	0.46	29.6	-41.3	---	---	723.2	0.030	0.000	17.1	91	1
03/16/17	9:28 p	-24.3	-24.3	-24.3	---	---	30.4	ESE	0.51	33.0	-41.9	---	---	723.2	0.030	0.000	17.1	91	1
03/16/17	9:29 p	-24.3	-24.3	-24.3	---	---	27.0	E	0.45	33.0	-41.1	---	---	723.3	0.030	0.000	17.1	91	1
03/16/17	9:30 p	-24.3	-24.2	-24.3	---	---	29.6	ESE	0.49	33.9	-41.7	---	---	722.9	0.030	0.000	17.1	91	1
03/16/17	9:31 p	-24.3	-24.2	-24.3	---	---	30.4	E	0.51	35.7	-41.9	---	---	723.4	0.030	0.000	17.1	91	1
03/16/17	9:32 p	-24.3	-24.2	-24.3	---	---	27.0	ESE	0.45	32.2	-41.1	---	---	723.1	0.030	0.000	17.1	91	1
03/16/17	9:33 p	-24.3	-24.2	-24.3	---	---	31.3	ESE	0.52	34.8	-42.1	---	---	723.1	0.030	0.000	17.1	91	1
03/16/17	9:34 p	-24.2	-24.2	-24.3	---	---	29.6	ESE	0.49	32.2	-41.6	---	---	723.1	0.030	0.000	17.1	91	1
03/16/17	9:35 p	-24.2	-24.2	-24.2	---	---	28.7	ESE	0.48	33.0	-41.4	---	---	723.2	0.030	0.000	17.1	91	1
03/16/17	9:36 p	-24.2	-24.2	-24.2	---	---	30.4	ESE	0.51	33.0	-41.8	---	---	723.1	0.030	0.000	17.1	91	1
03/16/17	9:37 p	-24.2	-24.2	-24.2	---	---	31.3	ESE	0.52	34.8	-42.0	---	---	723.1	0.030	0.000	17.1	91	1
03/16/17	9:38 p	-24.2	-24.2	-24.2	---	---	27.0	E	0.45	30.4	-41.1	---	---	723.2	0.030	0.000	17.1	91	1
03/16/17	9:39 p	-24.2	-24.2	-24.2	---	---	31.3	E	0.52	35.7	-42.0	---	---	723.0	0.030	0.000	17.1	91	1
03/16/17	9:40 p	-24.2	-24.2	-24.2	---	---	31.3	E	0.52	33.9	-42.0	---	---	723.3	0.030	0.000	17.1	91	1
03/16/17	9:41 p	-24.2	-24.2	-24.2	---	---	24.3	E	0.41	27.8	-40.4	---	---	723.3	0.030	0.000	17.1	91	1
03/16/17	9:42 p	-24.2	-24.2	-24.2	---	---	33.0	ESE	0.55	37.4	-42.3	---	---	723.1	0.030	0.000	17.1	91	1
03/16/17	9:43 p	-24.2	-24.2	-24.2	---	---	28.7	ESE	0.48	32.2	-41.4	---	---	723.2	0.030	0.000	17.1	91	1
03/16/17	9:44 p	-24.2	-24.2	-24.2	---	---	32.2	ESE	0.54	40.0	-42.1	---	---	722.9	0.030	0.000	17.1	91	1
03/16/17	9:45 p	-24.2	-24.2	-24.2	---	---	29.6	E	0.49	38.3	-41.6	---	---	723.5	0.030	0.000	17.1	91	1
03/16/17	9:46 p	-24.2	-24.2	-24.2	---	---	25.2	E	0.42	30.4	-40.6	---	---	723.1	0.030	0.000	17.1	91	1
03/16/17	9:47 p	-24.2	-24.2	-24.2	---	---	30.4	ESE	0.51	33.9	-41.7	---	---	723.3	0.030	0.000	17.1	91	1
03/16/17	9:48 p	-24.2	-24.2	-24.2	---	---	28.7	ESE	0.48	32.2	-41.4	---	---	723.2	0.030	0.000	17.1	91	1
03/16/17	9:49 p	-24.2	-24.1	-24.2	---	---	33.0	E	0.55	34.8	-42.3	---	---	723.2	0.030	0.000	17.1	91	1
03/16/17	9:50 p	-24.1	-24.1	-24.2	---	---	30.4	ESE	0.51	33.9	-41.7	---	---	723.1	0.029	0.000	17.1	91	1
03/16/17	9:51 p	-24.1	-24.1	-24.2	---	---	30.4	ESE	0.51	33.0	-41.7	---	---	723.1	0.029	0.000	17.1	91	1
03/16/17	9:52 p	-24.1	-24.1	-24.1	---	---	33.9	ESE	0.57	35.7	-42.3	---	---	723.1	0.029	0.000	17.1	91	1
03/16/17	9:53 p	-24.1	-24.1	-24.1	---	---	31.3	ESE	0.52	34.8	-41.8	---	---	723.2	0.029	0.000	17.1	91	1
03/16/17	9:54 p	-24.1	-24.1	-24.1	---	---	29.6	ESE	0.49	35.7	-41.4	---	---	723.2	0.029	0.000	17.1	91	1
03/16/17	9:55 p	-24.1	-24.1	-24.1	---	---	31.3	E	0.52	33.0	-41.8	---	---	723.2	0.029	0.000	17.1	91	1
03/16/17	9:56 p	-24.1	-24.0	-24.1	---	---	31.3	ESE	0.52	33.0	-41.8	---	---	723.0	0.029	0.000	17.1	91	1
03/16/17	9:57 p	-24.1	-24.0	-24.1	---	---	32.2	E	0.54	39.1	-41.9	---	---	723.4	0.029	0.000	17.1	91	1
03/16/17	9:58 p	-24.1	-24.0	-24.1	---	---	30.4	E	0.51	36.5	-41.6	---	---	723.0	0.029	0.000	17.0	90	1
03/16/17	9:59 p	-24.0	-24.0	-24.0	---	---	33.0	ESE	0.55	35.7	-42.1	---	---	723.3	0.029	0.000	17.1	91	1
03/16/17	10:00 p	-24.0	-23.9	-24.0	---	---	29.6	ESE	0.49	34.8	-41.3	---	---	723.2	0.029	0.000	17.1	90	1
03/16/17	10:01 p	-23.9	-23.9	-24.0	---	---	32.2	ESE	0.54	33.0	-41.8	---	---	723.1	0.029	0.000	17.1	90	1
03/16/17	10:02 p	-23.9	-23.9	-23.9	---	---	31.3	ESE	0.52	33.9	-41.6	---	---	723.2	0.029	0.000	17.1	90	1
03/16/17	10:03 p	-23.9	-23.9	-23.9	---	---	33.9	ESE	0.57	36.5	-42.1	---	---	723.2	0.029	0.000	17.1	90	1
03/16/17	10:04 p	-23.9	-23.9	-23.9	---	---	29.6	ESE	0.49	37.4	-41.2	---	---	723.1	0.029	0.000	17.0	90	1
03/16/17	10:05 p	-23.9	-23.9	-23.9	---	---	33.0	ESE	0.55	37.4	-41.9	---	---	723.1	0.029	0.000	17.0	90	1
03/16/17	10:06 p	-23.9	-23.9	-23.9	---	---	32.2	ESE	0.54	36.5	-41.7	---	---	722.9	0.029	0.000	17.1	91	1
03/16/17	10:07 p	-23.9	-23.8	-23.9	---	---	32.2	ESE	0.54	34.8	-41.7	---	---	723.1	0.029	0.000	17.0	92	1
03/16/17	10:08 p	-23.9	-23.8	-23.9	---	---	33.0	ESE	0.55	34.8	-41.9	---	---	723.0	0.029	0.000	17.0	92	1
03/16/17	10:09 p	-23.8	-23.8	-23.8	---	---	32.2	ESE	0.54	34.8	-41.6	---	---	723.1	0.029	0.000	17.1	92	1
03/16/17	10:10 p	-23.8	-23.8	-23.8	---	---	32.2	ESE	0.54	34.8	-41.6	---	---	723.0	0.029	0.000	17.0	91	1
03/16/17	10:11 p	-23.8	-23.8	-23.8	---	---	33.0	ESE	0.55	35.7	-41.8	---	---	722.9	0.029	0.000	17.0	91	1
03/16/17	10:12 p	-23.8	-23.8	-23.8	---	---	34.8	ESE	0.58	36.5	-42.1	---	---	722.9	0.029	0.000	17.0	91	1
03/16/17	10:13 p	-23.8	-23.8	-23.8	---	---	31.3	ESE	0.52	35.7	-41.4	---	---	722.9	0.029	0.000	17.0	91	1
03/16/17	10:14 p	-23.8	-23.7	-23.8	---	---	32.2	ESE	0.54	35.7	-41.6	---	---	723.0	0.029	0.000	17.0	92	1
03/16/17	10:15 p	-23.8	-23.7	-23.8	---	---	33.9	ESE	0.57	36.5	-41.9	---	---	723.0	0.029	0.000	17.0	92	1
03/16/17	10:16 p	-23.7	-23.7	-23.7	---	---	32.2	ESE	0.54	35.7	-41.5	---	---	723.0	0.029	0.000	17.0	91	1
03/16/17	10:17 p	-23.7	-23.7	-23.7	---	---	33.9	ESE	0.57	35.7	-41.8	---	---	723.0	0.029	0.000	17.0	91	1
03/16/17	10:18 p	-23.7	-23.7	-23.7	---	---	34.8	ESE	0.58	39.1	-42.0	---	---	722.9	0.029	0.000	17.0	91	1
03/16/17	10:19 p	-23.7	-23.7	-23.7	---	---	31.3	E	0.52	36.5	-41.2	---	---	723.3	0.029	0.000	17.0	91	1
03/16/17	10:20 p	-23.7	-23.7	-23.7	---	---	31.3	ESE	0.52	36.5	-41.2	---	---	723.1	0.029	0.000	17.0	92	1
03/16/17	10:21 p	-23.7	-23.7	-23.7	---	---	32.2	ESE	0.54	36.5	-41.4	---	---	723.1	0.029	0.000	17.0	92	1
03/16/17	10:22 p	-23.7	-23.6	-23.7	---	---	31.3	ESE	0.52	34.8	-41.2	---	---	723.0	0.029	0.000	17.0	91	1
03/16/17	10:23 p	-23.6	-23.6	-23.6	---	---	33.9	ESE	0.57	36.5	-41.7	---	---	723.1	0.029	0.000	17.0	92	1
03/16/17	10:24 p	-23.6	-23.6	-23.6	---	---	31.3	ESE	0.52	34.8	-41.2	---	---	723.1	0.029	0.000	17.0	91	1
03/16/17	10:25 p	-23.6	-23.6	-23.6	---	---	32.2	ESE	0.54	36.5	-41.3	---	---	723.2	0.029	0.000	17.0	92	1
03/16/17	10:26 p	-23.6	-23.6	-23.6	---	---	32.2	ESE	0.54	35.7	-41.3	---	---	723.1	0.029	0.000	17.0	91	1
03/16/17	10:27 p	-23.6	-23.6	-23.6	---	---	31.3	ESE	0.52	34.8	-41.2	---	---	723.1	0.029	0.000	17.0	91	1
03/16/17	10:28 p	-23.6	-23.6	-23.6	---	---	32.2	ESE	0.54	37.4	-41.3	---	---	723.2	0.029	0.000	17.0	92	1
03/16/17	10:29 p	-23.6	-23.6	-23.6	---	---	31.3	ESE	0.52	36.5	-41.1	---	---	723.1	0.029	0.000	17.0	92	1
03/16/17	10:30 p	-23.6	-23.6	-23.6	---	---	33.9	ESE	0.57	35.7	-41.6	---	---	723.1	0.029	0.000	17.0	91	1
03/16/17	10:31 p	-23.6	-23.5	-23.6	---	---	33.0	ESE	0.55	35.7	-41.4	---	---	723.0	0.029	0.000	17.0	91	1
03/16/17	10:32 p	-23.6	-23.5	-23.6	---	---	33.0	ESE	0.55	36.5	-41.4	---	---	723.0	0.029	0.000	16.9	92	1
03/16/17	10:33 p	-23.6	-23.5	-23.6	---	---	33.0	ESE	0.55	36.5	-41.4	---	---	722.9	0.029	0.000	16.9	91	1
03/16/17	10:34 p	-23.5	-23.5	-23.6	---	---	33.9	ESE	0.57	39.1	-41.5	---	---	723.0	0.029	0.000	16.9	91	1
03/16/17	10:35 p	-23.5	-23.5	-23.5	---	---	33.0	ESE	0.55	35.7	-41.3	---	---	723.0	0.029	0.000	16.9	92	1
03/16/17	10:36 p	-23.5	-23.5	-23.5	---	---	33.9	ESE	0.57	37.4	-41.5	---	---	723.0	0.029	0.000	16.9	91	1
03/16/17	10:37 p	-23.5	-23.5	-23.5	---	---	33.0	ESE	0.55	35.7	-41.3	---	---	722.9	0.029	0.000	16.9	91	1
03/16/17	10:38 p	-23.5	-23.5	-23.5	---	---	33.0	ESE	0.55	36.5	-41.3	---	---	723.0	0.029	0.000	16.9	92	1
03/16/17	10:39 p	-23.5	-23.4	-23.5	---	---	33.9	ESE	0.57	36.5	-41.5	---	---	723.0	0.029	0.000	16.9	92	1
03/16/17	10:40 p	-23.5	-23.4	-23.5	---	---	33.0	ESE	0.55	37.4	-41.3	---	---	722.9	0.029	0.000	16.9	92	1
03/16/17	10:41 p	-23.5	-23.4	-23.5	---	---	34.8	ESE	0.58	36.5	-41.7	---	---	722.9	0.029	0.000	16.9	91	1
03/16/17	10:42 p	-23.5	-23.4	-23.5	---	---	32.2	ESE	0.54	34.8	-41.2	---	---	723.0	0.029	0.000	16.9	91	1
03/16/17	10:43 p	-23.5	-23.5	-23.5	---	---	32.2	ESE	0.54	35.7	-41.2	---	---	722.9	0.029	0.000	16.9	91	1
03/16/17	10:44 p	-23.4	-23.4	-23.5	---	---	33.0	ESE	0.55	36.5	-41.3	---	---	723.0	0.029	0.000	16.9	91	1
03/16/17	10:45 p	-23.5	-23.4	-23.5	---	---	33.9	ESE	0.57	36.5	-41.5	---	---	723.0	0.029	0.000	16.9	92	1
03/16/17	10:46 p	-23.5	-23.4	-23.5	---	---	33.9	ESE	0.57	36.5	-41.5	---	---	722.9	0.029	0.000	16.9	91	1
03/16/17	10:47 p	-23.4	-23.4	-23.5	---	---	34.8	ESE	0.58	39.1	-41.6	---	---	723.0	0.029	0.000	16.9	91	1
03/16/17	10:48 p	-23.5	-23.4	-23.5	---	---	33.9	ESE	0.57	37.4	-41.5	---	---	723.0	0.029	0.000	16.9	91	1
03/16/17	10:49 p	-23.5	-23.4	-23.5	---	---	34.8	ESE	0.58	38.3	-41.7	---	---	723.1	0.029	0.000	16.9	91	1
03/16/17	10:50 p	-23.5	-23.4	-23.5	---	---	31.3	ESE	0.52	35.7	-41.0	---	---	722.9	0.029	0.000	16.9	91	1
03/16/17	10:51 p	-23.4	-23.4	-23.5	---	---	33.0	ESE	0.55	35.7	-41.3	---	---	723.0	0.029	0.000	16.9	91	1
03/16/17	10:52 p	-23.4	-23.4	-23.5	---	---	33.9	ESE	0.57	37.4	-41.4	---	---	723.0	0.029	0.000	16.9	91	1
03/16/17	10:53 p	-23.5	-23.4	-23.5	---	---	34.8	ESE	0.58	36.5	-41.7	---	---	723.0	0.029	0.000	16.9	92	1
03/16/17	10:54 p	-23.5	-23.5	-23.5	---	---	33.0	ESE	0.55	36.5	-41.3	---	---	723.0	0.029	0.000	16.9	92	1
03/16/17	10:55 p	-23.5	-23.4	-23.5	---	---	33.9	ESE	0.57	36.5	-41.5	---	---	723.1	0.029	0.000	16.9	91	1
03/16/17	10:56 p	-23.5	-23.4	-23.5	---	---	33.0	ESE	0.55	35.7	-41.3	---	---	723.0	0.029	0.000	16.9	92	1
03/16/17	10:57 p	-23.5	-23.4	-23.5	---	---	33.9	ESE	0.57	36.5	-41.5	---	---	722.9	0.029	0.000	16.9	91	1
03/16/17	10:58 p	-23.4	-23.4	-23.5	---	---	33.9	ESE	0.57	37.4	-41.4	---	---	723.0	0.029	0.000	16.9	91	1
03/16/17	10:59 p	-23.5	-23.5	-23.5	---	---	33.0	ESE	0.55	37.4	-41.3	---	---	722.9	0.029	0.000	16.9	91	1
03/16/17	11:00 p	-23.5	-23.4	-23.5	---	---	34.8	ESE	0.58	37.4	-41.7	---	---	723.0	0.029	0.000	16.9	91	1
03/16/17	11:01 p	-23.5	-23.4	-23.5	---	---	33.0	ESE	0.55	36.5	-41.3	---	---	723.0	0.029	0.000	16.9	91	1
03/16/17	11:02 p	-23.5	-23.4	-23.5	---	---	33.9	ESE	0.57	38.3	-41.5	---	---	722.9	0.029	0.000	16.9	91	1
03/16/17	11:03 p	-23.5	-23.4	-23.5	---	---	33.0	ESE	0.55	38.3	-41.3	---	---	723.0	0.029	0.000	16.9	91	1
03/16/17	11:04 p	-23.5	-23.5	-23.5	---	---	34.8	ESE	0.58	37.4	-41.7	---	---	722.9	0.029	0.000	16.9	91	1
03/16/17	11:05 p	-23.5	-23.5	-23.5	---	---	33.0	ESE	0.55	35.7	-41.3	---	---	723.1	0.029	0.000	16.9	91	1
03/16/17	11:06 p	-23.5	-23.5	-23.5	---	---	35.7	ESE	0.59	40.0	-41.8	---	---	723.0	0.029	0.000	16.9	91	1
03/16/17	11:07 p	-23.5	-23.4	-23.5	---	---	33.0	ESE	0.55	38.3	-41.3	---	---	723.0	0.029	0.000	16.9	91	1
03/16/17	11:08 p	-23.5	-23.5	-23.5	---	---	34.8	ESE	0.58	36.5	-41.7	---	---	723.0	0.029	0.000	16.9	91	1
03/16/17	11:09 p	-23.5	-23.5	-23.5	---	---	33.9	ESE	0.57	37.4	-41.5	---	---	722.9	0.029	0.000	16.9	91	1
03/16/17	11:10 p	-23.5	-23.5	-23.5	---	---	33.9	ESE	0.57	36.5	-41.5	---	---	722.9	0.029	0.000	16.9	91	1
03/16/17	11:11 p	-23.5	-23.5	-23.5	---	---	32.2	ESE	0.54	38.3	-41.2	---	---	722.9	0.029	0.000	16.9	91	1
03/16/17	11:12 p	-23.5	-23.5	-23.5	---	---	34.8	ESE	0.58	37.4	-41.7	---	---	723.0	0.029	0.000	16.9	91	1
03/16/17	11:13 p	-23.5	-23.5	-23.6	---	---	33.0	ESE	0.55	35.7	-41.3	---	---	722.9	0.029	0.000	16.9	91	1
03/16/17	11:14 p	-23.5	-23.5	-23.5	---	---	34.8	ESE	0.58	39.1	-41.7	---	---	722.8	0.029	0.000	16.9	91	1
03/16/17	11:15 p	-23.5	-23.5	-23.6	---	---	33.9	ESE	0.57	38.3	-41.5	---	---	722.9	0.029	0.000	16.9	91	1
03/16/17	11:16 p	-23.5	-23.5	-23.6	---	---	33.9	ESE	0.57	37.4	-41.5	---	---	722.8	0.029	0.000	16.9	91	1
03/16/17	11:17 p	-23.6	-23.5	-23.6	---	---	34.8	ESE	0.58	37.4	-41.8	---	---	722.9	0.029	0.000	16.9	91	1
03/16/17	11:18 p	-23.6	-23.5	-23.6	---	---	33.9	ESE	0.57	37.4	-41.6	---	---	722.9	0.029	0.000	16.9	91	1
03/16/17	11:19 p	-23.5	-23.5	-23.6	---	---	33.0	ESE	0.55	35.7	-41.3	---	---	722.9	0.029	0.000	16.9	91	1
03/16/17	11:20 p	-23.6	-23.6	-23.6	---	---	33.9	ESE	0.57	36.5	-41.6	---	---	722.8	0.029	0.000	16.9	92	1
03/16/17	11:21 p	-23.6	-23.5	-23.6	---	---	33.0	ESE	0.55	36.5	-41.4	---	---	722.9	0.029	0.000	16.9	91	1
03/16/17	11:22 p	-23.6	-23.6	-23.6	---	---	35.7	ESE	0.59	38.3	-41.9	---	---	722.9	0.029	0.000	16.9	91	1
03/16/17	11:23 p	-23.6	-23.6	-23.6	---	---	33.9	ESE	0.57	38.3	-41.6	---	---	722.9	0.029	0.000	16.9	91	1
03/16/17	11:24 p	-23.6	-23.6	-23.6	---	---	33.9	ESE	0.57	36.5	-41.6	---	---	722.9	0.029	0.000	16.9	92	1
03/16/17	11:25 p	-23.6	-23.6	-23.6	---	---	33.9	ESE	0.57	36.5	-41.6	---	---	722.9	0.029	0.000	16.9	92	1
03/16/17	11:26 p	-23.6	-23.6	-23.6	---	---	33.9	ESE	0.57	37.4	-41.6	---	---	722.9	0.029	0.000	16.8	91	1
03/16/17	11:27 p	-23.6	-23.6	-23.6	---	---	33.9	ESE	0.57	37.4	-41.7	---	---	722.9	0.029	0.000	16.8	91	1
03/16/17	11:28 p	-23.6	-23.6	-23.6	---	---	34.8	ESE	0.58	37.4	-41.8	---	---	722.9	0.029	0.000	16.8	91	1
03/16/17	11:29 p	-23.6	-23.6	-23.6	---	---	33.0	ESE	0.55	37.4	-41.5	---	---	722.9	0.029	0.000	16.8	91	1
03/16/17	11:30 p	-23.6	-23.6	-23.6	---	---	33.9	ESE	0.57	37.4	-41.7	---	---	722.8	0.029	0.000	16.8	92	1
03/16/17	11:31 p	-23.6	-23.6	-23.6	---	---	34.8	ESE	0.58	39.1	-41.8	---	---	722.8	0.029	0.000	16.8	92	1
03/16/17	11:32 p	-23.6	-23.6	-23.6	---	---	35.7	ESE	0.59	38.3	-42.0	---	---	723.0	0.029	0.000	16.8	91	1
03/16/17	11:33 p	-23.6	-23.6	-23.6	---	---	34.8	ESE	0.58	36.5	-41.8	---	---	723.0	0.029	0.000	16.8	91	1
03/16/17	11:34 p	-23.6	-23.6	-23.6	---	---	33.9	ESE	0.57	36.5	-41.7	---	---	722.9	0.029	0.000	16.8	91	1
03/16/17	11:35 p	-23.6	-23.6	-23.6	---	---	34.8	ESE	0.58	36.5	-41.8	---	---	722.9	0.029	0.000	16.8	91	1
03/16/17	11:36 p	-23.6	-23.6	-23.6	---	---	33.9	ESE	0.57	36.5	-41.7	---	---	723.0	0.029	0.000	16.8	90	1
03/16/17	11:37 p	-23.6	-23.6	-23.6	---	---	33.9	ESE	0.57	37.4	-41.7	---	---	723.0	0.029	0.000	16.8	91	1
03/16/17	11:38 p	-23.6	-23.6	-23.6	---	---	33.0	ESE	0.55	35.7	-41.5	---	---	723.1	0.029	0.000	16.8	90	1
03/16/17	11:39 p	-23.6	-23.6	-23.6	---	---	33.0	ESE	0.55	36.5	-41.5	---	---	723.0	0.029	0.000	16.8	91	1
03/16/17	11:40 p	-23.6	-23.6	-23.6	---	---	33.9	ESE	0.57	36.5	-41.7	---	---	723.0	0.029	0.000	16.8	91	1
03/16/17	11:41 p	-23.6	-23.6	-23.6	---	---	33.9	ESE	0.57	37.4	-41.7	---	---	723.0	0.029	0.000	16.8	91	1
03/16/17	11:42 p	-23.6	-23.6	-23.7	---	---	33.9	ESE	0.57	36.5	-41.7	---	---	723.0	0.029	0.000	16.8	91	1
03/16/17	11:43 p	-23.7	-23.6	-23.7	---	---	33.0	ESE	0.55	36.5	-41.6	---	---	722.9	0.029	0.000	16.8	90	1
03/16/17	11:44 p	-23.7	-23.6	-23.7	---	---	33.0	ESE	0.55	36.5	-41.6	---	---	723.0	0.029	0.000	16.7	91	1
03/16/17	11:45 p	-23.6	-23.6	-23.7	---	---	34.8	ESE	0.58	38.3	-41.8	---	---	722.8	0.029	0.000	16.7	90	1
03/16/17	11:46 p	-23.7	-23.6	-23.7	---	---	35.7	ESE	0.59	37.4	-42.1	---	---	722.9	0.029	0.000	16.7	89	1
03/16/17	11:47 p	-23.7	-23.7	-23.7	---	---	33.0	ESE	0.55	36.5	-41.6	---	---	722.9	0.029	0.000	16.7	91	1
03/16/17	11:48 p	-23.7	-23.6	-23.7	---	---	33.0	ESE	0.55	37.4	-41.6	---	---	722.9	0.029	0.000	16.7	91	1
03/16/17	11:49 p	-23.7	-23.6	-23.7	---	---	33.9	ESE	0.57	37.4	-41.7	---	---	723.0	0.029	0.000	16.7	91	1
03/16/17	11:50 p	-23.7	-23.6	-23.7	---	---	33.9	ESE	0.57	37.4	-41.7	---	---	722.9	0.029	0.000	16.7	91	1
03/16/17	11:51 p	-23.7	-23.7	-23.7	---	---	34.8	ESE	0.58	37.4	-41.9	---	---	723.0	0.029	0.000	16.7	91	1
03/16/17	11:52 p	-23.7	-23.6	-23.7	---	---	33.0	ESE	0.55	36.5	-41.6	---	---	722.9	0.029	0.000	16.7	91	1
03/16/17	11:53 p	-23.7	-23.6	-23.7	---	---	32.2	ESE	0.54	35.7	-41.4	---	---	722.9	0.029	0.000	16.7	91	1
03/16/17	11:54 p	-23.7	-23.7	-23.7	---	---	34.8	ESE	0.58	37.4	-41.9	---	---	722.9	0.029	0.000	16.7	91	1
03/16/17	11:55 p	-23.7	-23.7	-23.7	---	---	33.9	ESE	0.57	37.4	-41.7	---	---	722.9	0.029	0.000	16.7	91	1
03/16/17	11:56 p	-23.7	-23.7	-23.7	---	---	33.0	ESE	0.55	36.5	-41.6	---	---	722.9	0.029	0.000	16.7	91	1
03/16/17	11:57 p	-23.7	-23.7	-23.7	---	---	34.8	ESE	0.58	37.4	-41.9	---	---	722.8	0.029	0.000	16.7	90	1
03/16/17	11:58 p	-23.7	-23.7	-23.7	---	---	35.7	ESE	0.59	38.3	-42.1	---	---	722.9	0.029	0.000	16.7	90	1
03/16/17	11:59 p	-23.7	-23.7	-23.7	---	---	33.9	ESE	0.57	37.4	-41.7	---	---	722.8	0.029	0.000	16.7	90	1
03/17/17	12:00 a	-23.7	-23.7	-23.7	---	---	36.5	ESE	0.61	38.3	-42.2	---	---	722.9	0.029	0.000	16.7	90	1